<?xml version="1.0" encoding="UTF-8" standalone="no" ?>
<gpx xmlns="http://www.topografix.com/GPX/1/1" xmlns:xsi="http://www.w3.org/2001/XMLSchema-instance" xsi:schemaLocation="http://www.topografix.com/GPX/1/1 http://www.topografix.com/GPX/1/1/gpx.xsd" version="1.1" creator="VisuGPX - https://www.visugpx.com">
  <metadata>
    <name>Pont de Montvert - Finiels</name>
    <desc><![CDATA[Eté 2013 - Belle sortie sportive ! ]]></desc>
  </metadata>
  <trk>
    <name><![CDATA[pont_de_montvert]]></name>
    <trkseg>
      <trkpt lat="44.36487" lon="3.7458">
        <ele>913.870361</ele>
        <time>2013-08-05T07:36:13Z</time>
      </trkpt>
      <trkpt lat="44.36494" lon="3.7459">
        <ele>914.351074</ele>
        <time>2013-08-05T07:36:24Z</time>
      </trkpt>
      <trkpt lat="44.36495" lon="3.74591">
        <ele>910.986572</ele>
        <time>2013-08-05T07:36:25Z</time>
      </trkpt>
      <trkpt lat="44.36496" lon="3.74594">
        <ele>915.793213</ele>
        <time>2013-08-05T07:36:27Z</time>
      </trkpt>
      <trkpt lat="44.36497" lon="3.74594">
        <ele>914.831787</ele>
        <time>2013-08-05T07:36:28Z</time>
      </trkpt>
      <trkpt lat="44.36506" lon="3.746">
        <ele>914.831787</ele>
        <time>2013-08-05T07:36:37Z</time>
      </trkpt>
      <trkpt lat="44.36516" lon="3.7461">
        <ele>916.273682</ele>
        <time>2013-08-05T07:36:51Z</time>
      </trkpt>
      <trkpt lat="44.36521" lon="3.74616">
        <ele>917.235107</ele>
        <time>2013-08-05T07:36:59Z</time>
      </trkpt>
      <trkpt lat="44.36535" lon="3.74625">
        <ele>917.235107</ele>
        <time>2013-08-05T07:37:11Z</time>
      </trkpt>
      <trkpt lat="44.3654" lon="3.74631">
        <ele>919.638428</ele>
        <time>2013-08-05T07:37:22Z</time>
      </trkpt>
      <trkpt lat="44.36542" lon="3.7463">
        <ele>920.599609</ele>
        <time>2013-08-05T07:37:34Z</time>
      </trkpt>
      <trkpt lat="44.36551" lon="3.74592">
        <ele>920.118896</ele>
        <time>2013-08-05T07:37:43Z</time>
      </trkpt>
      <trkpt lat="44.36557" lon="3.74595">
        <ele>920.599609</ele>
        <time>2013-08-05T07:37:53Z</time>
      </trkpt>
      <trkpt lat="44.36557" lon="3.74595">
        <ele>922.041504</ele>
        <time>2013-08-05T07:37:56Z</time>
      </trkpt>
      <trkpt lat="44.36557" lon="3.74595">
        <ele>922.041504</ele>
        <time>2013-08-05T07:37:59Z</time>
      </trkpt>
      <trkpt lat="44.36586" lon="3.74653">
        <ele>923.00293</ele>
        <time>2013-08-05T07:38:10Z</time>
      </trkpt>
      <trkpt lat="44.36586" lon="3.74655">
        <ele>924.445068</ele>
        <time>2013-08-05T07:38:20Z</time>
      </trkpt>
      <trkpt lat="44.36591" lon="3.74659">
        <ele>926.848389</ele>
        <time>2013-08-05T07:38:28Z</time>
      </trkpt>
      <trkpt lat="44.36598" lon="3.74662">
        <ele>927.329102</ele>
        <time>2013-08-05T07:38:39Z</time>
      </trkpt>
      <trkpt lat="44.3661" lon="3.74669">
        <ele>928.290283</ele>
        <time>2013-08-05T07:38:49Z</time>
      </trkpt>
      <trkpt lat="44.3662" lon="3.74671">
        <ele>929.732178</ele>
        <time>2013-08-05T07:39:01Z</time>
      </trkpt>
      <trkpt lat="44.36628" lon="3.74673">
        <ele>932.135498</ele>
        <time>2013-08-05T07:39:10Z</time>
      </trkpt>
      <trkpt lat="44.36638" lon="3.74678">
        <ele>935.019531</ele>
        <time>2013-08-05T07:39:23Z</time>
      </trkpt>
      <trkpt lat="44.36645" lon="3.74679">
        <ele>934.538818</ele>
        <time>2013-08-05T07:39:34Z</time>
      </trkpt>
      <trkpt lat="44.36656" lon="3.74683">
        <ele>935.5</ele>
        <time>2013-08-05T07:39:47Z</time>
      </trkpt>
      <trkpt lat="44.3666" lon="3.74684">
        <ele>935.5</ele>
        <time>2013-08-05T07:40:26Z</time>
      </trkpt>
      <trkpt lat="44.3666" lon="3.74685">
        <ele>937.422607</ele>
        <time>2013-08-05T07:40:39Z</time>
      </trkpt>
      <trkpt lat="44.3666" lon="3.74684">
        <ele>932.616211</ele>
        <time>2013-08-05T07:40:41Z</time>
      </trkpt>
      <trkpt lat="44.3666" lon="3.74684">
        <ele>935.5</ele>
        <time>2013-08-05T07:40:42Z</time>
      </trkpt>
      <trkpt lat="44.3666" lon="3.74684">
        <ele>936.461426</ele>
        <time>2013-08-05T07:40:44Z</time>
      </trkpt>
      <trkpt lat="44.36663" lon="3.74683">
        <ele>936.461426</ele>
        <time>2013-08-05T07:41:04Z</time>
      </trkpt>
      <trkpt lat="44.36665" lon="3.74684">
        <ele>936.461426</ele>
        <time>2013-08-05T07:41:10Z</time>
      </trkpt>
      <trkpt lat="44.36674" lon="3.74684">
        <ele>938.864746</ele>
        <time>2013-08-05T07:41:19Z</time>
      </trkpt>
      <trkpt lat="44.36686" lon="3.74688">
        <ele>939.825928</ele>
        <time>2013-08-05T07:41:30Z</time>
      </trkpt>
      <trkpt lat="44.36697" lon="3.74695">
        <ele>943.190674</ele>
        <time>2013-08-05T07:41:39Z</time>
      </trkpt>
      <trkpt lat="44.36708" lon="3.74709">
        <ele>943.671387</ele>
        <time>2013-08-05T07:41:53Z</time>
      </trkpt>
      <trkpt lat="44.3671" lon="3.74712">
        <ele>943.671387</ele>
        <time>2013-08-05T07:41:56Z</time>
      </trkpt>
      <trkpt lat="44.36715" lon="3.74716">
        <ele>945.113281</ele>
        <time>2013-08-05T07:42:01Z</time>
      </trkpt>
      <trkpt lat="44.36719" lon="3.74725">
        <ele>946.074707</ele>
        <time>2013-08-05T07:42:12Z</time>
      </trkpt>
      <trkpt lat="44.36721" lon="3.74727">
        <ele>947.516602</ele>
        <time>2013-08-05T07:42:16Z</time>
      </trkpt>
      <trkpt lat="44.36732" lon="3.74747">
        <ele>949.439209</ele>
        <time>2013-08-05T07:42:31Z</time>
      </trkpt>
      <trkpt lat="44.36739" lon="3.74759">
        <ele>949.439209</ele>
        <time>2013-08-05T07:42:39Z</time>
      </trkpt>
      <trkpt lat="44.36749" lon="3.74789">
        <ele>951.361816</ele>
        <time>2013-08-05T07:42:57Z</time>
      </trkpt>
      <trkpt lat="44.36752" lon="3.74796">
        <ele>951.361816</ele>
        <time>2013-08-05T07:43:02Z</time>
      </trkpt>
      <trkpt lat="44.36756" lon="3.74802">
        <ele>951.842529</ele>
        <time>2013-08-05T07:43:07Z</time>
      </trkpt>
      <trkpt lat="44.36761" lon="3.74813">
        <ele>951.361816</ele>
        <time>2013-08-05T07:43:14Z</time>
      </trkpt>
      <trkpt lat="44.36774" lon="3.74827">
        <ele>953.284424</ele>
        <time>2013-08-05T07:43:25Z</time>
      </trkpt>
      <trkpt lat="44.36786" lon="3.74838">
        <ele>953.765137</ele>
        <time>2013-08-05T07:43:39Z</time>
      </trkpt>
      <trkpt lat="44.36796" lon="3.74838">
        <ele>955.687744</ele>
        <time>2013-08-05T07:43:51Z</time>
      </trkpt>
      <trkpt lat="44.36811" lon="3.74843">
        <ele>955.687744</ele>
        <time>2013-08-05T07:44:02Z</time>
      </trkpt>
      <trkpt lat="44.36823" lon="3.74849">
        <ele>956.168457</ele>
        <time>2013-08-05T07:44:12Z</time>
      </trkpt>
      <trkpt lat="44.36836" lon="3.74855">
        <ele>957.610596</ele>
        <time>2013-08-05T07:44:22Z</time>
      </trkpt>
      <trkpt lat="44.36851" lon="3.7486">
        <ele>959.05249</ele>
        <time>2013-08-05T07:44:34Z</time>
      </trkpt>
      <trkpt lat="44.36871" lon="3.74859">
        <ele>960.013672</ele>
        <time>2013-08-05T07:44:47Z</time>
      </trkpt>
      <trkpt lat="44.36878" lon="3.74862">
        <ele>961.455811</ele>
        <time>2013-08-05T07:44:52Z</time>
      </trkpt>
      <trkpt lat="44.36881" lon="3.74862">
        <ele>961.455811</ele>
        <time>2013-08-05T07:44:54Z</time>
      </trkpt>
      <trkpt lat="44.36884" lon="3.74862">
        <ele>961.936523</ele>
        <time>2013-08-05T07:44:57Z</time>
      </trkpt>
      <trkpt lat="44.36895" lon="3.74861">
        <ele>963.858887</ele>
        <time>2013-08-05T07:45:05Z</time>
      </trkpt>
      <trkpt lat="44.3691" lon="3.74859">
        <ele>963.858887</ele>
        <time>2013-08-05T07:45:18Z</time>
      </trkpt>
      <trkpt lat="44.36927" lon="3.74859">
        <ele>965.301025</ele>
        <time>2013-08-05T07:45:31Z</time>
      </trkpt>
      <trkpt lat="44.36945" lon="3.74861">
        <ele>966.74292</ele>
        <time>2013-08-05T07:45:45Z</time>
      </trkpt>
      <trkpt lat="44.36962" lon="3.74866">
        <ele>968.665527</ele>
        <time>2013-08-05T07:45:58Z</time>
      </trkpt>
      <trkpt lat="44.36978" lon="3.74874">
        <ele>968.665527</ele>
        <time>2013-08-05T07:46:12Z</time>
      </trkpt>
      <trkpt lat="44.36989" lon="3.74877">
        <ele>968.665527</ele>
        <time>2013-08-05T07:46:23Z</time>
      </trkpt>
      <trkpt lat="44.36998" lon="3.74884">
        <ele>969.14624</ele>
        <time>2013-08-05T07:46:29Z</time>
      </trkpt>
      <trkpt lat="44.37001" lon="3.74886">
        <ele>969.14624</ele>
        <time>2013-08-05T07:46:32Z</time>
      </trkpt>
      <trkpt lat="44.37018" lon="3.74897">
        <ele>970.588135</ele>
        <time>2013-08-05T07:46:47Z</time>
      </trkpt>
      <trkpt lat="44.37028" lon="3.74906">
        <ele>972.991699</ele>
        <time>2013-08-05T07:46:55Z</time>
      </trkpt>
      <trkpt lat="44.37035" lon="3.74917">
        <ele>973.952881</ele>
        <time>2013-08-05T07:47:05Z</time>
      </trkpt>
      <trkpt lat="44.37044" lon="3.74916">
        <ele>973.472412</ele>
        <time>2013-08-05T07:47:24Z</time>
      </trkpt>
      <trkpt lat="44.37046" lon="3.74916">
        <ele>973.472412</ele>
        <time>2013-08-05T07:47:32Z</time>
      </trkpt>
      <trkpt lat="44.37046" lon="3.74922">
        <ele>974.433594</ele>
        <time>2013-08-05T07:47:36Z</time>
      </trkpt>
      <trkpt lat="44.37052" lon="3.7494">
        <ele>974.433594</ele>
        <time>2013-08-05T07:47:47Z</time>
      </trkpt>
      <trkpt lat="44.37053" lon="3.74945">
        <ele>974.914307</ele>
        <time>2013-08-05T07:47:50Z</time>
      </trkpt>
      <trkpt lat="44.37061" lon="3.74961">
        <ele>978.759521</ele>
        <time>2013-08-05T07:48:01Z</time>
      </trkpt>
      <trkpt lat="44.37061" lon="3.74962">
        <ele>977.798096</ele>
        <time>2013-08-05T07:48:02Z</time>
      </trkpt>
      <trkpt lat="44.37078" lon="3.74974">
        <ele>977.798096</ele>
        <time>2013-08-05T07:48:16Z</time>
      </trkpt>
      <trkpt lat="44.37082" lon="3.74975">
        <ele>978.278809</ele>
        <time>2013-08-05T07:48:19Z</time>
      </trkpt>
      <trkpt lat="44.37095" lon="3.74983">
        <ele>978.759521</ele>
        <time>2013-08-05T07:48:29Z</time>
      </trkpt>
      <trkpt lat="44.37102" lon="3.74984">
        <ele>978.759521</ele>
        <time>2013-08-05T07:48:39Z</time>
      </trkpt>
      <trkpt lat="44.37103" lon="3.74984">
        <ele>979.720703</ele>
        <time>2013-08-05T07:48:40Z</time>
      </trkpt>
      <trkpt lat="44.37121" lon="3.75005">
        <ele>979.720703</ele>
        <time>2013-08-05T07:48:53Z</time>
      </trkpt>
      <trkpt lat="44.37131" lon="3.75024">
        <ele>981.162842</ele>
        <time>2013-08-05T07:49:05Z</time>
      </trkpt>
      <trkpt lat="44.37143" lon="3.75041">
        <ele>982.604736</ele>
        <time>2013-08-05T07:49:17Z</time>
      </trkpt>
      <trkpt lat="44.37158" lon="3.75055">
        <ele>982.604736</ele>
        <time>2013-08-05T07:49:32Z</time>
      </trkpt>
      <trkpt lat="44.37165" lon="3.75062">
        <ele>984.527344</ele>
        <time>2013-08-05T07:49:43Z</time>
      </trkpt>
      <trkpt lat="44.37184" lon="3.75072">
        <ele>984.527344</ele>
        <time>2013-08-05T07:49:57Z</time>
      </trkpt>
      <trkpt lat="44.37189" lon="3.75077">
        <ele>985.969238</ele>
        <time>2013-08-05T07:50:03Z</time>
      </trkpt>
      <trkpt lat="44.3719" lon="3.75078">
        <ele>985.008057</ele>
        <time>2013-08-05T07:50:04Z</time>
      </trkpt>
      <trkpt lat="44.37202" lon="3.75088">
        <ele>988.372803</ele>
        <time>2013-08-05T07:50:14Z</time>
      </trkpt>
      <trkpt lat="44.37204" lon="3.7509">
        <ele>989.333984</ele>
        <time>2013-08-05T07:50:16Z</time>
      </trkpt>
      <trkpt lat="44.37215" lon="3.75095">
        <ele>989.814697</ele>
        <time>2013-08-05T07:50:27Z</time>
      </trkpt>
      <trkpt lat="44.37228" lon="3.75097">
        <ele>989.333984</ele>
        <time>2013-08-05T07:50:38Z</time>
      </trkpt>
      <trkpt lat="44.3724" lon="3.751">
        <ele>989.814697</ele>
        <time>2013-08-05T07:50:50Z</time>
      </trkpt>
      <trkpt lat="44.37253" lon="3.75102">
        <ele>990.775879</ele>
        <time>2013-08-05T07:50:59Z</time>
      </trkpt>
      <trkpt lat="44.37259" lon="3.75104">
        <ele>992.218018</ele>
        <time>2013-08-05T07:51:04Z</time>
      </trkpt>
      <trkpt lat="44.37264" lon="3.75104">
        <ele>991.737305</ele>
        <time>2013-08-05T07:51:08Z</time>
      </trkpt>
      <trkpt lat="44.37281" lon="3.75107">
        <ele>993.179199</ele>
        <time>2013-08-05T07:51:19Z</time>
      </trkpt>
      <trkpt lat="44.37286" lon="3.75108">
        <ele>994.140625</ele>
        <time>2013-08-05T07:51:22Z</time>
      </trkpt>
      <trkpt lat="44.37288" lon="3.75108">
        <ele>993.659912</ele>
        <time>2013-08-05T07:51:24Z</time>
      </trkpt>
      <trkpt lat="44.37301" lon="3.75107">
        <ele>994.140625</ele>
        <time>2013-08-05T07:51:32Z</time>
      </trkpt>
      <trkpt lat="44.37305" lon="3.7511">
        <ele>995.58252</ele>
        <time>2013-08-05T07:51:35Z</time>
      </trkpt>
      <trkpt lat="44.37324" lon="3.75115">
        <ele>996.063232</ele>
        <time>2013-08-05T07:51:50Z</time>
      </trkpt>
      <trkpt lat="44.37337" lon="3.75117">
        <ele>997.024414</ele>
        <time>2013-08-05T07:52:01Z</time>
      </trkpt>
      <trkpt lat="44.37353" lon="3.75122">
        <ele>997.505127</ele>
        <time>2013-08-05T07:52:15Z</time>
      </trkpt>
      <trkpt lat="44.37363" lon="3.75124">
        <ele>998.947021</ele>
        <time>2013-08-05T07:52:23Z</time>
      </trkpt>
      <trkpt lat="44.37379" lon="3.75124">
        <ele>1000.38916</ele>
        <time>2013-08-05T07:52:34Z</time>
      </trkpt>
      <trkpt lat="44.37398" lon="3.75127">
        <ele>1001.831055</ele>
        <time>2013-08-05T07:52:50Z</time>
      </trkpt>
      <trkpt lat="44.37413" lon="3.75131">
        <ele>1002.311523</ele>
        <time>2013-08-05T07:53:01Z</time>
      </trkpt>
      <trkpt lat="44.37431" lon="3.7514">
        <ele>1004.715088</ele>
        <time>2013-08-05T07:53:15Z</time>
      </trkpt>
      <trkpt lat="44.37449" lon="3.75149">
        <ele>1003.753662</ele>
        <time>2013-08-05T07:53:31Z</time>
      </trkpt>
      <trkpt lat="44.37457" lon="3.75148">
        <ele>1005.676514</ele>
        <time>2013-08-05T07:53:37Z</time>
      </trkpt>
      <trkpt lat="44.3748" lon="3.75145">
        <ele>1007.599121</ele>
        <time>2013-08-05T07:53:55Z</time>
      </trkpt>
      <trkpt lat="44.37497" lon="3.75144">
        <ele>1008.079834</ele>
        <time>2013-08-05T07:54:09Z</time>
      </trkpt>
      <trkpt lat="44.37509" lon="3.75147">
        <ele>1009.521729</ele>
        <time>2013-08-05T07:54:18Z</time>
      </trkpt>
      <trkpt lat="44.37517" lon="3.75153">
        <ele>1010.963623</ele>
        <time>2013-08-05T07:54:24Z</time>
      </trkpt>
      <trkpt lat="44.37535" lon="3.75165">
        <ele>1013.366943</ele>
        <time>2013-08-05T07:54:39Z</time>
      </trkpt>
      <trkpt lat="44.37545" lon="3.75171">
        <ele>1013.366943</ele>
        <time>2013-08-05T07:54:51Z</time>
      </trkpt>
      <trkpt lat="44.37557" lon="3.75177">
        <ele>1012.88623</ele>
        <time>2013-08-05T07:55:00Z</time>
      </trkpt>
      <trkpt lat="44.37571" lon="3.75184">
        <ele>1013.847412</ele>
        <time>2013-08-05T07:55:10Z</time>
      </trkpt>
      <trkpt lat="44.37579" lon="3.75189">
        <ele>1015.289551</ele>
        <time>2013-08-05T07:55:15Z</time>
      </trkpt>
      <trkpt lat="44.37583" lon="3.75191">
        <ele>1015.770264</ele>
        <time>2013-08-05T07:55:18Z</time>
      </trkpt>
      <trkpt lat="44.37596" lon="3.75193">
        <ele>1016.731445</ele>
        <time>2013-08-05T07:55:29Z</time>
      </trkpt>
      <trkpt lat="44.37609" lon="3.75196">
        <ele>1017.692627</ele>
        <time>2013-08-05T07:55:38Z</time>
      </trkpt>
      <trkpt lat="44.37611" lon="3.75196">
        <ele>1018.17334</ele>
        <time>2013-08-05T07:55:40Z</time>
      </trkpt>
      <trkpt lat="44.37625" lon="3.75199">
        <ele>1019.134766</ele>
        <time>2013-08-05T07:55:53Z</time>
      </trkpt>
      <trkpt lat="44.37642" lon="3.75202">
        <ele>1020.096191</ele>
        <time>2013-08-05T07:56:07Z</time>
      </trkpt>
      <trkpt lat="44.37657" lon="3.75202">
        <ele>1021.057617</ele>
        <time>2013-08-05T07:56:19Z</time>
      </trkpt>
      <trkpt lat="44.37662" lon="3.75203">
        <ele>1022.499512</ele>
        <time>2013-08-05T07:56:23Z</time>
      </trkpt>
      <trkpt lat="44.37664" lon="3.75204">
        <ele>1022.980225</ele>
        <time>2013-08-05T07:56:25Z</time>
      </trkpt>
      <trkpt lat="44.37679" lon="3.75203">
        <ele>1023.941406</ele>
        <time>2013-08-05T07:56:33Z</time>
      </trkpt>
      <trkpt lat="44.37698" lon="3.75202">
        <ele>1024.422119</ele>
        <time>2013-08-05T07:56:47Z</time>
      </trkpt>
      <trkpt lat="44.37712" lon="3.75201">
        <ele>1025.383301</ele>
        <time>2013-08-05T07:56:59Z</time>
      </trkpt>
      <trkpt lat="44.37718" lon="3.75201">
        <ele>1025.864014</ele>
        <time>2013-08-05T07:57:03Z</time>
      </trkpt>
      <trkpt lat="44.37729" lon="3.75199">
        <ele>1025.383301</ele>
        <time>2013-08-05T07:57:16Z</time>
      </trkpt>
      <trkpt lat="44.3773" lon="3.75197">
        <ele>1026.825439</ele>
        <time>2013-08-05T07:57:34Z</time>
      </trkpt>
      <trkpt lat="44.37733" lon="3.75201">
        <ele>1026.825439</ele>
        <time>2013-08-05T07:57:38Z</time>
      </trkpt>
      <trkpt lat="44.37739" lon="3.75201">
        <ele>1026.825439</ele>
        <time>2013-08-05T07:57:44Z</time>
      </trkpt>
      <trkpt lat="44.37747" lon="3.75201">
        <ele>1026.825439</ele>
        <time>2013-08-05T07:57:50Z</time>
      </trkpt>
      <trkpt lat="44.37764" lon="3.75205">
        <ele>1027.786621</ele>
        <time>2013-08-05T07:58:03Z</time>
      </trkpt>
      <trkpt lat="44.37767" lon="3.75205">
        <ele>1027.786621</ele>
        <time>2013-08-05T07:58:05Z</time>
      </trkpt>
      <trkpt lat="44.37788" lon="3.7521">
        <ele>1029.709229</ele>
        <time>2013-08-05T07:58:22Z</time>
      </trkpt>
      <trkpt lat="44.37804" lon="3.75216">
        <ele>1030.189941</ele>
        <time>2013-08-05T07:58:36Z</time>
      </trkpt>
      <trkpt lat="44.37807" lon="3.75218">
        <ele>1030.670654</ele>
        <time>2013-08-05T07:58:39Z</time>
      </trkpt>
      <trkpt lat="44.37813" lon="3.75221">
        <ele>1030.670654</ele>
        <time>2013-08-05T07:58:43Z</time>
      </trkpt>
      <trkpt lat="44.37832" lon="3.75228">
        <ele>1031.151367</ele>
        <time>2013-08-05T07:58:58Z</time>
      </trkpt>
      <trkpt lat="44.37849" lon="3.75232">
        <ele>1032.593262</ele>
        <time>2013-08-05T07:59:12Z</time>
      </trkpt>
      <trkpt lat="44.37867" lon="3.75229">
        <ele>1033.07373</ele>
        <time>2013-08-05T07:59:25Z</time>
      </trkpt>
      <trkpt lat="44.37868" lon="3.75229">
        <ele>1032.593262</ele>
        <time>2013-08-05T07:59:26Z</time>
      </trkpt>
      <trkpt lat="44.37889" lon="3.75226">
        <ele>1034.515869</ele>
        <time>2013-08-05T07:59:41Z</time>
      </trkpt>
      <trkpt lat="44.37904" lon="3.75227">
        <ele>1036.438721</ele>
        <time>2013-08-05T07:59:55Z</time>
      </trkpt>
      <trkpt lat="44.3792" lon="3.75226">
        <ele>1035.477051</ele>
        <time>2013-08-05T08:00:09Z</time>
      </trkpt>
      <trkpt lat="44.37921" lon="3.75225">
        <ele>1035.957764</ele>
        <time>2013-08-05T08:00:23Z</time>
      </trkpt>
      <trkpt lat="44.3792" lon="3.75223">
        <ele>1035.957764</ele>
        <time>2013-08-05T08:00:41Z</time>
      </trkpt>
      <trkpt lat="44.37921" lon="3.75224">
        <ele>1037.880615</ele>
        <time>2013-08-05T08:00:48Z</time>
      </trkpt>
      <trkpt lat="44.37922" lon="3.75224">
        <ele>1036.919189</ele>
        <time>2013-08-05T08:00:49Z</time>
      </trkpt>
      <trkpt lat="44.37936" lon="3.75228">
        <ele>1039.32251</ele>
        <time>2013-08-05T08:01:01Z</time>
      </trkpt>
      <trkpt lat="44.37961" lon="3.75236">
        <ele>1040.764404</ele>
        <time>2013-08-05T08:01:20Z</time>
      </trkpt>
      <trkpt lat="44.37978" lon="3.75243">
        <ele>1040.764404</ele>
        <time>2013-08-05T08:01:35Z</time>
      </trkpt>
      <trkpt lat="44.37993" lon="3.75245">
        <ele>1039.32251</ele>
        <time>2013-08-05T08:01:52Z</time>
      </trkpt>
      <trkpt lat="44.37993" lon="3.75245">
        <ele>1040.283936</ele>
        <time>2013-08-05T08:02:06Z</time>
      </trkpt>
      <trkpt lat="44.37994" lon="3.75246">
        <ele>1041.72583</ele>
        <time>2013-08-05T08:02:13Z</time>
      </trkpt>
      <trkpt lat="44.37997" lon="3.75248">
        <ele>1040.764404</ele>
        <time>2013-08-05T08:02:30Z</time>
      </trkpt>
      <trkpt lat="44.38" lon="3.75249">
        <ele>1039.803223</ele>
        <time>2013-08-05T08:02:37Z</time>
      </trkpt>
      <trkpt lat="44.38003" lon="3.75249">
        <ele>1038.361328</ele>
        <time>2013-08-05T08:02:40Z</time>
      </trkpt>
      <trkpt lat="44.3801" lon="3.75246">
        <ele>1037.399902</ele>
        <time>2013-08-05T08:02:46Z</time>
      </trkpt>
      <trkpt lat="44.38017" lon="3.75244">
        <ele>1035.477051</ele>
        <time>2013-08-05T08:02:53Z</time>
      </trkpt>
      <trkpt lat="44.38022" lon="3.75242">
        <ele>1033.554443</ele>
        <time>2013-08-05T08:02:56Z</time>
      </trkpt>
      <trkpt lat="44.38033" lon="3.75235">
        <ele>1030.189941</ele>
        <time>2013-08-05T08:03:11Z</time>
      </trkpt>
      <trkpt lat="44.38033" lon="3.75233">
        <ele>1029.228516</ele>
        <time>2013-08-05T08:03:13Z</time>
      </trkpt>
      <trkpt lat="44.38032" lon="3.75228">
        <ele>1027.306152</ele>
        <time>2013-08-05T08:03:19Z</time>
      </trkpt>
      <trkpt lat="44.38038" lon="3.75225">
        <ele>1025.864014</ele>
        <time>2013-08-05T08:03:28Z</time>
      </trkpt>
      <trkpt lat="44.3804" lon="3.75217">
        <ele>1024.422119</ele>
        <time>2013-08-05T08:03:43Z</time>
      </trkpt>
      <trkpt lat="44.38024" lon="3.7521">
        <ele>1023.941406</ele>
        <time>2013-08-05T08:03:56Z</time>
      </trkpt>
      <trkpt lat="44.38022" lon="3.75207">
        <ele>1024.422119</ele>
        <time>2013-08-05T08:04:08Z</time>
      </trkpt>
      <trkpt lat="44.38026" lon="3.75207">
        <ele>1024.422119</ele>
        <time>2013-08-05T08:04:17Z</time>
      </trkpt>
      <trkpt lat="44.38035" lon="3.75205">
        <ele>1021.538086</ele>
        <time>2013-08-05T08:04:24Z</time>
      </trkpt>
      <trkpt lat="44.38049" lon="3.75199">
        <ele>1020.096191</ele>
        <time>2013-08-05T08:04:36Z</time>
      </trkpt>
      <trkpt lat="44.38059" lon="3.75195">
        <ele>1020.096191</ele>
        <time>2013-08-05T08:04:47Z</time>
      </trkpt>
      <trkpt lat="44.38062" lon="3.75197">
        <ele>1020.576904</ele>
        <time>2013-08-05T08:04:50Z</time>
      </trkpt>
      <trkpt lat="44.38064" lon="3.75198">
        <ele>1016.731445</ele>
        <time>2013-08-05T08:04:54Z</time>
      </trkpt>
      <trkpt lat="44.38064" lon="3.75199">
        <ele>1027.306152</ele>
        <time>2013-08-05T08:04:56Z</time>
      </trkpt>
      <trkpt lat="44.38064" lon="3.752">
        <ele>1021.057617</ele>
        <time>2013-08-05T08:04:57Z</time>
      </trkpt>
      <trkpt lat="44.38064" lon="3.75202">
        <ele>1024.422119</ele>
        <time>2013-08-05T08:04:58Z</time>
      </trkpt>
      <trkpt lat="44.38063" lon="3.752">
        <ele>1021.057617</ele>
        <time>2013-08-05T08:05:02Z</time>
      </trkpt>
      <trkpt lat="44.38075" lon="3.75203">
        <ele>1022.018799</ele>
        <time>2013-08-05T08:05:16Z</time>
      </trkpt>
      <trkpt lat="44.3809" lon="3.75206">
        <ele>1024.422119</ele>
        <time>2013-08-05T08:05:29Z</time>
      </trkpt>
      <trkpt lat="44.38104" lon="3.75213">
        <ele>1023.460938</ele>
        <time>2013-08-05T08:05:42Z</time>
      </trkpt>
      <trkpt lat="44.38113" lon="3.75215">
        <ele>1023.941406</ele>
        <time>2013-08-05T08:05:51Z</time>
      </trkpt>
      <trkpt lat="44.38117" lon="3.75216">
        <ele>1024.422119</ele>
        <time>2013-08-05T08:05:54Z</time>
      </trkpt>
      <trkpt lat="44.38128" lon="3.75215">
        <ele>1024.422119</ele>
        <time>2013-08-05T08:06:04Z</time>
      </trkpt>
      <trkpt lat="44.38132" lon="3.75215">
        <ele>1024.422119</ele>
        <time>2013-08-05T08:06:07Z</time>
      </trkpt>
      <trkpt lat="44.38142" lon="3.75216">
        <ele>1024.902832</ele>
        <time>2013-08-05T08:06:14Z</time>
      </trkpt>
      <trkpt lat="44.38153" lon="3.75218">
        <ele>1024.422119</ele>
        <time>2013-08-05T08:06:24Z</time>
      </trkpt>
      <trkpt lat="44.38164" lon="3.75219">
        <ele>1025.864014</ele>
        <time>2013-08-05T08:06:32Z</time>
      </trkpt>
      <trkpt lat="44.3818" lon="3.75216">
        <ele>1024.902832</ele>
        <time>2013-08-05T08:06:43Z</time>
      </trkpt>
      <trkpt lat="44.38188" lon="3.75218">
        <ele>1025.864014</ele>
        <time>2013-08-05T08:06:50Z</time>
      </trkpt>
      <trkpt lat="44.38197" lon="3.75219">
        <ele>1024.902832</ele>
        <time>2013-08-05T08:06:59Z</time>
      </trkpt>
      <trkpt lat="44.38214" lon="3.75221">
        <ele>1025.383301</ele>
        <time>2013-08-05T08:07:12Z</time>
      </trkpt>
      <trkpt lat="44.3822" lon="3.75214">
        <ele>1025.383301</ele>
        <time>2013-08-05T08:07:23Z</time>
      </trkpt>
      <trkpt lat="44.38223" lon="3.75214">
        <ele>1025.864014</ele>
        <time>2013-08-05T08:07:25Z</time>
      </trkpt>
      <trkpt lat="44.38226" lon="3.75213">
        <ele>1025.864014</ele>
        <time>2013-08-05T08:07:27Z</time>
      </trkpt>
      <trkpt lat="44.38243" lon="3.75212">
        <ele>1026.825439</ele>
        <time>2013-08-05T08:07:40Z</time>
      </trkpt>
      <trkpt lat="44.38253" lon="3.75211">
        <ele>1027.306152</ele>
        <time>2013-08-05T08:07:50Z</time>
      </trkpt>
      <trkpt lat="44.38268" lon="3.75212">
        <ele>1027.786621</ele>
        <time>2013-08-05T08:08:02Z</time>
      </trkpt>
      <trkpt lat="44.38283" lon="3.75212">
        <ele>1028.267334</ele>
        <time>2013-08-05T08:08:14Z</time>
      </trkpt>
      <trkpt lat="44.38286" lon="3.7521">
        <ele>1027.786621</ele>
        <time>2013-08-05T08:08:17Z</time>
      </trkpt>
      <trkpt lat="44.38287" lon="3.75207">
        <ele>1028.267334</ele>
        <time>2013-08-05T08:08:19Z</time>
      </trkpt>
      <trkpt lat="44.38296" lon="3.752">
        <ele>1026.344727</ele>
        <time>2013-08-05T08:08:30Z</time>
      </trkpt>
      <trkpt lat="44.38305" lon="3.75198">
        <ele>1027.306152</ele>
        <time>2013-08-05T08:08:38Z</time>
      </trkpt>
      <trkpt lat="44.38319" lon="3.75195">
        <ele>1026.825439</ele>
        <time>2013-08-05T08:08:51Z</time>
      </trkpt>
      <trkpt lat="44.38327" lon="3.75189">
        <ele>1025.864014</ele>
        <time>2013-08-05T08:09:02Z</time>
      </trkpt>
      <trkpt lat="44.38334" lon="3.75183">
        <ele>1027.786621</ele>
        <time>2013-08-05T08:09:14Z</time>
      </trkpt>
      <trkpt lat="44.38336" lon="3.75178">
        <ele>1027.786621</ele>
        <time>2013-08-05T08:09:30Z</time>
      </trkpt>
      <trkpt lat="44.38335" lon="3.75167">
        <ele>1027.306152</ele>
        <time>2013-08-05T08:09:45Z</time>
      </trkpt>
      <trkpt lat="44.38342" lon="3.75154">
        <ele>1026.344727</ele>
        <time>2013-08-05T08:09:58Z</time>
      </trkpt>
      <trkpt lat="44.38352" lon="3.75146">
        <ele>1027.786621</ele>
        <time>2013-08-05T08:10:09Z</time>
      </trkpt>
      <trkpt lat="44.38359" lon="3.75142">
        <ele>1028.267334</ele>
        <time>2013-08-05T08:10:14Z</time>
      </trkpt>
      <trkpt lat="44.38362" lon="3.75139">
        <ele>1027.786621</ele>
        <time>2013-08-05T08:10:16Z</time>
      </trkpt>
      <trkpt lat="44.38366" lon="3.75138">
        <ele>1028.267334</ele>
        <time>2013-08-05T08:10:22Z</time>
      </trkpt>
      <trkpt lat="44.38373" lon="3.75133">
        <ele>1027.786621</ele>
        <time>2013-08-05T08:10:31Z</time>
      </trkpt>
      <trkpt lat="44.38383" lon="3.7513">
        <ele>1027.786621</ele>
        <time>2013-08-05T08:10:44Z</time>
      </trkpt>
      <trkpt lat="44.38375" lon="3.75128">
        <ele>1026.344727</ele>
        <time>2013-08-05T08:11:02Z</time>
      </trkpt>
      <trkpt lat="44.38376" lon="3.7512">
        <ele>1028.267334</ele>
        <time>2013-08-05T08:11:17Z</time>
      </trkpt>
      <trkpt lat="44.38383" lon="3.75125">
        <ele>1027.306152</ele>
        <time>2013-08-05T08:11:37Z</time>
      </trkpt>
      <trkpt lat="44.38383" lon="3.75125">
        <ele>1028.748047</ele>
        <time>2013-08-05T08:11:51Z</time>
      </trkpt>
      <trkpt lat="44.3838" lon="3.75114">
        <ele>1029.228516</ele>
        <time>2013-08-05T08:11:58Z</time>
      </trkpt>
      <trkpt lat="44.38374" lon="3.75097">
        <ele>1029.709229</ele>
        <time>2013-08-05T08:12:11Z</time>
      </trkpt>
      <trkpt lat="44.38373" lon="3.75097">
        <ele>1030.189941</ele>
        <time>2013-08-05T08:12:12Z</time>
      </trkpt>
      <trkpt lat="44.38373" lon="3.75098">
        <ele>1031.631836</ele>
        <time>2013-08-05T08:12:16Z</time>
      </trkpt>
      <trkpt lat="44.38369" lon="3.75093">
        <ele>1031.631836</ele>
        <time>2013-08-05T08:12:49Z</time>
      </trkpt>
      <trkpt lat="44.38355" lon="3.75099">
        <ele>1034.996582</ele>
        <time>2013-08-05T08:13:00Z</time>
      </trkpt>
      <trkpt lat="44.38351" lon="3.75099">
        <ele>1035.477051</ele>
        <time>2013-08-05T08:13:04Z</time>
      </trkpt>
      <trkpt lat="44.38345" lon="3.75092">
        <ele>1036.919189</ele>
        <time>2013-08-05T08:13:12Z</time>
      </trkpt>
      <trkpt lat="44.38328" lon="3.75087">
        <ele>1036.919189</ele>
        <time>2013-08-05T08:13:24Z</time>
      </trkpt>
      <trkpt lat="44.38333" lon="3.7508">
        <ele>1038.842041</ele>
        <time>2013-08-05T08:13:33Z</time>
      </trkpt>
      <trkpt lat="44.38342" lon="3.75071">
        <ele>1040.283936</ele>
        <time>2013-08-05T08:13:44Z</time>
      </trkpt>
      <trkpt lat="44.38335" lon="3.75066">
        <ele>1041.72583</ele>
        <time>2013-08-05T08:13:53Z</time>
      </trkpt>
      <trkpt lat="44.38332" lon="3.75061">
        <ele>1044.609619</ele>
        <time>2013-08-05T08:14:02Z</time>
      </trkpt>
      <trkpt lat="44.38342" lon="3.75058">
        <ele>1045.090332</ele>
        <time>2013-08-05T08:14:15Z</time>
      </trkpt>
      <trkpt lat="44.38342" lon="3.75051">
        <ele>1045.571045</ele>
        <time>2013-08-05T08:14:45Z</time>
      </trkpt>
      <trkpt lat="44.38349" lon="3.75042">
        <ele>1047.012939</ele>
        <time>2013-08-05T08:14:55Z</time>
      </trkpt>
      <trkpt lat="44.38355" lon="3.75037">
        <ele>1047.012939</ele>
        <time>2013-08-05T08:15:04Z</time>
      </trkpt>
      <trkpt lat="44.38363" lon="3.75034">
        <ele>1048.935547</ele>
        <time>2013-08-05T08:15:13Z</time>
      </trkpt>
      <trkpt lat="44.38369" lon="3.75032">
        <ele>1052.300293</ele>
        <time>2013-08-05T08:15:20Z</time>
      </trkpt>
      <trkpt lat="44.38375" lon="3.7503">
        <ele>1052.300293</ele>
        <time>2013-08-05T08:15:29Z</time>
      </trkpt>
      <trkpt lat="44.38376" lon="3.75031">
        <ele>1052.300293</ele>
        <time>2013-08-05T08:15:30Z</time>
      </trkpt>
      <trkpt lat="44.38385" lon="3.75026">
        <ele>1053.261719</ele>
        <time>2013-08-05T08:15:39Z</time>
      </trkpt>
      <trkpt lat="44.38392" lon="3.75028">
        <ele>1053.742432</ele>
        <time>2013-08-05T08:15:46Z</time>
      </trkpt>
      <trkpt lat="44.38399" lon="3.7503">
        <ele>1052.781006</ele>
        <time>2013-08-05T08:15:53Z</time>
      </trkpt>
      <trkpt lat="44.38412" lon="3.75027">
        <ele>1053.742432</ele>
        <time>2013-08-05T08:16:03Z</time>
      </trkpt>
      <trkpt lat="44.38425" lon="3.75025">
        <ele>1053.742432</ele>
        <time>2013-08-05T08:16:13Z</time>
      </trkpt>
      <trkpt lat="44.38435" lon="3.7502">
        <ele>1053.261719</ele>
        <time>2013-08-05T08:16:22Z</time>
      </trkpt>
      <trkpt lat="44.38437" lon="3.7502">
        <ele>1053.742432</ele>
        <time>2013-08-05T08:16:24Z</time>
      </trkpt>
      <trkpt lat="44.38443" lon="3.75018">
        <ele>1053.261719</ele>
        <time>2013-08-05T08:16:29Z</time>
      </trkpt>
      <trkpt lat="44.38453" lon="3.75017">
        <ele>1053.261719</ele>
        <time>2013-08-05T08:16:39Z</time>
      </trkpt>
      <trkpt lat="44.38457" lon="3.75017">
        <ele>1053.742432</ele>
        <time>2013-08-05T08:16:44Z</time>
      </trkpt>
      <trkpt lat="44.38469" lon="3.75017">
        <ele>1053.742432</ele>
        <time>2013-08-05T08:16:56Z</time>
      </trkpt>
      <trkpt lat="44.3848" lon="3.75019">
        <ele>1054.703613</ele>
        <time>2013-08-05T08:17:08Z</time>
      </trkpt>
      <trkpt lat="44.38481" lon="3.75019">
        <ele>1054.703613</ele>
        <time>2013-08-05T08:17:09Z</time>
      </trkpt>
      <trkpt lat="44.38493" lon="3.75018">
        <ele>1057.106934</ele>
        <time>2013-08-05T08:17:20Z</time>
      </trkpt>
      <trkpt lat="44.38495" lon="3.75018">
        <ele>1057.106934</ele>
        <time>2013-08-05T08:17:22Z</time>
      </trkpt>
      <trkpt lat="44.38505" lon="3.75014">
        <ele>1058.068359</ele>
        <time>2013-08-05T08:17:33Z</time>
      </trkpt>
      <trkpt lat="44.38514" lon="3.75012">
        <ele>1058.548828</ele>
        <time>2013-08-05T08:17:43Z</time>
      </trkpt>
      <trkpt lat="44.38525" lon="3.75009">
        <ele>1058.068359</ele>
        <time>2013-08-05T08:17:53Z</time>
      </trkpt>
      <trkpt lat="44.38536" lon="3.75007">
        <ele>1057.106934</ele>
        <time>2013-08-05T08:18:06Z</time>
      </trkpt>
      <trkpt lat="44.38537" lon="3.75006">
        <ele>1057.106934</ele>
        <time>2013-08-05T08:18:07Z</time>
      </trkpt>
      <trkpt lat="44.38544" lon="3.75012">
        <ele>1057.587646</ele>
        <time>2013-08-05T08:18:17Z</time>
      </trkpt>
      <trkpt lat="44.38556" lon="3.75014">
        <ele>1058.068359</ele>
        <time>2013-08-05T08:18:29Z</time>
      </trkpt>
      <trkpt lat="44.38568" lon="3.75003">
        <ele>1059.990723</ele>
        <time>2013-08-05T08:18:40Z</time>
      </trkpt>
      <trkpt lat="44.38576" lon="3.74994">
        <ele>1059.510254</ele>
        <time>2013-08-05T08:18:50Z</time>
      </trkpt>
      <trkpt lat="44.38576" lon="3.74993">
        <ele>1058.068359</ele>
        <time>2013-08-05T08:18:52Z</time>
      </trkpt>
      <trkpt lat="44.38582" lon="3.74987">
        <ele>1059.029541</ele>
        <time>2013-08-05T08:18:59Z</time>
      </trkpt>
      <trkpt lat="44.38586" lon="3.74986">
        <ele>1059.029541</ele>
        <time>2013-08-05T08:19:03Z</time>
      </trkpt>
      <trkpt lat="44.38594" lon="3.74975">
        <ele>1060.471436</ele>
        <time>2013-08-05T08:19:15Z</time>
      </trkpt>
      <trkpt lat="44.38608" lon="3.74965">
        <ele>1060.952148</ele>
        <time>2013-08-05T08:19:33Z</time>
      </trkpt>
      <trkpt lat="44.38613" lon="3.74963">
        <ele>1061.432861</ele>
        <time>2013-08-05T08:19:41Z</time>
      </trkpt>
      <trkpt lat="44.38623" lon="3.74957">
        <ele>1061.432861</ele>
        <time>2013-08-05T08:19:53Z</time>
      </trkpt>
      <trkpt lat="44.38636" lon="3.74947">
        <ele>1061.432861</ele>
        <time>2013-08-05T08:20:07Z</time>
      </trkpt>
      <trkpt lat="44.38637" lon="3.74947">
        <ele>1061.432861</ele>
        <time>2013-08-05T08:20:08Z</time>
      </trkpt>
      <trkpt lat="44.38643" lon="3.74945">
        <ele>1063.835938</ele>
        <time>2013-08-05T08:20:13Z</time>
      </trkpt>
      <trkpt lat="44.38644" lon="3.74944">
        <ele>1064.31665</ele>
        <time>2013-08-05T08:20:14Z</time>
      </trkpt>
      <trkpt lat="44.38647" lon="3.74946">
        <ele>1062.874756</ele>
        <time>2013-08-05T08:20:19Z</time>
      </trkpt>
      <trkpt lat="44.3865" lon="3.74947">
        <ele>1062.394043</ele>
        <time>2013-08-05T08:20:23Z</time>
      </trkpt>
      <trkpt lat="44.38653" lon="3.74948">
        <ele>1063.835938</ele>
        <time>2013-08-05T08:20:26Z</time>
      </trkpt>
      <trkpt lat="44.38654" lon="3.74948">
        <ele>1060.471436</ele>
        <time>2013-08-05T08:20:27Z</time>
      </trkpt>
      <trkpt lat="44.38655" lon="3.74947">
        <ele>1062.874756</ele>
        <time>2013-08-05T08:20:28Z</time>
      </trkpt>
      <trkpt lat="44.38657" lon="3.74947">
        <ele>1066.239258</ele>
        <time>2013-08-05T08:20:30Z</time>
      </trkpt>
      <trkpt lat="44.3866" lon="3.74947">
        <ele>1062.874756</ele>
        <time>2013-08-05T08:20:32Z</time>
      </trkpt>
      <trkpt lat="44.38662" lon="3.74947">
        <ele>1064.31665</ele>
        <time>2013-08-05T08:20:36Z</time>
      </trkpt>
      <trkpt lat="44.38669" lon="3.74938">
        <ele>1067.200684</ele>
        <time>2013-08-05T08:20:43Z</time>
      </trkpt>
      <trkpt lat="44.38676" lon="3.74927">
        <ele>1067.681152</ele>
        <time>2013-08-05T08:20:53Z</time>
      </trkpt>
      <trkpt lat="44.38682" lon="3.74921">
        <ele>1068.642822</ele>
        <time>2013-08-05T08:21:06Z</time>
      </trkpt>
      <trkpt lat="44.38687" lon="3.74919">
        <ele>1069.123535</ele>
        <time>2013-08-05T08:21:12Z</time>
      </trkpt>
      <trkpt lat="44.38698" lon="3.74916">
        <ele>1069.604248</ele>
        <time>2013-08-05T08:21:27Z</time>
      </trkpt>
      <trkpt lat="44.38698" lon="3.74915">
        <ele>1068.162109</ele>
        <time>2013-08-05T08:21:39Z</time>
      </trkpt>
      <trkpt lat="44.38705" lon="3.74912">
        <ele>1068.162109</ele>
        <time>2013-08-05T08:21:46Z</time>
      </trkpt>
      <trkpt lat="44.38712" lon="3.74907">
        <ele>1068.162109</ele>
        <time>2013-08-05T08:22:00Z</time>
      </trkpt>
      <trkpt lat="44.3872" lon="3.74901">
        <ele>1069.123535</ele>
        <time>2013-08-05T08:22:12Z</time>
      </trkpt>
      <trkpt lat="44.38723" lon="3.74899">
        <ele>1060.952148</ele>
        <time>2013-08-05T08:22:16Z</time>
      </trkpt>
      <trkpt lat="44.38723" lon="3.74901">
        <ele>1072.96875</ele>
        <time>2013-08-05T08:22:17Z</time>
      </trkpt>
      <trkpt lat="44.38723" lon="3.74901">
        <ele>1070.084717</ele>
        <time>2013-08-05T08:22:18Z</time>
      </trkpt>
      <trkpt lat="44.38726" lon="3.74901">
        <ele>1068.642822</ele>
        <time>2013-08-05T08:22:21Z</time>
      </trkpt>
      <trkpt lat="44.38739" lon="3.74889">
        <ele>1069.604248</ele>
        <time>2013-08-05T08:22:33Z</time>
      </trkpt>
      <trkpt lat="44.38749" lon="3.74885">
        <ele>1069.123535</ele>
        <time>2013-08-05T08:22:43Z</time>
      </trkpt>
      <trkpt lat="44.3876" lon="3.7488">
        <ele>1069.604248</ele>
        <time>2013-08-05T08:22:53Z</time>
      </trkpt>
      <trkpt lat="44.38761" lon="3.7488">
        <ele>1069.123535</ele>
        <time>2013-08-05T08:22:54Z</time>
      </trkpt>
      <trkpt lat="44.38771" lon="3.74874">
        <ele>1068.642822</ele>
        <time>2013-08-05T08:23:05Z</time>
      </trkpt>
      <trkpt lat="44.3878" lon="3.74866">
        <ele>1068.162109</ele>
        <time>2013-08-05T08:23:16Z</time>
      </trkpt>
      <trkpt lat="44.38792" lon="3.74859">
        <ele>1067.681152</ele>
        <time>2013-08-05T08:23:27Z</time>
      </trkpt>
      <trkpt lat="44.38802" lon="3.74858">
        <ele>1068.642822</ele>
        <time>2013-08-05T08:23:37Z</time>
      </trkpt>
      <trkpt lat="44.38804" lon="3.74858">
        <ele>1067.681152</ele>
        <time>2013-08-05T08:23:38Z</time>
      </trkpt>
      <trkpt lat="44.38807" lon="3.74859">
        <ele>1068.642822</ele>
        <time>2013-08-05T08:23:41Z</time>
      </trkpt>
      <trkpt lat="44.38818" lon="3.74853">
        <ele>1068.642822</ele>
        <time>2013-08-05T08:23:52Z</time>
      </trkpt>
      <trkpt lat="44.38827" lon="3.74847">
        <ele>1069.604248</ele>
        <time>2013-08-05T08:24:05Z</time>
      </trkpt>
      <trkpt lat="44.38833" lon="3.74845">
        <ele>1069.123535</ele>
        <time>2013-08-05T08:24:13Z</time>
      </trkpt>
      <trkpt lat="44.38839" lon="3.7484">
        <ele>1070.56543</ele>
        <time>2013-08-05T08:24:22Z</time>
      </trkpt>
      <trkpt lat="44.38843" lon="3.74836">
        <ele>1070.56543</ele>
        <time>2013-08-05T08:24:26Z</time>
      </trkpt>
      <trkpt lat="44.38854" lon="3.7483">
        <ele>1071.526611</ele>
        <time>2013-08-05T08:24:37Z</time>
      </trkpt>
      <trkpt lat="44.38856" lon="3.74829">
        <ele>1071.526611</ele>
        <time>2013-08-05T08:24:39Z</time>
      </trkpt>
      <trkpt lat="44.38865" lon="3.74826">
        <ele>1072.488037</ele>
        <time>2013-08-05T08:24:51Z</time>
      </trkpt>
      <trkpt lat="44.38865" lon="3.74824">
        <ele>1072.96875</ele>
        <time>2013-08-05T08:24:53Z</time>
      </trkpt>
      <trkpt lat="44.38872" lon="3.74823">
        <ele>1074.410645</ele>
        <time>2013-08-05T08:25:06Z</time>
      </trkpt>
      <trkpt lat="44.38878" lon="3.7482">
        <ele>1072.007324</ele>
        <time>2013-08-05T08:25:20Z</time>
      </trkpt>
      <trkpt lat="44.38882" lon="3.74828">
        <ele>1070.084717</ele>
        <time>2013-08-05T08:25:33Z</time>
      </trkpt>
      <trkpt lat="44.3888" lon="3.74826">
        <ele>1070.084717</ele>
        <time>2013-08-05T08:25:44Z</time>
      </trkpt>
      <trkpt lat="44.38886" lon="3.74819">
        <ele>1071.526611</ele>
        <time>2013-08-05T08:25:56Z</time>
      </trkpt>
      <trkpt lat="44.3889" lon="3.74818">
        <ele>1070.56543</ele>
        <time>2013-08-05T08:26:13Z</time>
      </trkpt>
      <trkpt lat="44.3889" lon="3.74836">
        <ele>1070.56543</ele>
        <time>2013-08-05T08:26:23Z</time>
      </trkpt>
      <trkpt lat="44.38893" lon="3.74833">
        <ele>1072.488037</ele>
        <time>2013-08-05T08:26:38Z</time>
      </trkpt>
      <trkpt lat="44.38898" lon="3.7483">
        <ele>1069.123535</ele>
        <time>2013-08-05T08:26:51Z</time>
      </trkpt>
      <trkpt lat="44.38898" lon="3.74828">
        <ele>1072.96875</ele>
        <time>2013-08-05T08:26:52Z</time>
      </trkpt>
      <trkpt lat="44.38901" lon="3.74825">
        <ele>1071.046143</ele>
        <time>2013-08-05T08:27:14Z</time>
      </trkpt>
      <trkpt lat="44.38899" lon="3.74827">
        <ele>1071.046143</ele>
        <time>2013-08-05T08:27:19Z</time>
      </trkpt>
      <trkpt lat="44.38897" lon="3.74833">
        <ele>1072.488037</ele>
        <time>2013-08-05T08:27:33Z</time>
      </trkpt>
      <trkpt lat="44.38899" lon="3.74835">
        <ele>1071.046143</ele>
        <time>2013-08-05T08:27:43Z</time>
      </trkpt>
      <trkpt lat="44.38904" lon="3.74833">
        <ele>1073.929932</ele>
        <time>2013-08-05T08:27:50Z</time>
      </trkpt>
      <trkpt lat="44.38916" lon="3.74828">
        <ele>1076.333252</ele>
        <time>2013-08-05T08:28:01Z</time>
      </trkpt>
      <trkpt lat="44.38923" lon="3.74822">
        <ele>1077.775146</ele>
        <time>2013-08-05T08:28:12Z</time>
      </trkpt>
      <trkpt lat="44.38927" lon="3.74821">
        <ele>1079.697754</ele>
        <time>2013-08-05T08:28:18Z</time>
      </trkpt>
      <trkpt lat="44.3893" lon="3.74819">
        <ele>1081.139893</ele>
        <time>2013-08-05T08:28:24Z</time>
      </trkpt>
      <trkpt lat="44.38934" lon="3.74815">
        <ele>1082.101074</ele>
        <time>2013-08-05T08:28:29Z</time>
      </trkpt>
      <trkpt lat="44.38935" lon="3.74814">
        <ele>1082.581787</ele>
        <time>2013-08-05T08:28:31Z</time>
      </trkpt>
      <trkpt lat="44.38937" lon="3.74811">
        <ele>1084.023926</ele>
        <time>2013-08-05T08:28:34Z</time>
      </trkpt>
      <trkpt lat="44.38942" lon="3.74805">
        <ele>1085.46582</ele>
        <time>2013-08-05T08:28:43Z</time>
      </trkpt>
      <trkpt lat="44.38947" lon="3.74803">
        <ele>1087.869141</ele>
        <time>2013-08-05T08:28:50Z</time>
      </trkpt>
      <trkpt lat="44.38948" lon="3.74803">
        <ele>1087.869141</ele>
        <time>2013-08-05T08:28:51Z</time>
      </trkpt>
      <trkpt lat="44.38951" lon="3.74801">
        <ele>1089.791748</ele>
        <time>2013-08-05T08:28:59Z</time>
      </trkpt>
      <trkpt lat="44.38957" lon="3.74794">
        <ele>1090.272461</ele>
        <time>2013-08-05T08:29:07Z</time>
      </trkpt>
      <trkpt lat="44.38963" lon="3.74792">
        <ele>1093.15625</ele>
        <time>2013-08-05T08:29:18Z</time>
      </trkpt>
      <trkpt lat="44.38966" lon="3.74791">
        <ele>1093.636963</ele>
        <time>2013-08-05T08:29:28Z</time>
      </trkpt>
      <trkpt lat="44.38965" lon="3.74791">
        <ele>1090.272461</ele>
        <time>2013-08-05T08:29:50Z</time>
      </trkpt>
      <trkpt lat="44.38965" lon="3.74791">
        <ele>1094.598145</ele>
        <time>2013-08-05T08:29:51Z</time>
      </trkpt>
      <trkpt lat="44.38965" lon="3.74793">
        <ele>1093.636963</ele>
        <time>2013-08-05T08:30:11Z</time>
      </trkpt>
      <trkpt lat="44.38967" lon="3.74794">
        <ele>1093.15625</ele>
        <time>2013-08-05T08:30:30Z</time>
      </trkpt>
      <trkpt lat="44.38969" lon="3.74793">
        <ele>1094.117676</ele>
        <time>2013-08-05T08:30:32Z</time>
      </trkpt>
      <trkpt lat="44.38975" lon="3.74791">
        <ele>1095.078857</ele>
        <time>2013-08-05T08:30:46Z</time>
      </trkpt>
      <trkpt lat="44.38978" lon="3.7479">
        <ele>1096.520996</ele>
        <time>2013-08-05T08:30:55Z</time>
      </trkpt>
      <trkpt lat="44.38982" lon="3.74788">
        <ele>1096.520996</ele>
        <time>2013-08-05T08:31:00Z</time>
      </trkpt>
      <trkpt lat="44.38988" lon="3.74786">
        <ele>1100.366455</ele>
        <time>2013-08-05T08:31:07Z</time>
      </trkpt>
      <trkpt lat="44.38992" lon="3.74786">
        <ele>1101.327637</ele>
        <time>2013-08-05T08:31:11Z</time>
      </trkpt>
      <trkpt lat="44.39001" lon="3.74782">
        <ele>1104.21167</ele>
        <time>2013-08-05T08:31:24Z</time>
      </trkpt>
      <trkpt lat="44.39005" lon="3.74779">
        <ele>1106.134033</ele>
        <time>2013-08-05T08:31:32Z</time>
      </trkpt>
      <trkpt lat="44.39013" lon="3.74771">
        <ele>1107.576172</ele>
        <time>2013-08-05T08:31:45Z</time>
      </trkpt>
      <trkpt lat="44.3902" lon="3.74766">
        <ele>1108.537354</ele>
        <time>2013-08-05T08:31:56Z</time>
      </trkpt>
      <trkpt lat="44.39022" lon="3.74764">
        <ele>1108.537354</ele>
        <time>2013-08-05T08:31:59Z</time>
      </trkpt>
      <trkpt lat="44.39028" lon="3.74758">
        <ele>1110.940674</ele>
        <time>2013-08-05T08:32:11Z</time>
      </trkpt>
      <trkpt lat="44.39032" lon="3.74756">
        <ele>1113.343994</ele>
        <time>2013-08-05T08:32:27Z</time>
      </trkpt>
      <trkpt lat="44.39033" lon="3.74752">
        <ele>1114.785889</ele>
        <time>2013-08-05T08:32:40Z</time>
      </trkpt>
      <trkpt lat="44.39037" lon="3.74745">
        <ele>1116.228027</ele>
        <time>2013-08-05T08:32:47Z</time>
      </trkpt>
      <trkpt lat="44.3904" lon="3.74743">
        <ele>1117.189453</ele>
        <time>2013-08-05T08:32:51Z</time>
      </trkpt>
      <trkpt lat="44.39044" lon="3.74739">
        <ele>1119.112061</ele>
        <time>2013-08-05T08:32:57Z</time>
      </trkpt>
      <trkpt lat="44.39051" lon="3.7473">
        <ele>1120.553955</ele>
        <time>2013-08-05T08:33:11Z</time>
      </trkpt>
      <trkpt lat="44.39055" lon="3.7472">
        <ele>1123.437988</ele>
        <time>2013-08-05T08:33:23Z</time>
      </trkpt>
      <trkpt lat="44.3906" lon="3.74713">
        <ele>1122.957275</ele>
        <time>2013-08-05T08:33:35Z</time>
      </trkpt>
      <trkpt lat="44.39063" lon="3.7471">
        <ele>1123.918457</ele>
        <time>2013-08-05T08:33:40Z</time>
      </trkpt>
      <trkpt lat="44.39069" lon="3.74706">
        <ele>1124.879883</ele>
        <time>2013-08-05T08:33:48Z</time>
      </trkpt>
      <trkpt lat="44.3907" lon="3.74704">
        <ele>1125.360352</ele>
        <time>2013-08-05T08:33:50Z</time>
      </trkpt>
      <trkpt lat="44.39076" lon="3.74703">
        <ele>1126.80249</ele>
        <time>2013-08-05T08:34:02Z</time>
      </trkpt>
      <trkpt lat="44.39078" lon="3.74703">
        <ele>1126.321777</ele>
        <time>2013-08-05T08:34:06Z</time>
      </trkpt>
      <trkpt lat="44.39085" lon="3.74701">
        <ele>1129.205566</ele>
        <time>2013-08-05T08:34:15Z</time>
      </trkpt>
      <trkpt lat="44.3909" lon="3.747">
        <ele>1130.647705</ele>
        <time>2013-08-05T08:34:26Z</time>
      </trkpt>
      <trkpt lat="44.39094" lon="3.74699">
        <ele>1131.128418</ele>
        <time>2013-08-05T08:34:33Z</time>
      </trkpt>
      <trkpt lat="44.39098" lon="3.74699">
        <ele>1131.128418</ele>
        <time>2013-08-05T08:34:37Z</time>
      </trkpt>
      <trkpt lat="44.39106" lon="3.74695">
        <ele>1132.089844</ele>
        <time>2013-08-05T08:34:47Z</time>
      </trkpt>
      <trkpt lat="44.39112" lon="3.74693">
        <ele>1134.493164</ele>
        <time>2013-08-05T08:34:55Z</time>
      </trkpt>
      <trkpt lat="44.39117" lon="3.74693">
        <ele>1134.493164</ele>
        <time>2013-08-05T08:35:00Z</time>
      </trkpt>
      <trkpt lat="44.39121" lon="3.74695">
        <ele>1136.89624</ele>
        <time>2013-08-05T08:35:06Z</time>
      </trkpt>
      <trkpt lat="44.39124" lon="3.74694">
        <ele>1136.415771</ele>
        <time>2013-08-05T08:35:09Z</time>
      </trkpt>
      <trkpt lat="44.39129" lon="3.7469">
        <ele>1136.415771</ele>
        <time>2013-08-05T08:35:14Z</time>
      </trkpt>
      <trkpt lat="44.39134" lon="3.74691">
        <ele>1136.89624</ele>
        <time>2013-08-05T08:35:19Z</time>
      </trkpt>
      <trkpt lat="44.39137" lon="3.74692">
        <ele>1136.89624</ele>
        <time>2013-08-05T08:35:22Z</time>
      </trkpt>
      <trkpt lat="44.39142" lon="3.7469">
        <ele>1141.222168</ele>
        <time>2013-08-05T08:35:31Z</time>
      </trkpt>
      <trkpt lat="44.39142" lon="3.7469">
        <ele>1137.857666</ele>
        <time>2013-08-05T08:35:32Z</time>
      </trkpt>
      <trkpt lat="44.39142" lon="3.7469">
        <ele>1141.702881</ele>
        <time>2013-08-05T08:35:33Z</time>
      </trkpt>
      <trkpt lat="44.39141" lon="3.74689">
        <ele>1140.260986</ele>
        <time>2013-08-05T08:35:51Z</time>
      </trkpt>
      <trkpt lat="44.39143" lon="3.74688">
        <ele>1140.741455</ele>
        <time>2013-08-05T08:36:03Z</time>
      </trkpt>
      <trkpt lat="44.39144" lon="3.74687">
        <ele>1140.741455</ele>
        <time>2013-08-05T08:36:04Z</time>
      </trkpt>
      <trkpt lat="44.39149" lon="3.74686">
        <ele>1141.222168</ele>
        <time>2013-08-05T08:36:08Z</time>
      </trkpt>
      <trkpt lat="44.39158" lon="3.7468">
        <ele>1140.741455</ele>
        <time>2013-08-05T08:36:16Z</time>
      </trkpt>
      <trkpt lat="44.39166" lon="3.74677">
        <ele>1141.702881</ele>
        <time>2013-08-05T08:36:24Z</time>
      </trkpt>
      <trkpt lat="44.39179" lon="3.74672">
        <ele>1144.106201</ele>
        <time>2013-08-05T08:36:35Z</time>
      </trkpt>
      <trkpt lat="44.39181" lon="3.74671">
        <ele>1143.625488</ele>
        <time>2013-08-05T08:36:37Z</time>
      </trkpt>
      <trkpt lat="44.39182" lon="3.74672">
        <ele>1144.106201</ele>
        <time>2013-08-05T08:36:39Z</time>
      </trkpt>
      <trkpt lat="44.39189" lon="3.74684">
        <ele>1144.106201</ele>
        <time>2013-08-05T08:36:49Z</time>
      </trkpt>
      <trkpt lat="44.39199" lon="3.74696">
        <ele>1144.106201</ele>
        <time>2013-08-05T08:37:00Z</time>
      </trkpt>
      <trkpt lat="44.3921" lon="3.74703">
        <ele>1146.028809</ele>
        <time>2013-08-05T08:37:10Z</time>
      </trkpt>
      <trkpt lat="44.39213" lon="3.74708">
        <ele>1146.98999</ele>
        <time>2013-08-05T08:37:15Z</time>
      </trkpt>
      <trkpt lat="44.39216" lon="3.74712">
        <ele>1147.470703</ele>
        <time>2013-08-05T08:37:20Z</time>
      </trkpt>
      <trkpt lat="44.39229" lon="3.74717">
        <ele>1148.432129</ele>
        <time>2013-08-05T08:37:31Z</time>
      </trkpt>
      <trkpt lat="44.39233" lon="3.7472">
        <ele>1148.912842</ele>
        <time>2013-08-05T08:37:35Z</time>
      </trkpt>
      <trkpt lat="44.39242" lon="3.74719">
        <ele>1149.874268</ele>
        <time>2013-08-05T08:37:45Z</time>
      </trkpt>
      <trkpt lat="44.39249" lon="3.74719">
        <ele>1150.35498</ele>
        <time>2013-08-05T08:37:52Z</time>
      </trkpt>
      <trkpt lat="44.39253" lon="3.74717">
        <ele>1151.316162</ele>
        <time>2013-08-05T08:37:56Z</time>
      </trkpt>
      <trkpt lat="44.39268" lon="3.74715">
        <ele>1152.277344</ele>
        <time>2013-08-05T08:38:08Z</time>
      </trkpt>
      <trkpt lat="44.39269" lon="3.74714">
        <ele>1152.758057</ele>
        <time>2013-08-05T08:38:09Z</time>
      </trkpt>
      <trkpt lat="44.39282" lon="3.74719">
        <ele>1154.680664</ele>
        <time>2013-08-05T08:38:22Z</time>
      </trkpt>
      <trkpt lat="44.39284" lon="3.74719">
        <ele>1154.680664</ele>
        <time>2013-08-05T08:38:23Z</time>
      </trkpt>
      <trkpt lat="44.39286" lon="3.7472">
        <ele>1154.680664</ele>
        <time>2013-08-05T08:38:25Z</time>
      </trkpt>
      <trkpt lat="44.39287" lon="3.7472">
        <ele>1155.161377</ele>
        <time>2013-08-05T08:38:27Z</time>
      </trkpt>
      <trkpt lat="44.39294" lon="3.74721">
        <ele>1155.64209</ele>
        <time>2013-08-05T08:38:32Z</time>
      </trkpt>
      <trkpt lat="44.39305" lon="3.74724">
        <ele>1156.603271</ele>
        <time>2013-08-05T08:38:42Z</time>
      </trkpt>
      <trkpt lat="44.39308" lon="3.74725">
        <ele>1156.603271</ele>
        <time>2013-08-05T08:38:54Z</time>
      </trkpt>
      <trkpt lat="44.39313" lon="3.74725">
        <ele>1156.603271</ele>
        <time>2013-08-05T08:39:02Z</time>
      </trkpt>
      <trkpt lat="44.39322" lon="3.74729">
        <ele>1157.564697</ele>
        <time>2013-08-05T08:39:12Z</time>
      </trkpt>
      <trkpt lat="44.39325" lon="3.74728">
        <ele>1159.006592</ele>
        <time>2013-08-05T08:39:16Z</time>
      </trkpt>
      <trkpt lat="44.39327" lon="3.74719">
        <ele>1160.929199</ele>
        <time>2013-08-05T08:39:22Z</time>
      </trkpt>
      <trkpt lat="44.39325" lon="3.74711">
        <ele>1162.851807</ele>
        <time>2013-08-05T08:39:34Z</time>
      </trkpt>
      <trkpt lat="44.39324" lon="3.74711">
        <ele>1162.851807</ele>
        <time>2013-08-05T08:39:51Z</time>
      </trkpt>
      <trkpt lat="44.39324" lon="3.74708">
        <ele>1162.371094</ele>
        <time>2013-08-05T08:39:53Z</time>
      </trkpt>
      <trkpt lat="44.39322" lon="3.74706">
        <ele>1162.371094</ele>
        <time>2013-08-05T08:39:55Z</time>
      </trkpt>
      <trkpt lat="44.39324" lon="3.74698">
        <ele>1163.812988</ele>
        <time>2013-08-05T08:40:01Z</time>
      </trkpt>
      <trkpt lat="44.39328" lon="3.74694">
        <ele>1165.255371</ele>
        <time>2013-08-05T08:40:07Z</time>
      </trkpt>
      <trkpt lat="44.39343" lon="3.74702">
        <ele>1164.293945</ele>
        <time>2013-08-05T08:40:20Z</time>
      </trkpt>
      <trkpt lat="44.39352" lon="3.74695">
        <ele>1164.774658</ele>
        <time>2013-08-05T08:40:30Z</time>
      </trkpt>
      <trkpt lat="44.39361" lon="3.74681">
        <ele>1167.658447</ele>
        <time>2013-08-05T08:40:42Z</time>
      </trkpt>
      <trkpt lat="44.39365" lon="3.7467">
        <ele>1167.658447</ele>
        <time>2013-08-05T08:40:51Z</time>
      </trkpt>
      <trkpt lat="44.39365" lon="3.74667">
        <ele>1167.658447</ele>
        <time>2013-08-05T08:40:53Z</time>
      </trkpt>
      <trkpt lat="44.39366" lon="3.74664">
        <ele>1169.100586</ele>
        <time>2013-08-05T08:40:56Z</time>
      </trkpt>
      <trkpt lat="44.3937" lon="3.74655">
        <ele>1168.619873</ele>
        <time>2013-08-05T08:41:03Z</time>
      </trkpt>
      <trkpt lat="44.39381" lon="3.74646">
        <ele>1169.100586</ele>
        <time>2013-08-05T08:41:16Z</time>
      </trkpt>
      <trkpt lat="44.39382" lon="3.74647">
        <ele>1169.100586</ele>
        <time>2013-08-05T08:41:17Z</time>
      </trkpt>
      <trkpt lat="44.39385" lon="3.7465">
        <ele>1171.023193</ele>
        <time>2013-08-05T08:41:30Z</time>
      </trkpt>
      <trkpt lat="44.39386" lon="3.7465">
        <ele>1170.54248</ele>
        <time>2013-08-05T08:42:03Z</time>
      </trkpt>
      <trkpt lat="44.39399" lon="3.74647">
        <ele>1170.54248</ele>
        <time>2013-08-05T08:42:13Z</time>
      </trkpt>
      <trkpt lat="44.39403" lon="3.74637">
        <ele>1172.945801</ele>
        <time>2013-08-05T08:42:21Z</time>
      </trkpt>
      <trkpt lat="44.39404" lon="3.74627">
        <ele>1173.906982</ele>
        <time>2013-08-05T08:42:27Z</time>
      </trkpt>
      <trkpt lat="44.39403" lon="3.74604">
        <ele>1174.868408</ele>
        <time>2013-08-05T08:42:43Z</time>
      </trkpt>
      <trkpt lat="44.39404" lon="3.74599">
        <ele>1175.82959</ele>
        <time>2013-08-05T08:42:53Z</time>
      </trkpt>
      <trkpt lat="44.39404" lon="3.74598">
        <ele>1175.82959</ele>
        <time>2013-08-05T08:42:54Z</time>
      </trkpt>
      <trkpt lat="44.39409" lon="3.74591">
        <ele>1176.791016</ele>
        <time>2013-08-05T08:43:00Z</time>
      </trkpt>
      <trkpt lat="44.39418" lon="3.74586">
        <ele>1177.752197</ele>
        <time>2013-08-05T08:43:10Z</time>
      </trkpt>
      <trkpt lat="44.39422" lon="3.74583">
        <ele>1177.752197</ele>
        <time>2013-08-05T08:43:14Z</time>
      </trkpt>
      <trkpt lat="44.39434" lon="3.7457">
        <ele>1178.713623</ele>
        <time>2013-08-05T08:43:29Z</time>
      </trkpt>
      <trkpt lat="44.39448" lon="3.74558">
        <ele>1178.23291</ele>
        <time>2013-08-05T08:43:44Z</time>
      </trkpt>
      <trkpt lat="44.39458" lon="3.7455">
        <ele>1178.23291</ele>
        <time>2013-08-05T08:43:54Z</time>
      </trkpt>
      <trkpt lat="44.39461" lon="3.74546">
        <ele>1178.713623</ele>
        <time>2013-08-05T08:43:59Z</time>
      </trkpt>
      <trkpt lat="44.39476" lon="3.74542">
        <ele>1180.155762</ele>
        <time>2013-08-05T08:44:12Z</time>
      </trkpt>
      <trkpt lat="44.39477" lon="3.74542">
        <ele>1180.155762</ele>
        <time>2013-08-05T08:44:13Z</time>
      </trkpt>
      <trkpt lat="44.39483" lon="3.74539">
        <ele>1180.155762</ele>
        <time>2013-08-05T08:44:18Z</time>
      </trkpt>
      <trkpt lat="44.39502" lon="3.74535">
        <ele>1180.636475</ele>
        <time>2013-08-05T08:44:32Z</time>
      </trkpt>
      <trkpt lat="44.39523" lon="3.74532">
        <ele>1183.039551</ele>
        <time>2013-08-05T08:44:48Z</time>
      </trkpt>
      <trkpt lat="44.39526" lon="3.74532">
        <ele>1180.636475</ele>
        <time>2013-08-05T08:44:51Z</time>
      </trkpt>
      <trkpt lat="44.39537" lon="3.74531">
        <ele>1182.078369</ele>
        <time>2013-08-05T08:45:01Z</time>
      </trkpt>
      <trkpt lat="44.39541" lon="3.7453">
        <ele>1182.078369</ele>
        <time>2013-08-05T08:45:05Z</time>
      </trkpt>
      <trkpt lat="44.39554" lon="3.7453">
        <ele>1183.520264</ele>
        <time>2013-08-05T08:45:16Z</time>
      </trkpt>
      <trkpt lat="44.39562" lon="3.74528">
        <ele>1184.481689</ele>
        <time>2013-08-05T08:45:21Z</time>
      </trkpt>
      <trkpt lat="44.39566" lon="3.74526">
        <ele>1184.481689</ele>
        <time>2013-08-05T08:45:23Z</time>
      </trkpt>
      <trkpt lat="44.39581" lon="3.74525">
        <ele>1187.365479</ele>
        <time>2013-08-05T08:45:34Z</time>
      </trkpt>
      <trkpt lat="44.39586" lon="3.74525">
        <ele>1188.326904</ele>
        <time>2013-08-05T08:45:38Z</time>
      </trkpt>
      <trkpt lat="44.39587" lon="3.74525">
        <ele>1188.326904</ele>
        <time>2013-08-05T08:45:39Z</time>
      </trkpt>
      <trkpt lat="44.39592" lon="3.74524">
        <ele>1188.326904</ele>
        <time>2013-08-05T08:45:43Z</time>
      </trkpt>
      <trkpt lat="44.39602" lon="3.74523">
        <ele>1188.326904</ele>
        <time>2013-08-05T08:45:51Z</time>
      </trkpt>
      <trkpt lat="44.39621" lon="3.74515">
        <ele>1188.807617</ele>
        <time>2013-08-05T08:46:06Z</time>
      </trkpt>
      <trkpt lat="44.39635" lon="3.74508">
        <ele>1189.768799</ele>
        <time>2013-08-05T08:46:17Z</time>
      </trkpt>
      <trkpt lat="44.39639" lon="3.74508">
        <ele>1189.768799</ele>
        <time>2013-08-05T08:46:21Z</time>
      </trkpt>
      <trkpt lat="44.3966" lon="3.74516">
        <ele>1189.288086</ele>
        <time>2013-08-05T08:46:37Z</time>
      </trkpt>
      <trkpt lat="44.39674" lon="3.74514">
        <ele>1189.768799</ele>
        <time>2013-08-05T08:46:49Z</time>
      </trkpt>
      <trkpt lat="44.39687" lon="3.74511">
        <ele>1190.249512</ele>
        <time>2013-08-05T08:47:00Z</time>
      </trkpt>
      <trkpt lat="44.39692" lon="3.74512">
        <ele>1191.210693</ele>
        <time>2013-08-05T08:47:03Z</time>
      </trkpt>
      <trkpt lat="44.39697" lon="3.74512">
        <ele>1192.652832</ele>
        <time>2013-08-05T08:47:06Z</time>
      </trkpt>
      <trkpt lat="44.39712" lon="3.74513">
        <ele>1192.172119</ele>
        <time>2013-08-05T08:47:18Z</time>
      </trkpt>
      <trkpt lat="44.39727" lon="3.74517">
        <ele>1192.172119</ele>
        <time>2013-08-05T08:47:32Z</time>
      </trkpt>
      <trkpt lat="44.39738" lon="3.74515">
        <ele>1191.691406</ele>
        <time>2013-08-05T08:47:40Z</time>
      </trkpt>
      <trkpt lat="44.39749" lon="3.74511">
        <ele>1192.172119</ele>
        <time>2013-08-05T08:47:46Z</time>
      </trkpt>
      <trkpt lat="44.3976" lon="3.74499">
        <ele>1192.652832</ele>
        <time>2013-08-05T08:47:57Z</time>
      </trkpt>
      <trkpt lat="44.39761" lon="3.74495">
        <ele>1193.133301</ele>
        <time>2013-08-05T08:47:59Z</time>
      </trkpt>
      <trkpt lat="44.3977" lon="3.74481">
        <ele>1192.172119</ele>
        <time>2013-08-05T08:48:10Z</time>
      </trkpt>
      <trkpt lat="44.39781" lon="3.7446">
        <ele>1193.133301</ele>
        <time>2013-08-05T08:48:23Z</time>
      </trkpt>
      <trkpt lat="44.39791" lon="3.74453">
        <ele>1193.614014</ele>
        <time>2013-08-05T08:48:31Z</time>
      </trkpt>
      <trkpt lat="44.39805" lon="3.74451">
        <ele>1194.094727</ele>
        <time>2013-08-05T08:48:43Z</time>
      </trkpt>
      <trkpt lat="44.39811" lon="3.74451">
        <ele>1194.094727</ele>
        <time>2013-08-05T08:48:48Z</time>
      </trkpt>
      <trkpt lat="44.39824" lon="3.7445">
        <ele>1194.575195</ele>
        <time>2013-08-05T08:48:58Z</time>
      </trkpt>
      <trkpt lat="44.39829" lon="3.74448">
        <ele>1194.575195</ele>
        <time>2013-08-05T08:49:02Z</time>
      </trkpt>
      <trkpt lat="44.3985" lon="3.74444">
        <ele>1196.017578</ele>
        <time>2013-08-05T08:49:19Z</time>
      </trkpt>
      <trkpt lat="44.39866" lon="3.74449">
        <ele>1196.017578</ele>
        <time>2013-08-05T08:49:31Z</time>
      </trkpt>
      <trkpt lat="44.39883" lon="3.74458">
        <ele>1194.575195</ele>
        <time>2013-08-05T08:49:45Z</time>
      </trkpt>
      <trkpt lat="44.39884" lon="3.74458">
        <ele>1195.055908</ele>
        <time>2013-08-05T08:49:46Z</time>
      </trkpt>
      <trkpt lat="44.39899" lon="3.74455">
        <ele>1194.575195</ele>
        <time>2013-08-05T08:49:56Z</time>
      </trkpt>
      <trkpt lat="44.39909" lon="3.74453">
        <ele>1194.575195</ele>
        <time>2013-08-05T08:50:03Z</time>
      </trkpt>
      <trkpt lat="44.39921" lon="3.74457">
        <ele>1194.575195</ele>
        <time>2013-08-05T08:50:16Z</time>
      </trkpt>
      <trkpt lat="44.39929" lon="3.7446">
        <ele>1195.536621</ele>
        <time>2013-08-05T08:50:24Z</time>
      </trkpt>
      <trkpt lat="44.39933" lon="3.74457">
        <ele>1196.97876</ele>
        <time>2013-08-05T08:50:27Z</time>
      </trkpt>
      <trkpt lat="44.39946" lon="3.74448">
        <ele>1197.940186</ele>
        <time>2013-08-05T08:50:39Z</time>
      </trkpt>
      <trkpt lat="44.39961" lon="3.74442">
        <ele>1198.420654</ele>
        <time>2013-08-05T08:50:50Z</time>
      </trkpt>
      <trkpt lat="44.3998" lon="3.74439">
        <ele>1198.420654</ele>
        <time>2013-08-05T08:51:03Z</time>
      </trkpt>
      <trkpt lat="44.39989" lon="3.74434">
        <ele>1198.901367</ele>
        <time>2013-08-05T08:51:10Z</time>
      </trkpt>
      <trkpt lat="44.39993" lon="3.74434">
        <ele>1199.38208</ele>
        <time>2013-08-05T08:51:19Z</time>
      </trkpt>
      <trkpt lat="44.40002" lon="3.74426">
        <ele>1199.862793</ele>
        <time>2013-08-05T08:51:32Z</time>
      </trkpt>
      <trkpt lat="44.40006" lon="3.74424">
        <ele>1200.823975</ele>
        <time>2013-08-05T08:52:48Z</time>
      </trkpt>
      <trkpt lat="44.40006" lon="3.74424">
        <ele>1200.823975</ele>
        <time>2013-08-05T08:52:49Z</time>
      </trkpt>
      <trkpt lat="44.40007" lon="3.74426">
        <ele>1199.38208</ele>
        <time>2013-08-05T08:53:43Z</time>
      </trkpt>
      <trkpt lat="44.40001" lon="3.74421">
        <ele>1200.823975</ele>
        <time>2013-08-05T08:54:32Z</time>
      </trkpt>
      <trkpt lat="44.40004" lon="3.74424">
        <ele>1201.7854</ele>
        <time>2013-08-05T08:55:07Z</time>
      </trkpt>
      <trkpt lat="44.40014" lon="3.74415">
        <ele>1201.304688</ele>
        <time>2013-08-05T08:55:36Z</time>
      </trkpt>
      <trkpt lat="44.40009" lon="3.74421">
        <ele>1202.265869</ele>
        <time>2013-08-05T08:56:06Z</time>
      </trkpt>
      <trkpt lat="44.40005" lon="3.74423">
        <ele>1200.823975</ele>
        <time>2013-08-05T08:56:32Z</time>
      </trkpt>
      <trkpt lat="44.40006" lon="3.74423">
        <ele>1202.265869</ele>
        <time>2013-08-05T08:56:54Z</time>
      </trkpt>
      <trkpt lat="44.40011" lon="3.74419">
        <ele>1201.7854</ele>
        <time>2013-08-05T08:57:02Z</time>
      </trkpt>
      <trkpt lat="44.40011" lon="3.74417">
        <ele>1203.227295</ele>
        <time>2013-08-05T08:57:04Z</time>
      </trkpt>
      <trkpt lat="44.40013" lon="3.74409">
        <ele>1203.708008</ele>
        <time>2013-08-05T08:57:10Z</time>
      </trkpt>
      <trkpt lat="44.40018" lon="3.74391">
        <ele>1205.149902</ele>
        <time>2013-08-05T08:57:23Z</time>
      </trkpt>
      <trkpt lat="44.40018" lon="3.74388">
        <ele>1205.630615</ele>
        <time>2013-08-05T08:57:26Z</time>
      </trkpt>
      <trkpt lat="44.40026" lon="3.7437">
        <ele>1208.033936</ele>
        <time>2013-08-05T08:57:38Z</time>
      </trkpt>
      <trkpt lat="44.40031" lon="3.74365">
        <ele>1207.553223</ele>
        <time>2013-08-05T08:57:53Z</time>
      </trkpt>
      <trkpt lat="44.40035" lon="3.74368">
        <ele>1208.033936</ele>
        <time>2013-08-05T08:57:58Z</time>
      </trkpt>
      <trkpt lat="44.40054" lon="3.74376">
        <ele>1208.514404</ele>
        <time>2013-08-05T08:58:15Z</time>
      </trkpt>
      <trkpt lat="44.40074" lon="3.74381">
        <ele>1209.47583</ele>
        <time>2013-08-05T08:58:31Z</time>
      </trkpt>
      <trkpt lat="44.4008" lon="3.74384">
        <ele>1210.437012</ele>
        <time>2013-08-05T08:58:36Z</time>
      </trkpt>
      <trkpt lat="44.40091" lon="3.74407">
        <ele>1210.917725</ele>
        <time>2013-08-05T08:58:53Z</time>
      </trkpt>
      <trkpt lat="44.40105" lon="3.74423">
        <ele>1211.87915</ele>
        <time>2013-08-05T08:59:10Z</time>
      </trkpt>
      <trkpt lat="44.40115" lon="3.74427">
        <ele>1212.359863</ele>
        <time>2013-08-05T08:59:18Z</time>
      </trkpt>
      <trkpt lat="44.40135" lon="3.74432">
        <ele>1213.801758</ele>
        <time>2013-08-05T08:59:35Z</time>
      </trkpt>
      <trkpt lat="44.40153" lon="3.74434">
        <ele>1215.243896</ele>
        <time>2013-08-05T08:59:50Z</time>
      </trkpt>
      <trkpt lat="44.40164" lon="3.74435">
        <ele>1215.724609</ele>
        <time>2013-08-05T09:00:02Z</time>
      </trkpt>
      <trkpt lat="44.40165" lon="3.74437">
        <ele>1216.205078</ele>
        <time>2013-08-05T09:00:05Z</time>
      </trkpt>
      <trkpt lat="44.40171" lon="3.74435">
        <ele>1216.205078</ele>
        <time>2013-08-05T09:00:07Z</time>
      </trkpt>
      <trkpt lat="44.4019" lon="3.74431">
        <ele>1216.685791</ele>
        <time>2013-08-05T09:00:21Z</time>
      </trkpt>
      <trkpt lat="44.40194" lon="3.74431">
        <ele>1216.685791</ele>
        <time>2013-08-05T09:00:24Z</time>
      </trkpt>
      <trkpt lat="44.40203" lon="3.74433">
        <ele>1219.089111</ele>
        <time>2013-08-05T09:00:33Z</time>
      </trkpt>
      <trkpt lat="44.40207" lon="3.74436">
        <ele>1219.089111</ele>
        <time>2013-08-05T09:00:37Z</time>
      </trkpt>
      <trkpt lat="44.40208" lon="3.74437">
        <ele>1220.050293</ele>
        <time>2013-08-05T09:00:39Z</time>
      </trkpt>
      <trkpt lat="44.40226" lon="3.74452">
        <ele>1220.531006</ele>
        <time>2013-08-05T09:00:55Z</time>
      </trkpt>
      <trkpt lat="44.40235" lon="3.74457">
        <ele>1220.531006</ele>
        <time>2013-08-05T09:01:03Z</time>
      </trkpt>
      <trkpt lat="44.40255" lon="3.74462">
        <ele>1220.531006</ele>
        <time>2013-08-05T09:01:18Z</time>
      </trkpt>
      <trkpt lat="44.40268" lon="3.74471">
        <ele>1222.934326</ele>
        <time>2013-08-05T09:01:32Z</time>
      </trkpt>
      <trkpt lat="44.4027" lon="3.74475">
        <ele>1223.415039</ele>
        <time>2013-08-05T09:01:35Z</time>
      </trkpt>
      <trkpt lat="44.40278" lon="3.74487">
        <ele>1223.895508</ele>
        <time>2013-08-05T09:01:44Z</time>
      </trkpt>
      <trkpt lat="44.40284" lon="3.74487">
        <ele>1224.376221</ele>
        <time>2013-08-05T09:01:51Z</time>
      </trkpt>
      <trkpt lat="44.403" lon="3.74482">
        <ele>1226.298828</ele>
        <time>2013-08-05T09:02:04Z</time>
      </trkpt>
      <trkpt lat="44.40305" lon="3.74481">
        <ele>1227.260254</ele>
        <time>2013-08-05T09:02:09Z</time>
      </trkpt>
      <trkpt lat="44.40309" lon="3.74484">
        <ele>1227.260254</ele>
        <time>2013-08-05T09:02:13Z</time>
      </trkpt>
      <trkpt lat="44.40315" lon="3.74488">
        <ele>1227.260254</ele>
        <time>2013-08-05T09:02:17Z</time>
      </trkpt>
      <trkpt lat="44.40335" lon="3.74509">
        <ele>1227.260254</ele>
        <time>2013-08-05T09:02:37Z</time>
      </trkpt>
      <trkpt lat="44.40347" lon="3.7452">
        <ele>1228.22168</ele>
        <time>2013-08-05T09:02:49Z</time>
      </trkpt>
      <trkpt lat="44.4035" lon="3.74523">
        <ele>1228.702393</ele>
        <time>2013-08-05T09:02:52Z</time>
      </trkpt>
      <trkpt lat="44.40354" lon="3.74528">
        <ele>1228.702393</ele>
        <time>2013-08-05T09:02:57Z</time>
      </trkpt>
      <trkpt lat="44.40364" lon="3.74529">
        <ele>1229.182861</ele>
        <time>2013-08-05T09:03:05Z</time>
      </trkpt>
      <trkpt lat="44.40377" lon="3.7452">
        <ele>1230.144287</ele>
        <time>2013-08-05T09:03:17Z</time>
      </trkpt>
      <trkpt lat="44.40388" lon="3.74514">
        <ele>1232.547607</ele>
        <time>2013-08-05T09:03:30Z</time>
      </trkpt>
      <trkpt lat="44.40395" lon="3.74503">
        <ele>1233.028076</ele>
        <time>2013-08-05T09:03:38Z</time>
      </trkpt>
      <trkpt lat="44.40407" lon="3.74497">
        <ele>1233.028076</ele>
        <time>2013-08-05T09:03:49Z</time>
      </trkpt>
      <trkpt lat="44.40408" lon="3.74496">
        <ele>1233.028076</ele>
        <time>2013-08-05T09:03:51Z</time>
      </trkpt>
      <trkpt lat="44.4041" lon="3.74491">
        <ele>1233.508789</ele>
        <time>2013-08-05T09:03:55Z</time>
      </trkpt>
      <trkpt lat="44.40412" lon="3.74487">
        <ele>1234.950928</ele>
        <time>2013-08-05T09:03:58Z</time>
      </trkpt>
      <trkpt lat="44.40417" lon="3.74477">
        <ele>1237.354004</ele>
        <time>2013-08-05T09:04:08Z</time>
      </trkpt>
      <trkpt lat="44.4042" lon="3.74467">
        <ele>1239.276611</ele>
        <time>2013-08-05T09:04:16Z</time>
      </trkpt>
      <trkpt lat="44.4042" lon="3.74456">
        <ele>1240.238037</ele>
        <time>2013-08-05T09:04:23Z</time>
      </trkpt>
      <trkpt lat="44.40417" lon="3.74448">
        <ele>1240.718506</ele>
        <time>2013-08-05T09:04:29Z</time>
      </trkpt>
      <trkpt lat="44.40416" lon="3.74441">
        <ele>1240.718506</ele>
        <time>2013-08-05T09:04:36Z</time>
      </trkpt>
      <trkpt lat="44.40417" lon="3.74425">
        <ele>1241.199219</ele>
        <time>2013-08-05T09:04:45Z</time>
      </trkpt>
      <trkpt lat="44.40426" lon="3.74404">
        <ele>1242.641357</ele>
        <time>2013-08-05T09:05:00Z</time>
      </trkpt>
      <trkpt lat="44.4043" lon="3.74385">
        <ele>1244.563965</ele>
        <time>2013-08-05T09:05:14Z</time>
      </trkpt>
      <trkpt lat="44.40431" lon="3.74371">
        <ele>1247.447998</ele>
        <time>2013-08-05T09:05:23Z</time>
      </trkpt>
      <trkpt lat="44.4043" lon="3.74369">
        <ele>1246.486816</ele>
        <time>2013-08-05T09:05:25Z</time>
      </trkpt>
      <trkpt lat="44.40429" lon="3.74363">
        <ele>1247.447998</ele>
        <time>2013-08-05T09:05:29Z</time>
      </trkpt>
      <trkpt lat="44.40427" lon="3.74344">
        <ele>1249.370605</ele>
        <time>2013-08-05T09:05:41Z</time>
      </trkpt>
      <trkpt lat="44.40425" lon="3.74327">
        <ele>1249.851318</ele>
        <time>2013-08-05T09:05:51Z</time>
      </trkpt>
      <trkpt lat="44.40424" lon="3.74325">
        <ele>1249.851318</ele>
        <time>2013-08-05T09:05:52Z</time>
      </trkpt>
      <trkpt lat="44.4042" lon="3.74317">
        <ele>1250.8125</ele>
        <time>2013-08-05T09:05:58Z</time>
      </trkpt>
      <trkpt lat="44.40415" lon="3.74305">
        <ele>1251.773926</ele>
        <time>2013-08-05T09:06:06Z</time>
      </trkpt>
      <trkpt lat="44.40413" lon="3.74302">
        <ele>1247.928711</ele>
        <time>2013-08-05T09:06:08Z</time>
      </trkpt>
      <trkpt lat="44.40412" lon="3.74301">
        <ele>1251.773926</ele>
        <time>2013-08-05T09:06:09Z</time>
      </trkpt>
      <trkpt lat="44.40402" lon="3.74292">
        <ele>1252.735107</ele>
        <time>2013-08-05T09:06:18Z</time>
      </trkpt>
      <trkpt lat="44.40401" lon="3.74291">
        <ele>1251.773926</ele>
        <time>2013-08-05T09:06:19Z</time>
      </trkpt>
      <trkpt lat="44.40395" lon="3.7429">
        <ele>1253.21582</ele>
        <time>2013-08-05T09:06:25Z</time>
      </trkpt>
      <trkpt lat="44.40383" lon="3.7428">
        <ele>1251.773926</ele>
        <time>2013-08-05T09:06:35Z</time>
      </trkpt>
      <trkpt lat="44.40379" lon="3.74276">
        <ele>1252.254395</ele>
        <time>2013-08-05T09:06:38Z</time>
      </trkpt>
      <trkpt lat="44.40364" lon="3.74262">
        <ele>1250.332031</ele>
        <time>2013-08-05T09:06:51Z</time>
      </trkpt>
      <trkpt lat="44.40362" lon="3.74257">
        <ele>1250.8125</ele>
        <time>2013-08-05T09:06:55Z</time>
      </trkpt>
      <trkpt lat="44.40358" lon="3.74245">
        <ele>1250.332031</ele>
        <time>2013-08-05T09:07:02Z</time>
      </trkpt>
      <trkpt lat="44.40356" lon="3.74238">
        <ele>1249.370605</ele>
        <time>2013-08-05T09:07:06Z</time>
      </trkpt>
      <trkpt lat="44.40351" lon="3.74228">
        <ele>1249.851318</ele>
        <time>2013-08-05T09:07:13Z</time>
      </trkpt>
      <trkpt lat="44.40347" lon="3.74222">
        <ele>1250.8125</ele>
        <time>2013-08-05T09:07:18Z</time>
      </trkpt>
      <trkpt lat="44.4034" lon="3.74218">
        <ele>1250.332031</ele>
        <time>2013-08-05T09:07:24Z</time>
      </trkpt>
      <trkpt lat="44.40327" lon="3.74207">
        <ele>1252.254395</ele>
        <time>2013-08-05T09:07:36Z</time>
      </trkpt>
      <trkpt lat="44.4032" lon="3.74197">
        <ele>1252.735107</ele>
        <time>2013-08-05T09:07:44Z</time>
      </trkpt>
      <trkpt lat="44.40307" lon="3.74178">
        <ele>1254.657715</ele>
        <time>2013-08-05T09:07:58Z</time>
      </trkpt>
      <trkpt lat="44.40303" lon="3.74165">
        <ele>1256.099609</ele>
        <time>2013-08-05T09:08:06Z</time>
      </trkpt>
      <trkpt lat="44.40297" lon="3.74151">
        <ele>1258.022461</ele>
        <time>2013-08-05T09:08:17Z</time>
      </trkpt>
      <trkpt lat="44.40287" lon="3.74133">
        <ele>1258.983643</ele>
        <time>2013-08-05T09:08:30Z</time>
      </trkpt>
      <trkpt lat="44.40286" lon="3.74132">
        <ele>1258.983643</ele>
        <time>2013-08-05T09:08:31Z</time>
      </trkpt>
      <trkpt lat="44.40285" lon="3.74129">
        <ele>1259.464355</ele>
        <time>2013-08-05T09:08:33Z</time>
      </trkpt>
      <trkpt lat="44.40281" lon="3.7412">
        <ele>1260.425781</ele>
        <time>2013-08-05T09:08:40Z</time>
      </trkpt>
      <trkpt lat="44.40276" lon="3.74107">
        <ele>1261.387207</ele>
        <time>2013-08-05T09:08:49Z</time>
      </trkpt>
      <trkpt lat="44.4027" lon="3.74102">
        <ele>1261.86792</ele>
        <time>2013-08-05T09:08:55Z</time>
      </trkpt>
      <trkpt lat="44.40267" lon="3.741">
        <ele>1262.348389</ele>
        <time>2013-08-05T09:08:57Z</time>
      </trkpt>
      <trkpt lat="44.40261" lon="3.74092">
        <ele>1264.270996</ele>
        <time>2013-08-05T09:09:04Z</time>
      </trkpt>
      <trkpt lat="44.40258" lon="3.74089">
        <ele>1263.790283</ele>
        <time>2013-08-05T09:09:07Z</time>
      </trkpt>
      <trkpt lat="44.4024" lon="3.74076">
        <ele>1265.713135</ele>
        <time>2013-08-05T09:09:21Z</time>
      </trkpt>
      <trkpt lat="44.4023" lon="3.74068">
        <ele>1265.713135</ele>
        <time>2013-08-05T09:09:32Z</time>
      </trkpt>
      <trkpt lat="44.40224" lon="3.74066">
        <ele>1265.232422</ele>
        <time>2013-08-05T09:09:44Z</time>
      </trkpt>
      <trkpt lat="44.40222" lon="3.74066">
        <ele>1265.713135</ele>
        <time>2013-08-05T09:09:51Z</time>
      </trkpt>
      <trkpt lat="44.40219" lon="3.74059">
        <ele>1265.713135</ele>
        <time>2013-08-05T09:09:56Z</time>
      </trkpt>
      <trkpt lat="44.4021" lon="3.74038">
        <ele>1268.596924</ele>
        <time>2013-08-05T09:10:09Z</time>
      </trkpt>
      <trkpt lat="44.40204" lon="3.74026">
        <ele>1268.116211</ele>
        <time>2013-08-05T09:10:17Z</time>
      </trkpt>
      <trkpt lat="44.40203" lon="3.74023">
        <ele>1269.077637</ele>
        <time>2013-08-05T09:10:19Z</time>
      </trkpt>
      <trkpt lat="44.40199" lon="3.73999">
        <ele>1270.519531</ele>
        <time>2013-08-05T09:10:34Z</time>
      </trkpt>
      <trkpt lat="44.40198" lon="3.73994">
        <ele>1270.519531</ele>
        <time>2013-08-05T09:10:37Z</time>
      </trkpt>
      <trkpt lat="44.40199" lon="3.73991">
        <ele>1270.038818</ele>
        <time>2013-08-05T09:10:39Z</time>
      </trkpt>
      <trkpt lat="44.40196" lon="3.73982">
        <ele>1270.519531</ele>
        <time>2013-08-05T09:10:44Z</time>
      </trkpt>
      <trkpt lat="44.40195" lon="3.7397">
        <ele>1270.519531</ele>
        <time>2013-08-05T09:10:51Z</time>
      </trkpt>
      <trkpt lat="44.40192" lon="3.73962">
        <ele>1270.519531</ele>
        <time>2013-08-05T09:10:56Z</time>
      </trkpt>
      <trkpt lat="44.40191" lon="3.73958">
        <ele>1270.519531</ele>
        <time>2013-08-05T09:10:59Z</time>
      </trkpt>
      <trkpt lat="44.40187" lon="3.73934">
        <ele>1271.961426</ele>
        <time>2013-08-05T09:11:14Z</time>
      </trkpt>
      <trkpt lat="44.40183" lon="3.73918">
        <ele>1274.364746</ele>
        <time>2013-08-05T09:11:24Z</time>
      </trkpt>
      <trkpt lat="44.40181" lon="3.7391">
        <ele>1274.364746</ele>
        <time>2013-08-05T09:11:30Z</time>
      </trkpt>
      <trkpt lat="44.40179" lon="3.73897">
        <ele>1276.287598</ele>
        <time>2013-08-05T09:11:39Z</time>
      </trkpt>
      <trkpt lat="44.40174" lon="3.7388">
        <ele>1280.132812</ele>
        <time>2013-08-05T09:11:51Z</time>
      </trkpt>
      <trkpt lat="44.4017" lon="3.73864">
        <ele>1282.536133</ele>
        <time>2013-08-05T09:12:04Z</time>
      </trkpt>
      <trkpt lat="44.40168" lon="3.73852">
        <ele>1283.497314</ele>
        <time>2013-08-05T09:12:13Z</time>
      </trkpt>
      <trkpt lat="44.40168" lon="3.73834">
        <ele>1285.900635</ele>
        <time>2013-08-05T09:12:30Z</time>
      </trkpt>
      <trkpt lat="44.40166" lon="3.73825">
        <ele>1287.823242</ele>
        <time>2013-08-05T09:12:38Z</time>
      </trkpt>
      <trkpt lat="44.40165" lon="3.73811">
        <ele>1287.823242</ele>
        <time>2013-08-05T09:12:47Z</time>
      </trkpt>
      <trkpt lat="44.40161" lon="3.73796">
        <ele>1289.74585</ele>
        <time>2013-08-05T09:12:57Z</time>
      </trkpt>
      <trkpt lat="44.4016" lon="3.73794">
        <ele>1289.74585</ele>
        <time>2013-08-05T09:12:59Z</time>
      </trkpt>
      <trkpt lat="44.4016" lon="3.73787">
        <ele>1290.226562</ele>
        <time>2013-08-05T09:13:03Z</time>
      </trkpt>
      <trkpt lat="44.40157" lon="3.73768">
        <ele>1291.668457</ele>
        <time>2013-08-05T09:13:15Z</time>
      </trkpt>
      <trkpt lat="44.40153" lon="3.73741">
        <ele>1292.630127</ele>
        <time>2013-08-05T09:13:29Z</time>
      </trkpt>
      <trkpt lat="44.40151" lon="3.73721">
        <ele>1294.072021</ele>
        <time>2013-08-05T09:13:42Z</time>
      </trkpt>
      <trkpt lat="44.4015" lon="3.73716">
        <ele>1293.591309</ele>
        <time>2013-08-05T09:13:45Z</time>
      </trkpt>
      <trkpt lat="44.40148" lon="3.73707">
        <ele>1294.55249</ele>
        <time>2013-08-05T09:13:56Z</time>
      </trkpt>
      <trkpt lat="44.40148" lon="3.73701">
        <ele>1295.033203</ele>
        <time>2013-08-05T09:14:03Z</time>
      </trkpt>
      <trkpt lat="44.4015" lon="3.73687">
        <ele>1295.994629</ele>
        <time>2013-08-05T09:14:13Z</time>
      </trkpt>
      <trkpt lat="44.4015" lon="3.73682">
        <ele>1295.994629</ele>
        <time>2013-08-05T09:14:16Z</time>
      </trkpt>
      <trkpt lat="44.40151" lon="3.73675">
        <ele>1296.475342</ele>
        <time>2013-08-05T09:14:20Z</time>
      </trkpt>
      <trkpt lat="44.40155" lon="3.73645">
        <ele>1297.436523</ele>
        <time>2013-08-05T09:14:38Z</time>
      </trkpt>
      <trkpt lat="44.40155" lon="3.73634">
        <ele>1298.397705</ele>
        <time>2013-08-05T09:14:44Z</time>
      </trkpt>
      <trkpt lat="44.40157" lon="3.7362">
        <ele>1298.397705</ele>
        <time>2013-08-05T09:14:52Z</time>
      </trkpt>
      <trkpt lat="44.40157" lon="3.73612">
        <ele>1298.397705</ele>
        <time>2013-08-05T09:14:57Z</time>
      </trkpt>
      <trkpt lat="44.40158" lon="3.73599">
        <ele>1299.359131</ele>
        <time>2013-08-05T09:15:04Z</time>
      </trkpt>
      <trkpt lat="44.4016" lon="3.73588">
        <ele>1299.359131</ele>
        <time>2013-08-05T09:15:09Z</time>
      </trkpt>
      <trkpt lat="44.40162" lon="3.7358">
        <ele>1299.359131</ele>
        <time>2013-08-05T09:15:13Z</time>
      </trkpt>
      <trkpt lat="44.40165" lon="3.73569">
        <ele>1300.320557</ele>
        <time>2013-08-05T09:15:19Z</time>
      </trkpt>
      <trkpt lat="44.40161" lon="3.73542">
        <ele>1302.24292</ele>
        <time>2013-08-05T09:15:33Z</time>
      </trkpt>
      <trkpt lat="44.4016" lon="3.73537">
        <ele>1301.762451</ele>
        <time>2013-08-05T09:15:36Z</time>
      </trkpt>
      <trkpt lat="44.40158" lon="3.73526">
        <ele>1302.24292</ele>
        <time>2013-08-05T09:15:42Z</time>
      </trkpt>
      <trkpt lat="44.40156" lon="3.73517">
        <ele>1304.165771</ele>
        <time>2013-08-05T09:15:47Z</time>
      </trkpt>
      <trkpt lat="44.40151" lon="3.73493">
        <ele>1306.568848</ele>
        <time>2013-08-05T09:16:01Z</time>
      </trkpt>
      <trkpt lat="44.40149" lon="3.73488">
        <ele>1306.568848</ele>
        <time>2013-08-05T09:16:04Z</time>
      </trkpt>
      <trkpt lat="44.40148" lon="3.73479">
        <ele>1306.568848</ele>
        <time>2013-08-05T09:16:09Z</time>
      </trkpt>
      <trkpt lat="44.40143" lon="3.73466">
        <ele>1307.049561</ele>
        <time>2013-08-05T09:16:17Z</time>
      </trkpt>
      <trkpt lat="44.4014" lon="3.73461">
        <ele>1308.01123</ele>
        <time>2013-08-05T09:16:21Z</time>
      </trkpt>
      <trkpt lat="44.40139" lon="3.73449">
        <ele>1310.414307</ele>
        <time>2013-08-05T09:16:27Z</time>
      </trkpt>
      <trkpt lat="44.40137" lon="3.73443">
        <ele>1310.89502</ele>
        <time>2013-08-05T09:16:31Z</time>
      </trkpt>
      <trkpt lat="44.40136" lon="3.73431">
        <ele>1310.89502</ele>
        <time>2013-08-05T09:16:38Z</time>
      </trkpt>
      <trkpt lat="44.40141" lon="3.73425">
        <ele>1309.933594</ele>
        <time>2013-08-05T09:16:43Z</time>
      </trkpt>
      <trkpt lat="44.40142" lon="3.73414">
        <ele>1310.414307</ele>
        <time>2013-08-05T09:16:50Z</time>
      </trkpt>
      <trkpt lat="44.40138" lon="3.73388">
        <ele>1312.336914</ele>
        <time>2013-08-05T09:17:04Z</time>
      </trkpt>
      <trkpt lat="44.40138" lon="3.7337">
        <ele>1314.259521</ele>
        <time>2013-08-05T09:17:16Z</time>
      </trkpt>
      <trkpt lat="44.40141" lon="3.73359">
        <ele>1315.220947</ele>
        <time>2013-08-05T09:17:23Z</time>
      </trkpt>
      <trkpt lat="44.40143" lon="3.73336">
        <ele>1317.624023</ele>
        <time>2013-08-05T09:17:37Z</time>
      </trkpt>
      <trkpt lat="44.40144" lon="3.73322">
        <ele>1317.624023</ele>
        <time>2013-08-05T09:17:45Z</time>
      </trkpt>
      <trkpt lat="44.40146" lon="3.73314">
        <ele>1318.104736</ele>
        <time>2013-08-05T09:17:50Z</time>
      </trkpt>
      <trkpt lat="44.40147" lon="3.73305">
        <ele>1320.508057</ele>
        <time>2013-08-05T09:17:56Z</time>
      </trkpt>
      <trkpt lat="44.40154" lon="3.73289">
        <ele>1322.430664</ele>
        <time>2013-08-05T09:18:07Z</time>
      </trkpt>
      <trkpt lat="44.40154" lon="3.73288">
        <ele>1322.911377</ele>
        <time>2013-08-05T09:18:08Z</time>
      </trkpt>
      <trkpt lat="44.40159" lon="3.73271">
        <ele>1323.39209</ele>
        <time>2013-08-05T09:18:19Z</time>
      </trkpt>
      <trkpt lat="44.40159" lon="3.73267">
        <ele>1323.39209</ele>
        <time>2013-08-05T09:18:21Z</time>
      </trkpt>
      <trkpt lat="44.40161" lon="3.73264">
        <ele>1323.872559</ele>
        <time>2013-08-05T09:18:24Z</time>
      </trkpt>
      <trkpt lat="44.40165" lon="3.7326">
        <ele>1323.872559</ele>
        <time>2013-08-05T09:18:28Z</time>
      </trkpt>
      <trkpt lat="44.40178" lon="3.73239">
        <ele>1324.834229</ele>
        <time>2013-08-05T09:18:42Z</time>
      </trkpt>
      <trkpt lat="44.40184" lon="3.73225">
        <ele>1327.718018</ele>
        <time>2013-08-05T09:18:51Z</time>
      </trkpt>
      <trkpt lat="44.40188" lon="3.73211">
        <ele>1328.679443</ele>
        <time>2013-08-05T09:18:58Z</time>
      </trkpt>
      <trkpt lat="44.40188" lon="3.73206">
        <ele>1328.679443</ele>
        <time>2013-08-05T09:19:01Z</time>
      </trkpt>
      <trkpt lat="44.40191" lon="3.73174">
        <ele>1330.121338</ele>
        <time>2013-08-05T09:19:17Z</time>
      </trkpt>
      <trkpt lat="44.40195" lon="3.73157">
        <ele>1331.082764</ele>
        <time>2013-08-05T09:19:27Z</time>
      </trkpt>
      <trkpt lat="44.40199" lon="3.73136">
        <ele>1331.563232</ele>
        <time>2013-08-05T09:19:38Z</time>
      </trkpt>
      <trkpt lat="44.40201" lon="3.73123">
        <ele>1331.082764</ele>
        <time>2013-08-05T09:19:45Z</time>
      </trkpt>
      <trkpt lat="44.40203" lon="3.73113">
        <ele>1331.082764</ele>
        <time>2013-08-05T09:19:51Z</time>
      </trkpt>
      <trkpt lat="44.40207" lon="3.73099">
        <ele>1331.082764</ele>
        <time>2013-08-05T09:19:59Z</time>
      </trkpt>
      <trkpt lat="44.40206" lon="3.73094">
        <ele>1331.082764</ele>
        <time>2013-08-05T09:20:11Z</time>
      </trkpt>
      <trkpt lat="44.40205" lon="3.73091">
        <ele>1332.043945</ele>
        <time>2013-08-05T09:20:28Z</time>
      </trkpt>
      <trkpt lat="44.40209" lon="3.73081">
        <ele>1332.043945</ele>
        <time>2013-08-05T09:20:45Z</time>
      </trkpt>
      <trkpt lat="44.40206" lon="3.73072">
        <ele>1332.043945</ele>
        <time>2013-08-05T09:21:01Z</time>
      </trkpt>
      <trkpt lat="44.40207" lon="3.73061">
        <ele>1334.447266</ele>
        <time>2013-08-05T09:21:18Z</time>
      </trkpt>
      <trkpt lat="44.40207" lon="3.73056">
        <ele>1334.447266</ele>
        <time>2013-08-05T09:21:31Z</time>
      </trkpt>
      <trkpt lat="44.40207" lon="3.73055">
        <ele>1334.447266</ele>
        <time>2013-08-05T09:21:34Z</time>
      </trkpt>
      <trkpt lat="44.40204" lon="3.73033">
        <ele>1337.811768</ele>
        <time>2013-08-05T09:21:49Z</time>
      </trkpt>
      <trkpt lat="44.40201" lon="3.73019">
        <ele>1339.253662</ele>
        <time>2013-08-05T09:22:03Z</time>
      </trkpt>
      <trkpt lat="44.40199" lon="3.73004">
        <ele>1341.657227</ele>
        <time>2013-08-05T09:22:16Z</time>
      </trkpt>
      <trkpt lat="44.40198" lon="3.72985">
        <ele>1344.541016</ele>
        <time>2013-08-05T09:22:28Z</time>
      </trkpt>
      <trkpt lat="44.40195" lon="3.72959">
        <ele>1347.905762</ele>
        <time>2013-08-05T09:22:44Z</time>
      </trkpt>
      <trkpt lat="44.40195" lon="3.72926">
        <ele>1349.347656</ele>
        <time>2013-08-05T09:23:04Z</time>
      </trkpt>
      <trkpt lat="44.40198" lon="3.72904">
        <ele>1350.309082</ele>
        <time>2013-08-05T09:23:18Z</time>
      </trkpt>
      <trkpt lat="44.4021" lon="3.72897">
        <ele>1349.828369</ele>
        <time>2013-08-05T09:23:32Z</time>
      </trkpt>
      <trkpt lat="44.40224" lon="3.7289">
        <ele>1351.750977</ele>
        <time>2013-08-05T09:23:45Z</time>
      </trkpt>
      <trkpt lat="44.40228" lon="3.72888">
        <ele>1354.634766</ele>
        <time>2013-08-05T09:23:49Z</time>
      </trkpt>
      <trkpt lat="44.40229" lon="3.72889">
        <ele>1355.115479</ele>
        <time>2013-08-05T09:23:50Z</time>
      </trkpt>
      <trkpt lat="44.40231" lon="3.72889">
        <ele>1353.192871</ele>
        <time>2013-08-05T09:23:52Z</time>
      </trkpt>
      <trkpt lat="44.40238" lon="3.72887">
        <ele>1353.673584</ele>
        <time>2013-08-05T09:23:58Z</time>
      </trkpt>
      <trkpt lat="44.40253" lon="3.72883">
        <ele>1355.596191</ele>
        <time>2013-08-05T09:24:13Z</time>
      </trkpt>
      <trkpt lat="44.40253" lon="3.72883">
        <ele>1358.960938</ele>
        <time>2013-08-05T09:24:14Z</time>
      </trkpt>
      <trkpt lat="44.40264" lon="3.72883">
        <ele>1359.44165</ele>
        <time>2013-08-05T09:24:23Z</time>
      </trkpt>
      <trkpt lat="44.4027" lon="3.72883">
        <ele>1360.402832</ele>
        <time>2013-08-05T09:24:29Z</time>
      </trkpt>
      <trkpt lat="44.40277" lon="3.72884">
        <ele>1361.844971</ele>
        <time>2013-08-05T09:24:36Z</time>
      </trkpt>
      <trkpt lat="44.40292" lon="3.72883">
        <ele>1363.767334</ele>
        <time>2013-08-05T09:24:50Z</time>
      </trkpt>
      <trkpt lat="44.40307" lon="3.72882">
        <ele>1366.170654</ele>
        <time>2013-08-05T09:25:04Z</time>
      </trkpt>
      <trkpt lat="44.40312" lon="3.72883">
        <ele>1366.170654</ele>
        <time>2013-08-05T09:25:08Z</time>
      </trkpt>
      <trkpt lat="44.40315" lon="3.72883">
        <ele>1366.170654</ele>
        <time>2013-08-05T09:25:11Z</time>
      </trkpt>
      <trkpt lat="44.4032" lon="3.72884">
        <ele>1367.13208</ele>
        <time>2013-08-05T09:25:16Z</time>
      </trkpt>
      <trkpt lat="44.40324" lon="3.72883">
        <ele>1368.093262</ele>
        <time>2013-08-05T09:25:20Z</time>
      </trkpt>
      <trkpt lat="44.40335" lon="3.72885">
        <ele>1369.5354</ele>
        <time>2013-08-05T09:25:29Z</time>
      </trkpt>
      <trkpt lat="44.4034" lon="3.72887">
        <ele>1371.457764</ele>
        <time>2013-08-05T09:25:35Z</time>
      </trkpt>
      <trkpt lat="44.40344" lon="3.72887">
        <ele>1371.938477</ele>
        <time>2013-08-05T09:25:39Z</time>
      </trkpt>
      <trkpt lat="44.40354" lon="3.72891">
        <ele>1375.303223</ele>
        <time>2013-08-05T09:25:52Z</time>
      </trkpt>
      <trkpt lat="44.40368" lon="3.72895">
        <ele>1375.783936</ele>
        <time>2013-08-05T09:26:03Z</time>
      </trkpt>
      <trkpt lat="44.40376" lon="3.72897">
        <ele>1375.783936</ele>
        <time>2013-08-05T09:26:14Z</time>
      </trkpt>
      <trkpt lat="44.40384" lon="3.72899">
        <ele>1376.745361</ele>
        <time>2013-08-05T09:26:25Z</time>
      </trkpt>
      <trkpt lat="44.40391" lon="3.72897">
        <ele>1377.706543</ele>
        <time>2013-08-05T09:26:33Z</time>
      </trkpt>
      <trkpt lat="44.404" lon="3.72898">
        <ele>1380.109863</ele>
        <time>2013-08-05T09:26:45Z</time>
      </trkpt>
      <trkpt lat="44.40403" lon="3.72895">
        <ele>1381.071289</ele>
        <time>2013-08-05T09:27:02Z</time>
      </trkpt>
      <trkpt lat="44.40417" lon="3.72899">
        <ele>1382.032471</ele>
        <time>2013-08-05T09:27:16Z</time>
      </trkpt>
      <trkpt lat="44.4043" lon="3.72901">
        <ele>1384.435791</ele>
        <time>2013-08-05T09:27:30Z</time>
      </trkpt>
      <trkpt lat="44.40431" lon="3.72902">
        <ele>1384.916504</ele>
        <time>2013-08-05T09:27:31Z</time>
      </trkpt>
      <trkpt lat="44.4044" lon="3.72904">
        <ele>1386.358398</ele>
        <time>2013-08-05T09:27:42Z</time>
      </trkpt>
      <trkpt lat="44.40442" lon="3.72904">
        <ele>1386.838867</ele>
        <time>2013-08-05T09:27:45Z</time>
      </trkpt>
      <trkpt lat="44.4045" lon="3.72907">
        <ele>1388.28125</ele>
        <time>2013-08-05T09:27:52Z</time>
      </trkpt>
      <trkpt lat="44.4046" lon="3.72911">
        <ele>1389.242432</ele>
        <time>2013-08-05T09:28:00Z</time>
      </trkpt>
      <trkpt lat="44.40464" lon="3.72917">
        <ele>1389.723145</ele>
        <time>2013-08-05T09:28:04Z</time>
      </trkpt>
      <trkpt lat="44.40467" lon="3.72916">
        <ele>1391.165039</ele>
        <time>2013-08-05T09:28:07Z</time>
      </trkpt>
      <trkpt lat="44.40479" lon="3.72917">
        <ele>1392.607178</ele>
        <time>2013-08-05T09:28:20Z</time>
      </trkpt>
      <trkpt lat="44.4049" lon="3.7292">
        <ele>1394.049072</ele>
        <time>2013-08-05T09:28:30Z</time>
      </trkpt>
      <trkpt lat="44.40492" lon="3.72921">
        <ele>1395.010254</ele>
        <time>2013-08-05T09:28:32Z</time>
      </trkpt>
      <trkpt lat="44.40495" lon="3.72924">
        <ele>1396.452393</ele>
        <time>2013-08-05T09:28:37Z</time>
      </trkpt>
      <trkpt lat="44.40498" lon="3.72928">
        <ele>1396.452393</ele>
        <time>2013-08-05T09:28:40Z</time>
      </trkpt>
      <trkpt lat="44.40508" lon="3.72937">
        <ele>1396.932861</ele>
        <time>2013-08-05T09:28:53Z</time>
      </trkpt>
      <trkpt lat="44.40512" lon="3.72937">
        <ele>1397.894287</ele>
        <time>2013-08-05T09:29:07Z</time>
      </trkpt>
      <trkpt lat="44.4051" lon="3.7294">
        <ele>1398.374756</ele>
        <time>2013-08-05T09:29:24Z</time>
      </trkpt>
      <trkpt lat="44.4051" lon="3.72943">
        <ele>1398.855469</ele>
        <time>2013-08-05T09:29:27Z</time>
      </trkpt>
      <trkpt lat="44.40513" lon="3.72942">
        <ele>1400.778076</ele>
        <time>2013-08-05T09:29:31Z</time>
      </trkpt>
      <trkpt lat="44.40514" lon="3.72945">
        <ele>1396.932861</ele>
        <time>2013-08-05T09:29:42Z</time>
      </trkpt>
      <trkpt lat="44.40511" lon="3.72945">
        <ele>1397.894287</ele>
        <time>2013-08-05T09:30:11Z</time>
      </trkpt>
      <trkpt lat="44.40513" lon="3.72945">
        <ele>1394.049072</ele>
        <time>2013-08-05T09:30:22Z</time>
      </trkpt>
      <trkpt lat="44.40513" lon="3.72945">
        <ele>1403.662109</ele>
        <time>2013-08-05T09:30:23Z</time>
      </trkpt>
      <trkpt lat="44.40514" lon="3.72945">
        <ele>1400.778076</ele>
        <time>2013-08-05T09:30:24Z</time>
      </trkpt>
      <trkpt lat="44.40509" lon="3.72944">
        <ele>1398.855469</ele>
        <time>2013-08-05T09:31:26Z</time>
      </trkpt>
      <trkpt lat="44.40512" lon="3.72942">
        <ele>1398.855469</ele>
        <time>2013-08-05T09:33:25Z</time>
      </trkpt>
      <trkpt lat="44.40514" lon="3.72941">
        <ele>1398.374756</ele>
        <time>2013-08-05T09:33:49Z</time>
      </trkpt>
      <trkpt lat="44.40515" lon="3.72941">
        <ele>1398.855469</ele>
        <time>2013-08-05T09:34:13Z</time>
      </trkpt>
      <trkpt lat="44.40516" lon="3.72941">
        <ele>1398.855469</ele>
        <time>2013-08-05T09:34:39Z</time>
      </trkpt>
      <trkpt lat="44.40515" lon="3.72941">
        <ele>1399.336182</ele>
        <time>2013-08-05T09:35:00Z</time>
      </trkpt>
      <trkpt lat="44.40515" lon="3.72941">
        <ele>1398.855469</ele>
        <time>2013-08-05T09:35:22Z</time>
      </trkpt>
      <trkpt lat="44.40514" lon="3.72942">
        <ele>1400.297607</ele>
        <time>2013-08-05T09:35:52Z</time>
      </trkpt>
      <trkpt lat="44.40516" lon="3.72942">
        <ele>1400.778076</ele>
        <time>2013-08-05T09:35:58Z</time>
      </trkpt>
      <trkpt lat="44.40518" lon="3.72941">
        <ele>1398.855469</ele>
        <time>2013-08-05T09:36:05Z</time>
      </trkpt>
      <trkpt lat="44.40516" lon="3.72941">
        <ele>1398.855469</ele>
        <time>2013-08-05T09:36:28Z</time>
      </trkpt>
      <trkpt lat="44.40516" lon="3.7294">
        <ele>1399.336182</ele>
        <time>2013-08-05T09:36:52Z</time>
      </trkpt>
      <trkpt lat="44.40513" lon="3.72941">
        <ele>1398.855469</ele>
        <time>2013-08-05T09:37:16Z</time>
      </trkpt>
      <trkpt lat="44.40515" lon="3.72941">
        <ele>1399.816895</ele>
        <time>2013-08-05T09:37:38Z</time>
      </trkpt>
      <trkpt lat="44.40517" lon="3.7294">
        <ele>1399.336182</ele>
        <time>2013-08-05T09:38:04Z</time>
      </trkpt>
      <trkpt lat="44.40516" lon="3.72941">
        <ele>1400.778076</ele>
        <time>2013-08-05T09:38:27Z</time>
      </trkpt>
      <trkpt lat="44.40515" lon="3.72942">
        <ele>1400.778076</ele>
        <time>2013-08-05T09:38:55Z</time>
      </trkpt>
      <trkpt lat="44.40513" lon="3.72942">
        <ele>1401.739502</ele>
        <time>2013-08-05T09:39:24Z</time>
      </trkpt>
      <trkpt lat="44.40512" lon="3.7294">
        <ele>1401.739502</ele>
        <time>2013-08-05T09:39:57Z</time>
      </trkpt>
      <trkpt lat="44.40512" lon="3.7294">
        <ele>1400.297607</ele>
        <time>2013-08-05T09:40:53Z</time>
      </trkpt>
      <trkpt lat="44.40512" lon="3.72941">
        <ele>1400.778076</ele>
        <time>2013-08-05T09:43:47Z</time>
      </trkpt>
      <trkpt lat="44.40512" lon="3.72941">
        <ele>1401.739502</ele>
        <time>2013-08-05T09:44:30Z</time>
      </trkpt>
      <trkpt lat="44.40514" lon="3.72943">
        <ele>1401.258789</ele>
        <time>2013-08-05T09:45:08Z</time>
      </trkpt>
      <trkpt lat="44.40516" lon="3.72943">
        <ele>1398.855469</ele>
        <time>2013-08-05T09:45:56Z</time>
      </trkpt>
      <trkpt lat="44.40511" lon="3.72941">
        <ele>1400.297607</ele>
        <time>2013-08-05T09:48:26Z</time>
      </trkpt>
      <trkpt lat="44.40513" lon="3.72939">
        <ele>1403.662109</ele>
        <time>2013-08-05T09:50:18Z</time>
      </trkpt>
      <trkpt lat="44.40514" lon="3.7294">
        <ele>1403.662109</ele>
        <time>2013-08-05T09:50:56Z</time>
      </trkpt>
      <trkpt lat="44.40508" lon="3.72938">
        <ele>1404.623535</ele>
        <time>2013-08-05T09:52:21Z</time>
      </trkpt>
      <trkpt lat="44.40505" lon="3.72936">
        <ele>1404.623535</ele>
        <time>2013-08-05T09:52:36Z</time>
      </trkpt>
      <trkpt lat="44.40508" lon="3.72938">
        <ele>1403.662109</ele>
        <time>2013-08-05T09:52:53Z</time>
      </trkpt>
      <trkpt lat="44.40506" lon="3.72937">
        <ele>1404.623535</ele>
        <time>2013-08-05T09:53:13Z</time>
      </trkpt>
      <trkpt lat="44.40508" lon="3.72937">
        <ele>1405.104248</ele>
        <time>2013-08-05T09:53:33Z</time>
      </trkpt>
      <trkpt lat="44.4051" lon="3.7294">
        <ele>1404.623535</ele>
        <time>2013-08-05T09:54:08Z</time>
      </trkpt>
      <trkpt lat="44.40517" lon="3.72946">
        <ele>1404.143066</ele>
        <time>2013-08-05T09:55:44Z</time>
      </trkpt>
      <trkpt lat="44.40515" lon="3.72939">
        <ele>1402.700684</ele>
        <time>2013-08-05T09:58:18Z</time>
      </trkpt>
      <trkpt lat="44.4052" lon="3.72942">
        <ele>1404.143066</ele>
        <time>2013-08-05T09:58:28Z</time>
      </trkpt>
      <trkpt lat="44.40526" lon="3.72943">
        <ele>1405.584961</ele>
        <time>2013-08-05T09:58:38Z</time>
      </trkpt>
      <trkpt lat="44.40528" lon="3.72944">
        <ele>1408.949463</ele>
        <time>2013-08-05T09:58:41Z</time>
      </trkpt>
      <trkpt lat="44.40531" lon="3.72946">
        <ele>1407.988281</ele>
        <time>2013-08-05T09:58:48Z</time>
      </trkpt>
      <trkpt lat="44.40533" lon="3.72947">
        <ele>1409.430176</ele>
        <time>2013-08-05T09:58:51Z</time>
      </trkpt>
      <trkpt lat="44.40542" lon="3.7295">
        <ele>1409.910645</ele>
        <time>2013-08-05T09:59:05Z</time>
      </trkpt>
      <trkpt lat="44.40545" lon="3.72953">
        <ele>1409.430176</ele>
        <time>2013-08-05T09:59:09Z</time>
      </trkpt>
      <trkpt lat="44.40543" lon="3.72967">
        <ele>1411.352783</ele>
        <time>2013-08-05T09:59:21Z</time>
      </trkpt>
      <trkpt lat="44.40543" lon="3.72979">
        <ele>1408.46875</ele>
        <time>2013-08-05T09:59:28Z</time>
      </trkpt>
      <trkpt lat="44.40543" lon="3.72983">
        <ele>1410.391357</ele>
        <time>2013-08-05T09:59:30Z</time>
      </trkpt>
      <trkpt lat="44.40543" lon="3.72987">
        <ele>1409.430176</ele>
        <time>2013-08-05T09:59:32Z</time>
      </trkpt>
      <trkpt lat="44.40541" lon="3.73009">
        <ele>1410.391357</ele>
        <time>2013-08-05T09:59:45Z</time>
      </trkpt>
      <trkpt lat="44.40542" lon="3.7301">
        <ele>1409.910645</ele>
        <time>2013-08-05T09:59:46Z</time>
      </trkpt>
      <trkpt lat="44.40546" lon="3.73036">
        <ele>1408.46875</ele>
        <time>2013-08-05T10:00:00Z</time>
      </trkpt>
      <trkpt lat="44.40544" lon="3.73042">
        <ele>1410.391357</ele>
        <time>2013-08-05T10:00:03Z</time>
      </trkpt>
      <trkpt lat="44.40544" lon="3.73059">
        <ele>1410.391357</ele>
        <time>2013-08-05T10:00:13Z</time>
      </trkpt>
      <trkpt lat="44.40546" lon="3.73074">
        <ele>1410.87207</ele>
        <time>2013-08-05T10:00:21Z</time>
      </trkpt>
      <trkpt lat="44.40543" lon="3.73084">
        <ele>1411.352783</ele>
        <time>2013-08-05T10:00:26Z</time>
      </trkpt>
      <trkpt lat="44.40546" lon="3.73098">
        <ele>1412.313965</ele>
        <time>2013-08-05T10:00:34Z</time>
      </trkpt>
      <trkpt lat="44.40545" lon="3.73105">
        <ele>1411.833496</ele>
        <time>2013-08-05T10:00:39Z</time>
      </trkpt>
      <trkpt lat="44.40549" lon="3.7313">
        <ele>1412.313965</ele>
        <time>2013-08-05T10:00:52Z</time>
      </trkpt>
      <trkpt lat="44.40551" lon="3.73136">
        <ele>1413.275391</ele>
        <time>2013-08-05T10:00:56Z</time>
      </trkpt>
      <trkpt lat="44.40568" lon="3.73133">
        <ele>1414.236572</ele>
        <time>2013-08-05T10:01:08Z</time>
      </trkpt>
      <trkpt lat="44.40579" lon="3.73125">
        <ele>1415.197998</ele>
        <time>2013-08-05T10:01:20Z</time>
      </trkpt>
      <trkpt lat="44.4059" lon="3.73123">
        <ele>1415.678711</ele>
        <time>2013-08-05T10:01:29Z</time>
      </trkpt>
      <trkpt lat="44.40597" lon="3.73127">
        <ele>1415.197998</ele>
        <time>2013-08-05T10:01:34Z</time>
      </trkpt>
      <trkpt lat="44.40602" lon="3.73127">
        <ele>1415.197998</ele>
        <time>2013-08-05T10:01:37Z</time>
      </trkpt>
      <trkpt lat="44.40623" lon="3.73132">
        <ele>1417.120605</ele>
        <time>2013-08-05T10:01:50Z</time>
      </trkpt>
      <trkpt lat="44.40641" lon="3.73134">
        <ele>1417.120605</ele>
        <time>2013-08-05T10:02:03Z</time>
      </trkpt>
      <trkpt lat="44.40644" lon="3.73134">
        <ele>1417.120605</ele>
        <time>2013-08-05T10:02:07Z</time>
      </trkpt>
      <trkpt lat="44.40651" lon="3.73135">
        <ele>1422.407959</ele>
        <time>2013-08-05T10:02:13Z</time>
      </trkpt>
      <trkpt lat="44.40652" lon="3.73136">
        <ele>1418.081787</ele>
        <time>2013-08-05T10:02:14Z</time>
      </trkpt>
      <trkpt lat="44.40655" lon="3.73136">
        <ele>1421.927246</ele>
        <time>2013-08-05T10:02:16Z</time>
      </trkpt>
      <trkpt lat="44.40656" lon="3.73137">
        <ele>1420.485352</ele>
        <time>2013-08-05T10:02:17Z</time>
      </trkpt>
      <trkpt lat="44.40657" lon="3.73137">
        <ele>1418.5625</ele>
        <time>2013-08-05T10:02:19Z</time>
      </trkpt>
      <trkpt lat="44.40671" lon="3.7314">
        <ele>1421.446533</ele>
        <time>2013-08-05T10:02:30Z</time>
      </trkpt>
      <trkpt lat="44.40687" lon="3.73141">
        <ele>1422.407959</ele>
        <time>2013-08-05T10:02:43Z</time>
      </trkpt>
      <trkpt lat="44.407" lon="3.73141">
        <ele>1422.407959</ele>
        <time>2013-08-05T10:02:55Z</time>
      </trkpt>
      <trkpt lat="44.40717" lon="3.73145">
        <ele>1424.330566</ele>
        <time>2013-08-05T10:03:10Z</time>
      </trkpt>
      <trkpt lat="44.40733" lon="3.73152">
        <ele>1425.772461</ele>
        <time>2013-08-05T10:03:22Z</time>
      </trkpt>
      <trkpt lat="44.40746" lon="3.73158">
        <ele>1425.772461</ele>
        <time>2013-08-05T10:03:33Z</time>
      </trkpt>
      <trkpt lat="44.40753" lon="3.73165">
        <ele>1425.772461</ele>
        <time>2013-08-05T10:03:41Z</time>
      </trkpt>
      <trkpt lat="44.40766" lon="3.73175">
        <ele>1426.733887</ele>
        <time>2013-08-05T10:03:56Z</time>
      </trkpt>
      <trkpt lat="44.40774" lon="3.73187">
        <ele>1426.733887</ele>
        <time>2013-08-05T10:04:06Z</time>
      </trkpt>
      <trkpt lat="44.40781" lon="3.73199">
        <ele>1428.175781</ele>
        <time>2013-08-05T10:04:17Z</time>
      </trkpt>
      <trkpt lat="44.40781" lon="3.73201">
        <ele>1428.656494</ele>
        <time>2013-08-05T10:04:18Z</time>
      </trkpt>
      <trkpt lat="44.40784" lon="3.73203">
        <ele>1429.617676</ele>
        <time>2013-08-05T10:04:20Z</time>
      </trkpt>
      <trkpt lat="44.40798" lon="3.73219">
        <ele>1429.136963</ele>
        <time>2013-08-05T10:04:31Z</time>
      </trkpt>
      <trkpt lat="44.40798" lon="3.7322">
        <ele>1430.098389</ele>
        <time>2013-08-05T10:04:32Z</time>
      </trkpt>
      <trkpt lat="44.40804" lon="3.73228">
        <ele>1430.579102</ele>
        <time>2013-08-05T10:04:38Z</time>
      </trkpt>
      <trkpt lat="44.40811" lon="3.73234">
        <ele>1431.059814</ele>
        <time>2013-08-05T10:04:42Z</time>
      </trkpt>
      <trkpt lat="44.40817" lon="3.73241">
        <ele>1432.020996</ele>
        <time>2013-08-05T10:04:45Z</time>
      </trkpt>
      <trkpt lat="44.40821" lon="3.73246">
        <ele>1432.020996</ele>
        <time>2013-08-05T10:04:49Z</time>
      </trkpt>
      <trkpt lat="44.40833" lon="3.73267">
        <ele>1431.540283</ele>
        <time>2013-08-05T10:05:03Z</time>
      </trkpt>
      <trkpt lat="44.40844" lon="3.7328">
        <ele>1431.059814</ele>
        <time>2013-08-05T10:05:17Z</time>
      </trkpt>
      <trkpt lat="44.40855" lon="3.73294">
        <ele>1432.020996</ele>
        <time>2013-08-05T10:05:30Z</time>
      </trkpt>
      <trkpt lat="44.40865" lon="3.73307">
        <ele>1432.982178</ele>
        <time>2013-08-05T10:05:39Z</time>
      </trkpt>
      <trkpt lat="44.40883" lon="3.73319">
        <ele>1431.540283</ele>
        <time>2013-08-05T10:05:53Z</time>
      </trkpt>
      <trkpt lat="44.40888" lon="3.73324">
        <ele>1432.020996</ele>
        <time>2013-08-05T10:05:57Z</time>
      </trkpt>
      <trkpt lat="44.40902" lon="3.73331">
        <ele>1432.501709</ele>
        <time>2013-08-05T10:06:11Z</time>
      </trkpt>
      <trkpt lat="44.40915" lon="3.73339">
        <ele>1432.982178</ele>
        <time>2013-08-05T10:06:22Z</time>
      </trkpt>
      <trkpt lat="44.40933" lon="3.73351">
        <ele>1433.943604</ele>
        <time>2013-08-05T10:06:35Z</time>
      </trkpt>
      <trkpt lat="44.40948" lon="3.7336">
        <ele>1433.943604</ele>
        <time>2013-08-05T10:06:47Z</time>
      </trkpt>
      <trkpt lat="44.40963" lon="3.73368">
        <ele>1434.905029</ele>
        <time>2013-08-05T10:07:01Z</time>
      </trkpt>
      <trkpt lat="44.40986" lon="3.73381">
        <ele>1436.347168</ele>
        <time>2013-08-05T10:07:18Z</time>
      </trkpt>
      <trkpt lat="44.40988" lon="3.73382">
        <ele>1435.866211</ele>
        <time>2013-08-05T10:07:19Z</time>
      </trkpt>
      <trkpt lat="44.40996" lon="3.73385">
        <ele>1436.347168</ele>
        <time>2013-08-05T10:07:26Z</time>
      </trkpt>
      <trkpt lat="44.41011" lon="3.73393">
        <ele>1437.789062</ele>
        <time>2013-08-05T10:07:39Z</time>
      </trkpt>
      <trkpt lat="44.41014" lon="3.73394">
        <ele>1439.230957</ele>
        <time>2013-08-05T10:07:43Z</time>
      </trkpt>
      <trkpt lat="44.41019" lon="3.73398">
        <ele>1439.71167</ele>
        <time>2013-08-05T10:07:47Z</time>
      </trkpt>
      <trkpt lat="44.41029" lon="3.73404">
        <ele>1441.153564</ele>
        <time>2013-08-05T10:08:00Z</time>
      </trkpt>
      <trkpt lat="44.41034" lon="3.7341">
        <ele>1442.11499</ele>
        <time>2013-08-05T10:08:08Z</time>
      </trkpt>
      <trkpt lat="44.4105" lon="3.73429">
        <ele>1443.076172</ele>
        <time>2013-08-05T10:08:22Z</time>
      </trkpt>
      <trkpt lat="44.4106" lon="3.73447">
        <ele>1444.037598</ele>
        <time>2013-08-05T10:08:33Z</time>
      </trkpt>
      <trkpt lat="44.41068" lon="3.73459">
        <ele>1444.998779</ele>
        <time>2013-08-05T10:08:46Z</time>
      </trkpt>
      <trkpt lat="44.41075" lon="3.73468">
        <ele>1446.921387</ele>
        <time>2013-08-05T10:08:51Z</time>
      </trkpt>
      <trkpt lat="44.41085" lon="3.73487">
        <ele>1446.921387</ele>
        <time>2013-08-05T10:09:05Z</time>
      </trkpt>
      <trkpt lat="44.41092" lon="3.73498">
        <ele>1447.882812</ele>
        <time>2013-08-05T10:09:14Z</time>
      </trkpt>
      <trkpt lat="44.41099" lon="3.73516">
        <ele>1447.4021</ele>
        <time>2013-08-05T10:09:22Z</time>
      </trkpt>
      <trkpt lat="44.41103" lon="3.73524">
        <ele>1447.882812</ele>
        <time>2013-08-05T10:09:28Z</time>
      </trkpt>
      <trkpt lat="44.41109" lon="3.73533">
        <ele>1448.843994</ele>
        <time>2013-08-05T10:09:43Z</time>
      </trkpt>
      <trkpt lat="44.41111" lon="3.73535">
        <ele>1448.843994</ele>
        <time>2013-08-05T10:09:45Z</time>
      </trkpt>
      <trkpt lat="44.41115" lon="3.73545">
        <ele>1449.80542</ele>
        <time>2013-08-05T10:09:53Z</time>
      </trkpt>
      <trkpt lat="44.41128" lon="3.73572">
        <ele>1451.728027</ele>
        <time>2013-08-05T10:10:09Z</time>
      </trkpt>
      <trkpt lat="44.41142" lon="3.73592">
        <ele>1452.689453</ele>
        <time>2013-08-05T10:10:23Z</time>
      </trkpt>
      <trkpt lat="44.41154" lon="3.73615">
        <ele>1453.170166</ele>
        <time>2013-08-05T10:10:39Z</time>
      </trkpt>
      <trkpt lat="44.41165" lon="3.73636">
        <ele>1454.612061</ele>
        <time>2013-08-05T10:10:53Z</time>
      </trkpt>
      <trkpt lat="44.41166" lon="3.7364">
        <ele>1454.131592</ele>
        <time>2013-08-05T10:10:57Z</time>
      </trkpt>
      <trkpt lat="44.41176" lon="3.73663">
        <ele>1455.092773</ele>
        <time>2013-08-05T10:11:10Z</time>
      </trkpt>
      <trkpt lat="44.41179" lon="3.73673">
        <ele>1455.092773</ele>
        <time>2013-08-05T10:11:16Z</time>
      </trkpt>
      <trkpt lat="44.41182" lon="3.73682">
        <ele>1455.573486</ele>
        <time>2013-08-05T10:11:22Z</time>
      </trkpt>
      <trkpt lat="44.41187" lon="3.73693">
        <ele>1454.612061</ele>
        <time>2013-08-05T10:11:29Z</time>
      </trkpt>
      <trkpt lat="44.41196" lon="3.7372">
        <ele>1454.612061</ele>
        <time>2013-08-05T10:11:44Z</time>
      </trkpt>
      <trkpt lat="44.41199" lon="3.73725">
        <ele>1454.612061</ele>
        <time>2013-08-05T10:11:48Z</time>
      </trkpt>
      <trkpt lat="44.412" lon="3.73728">
        <ele>1454.131592</ele>
        <time>2013-08-05T10:11:50Z</time>
      </trkpt>
      <trkpt lat="44.41206" lon="3.73735">
        <ele>1454.131592</ele>
        <time>2013-08-05T10:11:55Z</time>
      </trkpt>
      <trkpt lat="44.41214" lon="3.73755">
        <ele>1453.650879</ele>
        <time>2013-08-05T10:12:08Z</time>
      </trkpt>
      <trkpt lat="44.41221" lon="3.73774">
        <ele>1454.131592</ele>
        <time>2013-08-05T10:12:19Z</time>
      </trkpt>
      <trkpt lat="44.41227" lon="3.73792">
        <ele>1454.612061</ele>
        <time>2013-08-05T10:12:29Z</time>
      </trkpt>
      <trkpt lat="44.4123" lon="3.738">
        <ele>1454.131592</ele>
        <time>2013-08-05T10:12:34Z</time>
      </trkpt>
      <trkpt lat="44.41243" lon="3.73824">
        <ele>1457.496094</ele>
        <time>2013-08-05T10:12:50Z</time>
      </trkpt>
      <trkpt lat="44.41256" lon="3.73849">
        <ele>1457.496094</ele>
        <time>2013-08-05T10:13:08Z</time>
      </trkpt>
      <trkpt lat="44.41258" lon="3.73854">
        <ele>1457.976807</ele>
        <time>2013-08-05T10:13:11Z</time>
      </trkpt>
      <trkpt lat="44.4127" lon="3.73874">
        <ele>1458.937988</ele>
        <time>2013-08-05T10:13:26Z</time>
      </trkpt>
      <trkpt lat="44.41272" lon="3.73876">
        <ele>1459.418701</ele>
        <time>2013-08-05T10:13:28Z</time>
      </trkpt>
      <trkpt lat="44.41277" lon="3.73875">
        <ele>1459.418701</ele>
        <time>2013-08-05T10:13:32Z</time>
      </trkpt>
      <trkpt lat="44.4129" lon="3.73858">
        <ele>1463.263916</ele>
        <time>2013-08-05T10:13:46Z</time>
      </trkpt>
      <trkpt lat="44.41291" lon="3.73848">
        <ele>1462.783203</ele>
        <time>2013-08-05T10:13:52Z</time>
      </trkpt>
      <trkpt lat="44.41298" lon="3.7383">
        <ele>1462.30249</ele>
        <time>2013-08-05T10:14:03Z</time>
      </trkpt>
      <trkpt lat="44.41309" lon="3.73811">
        <ele>1464.225098</ele>
        <time>2013-08-05T10:14:17Z</time>
      </trkpt>
      <trkpt lat="44.4132" lon="3.738">
        <ele>1465.667236</ele>
        <time>2013-08-05T10:14:30Z</time>
      </trkpt>
      <trkpt lat="44.41335" lon="3.73792">
        <ele>1466.147705</ele>
        <time>2013-08-05T10:14:41Z</time>
      </trkpt>
      <trkpt lat="44.41342" lon="3.73786">
        <ele>1467.5896</ele>
        <time>2013-08-05T10:14:50Z</time>
      </trkpt>
      <trkpt lat="44.41353" lon="3.73781">
        <ele>1468.070557</ele>
        <time>2013-08-05T10:15:01Z</time>
      </trkpt>
      <trkpt lat="44.41358" lon="3.73777">
        <ele>1469.993164</ele>
        <time>2013-08-05T10:15:06Z</time>
      </trkpt>
      <trkpt lat="44.41361" lon="3.73777">
        <ele>1469.031982</ele>
        <time>2013-08-05T10:15:07Z</time>
      </trkpt>
      <trkpt lat="44.41367" lon="3.73772">
        <ele>1469.031982</ele>
        <time>2013-08-05T10:15:14Z</time>
      </trkpt>
      <trkpt lat="44.41377" lon="3.73763">
        <ele>1470.95459</ele>
        <time>2013-08-05T10:15:24Z</time>
      </trkpt>
      <trkpt lat="44.41397" lon="3.73753">
        <ele>1470.95459</ele>
        <time>2013-08-05T10:15:40Z</time>
      </trkpt>
      <trkpt lat="44.41405" lon="3.73751">
        <ele>1476.241699</ele>
        <time>2013-08-05T10:15:46Z</time>
      </trkpt>
      <trkpt lat="44.41406" lon="3.73751">
        <ele>1473.35791</ele>
        <time>2013-08-05T10:15:47Z</time>
      </trkpt>
      <trkpt lat="44.41408" lon="3.73748">
        <ele>1472.877197</ele>
        <time>2013-08-05T10:15:50Z</time>
      </trkpt>
      <trkpt lat="44.41418" lon="3.73748">
        <ele>1475.760986</ele>
        <time>2013-08-05T10:15:57Z</time>
      </trkpt>
      <trkpt lat="44.41419" lon="3.73747">
        <ele>1475.760986</ele>
        <time>2013-08-05T10:15:58Z</time>
      </trkpt>
      <trkpt lat="44.41422" lon="3.73745">
        <ele>1473.838379</ele>
        <time>2013-08-05T10:16:01Z</time>
      </trkpt>
      <trkpt lat="44.41427" lon="3.73742">
        <ele>1476.241699</ele>
        <time>2013-08-05T10:16:06Z</time>
      </trkpt>
      <trkpt lat="44.41432" lon="3.73739">
        <ele>1475.760986</ele>
        <time>2013-08-05T10:16:12Z</time>
      </trkpt>
      <trkpt lat="44.41446" lon="3.73731">
        <ele>1476.241699</ele>
        <time>2013-08-05T10:16:24Z</time>
      </trkpt>
      <trkpt lat="44.41461" lon="3.73725">
        <ele>1477.203125</ele>
        <time>2013-08-05T10:16:38Z</time>
      </trkpt>
      <trkpt lat="44.41464" lon="3.73723">
        <ele>1477.683594</ele>
        <time>2013-08-05T10:16:40Z</time>
      </trkpt>
      <trkpt lat="44.41482" lon="3.73714">
        <ele>1478.64502</ele>
        <time>2013-08-05T10:16:56Z</time>
      </trkpt>
      <trkpt lat="44.41493" lon="3.73707">
        <ele>1481.528809</ele>
        <time>2013-08-05T10:17:05Z</time>
      </trkpt>
      <trkpt lat="44.41502" lon="3.73701">
        <ele>1482.009521</ele>
        <time>2013-08-05T10:17:15Z</time>
      </trkpt>
      <trkpt lat="44.41513" lon="3.73702">
        <ele>1482.009521</ele>
        <time>2013-08-05T10:17:27Z</time>
      </trkpt>
      <trkpt lat="44.41512" lon="3.73709">
        <ele>1482.970703</ele>
        <time>2013-08-05T10:17:32Z</time>
      </trkpt>
      <trkpt lat="44.41503" lon="3.73733">
        <ele>1482.009521</ele>
        <time>2013-08-05T10:17:46Z</time>
      </trkpt>
      <trkpt lat="44.41494" lon="3.73748">
        <ele>1483.932129</ele>
        <time>2013-08-05T10:17:59Z</time>
      </trkpt>
      <trkpt lat="44.41493" lon="3.73755">
        <ele>1482.970703</ele>
        <time>2013-08-05T10:18:04Z</time>
      </trkpt>
      <trkpt lat="44.41491" lon="3.73758">
        <ele>1483.932129</ele>
        <time>2013-08-05T10:18:06Z</time>
      </trkpt>
      <trkpt lat="44.41486" lon="3.73774">
        <ele>1486.335693</ele>
        <time>2013-08-05T10:18:17Z</time>
      </trkpt>
      <trkpt lat="44.41487" lon="3.73776">
        <ele>1487.296875</ele>
        <time>2013-08-05T10:18:20Z</time>
      </trkpt>
      <trkpt lat="44.41487" lon="3.73778">
        <ele>1487.296875</ele>
        <time>2013-08-05T10:18:23Z</time>
      </trkpt>
      <trkpt lat="44.41492" lon="3.73781">
        <ele>1486.816162</ele>
        <time>2013-08-05T10:18:36Z</time>
      </trkpt>
      <trkpt lat="44.41493" lon="3.73774">
        <ele>1487.777588</ele>
        <time>2013-08-05T10:18:45Z</time>
      </trkpt>
      <trkpt lat="44.41499" lon="3.73777">
        <ele>1488.739014</ele>
        <time>2013-08-05T10:19:56Z</time>
      </trkpt>
      <trkpt lat="44.41508" lon="3.73786">
        <ele>1491.622803</ele>
        <time>2013-08-05T10:20:09Z</time>
      </trkpt>
      <trkpt lat="44.41513" lon="3.73791">
        <ele>1493.064697</ele>
        <time>2013-08-05T10:20:18Z</time>
      </trkpt>
      <trkpt lat="44.41525" lon="3.73797">
        <ele>1494.506592</ele>
        <time>2013-08-05T10:20:33Z</time>
      </trkpt>
      <trkpt lat="44.4153" lon="3.73803">
        <ele>1496.429443</ele>
        <time>2013-08-05T10:20:44Z</time>
      </trkpt>
      <trkpt lat="44.41535" lon="3.73809">
        <ele>1497.871338</ele>
        <time>2013-08-05T10:20:53Z</time>
      </trkpt>
      <trkpt lat="44.41538" lon="3.7382">
        <ele>1499.793945</ele>
        <time>2013-08-05T10:21:04Z</time>
      </trkpt>
      <trkpt lat="44.4154" lon="3.73821">
        <ele>1501.236084</ele>
        <time>2013-08-05T10:21:07Z</time>
      </trkpt>
      <trkpt lat="44.41542" lon="3.73821">
        <ele>1501.236084</ele>
        <time>2013-08-05T10:21:08Z</time>
      </trkpt>
      <trkpt lat="44.41548" lon="3.73821">
        <ele>1505.562012</ele>
        <time>2013-08-05T10:21:20Z</time>
      </trkpt>
      <trkpt lat="44.41556" lon="3.73823">
        <ele>1506.04248</ele>
        <time>2013-08-05T10:21:30Z</time>
      </trkpt>
      <trkpt lat="44.41557" lon="3.73826">
        <ele>1507.484619</ele>
        <time>2013-08-05T10:21:36Z</time>
      </trkpt>
      <trkpt lat="44.41564" lon="3.73829">
        <ele>1507.484619</ele>
        <time>2013-08-05T10:21:45Z</time>
      </trkpt>
      <trkpt lat="44.41573" lon="3.73832">
        <ele>1508.445801</ele>
        <time>2013-08-05T10:21:56Z</time>
      </trkpt>
      <trkpt lat="44.4158" lon="3.73838">
        <ele>1513.252441</ele>
        <time>2013-08-05T10:22:05Z</time>
      </trkpt>
      <trkpt lat="44.41587" lon="3.73843">
        <ele>1513.252441</ele>
        <time>2013-08-05T10:22:17Z</time>
      </trkpt>
      <trkpt lat="44.41588" lon="3.73843">
        <ele>1514.694336</ele>
        <time>2013-08-05T10:22:18Z</time>
      </trkpt>
      <trkpt lat="44.41594" lon="3.73847">
        <ele>1514.694336</ele>
        <time>2013-08-05T10:22:32Z</time>
      </trkpt>
      <trkpt lat="44.41601" lon="3.73854">
        <ele>1518.059082</ele>
        <time>2013-08-05T10:22:44Z</time>
      </trkpt>
      <trkpt lat="44.41603" lon="3.73859">
        <ele>1518.539795</ele>
        <time>2013-08-05T10:22:54Z</time>
      </trkpt>
      <trkpt lat="44.41606" lon="3.73865">
        <ele>1520.462402</ele>
        <time>2013-08-05T10:23:07Z</time>
      </trkpt>
      <trkpt lat="44.41612" lon="3.73866">
        <ele>1521.423584</ele>
        <time>2013-08-05T10:23:17Z</time>
      </trkpt>
      <trkpt lat="44.41618" lon="3.73874">
        <ele>1523.826904</ele>
        <time>2013-08-05T10:23:28Z</time>
      </trkpt>
      <trkpt lat="44.41624" lon="3.73877">
        <ele>1525.749512</ele>
        <time>2013-08-05T10:23:44Z</time>
      </trkpt>
      <trkpt lat="44.41631" lon="3.7388">
        <ele>1529.114014</ele>
        <time>2013-08-05T10:23:56Z</time>
      </trkpt>
      <trkpt lat="44.41638" lon="3.7388">
        <ele>1528.633545</ele>
        <time>2013-08-05T10:24:06Z</time>
      </trkpt>
      <trkpt lat="44.41645" lon="3.73885">
        <ele>1531.517334</ele>
        <time>2013-08-05T10:24:18Z</time>
      </trkpt>
      <trkpt lat="44.41648" lon="3.7389">
        <ele>1535.362793</ele>
        <time>2013-08-05T10:24:24Z</time>
      </trkpt>
      <trkpt lat="44.41658" lon="3.73892">
        <ele>1535.843506</ele>
        <time>2013-08-05T10:24:41Z</time>
      </trkpt>
      <trkpt lat="44.41664" lon="3.73892">
        <ele>1536.804688</ele>
        <time>2013-08-05T10:24:51Z</time>
      </trkpt>
      <trkpt lat="44.41669" lon="3.73896">
        <ele>1538.727539</ele>
        <time>2013-08-05T10:25:01Z</time>
      </trkpt>
      <trkpt lat="44.41671" lon="3.73896">
        <ele>1539.688721</ele>
        <time>2013-08-05T10:25:03Z</time>
      </trkpt>
      <trkpt lat="44.41678" lon="3.73901">
        <ele>1541.611328</ele>
        <time>2013-08-05T10:25:16Z</time>
      </trkpt>
      <trkpt lat="44.41684" lon="3.73904">
        <ele>1542.572754</ele>
        <time>2013-08-05T10:25:28Z</time>
      </trkpt>
      <trkpt lat="44.41686" lon="3.73906">
        <ele>1543.053223</ele>
        <time>2013-08-05T10:25:32Z</time>
      </trkpt>
      <trkpt lat="44.41692" lon="3.73909">
        <ele>1544.97583</ele>
        <time>2013-08-05T10:25:41Z</time>
      </trkpt>
      <trkpt lat="44.41695" lon="3.7391">
        <ele>1545.937256</ele>
        <time>2013-08-05T10:25:47Z</time>
      </trkpt>
      <trkpt lat="44.41701" lon="3.73915">
        <ele>1547.37915</ele>
        <time>2013-08-05T10:25:58Z</time>
      </trkpt>
      <trkpt lat="44.41707" lon="3.73916">
        <ele>1550.263428</ele>
        <time>2013-08-05T10:26:07Z</time>
      </trkpt>
      <trkpt lat="44.41708" lon="3.73918">
        <ele>1551.224609</ele>
        <time>2013-08-05T10:26:13Z</time>
      </trkpt>
      <trkpt lat="44.41711" lon="3.7392">
        <ele>1552.666504</ele>
        <time>2013-08-05T10:26:18Z</time>
      </trkpt>
      <trkpt lat="44.41715" lon="3.73922">
        <ele>1552.666504</ele>
        <time>2013-08-05T10:26:28Z</time>
      </trkpt>
      <trkpt lat="44.41722" lon="3.73927">
        <ele>1553.62793</ele>
        <time>2013-08-05T10:26:38Z</time>
      </trkpt>
      <trkpt lat="44.41723" lon="3.73928">
        <ele>1553.147217</ele>
        <time>2013-08-05T10:26:40Z</time>
      </trkpt>
      <trkpt lat="44.41726" lon="3.73929">
        <ele>1555.069824</ele>
        <time>2013-08-05T10:26:42Z</time>
      </trkpt>
      <trkpt lat="44.4173" lon="3.73933">
        <ele>1556.511719</ele>
        <time>2013-08-05T10:26:52Z</time>
      </trkpt>
      <trkpt lat="44.41733" lon="3.73939">
        <ele>1556.992432</ele>
        <time>2013-08-05T10:27:19Z</time>
      </trkpt>
      <trkpt lat="44.41737" lon="3.73942">
        <ele>1560.356934</ele>
        <time>2013-08-05T10:27:27Z</time>
      </trkpt>
      <trkpt lat="44.41738" lon="3.73942">
        <ele>1560.356934</ele>
        <time>2013-08-05T10:27:28Z</time>
      </trkpt>
      <trkpt lat="44.41741" lon="3.73947">
        <ele>1563.721436</ele>
        <time>2013-08-05T10:27:36Z</time>
      </trkpt>
      <trkpt lat="44.41744" lon="3.73949">
        <ele>1564.683105</ele>
        <time>2013-08-05T10:27:41Z</time>
      </trkpt>
      <trkpt lat="44.4175" lon="3.73951">
        <ele>1565.163818</ele>
        <time>2013-08-05T10:27:51Z</time>
      </trkpt>
      <trkpt lat="44.41755" lon="3.73951">
        <ele>1566.605713</ele>
        <time>2013-08-05T10:28:02Z</time>
      </trkpt>
      <trkpt lat="44.41762" lon="3.73956">
        <ele>1568.047607</ele>
        <time>2013-08-05T10:28:14Z</time>
      </trkpt>
      <trkpt lat="44.41767" lon="3.73954">
        <ele>1568.52832</ele>
        <time>2013-08-05T10:28:23Z</time>
      </trkpt>
      <trkpt lat="44.41769" lon="3.73953">
        <ele>1568.52832</ele>
        <time>2013-08-05T10:28:28Z</time>
      </trkpt>
      <trkpt lat="44.41771" lon="3.73952">
        <ele>1571.412109</ele>
        <time>2013-08-05T10:28:32Z</time>
      </trkpt>
      <trkpt lat="44.41775" lon="3.73949">
        <ele>1571.412109</ele>
        <time>2013-08-05T10:28:45Z</time>
      </trkpt>
      <trkpt lat="44.41779" lon="3.73946">
        <ele>1572.854248</ele>
        <time>2013-08-05T10:28:50Z</time>
      </trkpt>
      <trkpt lat="44.41786" lon="3.73945">
        <ele>1574.296143</ele>
        <time>2013-08-05T10:29:01Z</time>
      </trkpt>
      <trkpt lat="44.41793" lon="3.73945">
        <ele>1574.296143</ele>
        <time>2013-08-05T10:29:09Z</time>
      </trkpt>
      <trkpt lat="44.418" lon="3.73947">
        <ele>1574.776855</ele>
        <time>2013-08-05T10:29:18Z</time>
      </trkpt>
      <trkpt lat="44.41806" lon="3.73946">
        <ele>1579.102539</ele>
        <time>2013-08-05T10:29:26Z</time>
      </trkpt>
      <trkpt lat="44.41814" lon="3.73946">
        <ele>1580.064209</ele>
        <time>2013-08-05T10:29:38Z</time>
      </trkpt>
      <trkpt lat="44.41819" lon="3.73943">
        <ele>1580.064209</ele>
        <time>2013-08-05T10:29:44Z</time>
      </trkpt>
      <trkpt lat="44.41828" lon="3.7394">
        <ele>1582.467529</ele>
        <time>2013-08-05T10:29:55Z</time>
      </trkpt>
      <trkpt lat="44.41833" lon="3.73939">
        <ele>1581.506104</ele>
        <time>2013-08-05T10:30:03Z</time>
      </trkpt>
      <trkpt lat="44.41841" lon="3.73934">
        <ele>1584.390137</ele>
        <time>2013-08-05T10:30:13Z</time>
      </trkpt>
      <trkpt lat="44.41844" lon="3.73931">
        <ele>1581.506104</ele>
        <time>2013-08-05T10:30:19Z</time>
      </trkpt>
      <trkpt lat="44.41845" lon="3.73931">
        <ele>1585.351318</ele>
        <time>2013-08-05T10:30:20Z</time>
      </trkpt>
      <trkpt lat="44.41849" lon="3.7393">
        <ele>1585.832031</ele>
        <time>2013-08-05T10:30:25Z</time>
      </trkpt>
      <trkpt lat="44.4186" lon="3.7393">
        <ele>1586.793213</ele>
        <time>2013-08-05T10:30:37Z</time>
      </trkpt>
      <trkpt lat="44.41866" lon="3.73929">
        <ele>1588.716064</ele>
        <time>2013-08-05T10:30:47Z</time>
      </trkpt>
      <trkpt lat="44.41875" lon="3.7393">
        <ele>1589.677246</ele>
        <time>2013-08-05T10:30:59Z</time>
      </trkpt>
      <trkpt lat="44.41882" lon="3.7393">
        <ele>1593.041748</ele>
        <time>2013-08-05T10:31:09Z</time>
      </trkpt>
      <trkpt lat="44.41883" lon="3.7393">
        <ele>1593.041748</ele>
        <time>2013-08-05T10:31:11Z</time>
      </trkpt>
      <trkpt lat="44.41891" lon="3.73928">
        <ele>1593.522461</ele>
        <time>2013-08-05T10:31:22Z</time>
      </trkpt>
      <trkpt lat="44.41898" lon="3.7393">
        <ele>1596.887207</ele>
        <time>2013-08-05T10:31:33Z</time>
      </trkpt>
      <trkpt lat="44.41908" lon="3.73931">
        <ele>1596.406738</ele>
        <time>2013-08-05T10:31:44Z</time>
      </trkpt>
      <trkpt lat="44.41914" lon="3.7393">
        <ele>1598.809814</ele>
        <time>2013-08-05T10:31:52Z</time>
      </trkpt>
      <trkpt lat="44.41922" lon="3.73933">
        <ele>1600.251953</ele>
        <time>2013-08-05T10:32:03Z</time>
      </trkpt>
      <trkpt lat="44.41929" lon="3.73935">
        <ele>1601.693848</ele>
        <time>2013-08-05T10:32:14Z</time>
      </trkpt>
      <trkpt lat="44.4193" lon="3.73935">
        <ele>1602.174316</ele>
        <time>2013-08-05T10:32:15Z</time>
      </trkpt>
      <trkpt lat="44.41931" lon="3.73933">
        <ele>1603.135742</ele>
        <time>2013-08-05T10:32:20Z</time>
      </trkpt>
      <trkpt lat="44.41942" lon="3.73937">
        <ele>1604.097168</ele>
        <time>2013-08-05T10:32:32Z</time>
      </trkpt>
      <trkpt lat="44.41952" lon="3.73936">
        <ele>1606.500244</ele>
        <time>2013-08-05T10:32:44Z</time>
      </trkpt>
      <trkpt lat="44.4196" lon="3.73938">
        <ele>1607.942383</ele>
        <time>2013-08-05T10:32:59Z</time>
      </trkpt>
      <trkpt lat="44.41966" lon="3.7394">
        <ele>1610.826172</ele>
        <time>2013-08-05T10:33:07Z</time>
      </trkpt>
      <trkpt lat="44.41976" lon="3.73944">
        <ele>1611.787598</ele>
        <time>2013-08-05T10:33:19Z</time>
      </trkpt>
      <trkpt lat="44.41983" lon="3.73948">
        <ele>1612.268311</ele>
        <time>2013-08-05T10:33:27Z</time>
      </trkpt>
      <trkpt lat="44.41993" lon="3.73949">
        <ele>1614.190918</ele>
        <time>2013-08-05T10:33:39Z</time>
      </trkpt>
      <trkpt lat="44.41999" lon="3.7395">
        <ele>1614.671631</ele>
        <time>2013-08-05T10:33:45Z</time>
      </trkpt>
      <trkpt lat="44.42004" lon="3.73952">
        <ele>1615.633057</ele>
        <time>2013-08-05T10:33:50Z</time>
      </trkpt>
      <trkpt lat="44.42013" lon="3.73956">
        <ele>1617.55542</ele>
        <time>2013-08-05T10:34:01Z</time>
      </trkpt>
      <trkpt lat="44.4202" lon="3.73959">
        <ele>1619.478271</ele>
        <time>2013-08-05T10:34:11Z</time>
      </trkpt>
      <trkpt lat="44.42023" lon="3.73963">
        <ele>1619.95874</ele>
        <time>2013-08-05T10:34:16Z</time>
      </trkpt>
      <trkpt lat="44.42031" lon="3.73966">
        <ele>1621.400635</ele>
        <time>2013-08-05T10:34:24Z</time>
      </trkpt>
      <trkpt lat="44.42041" lon="3.73972">
        <ele>1623.323486</ele>
        <time>2013-08-05T10:34:37Z</time>
      </trkpt>
      <trkpt lat="44.42045" lon="3.73975">
        <ele>1624.284668</ele>
        <time>2013-08-05T10:34:43Z</time>
      </trkpt>
      <trkpt lat="44.42051" lon="3.73977">
        <ele>1626.687988</ele>
        <time>2013-08-05T10:34:54Z</time>
      </trkpt>
      <trkpt lat="44.42054" lon="3.73979">
        <ele>1626.687988</ele>
        <time>2013-08-05T10:34:58Z</time>
      </trkpt>
      <trkpt lat="44.42062" lon="3.7398">
        <ele>1628.130127</ele>
        <time>2013-08-05T10:35:08Z</time>
      </trkpt>
      <trkpt lat="44.42066" lon="3.73982">
        <ele>1629.091309</ele>
        <time>2013-08-05T10:35:12Z</time>
      </trkpt>
      <trkpt lat="44.42074" lon="3.73984">
        <ele>1631.494629</ele>
        <time>2013-08-05T10:35:24Z</time>
      </trkpt>
      <trkpt lat="44.42082" lon="3.73986">
        <ele>1632.456055</ele>
        <time>2013-08-05T10:35:33Z</time>
      </trkpt>
      <trkpt lat="44.4209" lon="3.7399">
        <ele>1631.494629</ele>
        <time>2013-08-05T10:35:43Z</time>
      </trkpt>
      <trkpt lat="44.42091" lon="3.73991">
        <ele>1634.859375</ele>
        <time>2013-08-05T10:35:45Z</time>
      </trkpt>
      <trkpt lat="44.42102" lon="3.73999">
        <ele>1635.820557</ele>
        <time>2013-08-05T10:35:59Z</time>
      </trkpt>
      <trkpt lat="44.42105" lon="3.74">
        <ele>1637.262451</ele>
        <time>2013-08-05T10:36:03Z</time>
      </trkpt>
      <trkpt lat="44.42116" lon="3.74004">
        <ele>1638.223877</ele>
        <time>2013-08-05T10:36:15Z</time>
      </trkpt>
      <trkpt lat="44.42125" lon="3.74009">
        <ele>1640.146484</ele>
        <time>2013-08-05T10:36:28Z</time>
      </trkpt>
      <trkpt lat="44.42135" lon="3.74012">
        <ele>1642.549805</ele>
        <time>2013-08-05T10:36:39Z</time>
      </trkpt>
      <trkpt lat="44.42138" lon="3.74014">
        <ele>1642.069092</ele>
        <time>2013-08-05T10:36:42Z</time>
      </trkpt>
      <trkpt lat="44.42146" lon="3.74019">
        <ele>1645.433838</ele>
        <time>2013-08-05T10:36:53Z</time>
      </trkpt>
      <trkpt lat="44.42155" lon="3.74026">
        <ele>1646.395264</ele>
        <time>2013-08-05T10:37:04Z</time>
      </trkpt>
      <trkpt lat="44.42164" lon="3.74032">
        <ele>1648.79834</ele>
        <time>2013-08-05T10:37:15Z</time>
      </trkpt>
      <trkpt lat="44.42165" lon="3.74033">
        <ele>1648.79834</ele>
        <time>2013-08-05T10:37:17Z</time>
      </trkpt>
      <trkpt lat="44.42175" lon="3.74037">
        <ele>1650.240479</ele>
        <time>2013-08-05T10:37:28Z</time>
      </trkpt>
      <trkpt lat="44.42183" lon="3.74041">
        <ele>1652.162842</ele>
        <time>2013-08-05T10:37:39Z</time>
      </trkpt>
      <trkpt lat="44.42188" lon="3.74046">
        <ele>1654.566162</ele>
        <time>2013-08-05T10:37:46Z</time>
      </trkpt>
      <trkpt lat="44.42197" lon="3.74059">
        <ele>1656.008057</ele>
        <time>2013-08-05T10:38:00Z</time>
      </trkpt>
      <trkpt lat="44.42209" lon="3.74071">
        <ele>1659.372803</ele>
        <time>2013-08-05T10:38:14Z</time>
      </trkpt>
      <trkpt lat="44.42212" lon="3.74073">
        <ele>1659.853271</ele>
        <time>2013-08-05T10:38:17Z</time>
      </trkpt>
      <trkpt lat="44.42215" lon="3.74079">
        <ele>1659.372803</ele>
        <time>2013-08-05T10:38:22Z</time>
      </trkpt>
      <trkpt lat="44.42223" lon="3.74082">
        <ele>1660.814941</ele>
        <time>2013-08-05T10:38:31Z</time>
      </trkpt>
      <trkpt lat="44.42228" lon="3.74083">
        <ele>1660.334229</ele>
        <time>2013-08-05T10:38:40Z</time>
      </trkpt>
      <trkpt lat="44.42229" lon="3.74076">
        <ele>1661.295654</ele>
        <time>2013-08-05T10:39:19Z</time>
      </trkpt>
      <trkpt lat="44.42232" lon="3.74071">
        <ele>1661.295654</ele>
        <time>2013-08-05T10:39:24Z</time>
      </trkpt>
      <trkpt lat="44.42237" lon="3.74056">
        <ele>1661.295654</ele>
        <time>2013-08-05T10:39:40Z</time>
      </trkpt>
      <trkpt lat="44.42239" lon="3.74049">
        <ele>1660.334229</ele>
        <time>2013-08-05T10:39:46Z</time>
      </trkpt>
      <trkpt lat="44.4224" lon="3.74043">
        <ele>1661.776367</ele>
        <time>2013-08-05T10:39:51Z</time>
      </trkpt>
      <trkpt lat="44.42242" lon="3.74037">
        <ele>1661.776367</ele>
        <time>2013-08-05T10:39:55Z</time>
      </trkpt>
      <trkpt lat="44.42248" lon="3.74023">
        <ele>1662.737549</ele>
        <time>2013-08-05T10:40:11Z</time>
      </trkpt>
      <trkpt lat="44.42249" lon="3.7402">
        <ele>1661.295654</ele>
        <time>2013-08-05T10:40:14Z</time>
      </trkpt>
      <trkpt lat="44.4225" lon="3.74017">
        <ele>1661.776367</ele>
        <time>2013-08-05T10:40:16Z</time>
      </trkpt>
      <trkpt lat="44.42253" lon="3.74008">
        <ele>1662.737549</ele>
        <time>2013-08-05T10:40:22Z</time>
      </trkpt>
      <trkpt lat="44.42256" lon="3.73993">
        <ele>1663.218262</ele>
        <time>2013-08-05T10:40:32Z</time>
      </trkpt>
      <trkpt lat="44.42258" lon="3.73985">
        <ele>1662.737549</ele>
        <time>2013-08-05T10:40:37Z</time>
      </trkpt>
      <trkpt lat="44.42261" lon="3.73962">
        <ele>1664.660156</ele>
        <time>2013-08-05T10:40:52Z</time>
      </trkpt>
      <trkpt lat="44.42264" lon="3.7395">
        <ele>1664.179443</ele>
        <time>2013-08-05T10:41:00Z</time>
      </trkpt>
      <trkpt lat="44.42264" lon="3.73942">
        <ele>1664.179443</ele>
        <time>2013-08-05T10:41:05Z</time>
      </trkpt>
      <trkpt lat="44.42267" lon="3.73921">
        <ele>1664.660156</ele>
        <time>2013-08-05T10:41:18Z</time>
      </trkpt>
      <trkpt lat="44.42267" lon="3.73904">
        <ele>1664.660156</ele>
        <time>2013-08-05T10:41:29Z</time>
      </trkpt>
      <trkpt lat="44.4227" lon="3.73895">
        <ele>1665.140869</ele>
        <time>2013-08-05T10:41:42Z</time>
      </trkpt>
      <trkpt lat="44.42277" lon="3.73889">
        <ele>1665.140869</ele>
        <time>2013-08-05T10:42:04Z</time>
      </trkpt>
      <trkpt lat="44.42283" lon="3.73888">
        <ele>1667.543945</ele>
        <time>2013-08-05T10:42:10Z</time>
      </trkpt>
      <trkpt lat="44.42286" lon="3.73888">
        <ele>1668.986084</ele>
        <time>2013-08-05T10:42:13Z</time>
      </trkpt>
      <trkpt lat="44.42297" lon="3.73886">
        <ele>1670.427979</ele>
        <time>2013-08-05T10:42:25Z</time>
      </trkpt>
      <trkpt lat="44.42312" lon="3.73883">
        <ele>1671.38916</ele>
        <time>2013-08-05T10:42:40Z</time>
      </trkpt>
      <trkpt lat="44.42326" lon="3.73882">
        <ele>1672.831299</ele>
        <time>2013-08-05T10:42:54Z</time>
      </trkpt>
      <trkpt lat="44.42327" lon="3.73881">
        <ele>1674.753906</ele>
        <time>2013-08-05T10:42:57Z</time>
      </trkpt>
      <trkpt lat="44.42338" lon="3.7388">
        <ele>1675.715088</ele>
        <time>2013-08-05T10:43:10Z</time>
      </trkpt>
      <trkpt lat="44.42345" lon="3.7387">
        <ele>1676.676758</ele>
        <time>2013-08-05T10:43:24Z</time>
      </trkpt>
      <trkpt lat="44.42356" lon="3.73862">
        <ele>1677.637939</ele>
        <time>2013-08-05T10:43:40Z</time>
      </trkpt>
      <trkpt lat="44.42358" lon="3.73867">
        <ele>1678.599365</ele>
        <time>2013-08-05T10:43:47Z</time>
      </trkpt>
      <trkpt lat="44.42365" lon="3.73875">
        <ele>1679.079834</ele>
        <time>2013-08-05T10:43:56Z</time>
      </trkpt>
      <trkpt lat="44.42377" lon="3.73877">
        <ele>1683.405762</ele>
        <time>2013-08-05T10:44:10Z</time>
      </trkpt>
      <trkpt lat="44.42382" lon="3.73877">
        <ele>1684.8479</ele>
        <time>2013-08-05T10:44:15Z</time>
      </trkpt>
      <trkpt lat="44.424" lon="3.73878">
        <ele>1686.770264</ele>
        <time>2013-08-05T10:44:32Z</time>
      </trkpt>
      <trkpt lat="44.42403" lon="3.73877">
        <ele>1687.731689</ele>
        <time>2013-08-05T10:44:35Z</time>
      </trkpt>
      <trkpt lat="44.42421" lon="3.73876">
        <ele>1689.173584</ele>
        <time>2013-08-05T10:44:52Z</time>
      </trkpt>
      <trkpt lat="44.4243" lon="3.73876">
        <ele>1689.173584</ele>
        <time>2013-08-05T10:45:00Z</time>
      </trkpt>
      <trkpt lat="44.42447" lon="3.73878">
        <ele>1691.096191</ele>
        <time>2013-08-05T10:45:17Z</time>
      </trkpt>
      <trkpt lat="44.42461" lon="3.73879">
        <ele>1692.538574</ele>
        <time>2013-08-05T10:45:31Z</time>
      </trkpt>
      <trkpt lat="44.42471" lon="3.73884">
        <ele>1693.980469</ele>
        <time>2013-08-05T10:45:41Z</time>
      </trkpt>
      <trkpt lat="44.42474" lon="3.73884">
        <ele>1694.460938</ele>
        <time>2013-08-05T10:45:43Z</time>
      </trkpt>
      <trkpt lat="44.42475" lon="3.73885">
        <ele>1694.460938</ele>
        <time>2013-08-05T10:45:45Z</time>
      </trkpt>
      <trkpt lat="44.42493" lon="3.73888">
        <ele>1695.903076</ele>
        <time>2013-08-05T10:46:02Z</time>
      </trkpt>
      <trkpt lat="44.42502" lon="3.73891">
        <ele>1695.903076</ele>
        <time>2013-08-05T10:46:10Z</time>
      </trkpt>
      <trkpt lat="44.4251" lon="3.73892">
        <ele>1697.825684</ele>
        <time>2013-08-05T10:46:17Z</time>
      </trkpt>
      <trkpt lat="44.42514" lon="3.73894">
        <ele>1697.825684</ele>
        <time>2013-08-05T10:46:21Z</time>
      </trkpt>
      <trkpt lat="44.42519" lon="3.73897">
        <ele>1698.306152</ele>
        <time>2013-08-05T10:46:26Z</time>
      </trkpt>
      <trkpt lat="44.42538" lon="3.73902">
        <ele>1700.229004</ele>
        <time>2013-08-05T10:46:42Z</time>
      </trkpt>
      <trkpt lat="44.42545" lon="3.73904">
        <ele>1700.709473</ele>
        <time>2013-08-05T10:46:48Z</time>
      </trkpt>
      <trkpt lat="44.42554" lon="3.73905">
        <ele>1700.709473</ele>
        <time>2013-08-05T10:46:55Z</time>
      </trkpt>
      <trkpt lat="44.42566" lon="3.73911">
        <ele>1702.151367</ele>
        <time>2013-08-05T10:47:05Z</time>
      </trkpt>
      <trkpt lat="44.42571" lon="3.73911">
        <ele>1702.151367</ele>
        <time>2013-08-05T10:47:09Z</time>
      </trkpt>
      <trkpt lat="44.42584" lon="3.73919">
        <ele>1701.670898</ele>
        <time>2013-08-05T10:47:22Z</time>
      </trkpt>
      <trkpt lat="44.42596" lon="3.73928">
        <ele>1703.112793</ele>
        <time>2013-08-05T10:47:35Z</time>
      </trkpt>
      <trkpt lat="44.42597" lon="3.73929">
        <ele>1702.151367</ele>
        <time>2013-08-05T10:47:36Z</time>
      </trkpt>
      <trkpt lat="44.42603" lon="3.73933">
        <ele>1702.63208</ele>
        <time>2013-08-05T10:47:45Z</time>
      </trkpt>
      <trkpt lat="44.42606" lon="3.73935">
        <ele>1702.63208</ele>
        <time>2013-08-05T10:47:48Z</time>
      </trkpt>
      <trkpt lat="44.42619" lon="3.73932">
        <ele>1703.112793</ele>
        <time>2013-08-05T10:48:02Z</time>
      </trkpt>
      <trkpt lat="44.42628" lon="3.73927">
        <ele>1704.554688</ele>
        <time>2013-08-05T10:48:14Z</time>
      </trkpt>
      <trkpt lat="44.42628" lon="3.73927">
        <ele>1704.554688</ele>
        <time>2013-08-05T10:48:15Z</time>
      </trkpt>
      <trkpt lat="44.42638" lon="3.73923">
        <ele>1704.074219</ele>
        <time>2013-08-05T10:48:28Z</time>
      </trkpt>
      <trkpt lat="44.42641" lon="3.73921">
        <ele>1704.074219</ele>
        <time>2013-08-05T10:48:31Z</time>
      </trkpt>
      <trkpt lat="44.42647" lon="3.73918">
        <ele>1704.554688</ele>
        <time>2013-08-05T10:48:46Z</time>
      </trkpt>
      <trkpt lat="44.42646" lon="3.73918">
        <ele>1700.709473</ele>
        <time>2013-08-05T10:48:56Z</time>
      </trkpt>
      <trkpt lat="44.42646" lon="3.73918">
        <ele>1702.151367</ele>
        <time>2013-08-05T10:49:02Z</time>
      </trkpt>
      <trkpt lat="44.42646" lon="3.73919">
        <ele>1700.229004</ele>
        <time>2013-08-05T10:49:19Z</time>
      </trkpt>
      <trkpt lat="44.42646" lon="3.73918">
        <ele>1700.229004</ele>
        <time>2013-08-05T10:49:36Z</time>
      </trkpt>
      <trkpt lat="44.42646" lon="3.7392">
        <ele>1700.709473</ele>
        <time>2013-08-05T10:50:59Z</time>
      </trkpt>
      <trkpt lat="44.42643" lon="3.73924">
        <ele>1703.593506</ele>
        <time>2013-08-05T10:51:02Z</time>
      </trkpt>
      <trkpt lat="44.4264" lon="3.73927">
        <ele>1705.516113</ele>
        <time>2013-08-05T10:51:05Z</time>
      </trkpt>
      <trkpt lat="44.42636" lon="3.73934">
        <ele>1703.112793</ele>
        <time>2013-08-05T10:51:11Z</time>
      </trkpt>
      <trkpt lat="44.42632" lon="3.73939">
        <ele>1705.996582</ele>
        <time>2013-08-05T10:51:16Z</time>
      </trkpt>
      <trkpt lat="44.42631" lon="3.73939">
        <ele>1705.996582</ele>
        <time>2013-08-05T10:51:17Z</time>
      </trkpt>
      <trkpt lat="44.42617" lon="3.73929">
        <ele>1705.996582</ele>
        <time>2013-08-05T10:51:29Z</time>
      </trkpt>
      <trkpt lat="44.42616" lon="3.73928">
        <ele>1705.0354</ele>
        <time>2013-08-05T10:51:31Z</time>
      </trkpt>
      <trkpt lat="44.42614" lon="3.73926">
        <ele>1704.074219</ele>
        <time>2013-08-05T10:51:33Z</time>
      </trkpt>
      <trkpt lat="44.42611" lon="3.73919">
        <ele>1704.554688</ele>
        <time>2013-08-05T10:51:44Z</time>
      </trkpt>
      <trkpt lat="44.42612" lon="3.73919">
        <ele>1704.554688</ele>
        <time>2013-08-05T10:51:54Z</time>
      </trkpt>
      <trkpt lat="44.42612" lon="3.73919">
        <ele>1703.112793</ele>
        <time>2013-08-05T10:51:57Z</time>
      </trkpt>
      <trkpt lat="44.42613" lon="3.73919">
        <ele>1703.112793</ele>
        <time>2013-08-05T10:52:13Z</time>
      </trkpt>
      <trkpt lat="44.42613" lon="3.73918">
        <ele>1704.074219</ele>
        <time>2013-08-05T10:53:10Z</time>
      </trkpt>
      <trkpt lat="44.42614" lon="3.73919">
        <ele>1702.63208</ele>
        <time>2013-08-05T10:53:52Z</time>
      </trkpt>
      <trkpt lat="44.42615" lon="3.73919">
        <ele>1702.63208</ele>
        <time>2013-08-05T10:56:21Z</time>
      </trkpt>
      <trkpt lat="44.42614" lon="3.7392">
        <ele>1701.190186</ele>
        <time>2013-08-05T10:57:17Z</time>
      </trkpt>
      <trkpt lat="44.42615" lon="3.73919">
        <ele>1701.190186</ele>
        <time>2013-08-05T10:58:20Z</time>
      </trkpt>
      <trkpt lat="44.42615" lon="3.73919">
        <ele>1702.151367</ele>
        <time>2013-08-05T10:59:17Z</time>
      </trkpt>
      <trkpt lat="44.42613" lon="3.73919">
        <ele>1702.151367</ele>
        <time>2013-08-05T11:00:50Z</time>
      </trkpt>
      <trkpt lat="44.42615" lon="3.73919">
        <ele>1702.151367</ele>
        <time>2013-08-05T11:05:09Z</time>
      </trkpt>
      <trkpt lat="44.42614" lon="3.73919">
        <ele>1702.151367</ele>
        <time>2013-08-05T11:06:53Z</time>
      </trkpt>
      <trkpt lat="44.42615" lon="3.73919">
        <ele>1700.709473</ele>
        <time>2013-08-05T11:07:43Z</time>
      </trkpt>
      <trkpt lat="44.42614" lon="3.73918">
        <ele>1700.709473</ele>
        <time>2013-08-05T11:08:37Z</time>
      </trkpt>
      <trkpt lat="44.42613" lon="3.73919">
        <ele>1699.748291</ele>
        <time>2013-08-05T11:09:15Z</time>
      </trkpt>
      <trkpt lat="44.42614" lon="3.7392">
        <ele>1701.670898</ele>
        <time>2013-08-05T11:11:21Z</time>
      </trkpt>
      <trkpt lat="44.42614" lon="3.73919">
        <ele>1705.0354</ele>
        <time>2013-08-05T11:12:28Z</time>
      </trkpt>
      <trkpt lat="44.42614" lon="3.73919">
        <ele>1701.190186</ele>
        <time>2013-08-05T11:12:30Z</time>
      </trkpt>
      <trkpt lat="44.42614" lon="3.73919">
        <ele>1704.554688</ele>
        <time>2013-08-05T11:12:33Z</time>
      </trkpt>
      <trkpt lat="44.42614" lon="3.73919">
        <ele>1704.074219</ele>
        <time>2013-08-05T11:12:34Z</time>
      </trkpt>
      <trkpt lat="44.42614" lon="3.73919">
        <ele>1700.709473</ele>
        <time>2013-08-05T11:12:38Z</time>
      </trkpt>
      <trkpt lat="44.42614" lon="3.73919">
        <ele>1701.190186</ele>
        <time>2013-08-05T11:13:03Z</time>
      </trkpt>
      <trkpt lat="44.42613" lon="3.73919">
        <ele>1701.190186</ele>
        <time>2013-08-05T11:13:34Z</time>
      </trkpt>
      <trkpt lat="44.42613" lon="3.73921">
        <ele>1700.229004</ele>
        <time>2013-08-05T11:14:26Z</time>
      </trkpt>
      <trkpt lat="44.42613" lon="3.73921">
        <ele>1700.709473</ele>
        <time>2013-08-05T11:15:25Z</time>
      </trkpt>
      <trkpt lat="44.42614" lon="3.7392">
        <ele>1700.709473</ele>
        <time>2013-08-05T11:16:53Z</time>
      </trkpt>
      <trkpt lat="44.42614" lon="3.7392">
        <ele>1700.709473</ele>
        <time>2013-08-05T11:17:47Z</time>
      </trkpt>
      <trkpt lat="44.42614" lon="3.73921">
        <ele>1699.748291</ele>
        <time>2013-08-05T11:18:27Z</time>
      </trkpt>
      <trkpt lat="44.42614" lon="3.7392">
        <ele>1698.786865</ele>
        <time>2013-08-05T11:18:57Z</time>
      </trkpt>
      <trkpt lat="44.42615" lon="3.7392">
        <ele>1699.267578</ele>
        <time>2013-08-05T11:19:33Z</time>
      </trkpt>
      <trkpt lat="44.42614" lon="3.73919">
        <ele>1700.229004</ele>
        <time>2013-08-05T11:21:34Z</time>
      </trkpt>
      <trkpt lat="44.42614" lon="3.7392">
        <ele>1699.748291</ele>
        <time>2013-08-05T11:22:16Z</time>
      </trkpt>
      <trkpt lat="44.42615" lon="3.73918">
        <ele>1699.748291</ele>
        <time>2013-08-05T11:23:06Z</time>
      </trkpt>
      <trkpt lat="44.42614" lon="3.7392">
        <ele>1699.748291</ele>
        <time>2013-08-05T11:23:39Z</time>
      </trkpt>
      <trkpt lat="44.42613" lon="3.73919">
        <ele>1699.267578</ele>
        <time>2013-08-05T11:24:02Z</time>
      </trkpt>
      <trkpt lat="44.42614" lon="3.73918">
        <ele>1699.748291</ele>
        <time>2013-08-05T11:24:40Z</time>
      </trkpt>
      <trkpt lat="44.42614" lon="3.73919">
        <ele>1700.229004</ele>
        <time>2013-08-05T11:25:24Z</time>
      </trkpt>
      <trkpt lat="44.42613" lon="3.7392">
        <ele>1699.748291</ele>
        <time>2013-08-05T11:26:04Z</time>
      </trkpt>
      <trkpt lat="44.42614" lon="3.73919">
        <ele>1699.267578</ele>
        <time>2013-08-05T11:26:44Z</time>
      </trkpt>
      <trkpt lat="44.42612" lon="3.73921">
        <ele>1700.229004</ele>
        <time>2013-08-05T11:26:50Z</time>
      </trkpt>
      <trkpt lat="44.42608" lon="3.73927">
        <ele>1701.670898</ele>
        <time>2013-08-05T11:26:53Z</time>
      </trkpt>
      <trkpt lat="44.42602" lon="3.73923">
        <ele>1702.151367</ele>
        <time>2013-08-05T11:26:59Z</time>
      </trkpt>
      <trkpt lat="44.42597" lon="3.73918">
        <ele>1701.670898</ele>
        <time>2013-08-05T11:27:04Z</time>
      </trkpt>
      <trkpt lat="44.42596" lon="3.73915">
        <ele>1700.229004</ele>
        <time>2013-08-05T11:27:13Z</time>
      </trkpt>
      <trkpt lat="44.42595" lon="3.73917">
        <ele>1700.709473</ele>
        <time>2013-08-05T11:27:17Z</time>
      </trkpt>
      <trkpt lat="44.42597" lon="3.73931">
        <ele>1698.786865</ele>
        <time>2013-08-05T11:27:28Z</time>
      </trkpt>
      <trkpt lat="44.42595" lon="3.73937">
        <ele>1698.786865</ele>
        <time>2013-08-05T11:27:32Z</time>
      </trkpt>
      <trkpt lat="44.4259" lon="3.73944">
        <ele>1698.306152</ele>
        <time>2013-08-05T11:27:38Z</time>
      </trkpt>
      <trkpt lat="44.42584" lon="3.73962">
        <ele>1700.709473</ele>
        <time>2013-08-05T11:27:54Z</time>
      </trkpt>
      <trkpt lat="44.42583" lon="3.73962">
        <ele>1701.190186</ele>
        <time>2013-08-05T11:28:18Z</time>
      </trkpt>
      <trkpt lat="44.42584" lon="3.73965">
        <ele>1699.748291</ele>
        <time>2013-08-05T11:28:30Z</time>
      </trkpt>
      <trkpt lat="44.42593" lon="3.7397">
        <ele>1701.670898</ele>
        <time>2013-08-05T11:28:39Z</time>
      </trkpt>
      <trkpt lat="44.42608" lon="3.7398">
        <ele>1700.709473</ele>
        <time>2013-08-05T11:28:57Z</time>
      </trkpt>
      <trkpt lat="44.42609" lon="3.73982">
        <ele>1698.306152</ele>
        <time>2013-08-05T11:29:12Z</time>
      </trkpt>
      <trkpt lat="44.42609" lon="3.73982">
        <ele>1700.229004</ele>
        <time>2013-08-05T11:29:16Z</time>
      </trkpt>
      <trkpt lat="44.4261" lon="3.7398">
        <ele>1700.229004</ele>
        <time>2013-08-05T11:29:45Z</time>
      </trkpt>
      <trkpt lat="44.42609" lon="3.7398">
        <ele>1698.306152</ele>
        <time>2013-08-05T11:29:54Z</time>
      </trkpt>
      <trkpt lat="44.42609" lon="3.73981">
        <ele>1700.709473</ele>
        <time>2013-08-05T11:30:06Z</time>
      </trkpt>
      <trkpt lat="44.42609" lon="3.73981">
        <ele>1697.825684</ele>
        <time>2013-08-05T11:30:09Z</time>
      </trkpt>
      <trkpt lat="44.4261" lon="3.73981">
        <ele>1699.748291</ele>
        <time>2013-08-05T11:30:43Z</time>
      </trkpt>
      <trkpt lat="44.42612" lon="3.73985">
        <ele>1700.229004</ele>
        <time>2013-08-05T11:30:51Z</time>
      </trkpt>
      <trkpt lat="44.42613" lon="3.73986">
        <ele>1700.229004</ele>
        <time>2013-08-05T11:30:52Z</time>
      </trkpt>
      <trkpt lat="44.42616" lon="3.73994">
        <ele>1697.825684</ele>
        <time>2013-08-05T11:30:58Z</time>
      </trkpt>
      <trkpt lat="44.42618" lon="3.74005">
        <ele>1697.344971</ele>
        <time>2013-08-05T11:31:06Z</time>
      </trkpt>
      <trkpt lat="44.42618" lon="3.74026">
        <ele>1699.267578</ele>
        <time>2013-08-05T11:31:22Z</time>
      </trkpt>
      <trkpt lat="44.4262" lon="3.74038">
        <ele>1697.344971</ele>
        <time>2013-08-05T11:31:30Z</time>
      </trkpt>
      <trkpt lat="44.42623" lon="3.74047">
        <ele>1694.94165</ele>
        <time>2013-08-05T11:31:39Z</time>
      </trkpt>
      <trkpt lat="44.42627" lon="3.74058">
        <ele>1694.94165</ele>
        <time>2013-08-05T11:31:50Z</time>
      </trkpt>
      <trkpt lat="44.42631" lon="3.74073">
        <ele>1693.019043</ele>
        <time>2013-08-05T11:32:00Z</time>
      </trkpt>
      <trkpt lat="44.42631" lon="3.74085">
        <ele>1692.057861</ele>
        <time>2013-08-05T11:32:07Z</time>
      </trkpt>
      <trkpt lat="44.42633" lon="3.74107">
        <ele>1691.576904</ele>
        <time>2013-08-05T11:32:19Z</time>
      </trkpt>
      <trkpt lat="44.42639" lon="3.74143">
        <ele>1690.13501</ele>
        <time>2013-08-05T11:32:41Z</time>
      </trkpt>
      <trkpt lat="44.4264" lon="3.74146">
        <ele>1688.212402</ele>
        <time>2013-08-05T11:32:43Z</time>
      </trkpt>
      <trkpt lat="44.42646" lon="3.74171">
        <ele>1685.809082</ele>
        <time>2013-08-05T11:32:58Z</time>
      </trkpt>
      <trkpt lat="44.42647" lon="3.74179">
        <ele>1684.367188</ele>
        <time>2013-08-05T11:33:03Z</time>
      </trkpt>
      <trkpt lat="44.42651" lon="3.74202">
        <ele>1683.886475</ele>
        <time>2013-08-05T11:33:17Z</time>
      </trkpt>
      <trkpt lat="44.42652" lon="3.74205">
        <ele>1683.886475</ele>
        <time>2013-08-05T11:33:19Z</time>
      </trkpt>
      <trkpt lat="44.42657" lon="3.74234">
        <ele>1681.483154</ele>
        <time>2013-08-05T11:33:36Z</time>
      </trkpt>
      <trkpt lat="44.42657" lon="3.74243">
        <ele>1681.483154</ele>
        <time>2013-08-05T11:33:41Z</time>
      </trkpt>
      <trkpt lat="44.4266" lon="3.74248">
        <ele>1681.963867</ele>
        <time>2013-08-05T11:33:45Z</time>
      </trkpt>
      <trkpt lat="44.42663" lon="3.74266">
        <ele>1680.521973</ele>
        <time>2013-08-05T11:33:57Z</time>
      </trkpt>
      <trkpt lat="44.42666" lon="3.74281">
        <ele>1680.04126</ele>
        <time>2013-08-05T11:34:06Z</time>
      </trkpt>
      <trkpt lat="44.42674" lon="3.74305">
        <ele>1680.04126</ele>
        <time>2013-08-05T11:34:21Z</time>
      </trkpt>
      <trkpt lat="44.4268" lon="3.74328">
        <ele>1679.560547</ele>
        <time>2013-08-05T11:34:35Z</time>
      </trkpt>
      <trkpt lat="44.42684" lon="3.74347">
        <ele>1680.521973</ele>
        <time>2013-08-05T11:34:46Z</time>
      </trkpt>
      <trkpt lat="44.42686" lon="3.74354">
        <ele>1679.560547</ele>
        <time>2013-08-05T11:34:50Z</time>
      </trkpt>
      <trkpt lat="44.42686" lon="3.74359">
        <ele>1681.002686</ele>
        <time>2013-08-05T11:34:53Z</time>
      </trkpt>
      <trkpt lat="44.42691" lon="3.74367">
        <ele>1681.483154</ele>
        <time>2013-08-05T11:34:59Z</time>
      </trkpt>
      <trkpt lat="44.42693" lon="3.74374">
        <ele>1681.002686</ele>
        <time>2013-08-05T11:35:03Z</time>
      </trkpt>
      <trkpt lat="44.42694" lon="3.74388">
        <ele>1682.925049</ele>
        <time>2013-08-05T11:35:10Z</time>
      </trkpt>
      <trkpt lat="44.42698" lon="3.74399">
        <ele>1682.925049</ele>
        <time>2013-08-05T11:35:17Z</time>
      </trkpt>
      <trkpt lat="44.42701" lon="3.74406">
        <ele>1684.8479</ele>
        <time>2013-08-05T11:35:23Z</time>
      </trkpt>
      <trkpt lat="44.42702" lon="3.74407">
        <ele>1683.886475</ele>
        <time>2013-08-05T11:35:25Z</time>
      </trkpt>
      <trkpt lat="44.42708" lon="3.74429">
        <ele>1683.886475</ele>
        <time>2013-08-05T11:35:39Z</time>
      </trkpt>
      <trkpt lat="44.42709" lon="3.74432">
        <ele>1684.8479</ele>
        <time>2013-08-05T11:35:41Z</time>
      </trkpt>
      <trkpt lat="44.42716" lon="3.74454">
        <ele>1686.289795</ele>
        <time>2013-08-05T11:35:55Z</time>
      </trkpt>
      <trkpt lat="44.42717" lon="3.74458">
        <ele>1686.770264</ele>
        <time>2013-08-05T11:35:57Z</time>
      </trkpt>
      <trkpt lat="44.42722" lon="3.74478">
        <ele>1688.212402</ele>
        <time>2013-08-05T11:36:10Z</time>
      </trkpt>
      <trkpt lat="44.42724" lon="3.74486">
        <ele>1690.13501</ele>
        <time>2013-08-05T11:36:15Z</time>
      </trkpt>
      <trkpt lat="44.42734" lon="3.74502">
        <ele>1688.693115</ele>
        <time>2013-08-05T11:36:30Z</time>
      </trkpt>
      <trkpt lat="44.42737" lon="3.74504">
        <ele>1689.173584</ele>
        <time>2013-08-05T11:36:32Z</time>
      </trkpt>
      <trkpt lat="44.42739" lon="3.74507">
        <ele>1689.654297</ele>
        <time>2013-08-05T11:36:35Z</time>
      </trkpt>
      <trkpt lat="44.42742" lon="3.74511">
        <ele>1690.615479</ele>
        <time>2013-08-05T11:36:46Z</time>
      </trkpt>
      <trkpt lat="44.42742" lon="3.74511">
        <ele>1690.615479</ele>
        <time>2013-08-05T11:36:47Z</time>
      </trkpt>
      <trkpt lat="44.42743" lon="3.74513">
        <ele>1691.576904</ele>
        <time>2013-08-05T11:36:56Z</time>
      </trkpt>
      <trkpt lat="44.42746" lon="3.74519">
        <ele>1687.250977</ele>
        <time>2013-08-05T11:37:08Z</time>
      </trkpt>
      <trkpt lat="44.42746" lon="3.74519">
        <ele>1692.057861</ele>
        <time>2013-08-05T11:37:20Z</time>
      </trkpt>
      <trkpt lat="44.42746" lon="3.74519">
        <ele>1692.538574</ele>
        <time>2013-08-05T11:37:21Z</time>
      </trkpt>
      <trkpt lat="44.42746" lon="3.74518">
        <ele>1689.173584</ele>
        <time>2013-08-05T11:37:35Z</time>
      </trkpt>
      <trkpt lat="44.42743" lon="3.74521">
        <ele>1686.289795</ele>
        <time>2013-08-05T11:38:03Z</time>
      </trkpt>
      <trkpt lat="44.42743" lon="3.7452">
        <ele>1692.057861</ele>
        <time>2013-08-05T11:38:05Z</time>
      </trkpt>
      <trkpt lat="44.42743" lon="3.74521">
        <ele>1691.096191</ele>
        <time>2013-08-05T11:38:06Z</time>
      </trkpt>
      <trkpt lat="44.42743" lon="3.74522">
        <ele>1689.173584</ele>
        <time>2013-08-05T11:38:07Z</time>
      </trkpt>
      <trkpt lat="44.42737" lon="3.74533">
        <ele>1686.770264</ele>
        <time>2013-08-05T11:38:17Z</time>
      </trkpt>
      <trkpt lat="44.42738" lon="3.74534">
        <ele>1688.212402</ele>
        <time>2013-08-05T11:38:18Z</time>
      </trkpt>
      <trkpt lat="44.42732" lon="3.74539">
        <ele>1685.328369</ele>
        <time>2013-08-05T11:38:25Z</time>
      </trkpt>
      <trkpt lat="44.42731" lon="3.74541">
        <ele>1687.731689</ele>
        <time>2013-08-05T11:38:27Z</time>
      </trkpt>
      <trkpt lat="44.42728" lon="3.74546">
        <ele>1688.212402</ele>
        <time>2013-08-05T11:38:31Z</time>
      </trkpt>
      <trkpt lat="44.42718" lon="3.74557">
        <ele>1687.731689</ele>
        <time>2013-08-05T11:38:42Z</time>
      </trkpt>
      <trkpt lat="44.42712" lon="3.74565">
        <ele>1686.770264</ele>
        <time>2013-08-05T11:38:48Z</time>
      </trkpt>
      <trkpt lat="44.42707" lon="3.74573">
        <ele>1687.250977</ele>
        <time>2013-08-05T11:38:54Z</time>
      </trkpt>
      <trkpt lat="44.42699" lon="3.74579">
        <ele>1685.809082</ele>
        <time>2013-08-05T11:39:00Z</time>
      </trkpt>
      <trkpt lat="44.42696" lon="3.74583">
        <ele>1686.289795</ele>
        <time>2013-08-05T11:39:03Z</time>
      </trkpt>
      <trkpt lat="44.42687" lon="3.74602">
        <ele>1684.367188</ele>
        <time>2013-08-05T11:39:15Z</time>
      </trkpt>
      <trkpt lat="44.42681" lon="3.7462">
        <ele>1681.963867</ele>
        <time>2013-08-05T11:39:26Z</time>
      </trkpt>
      <trkpt lat="44.42678" lon="3.74636">
        <ele>1682.44458</ele>
        <time>2013-08-05T11:39:35Z</time>
      </trkpt>
      <trkpt lat="44.42677" lon="3.74641">
        <ele>1681.483154</ele>
        <time>2013-08-05T11:39:38Z</time>
      </trkpt>
      <trkpt lat="44.42672" lon="3.74648">
        <ele>1681.483154</ele>
        <time>2013-08-05T11:39:43Z</time>
      </trkpt>
      <trkpt lat="44.42668" lon="3.74669">
        <ele>1680.04126</ele>
        <time>2013-08-05T11:39:55Z</time>
      </trkpt>
      <trkpt lat="44.42668" lon="3.74687">
        <ele>1678.599365</ele>
        <time>2013-08-05T11:40:05Z</time>
      </trkpt>
      <trkpt lat="44.42669" lon="3.747">
        <ele>1678.118652</ele>
        <time>2013-08-05T11:40:17Z</time>
      </trkpt>
      <trkpt lat="44.42669" lon="3.74701">
        <ele>1678.118652</ele>
        <time>2013-08-05T11:40:18Z</time>
      </trkpt>
      <trkpt lat="44.42666" lon="3.74723">
        <ele>1677.157471</ele>
        <time>2013-08-05T11:40:31Z</time>
      </trkpt>
      <trkpt lat="44.42662" lon="3.74746">
        <ele>1674.753906</ele>
        <time>2013-08-05T11:40:43Z</time>
      </trkpt>
      <trkpt lat="44.42662" lon="3.74757">
        <ele>1674.273193</ele>
        <time>2013-08-05T11:40:50Z</time>
      </trkpt>
      <trkpt lat="44.4266" lon="3.74775">
        <ele>1674.273193</ele>
        <time>2013-08-05T11:41:00Z</time>
      </trkpt>
      <trkpt lat="44.42658" lon="3.74789">
        <ele>1673.79248</ele>
        <time>2013-08-05T11:41:10Z</time>
      </trkpt>
      <trkpt lat="44.42659" lon="3.74808">
        <ele>1673.312012</ele>
        <time>2013-08-05T11:41:25Z</time>
      </trkpt>
      <trkpt lat="44.42658" lon="3.74817">
        <ele>1670.908691</ele>
        <time>2013-08-05T11:41:34Z</time>
      </trkpt>
      <trkpt lat="44.42655" lon="3.7483">
        <ele>1669.466797</ele>
        <time>2013-08-05T11:41:42Z</time>
      </trkpt>
      <trkpt lat="44.42654" lon="3.7484">
        <ele>1668.505371</ele>
        <time>2013-08-05T11:41:47Z</time>
      </trkpt>
      <trkpt lat="44.4265" lon="3.74865">
        <ele>1667.543945</ele>
        <time>2013-08-05T11:42:00Z</time>
      </trkpt>
      <trkpt lat="44.42649" lon="3.74873">
        <ele>1667.063477</ele>
        <time>2013-08-05T11:42:04Z</time>
      </trkpt>
      <trkpt lat="44.42647" lon="3.74896">
        <ele>1664.660156</ele>
        <time>2013-08-05T11:42:17Z</time>
      </trkpt>
      <trkpt lat="44.42648" lon="3.74904">
        <ele>1663.69873</ele>
        <time>2013-08-05T11:42:21Z</time>
      </trkpt>
      <trkpt lat="44.42645" lon="3.7492">
        <ele>1662.256836</ele>
        <time>2013-08-05T11:42:31Z</time>
      </trkpt>
      <trkpt lat="44.4264" lon="3.74929">
        <ele>1662.256836</ele>
        <time>2013-08-05T11:42:37Z</time>
      </trkpt>
      <trkpt lat="44.42637" lon="3.74935">
        <ele>1661.295654</ele>
        <time>2013-08-05T11:42:41Z</time>
      </trkpt>
      <trkpt lat="44.42629" lon="3.74948">
        <ele>1660.334229</ele>
        <time>2013-08-05T11:42:50Z</time>
      </trkpt>
      <trkpt lat="44.4263" lon="3.74958">
        <ele>1660.814941</ele>
        <time>2013-08-05T11:42:58Z</time>
      </trkpt>
      <trkpt lat="44.42628" lon="3.74963">
        <ele>1658.89209</ele>
        <time>2013-08-05T11:43:02Z</time>
      </trkpt>
      <trkpt lat="44.42625" lon="3.74969">
        <ele>1658.89209</ele>
        <time>2013-08-05T11:43:06Z</time>
      </trkpt>
      <trkpt lat="44.42624" lon="3.74972">
        <ele>1658.89209</ele>
        <time>2013-08-05T11:43:08Z</time>
      </trkpt>
      <trkpt lat="44.42616" lon="3.74984">
        <ele>1658.411377</ele>
        <time>2013-08-05T11:43:18Z</time>
      </trkpt>
      <trkpt lat="44.4261" lon="3.74988">
        <ele>1658.411377</ele>
        <time>2013-08-05T11:43:23Z</time>
      </trkpt>
      <trkpt lat="44.42602" lon="3.74998">
        <ele>1656.008057</ele>
        <time>2013-08-05T11:43:30Z</time>
      </trkpt>
      <trkpt lat="44.42597" lon="3.75001">
        <ele>1655.527588</ele>
        <time>2013-08-05T11:43:33Z</time>
      </trkpt>
      <trkpt lat="44.42589" lon="3.75006">
        <ele>1655.046875</ele>
        <time>2013-08-05T11:43:39Z</time>
      </trkpt>
      <trkpt lat="44.42581" lon="3.75018">
        <ele>1653.60498</ele>
        <time>2013-08-05T11:43:49Z</time>
      </trkpt>
      <trkpt lat="44.42573" lon="3.75028">
        <ele>1652.162842</ele>
        <time>2013-08-05T11:43:57Z</time>
      </trkpt>
      <trkpt lat="44.42567" lon="3.75036">
        <ele>1652.643555</ele>
        <time>2013-08-05T11:44:05Z</time>
      </trkpt>
      <trkpt lat="44.4256" lon="3.75049">
        <ele>1650.240479</ele>
        <time>2013-08-05T11:44:13Z</time>
      </trkpt>
      <trkpt lat="44.42552" lon="3.75063">
        <ele>1650.240479</ele>
        <time>2013-08-05T11:44:24Z</time>
      </trkpt>
      <trkpt lat="44.42547" lon="3.75067">
        <ele>1649.759766</ele>
        <time>2013-08-05T11:44:28Z</time>
      </trkpt>
      <trkpt lat="44.42543" lon="3.75074">
        <ele>1649.279053</ele>
        <time>2013-08-05T11:44:32Z</time>
      </trkpt>
      <trkpt lat="44.4254" lon="3.75077">
        <ele>1647.837158</ele>
        <time>2013-08-05T11:44:35Z</time>
      </trkpt>
      <trkpt lat="44.42532" lon="3.75094">
        <ele>1645.914551</ele>
        <time>2013-08-05T11:44:47Z</time>
      </trkpt>
      <trkpt lat="44.42523" lon="3.75103">
        <ele>1643.510986</ele>
        <time>2013-08-05T11:44:55Z</time>
      </trkpt>
      <trkpt lat="44.42517" lon="3.75115">
        <ele>1643.030273</ele>
        <time>2013-08-05T11:45:02Z</time>
      </trkpt>
      <trkpt lat="44.42514" lon="3.75123">
        <ele>1642.549805</ele>
        <time>2013-08-05T11:45:06Z</time>
      </trkpt>
      <trkpt lat="44.42512" lon="3.75127">
        <ele>1643.510986</ele>
        <time>2013-08-05T11:45:09Z</time>
      </trkpt>
      <trkpt lat="44.42497" lon="3.75148">
        <ele>1641.107666</ele>
        <time>2013-08-05T11:45:23Z</time>
      </trkpt>
      <trkpt lat="44.42495" lon="3.75153">
        <ele>1641.107666</ele>
        <time>2013-08-05T11:45:26Z</time>
      </trkpt>
      <trkpt lat="44.42494" lon="3.75155">
        <ele>1641.107666</ele>
        <time>2013-08-05T11:45:28Z</time>
      </trkpt>
      <trkpt lat="44.42492" lon="3.7516">
        <ele>1641.107666</ele>
        <time>2013-08-05T11:45:32Z</time>
      </trkpt>
      <trkpt lat="44.42484" lon="3.75173">
        <ele>1640.626953</ele>
        <time>2013-08-05T11:45:40Z</time>
      </trkpt>
      <trkpt lat="44.42478" lon="3.75183">
        <ele>1640.146484</ele>
        <time>2013-08-05T11:45:47Z</time>
      </trkpt>
      <trkpt lat="44.42465" lon="3.75199">
        <ele>1639.665771</ele>
        <time>2013-08-05T11:45:59Z</time>
      </trkpt>
      <trkpt lat="44.42453" lon="3.75214">
        <ele>1639.185059</ele>
        <time>2013-08-05T11:46:12Z</time>
      </trkpt>
      <trkpt lat="44.42448" lon="3.75223">
        <ele>1639.185059</ele>
        <time>2013-08-05T11:46:19Z</time>
      </trkpt>
      <trkpt lat="44.42436" lon="3.75236">
        <ele>1639.665771</ele>
        <time>2013-08-05T11:46:29Z</time>
      </trkpt>
      <trkpt lat="44.4243" lon="3.75244">
        <ele>1639.185059</ele>
        <time>2013-08-05T11:46:35Z</time>
      </trkpt>
      <trkpt lat="44.42418" lon="3.75255">
        <ele>1638.70459</ele>
        <time>2013-08-05T11:46:45Z</time>
      </trkpt>
      <trkpt lat="44.42405" lon="3.75267">
        <ele>1638.70459</ele>
        <time>2013-08-05T11:46:56Z</time>
      </trkpt>
      <trkpt lat="44.42398" lon="3.75272">
        <ele>1638.223877</ele>
        <time>2013-08-05T11:47:01Z</time>
      </trkpt>
      <trkpt lat="44.42382" lon="3.75279">
        <ele>1638.70459</ele>
        <time>2013-08-05T11:47:13Z</time>
      </trkpt>
      <trkpt lat="44.42365" lon="3.75285">
        <ele>1638.223877</ele>
        <time>2013-08-05T11:47:26Z</time>
      </trkpt>
      <trkpt lat="44.42352" lon="3.7529">
        <ele>1637.743164</ele>
        <time>2013-08-05T11:47:36Z</time>
      </trkpt>
      <trkpt lat="44.42332" lon="3.75301">
        <ele>1638.70459</ele>
        <time>2013-08-05T11:47:49Z</time>
      </trkpt>
      <trkpt lat="44.42327" lon="3.75303">
        <ele>1638.70459</ele>
        <time>2013-08-05T11:47:53Z</time>
      </trkpt>
      <trkpt lat="44.42308" lon="3.75311">
        <ele>1637.743164</ele>
        <time>2013-08-05T11:48:06Z</time>
      </trkpt>
      <trkpt lat="44.423" lon="3.75316">
        <ele>1638.223877</ele>
        <time>2013-08-05T11:48:12Z</time>
      </trkpt>
      <trkpt lat="44.42278" lon="3.75321">
        <ele>1637.262451</ele>
        <time>2013-08-05T11:48:28Z</time>
      </trkpt>
      <trkpt lat="44.42258" lon="3.75327">
        <ele>1637.262451</ele>
        <time>2013-08-05T11:48:43Z</time>
      </trkpt>
      <trkpt lat="44.42242" lon="3.75332">
        <ele>1637.262451</ele>
        <time>2013-08-05T11:48:55Z</time>
      </trkpt>
      <trkpt lat="44.42224" lon="3.75339">
        <ele>1636.781738</ele>
        <time>2013-08-05T11:49:07Z</time>
      </trkpt>
      <trkpt lat="44.4222" lon="3.75341">
        <ele>1637.262451</ele>
        <time>2013-08-05T11:49:10Z</time>
      </trkpt>
      <trkpt lat="44.42206" lon="3.75348">
        <ele>1636.30127</ele>
        <time>2013-08-05T11:49:21Z</time>
      </trkpt>
      <trkpt lat="44.42188" lon="3.75352">
        <ele>1636.30127</ele>
        <time>2013-08-05T11:49:33Z</time>
      </trkpt>
      <trkpt lat="44.42172" lon="3.75355">
        <ele>1635.820557</ele>
        <time>2013-08-05T11:49:44Z</time>
      </trkpt>
      <trkpt lat="44.42166" lon="3.75357">
        <ele>1635.339844</ele>
        <time>2013-08-05T11:49:48Z</time>
      </trkpt>
      <trkpt lat="44.42137" lon="3.75367">
        <ele>1634.378662</ele>
        <time>2013-08-05T11:50:08Z</time>
      </trkpt>
      <trkpt lat="44.42121" lon="3.75373">
        <ele>1634.378662</ele>
        <time>2013-08-05T11:50:19Z</time>
      </trkpt>
      <trkpt lat="44.42103" lon="3.75379">
        <ele>1634.378662</ele>
        <time>2013-08-05T11:50:32Z</time>
      </trkpt>
      <trkpt lat="44.42094" lon="3.75385">
        <ele>1633.897949</ele>
        <time>2013-08-05T11:50:39Z</time>
      </trkpt>
      <trkpt lat="44.42088" lon="3.75388">
        <ele>1632.456055</ele>
        <time>2013-08-05T11:50:44Z</time>
      </trkpt>
      <trkpt lat="44.42078" lon="3.75396">
        <ele>1632.936523</ele>
        <time>2013-08-05T11:50:52Z</time>
      </trkpt>
      <trkpt lat="44.4207" lon="3.75403">
        <ele>1632.456055</ele>
        <time>2013-08-05T11:50:59Z</time>
      </trkpt>
      <trkpt lat="44.42053" lon="3.75414">
        <ele>1631.494629</ele>
        <time>2013-08-05T11:51:12Z</time>
      </trkpt>
      <trkpt lat="44.4204" lon="3.75426">
        <ele>1630.533447</ele>
        <time>2013-08-05T11:51:22Z</time>
      </trkpt>
      <trkpt lat="44.42035" lon="3.75429">
        <ele>1630.533447</ele>
        <time>2013-08-05T11:51:26Z</time>
      </trkpt>
      <trkpt lat="44.42022" lon="3.75438">
        <ele>1629.572021</ele>
        <time>2013-08-05T11:51:37Z</time>
      </trkpt>
      <trkpt lat="44.4201" lon="3.7545">
        <ele>1629.572021</ele>
        <time>2013-08-05T11:51:48Z</time>
      </trkpt>
      <trkpt lat="44.42008" lon="3.75452">
        <ele>1628.61084</ele>
        <time>2013-08-05T11:51:50Z</time>
      </trkpt>
      <trkpt lat="44.42" lon="3.75456">
        <ele>1628.61084</ele>
        <time>2013-08-05T11:51:56Z</time>
      </trkpt>
      <trkpt lat="44.41981" lon="3.75474">
        <ele>1627.64917</ele>
        <time>2013-08-05T11:52:11Z</time>
      </trkpt>
      <trkpt lat="44.41963" lon="3.75491">
        <ele>1626.207275</ele>
        <time>2013-08-05T11:52:27Z</time>
      </trkpt>
      <trkpt lat="44.41949" lon="3.75507">
        <ele>1625.726562</ele>
        <time>2013-08-05T11:52:40Z</time>
      </trkpt>
      <trkpt lat="44.41946" lon="3.75511">
        <ele>1625.24585</ele>
        <time>2013-08-05T11:52:43Z</time>
      </trkpt>
      <trkpt lat="44.4194" lon="3.75542">
        <ele>1625.24585</ele>
        <time>2013-08-05T11:52:59Z</time>
      </trkpt>
      <trkpt lat="44.41938" lon="3.75562">
        <ele>1623.803955</ele>
        <time>2013-08-05T11:53:08Z</time>
      </trkpt>
      <trkpt lat="44.41938" lon="3.7558">
        <ele>1624.284668</ele>
        <time>2013-08-05T11:53:17Z</time>
      </trkpt>
      <trkpt lat="44.41937" lon="3.75607">
        <ele>1620.920166</ele>
        <time>2013-08-05T11:53:31Z</time>
      </trkpt>
      <trkpt lat="44.41935" lon="3.75628">
        <ele>1622.362061</ele>
        <time>2013-08-05T11:53:41Z</time>
      </trkpt>
      <trkpt lat="44.41936" lon="3.75635">
        <ele>1620.439453</ele>
        <time>2013-08-05T11:53:44Z</time>
      </trkpt>
      <trkpt lat="44.41936" lon="3.75639">
        <ele>1620.439453</ele>
        <time>2013-08-05T11:53:46Z</time>
      </trkpt>
      <trkpt lat="44.41936" lon="3.75642">
        <ele>1619.478271</ele>
        <time>2013-08-05T11:53:48Z</time>
      </trkpt>
      <trkpt lat="44.41935" lon="3.75664">
        <ele>1618.036133</ele>
        <time>2013-08-05T11:54:00Z</time>
      </trkpt>
      <trkpt lat="44.41934" lon="3.75679">
        <ele>1617.55542</ele>
        <time>2013-08-05T11:54:08Z</time>
      </trkpt>
      <trkpt lat="44.41936" lon="3.75686">
        <ele>1617.55542</ele>
        <time>2013-08-05T11:54:12Z</time>
      </trkpt>
      <trkpt lat="44.41936" lon="3.75697">
        <ele>1617.55542</ele>
        <time>2013-08-05T11:54:18Z</time>
      </trkpt>
      <trkpt lat="44.41931" lon="3.75722">
        <ele>1617.074951</ele>
        <time>2013-08-05T11:54:30Z</time>
      </trkpt>
      <trkpt lat="44.41931" lon="3.75724">
        <ele>1617.074951</ele>
        <time>2013-08-05T11:54:31Z</time>
      </trkpt>
      <trkpt lat="44.41933" lon="3.75746">
        <ele>1616.113525</ele>
        <time>2013-08-05T11:54:43Z</time>
      </trkpt>
      <trkpt lat="44.41931" lon="3.75758">
        <ele>1615.633057</ele>
        <time>2013-08-05T11:54:49Z</time>
      </trkpt>
      <trkpt lat="44.41932" lon="3.7577">
        <ele>1613.710205</ele>
        <time>2013-08-05T11:54:56Z</time>
      </trkpt>
      <trkpt lat="44.41933" lon="3.75774">
        <ele>1614.671631</ele>
        <time>2013-08-05T11:54:58Z</time>
      </trkpt>
      <trkpt lat="44.41933" lon="3.7578">
        <ele>1613.229736</ele>
        <time>2013-08-05T11:55:01Z</time>
      </trkpt>
      <trkpt lat="44.41932" lon="3.75785">
        <ele>1613.229736</ele>
        <time>2013-08-05T11:55:03Z</time>
      </trkpt>
      <trkpt lat="44.41933" lon="3.75798">
        <ele>1612.268311</ele>
        <time>2013-08-05T11:55:10Z</time>
      </trkpt>
      <trkpt lat="44.41932" lon="3.75816">
        <ele>1613.229736</ele>
        <time>2013-08-05T11:55:18Z</time>
      </trkpt>
      <trkpt lat="44.41933" lon="3.75841">
        <ele>1612.268311</ele>
        <time>2013-08-05T11:55:31Z</time>
      </trkpt>
      <trkpt lat="44.41932" lon="3.75845">
        <ele>1611.787598</ele>
        <time>2013-08-05T11:55:33Z</time>
      </trkpt>
      <trkpt lat="44.41933" lon="3.75848">
        <ele>1612.268311</ele>
        <time>2013-08-05T11:55:35Z</time>
      </trkpt>
      <trkpt lat="44.41932" lon="3.7587">
        <ele>1612.749023</ele>
        <time>2013-08-05T11:55:46Z</time>
      </trkpt>
      <trkpt lat="44.41931" lon="3.75885">
        <ele>1612.749023</ele>
        <time>2013-08-05T11:55:54Z</time>
      </trkpt>
      <trkpt lat="44.41932" lon="3.75895">
        <ele>1613.229736</ele>
        <time>2013-08-05T11:56:00Z</time>
      </trkpt>
      <trkpt lat="44.41934" lon="3.7591">
        <ele>1613.229736</ele>
        <time>2013-08-05T11:56:13Z</time>
      </trkpt>
      <trkpt lat="44.41934" lon="3.75912">
        <ele>1613.229736</ele>
        <time>2013-08-05T11:56:14Z</time>
      </trkpt>
      <trkpt lat="44.41932" lon="3.75924">
        <ele>1613.229736</ele>
        <time>2013-08-05T11:56:21Z</time>
      </trkpt>
      <trkpt lat="44.41932" lon="3.75945">
        <ele>1612.268311</ele>
        <time>2013-08-05T11:56:33Z</time>
      </trkpt>
      <trkpt lat="44.41931" lon="3.75971">
        <ele>1611.787598</ele>
        <time>2013-08-05T11:56:48Z</time>
      </trkpt>
      <trkpt lat="44.4193" lon="3.7598">
        <ele>1611.306885</ele>
        <time>2013-08-05T11:56:53Z</time>
      </trkpt>
      <trkpt lat="44.41929" lon="3.75988">
        <ele>1611.306885</ele>
        <time>2013-08-05T11:56:57Z</time>
      </trkpt>
      <trkpt lat="44.41928" lon="3.76002">
        <ele>1611.306885</ele>
        <time>2013-08-05T11:57:10Z</time>
      </trkpt>
      <trkpt lat="44.41928" lon="3.76009">
        <ele>1610.345459</ele>
        <time>2013-08-05T11:57:15Z</time>
      </trkpt>
      <trkpt lat="44.41926" lon="3.76021">
        <ele>1610.345459</ele>
        <time>2013-08-05T11:57:21Z</time>
      </trkpt>
      <trkpt lat="44.41924" lon="3.76043">
        <ele>1609.384277</ele>
        <time>2013-08-05T11:57:32Z</time>
      </trkpt>
      <trkpt lat="44.41923" lon="3.76064">
        <ele>1609.384277</ele>
        <time>2013-08-05T11:57:43Z</time>
      </trkpt>
      <trkpt lat="44.4192" lon="3.76084">
        <ele>1607.942383</ele>
        <time>2013-08-05T11:57:54Z</time>
      </trkpt>
      <trkpt lat="44.41915" lon="3.76109">
        <ele>1607.46167</ele>
        <time>2013-08-05T11:58:06Z</time>
      </trkpt>
      <trkpt lat="44.41914" lon="3.76119">
        <ele>1607.942383</ele>
        <time>2013-08-05T11:58:11Z</time>
      </trkpt>
      <trkpt lat="44.41912" lon="3.76127">
        <ele>1609.384277</ele>
        <time>2013-08-05T11:58:15Z</time>
      </trkpt>
      <trkpt lat="44.41912" lon="3.7614">
        <ele>1608.903564</ele>
        <time>2013-08-05T11:58:22Z</time>
      </trkpt>
      <trkpt lat="44.4191" lon="3.76144">
        <ele>1607.942383</ele>
        <time>2013-08-05T11:58:24Z</time>
      </trkpt>
      <trkpt lat="44.41909" lon="3.7615">
        <ele>1608.903564</ele>
        <time>2013-08-05T11:58:27Z</time>
      </trkpt>
      <trkpt lat="44.41905" lon="3.76163">
        <ele>1610.826172</ele>
        <time>2013-08-05T11:58:34Z</time>
      </trkpt>
      <trkpt lat="44.41903" lon="3.76171">
        <ele>1606.980957</ele>
        <time>2013-08-05T11:58:39Z</time>
      </trkpt>
      <trkpt lat="44.419" lon="3.76177">
        <ele>1607.942383</ele>
        <time>2013-08-05T11:58:43Z</time>
      </trkpt>
      <trkpt lat="44.41896" lon="3.76188">
        <ele>1607.942383</ele>
        <time>2013-08-05T11:58:48Z</time>
      </trkpt>
      <trkpt lat="44.41892" lon="3.76202">
        <ele>1606.500244</ele>
        <time>2013-08-05T11:58:56Z</time>
      </trkpt>
      <trkpt lat="44.41885" lon="3.76228">
        <ele>1606.980957</ele>
        <time>2013-08-05T11:59:10Z</time>
      </trkpt>
      <trkpt lat="44.41884" lon="3.7623">
        <ele>1606.980957</ele>
        <time>2013-08-05T11:59:11Z</time>
      </trkpt>
      <trkpt lat="44.41884" lon="3.76235">
        <ele>1605.539062</ele>
        <time>2013-08-05T11:59:13Z</time>
      </trkpt>
      <trkpt lat="44.41885" lon="3.7625">
        <ele>1606.500244</ele>
        <time>2013-08-05T11:59:21Z</time>
      </trkpt>
      <trkpt lat="44.41878" lon="3.76262">
        <ele>1606.980957</ele>
        <time>2013-08-05T11:59:29Z</time>
      </trkpt>
      <trkpt lat="44.41874" lon="3.76271">
        <ele>1607.46167</ele>
        <time>2013-08-05T11:59:34Z</time>
      </trkpt>
      <trkpt lat="44.41873" lon="3.76275">
        <ele>1606.019531</ele>
        <time>2013-08-05T11:59:36Z</time>
      </trkpt>
      <trkpt lat="44.41873" lon="3.76279">
        <ele>1606.019531</ele>
        <time>2013-08-05T11:59:38Z</time>
      </trkpt>
      <trkpt lat="44.4187" lon="3.76287">
        <ele>1605.05835</ele>
        <time>2013-08-05T11:59:42Z</time>
      </trkpt>
      <trkpt lat="44.4186" lon="3.7631">
        <ele>1603.616455</ele>
        <time>2013-08-05T11:59:54Z</time>
      </trkpt>
      <trkpt lat="44.41856" lon="3.76329">
        <ele>1602.174316</ele>
        <time>2013-08-05T12:00:05Z</time>
      </trkpt>
      <trkpt lat="44.41856" lon="3.76331">
        <ele>1602.174316</ele>
        <time>2013-08-05T12:00:06Z</time>
      </trkpt>
      <trkpt lat="44.41847" lon="3.76352">
        <ele>1601.693848</ele>
        <time>2013-08-05T12:00:17Z</time>
      </trkpt>
      <trkpt lat="44.41839" lon="3.76374">
        <ele>1601.213135</ele>
        <time>2013-08-05T12:00:28Z</time>
      </trkpt>
      <trkpt lat="44.41839" lon="3.76383">
        <ele>1600.732422</ele>
        <time>2013-08-05T12:00:33Z</time>
      </trkpt>
      <trkpt lat="44.41835" lon="3.76398">
        <ele>1600.251953</ele>
        <time>2013-08-05T12:00:40Z</time>
      </trkpt>
      <trkpt lat="44.41831" lon="3.76425">
        <ele>1599.290527</ele>
        <time>2013-08-05T12:00:54Z</time>
      </trkpt>
      <trkpt lat="44.41826" lon="3.76448">
        <ele>1596.887207</ele>
        <time>2013-08-05T12:01:05Z</time>
      </trkpt>
      <trkpt lat="44.41827" lon="3.76452">
        <ele>1596.887207</ele>
        <time>2013-08-05T12:01:08Z</time>
      </trkpt>
      <trkpt lat="44.41823" lon="3.76469">
        <ele>1595.445068</ele>
        <time>2013-08-05T12:01:17Z</time>
      </trkpt>
      <trkpt lat="44.41821" lon="3.76479">
        <ele>1594.964355</ele>
        <time>2013-08-05T12:01:22Z</time>
      </trkpt>
      <trkpt lat="44.41819" lon="3.76489">
        <ele>1594.483643</ele>
        <time>2013-08-05T12:01:27Z</time>
      </trkpt>
      <trkpt lat="44.41817" lon="3.76498">
        <ele>1594.483643</ele>
        <time>2013-08-05T12:01:30Z</time>
      </trkpt>
      <trkpt lat="44.41816" lon="3.76513">
        <ele>1594.483643</ele>
        <time>2013-08-05T12:01:37Z</time>
      </trkpt>
      <trkpt lat="44.41814" lon="3.76535">
        <ele>1594.003174</ele>
        <time>2013-08-05T12:01:49Z</time>
      </trkpt>
      <trkpt lat="44.41815" lon="3.76538">
        <ele>1594.003174</ele>
        <time>2013-08-05T12:01:52Z</time>
      </trkpt>
      <trkpt lat="44.41811" lon="3.76559">
        <ele>1592.561279</ele>
        <time>2013-08-05T12:02:01Z</time>
      </trkpt>
      <trkpt lat="44.4181" lon="3.76563">
        <ele>1593.041748</ele>
        <time>2013-08-05T12:02:03Z</time>
      </trkpt>
      <trkpt lat="44.41808" lon="3.76571">
        <ele>1592.561279</ele>
        <time>2013-08-05T12:02:08Z</time>
      </trkpt>
      <trkpt lat="44.41807" lon="3.76585">
        <ele>1592.080566</ele>
        <time>2013-08-05T12:02:15Z</time>
      </trkpt>
      <trkpt lat="44.41808" lon="3.76595">
        <ele>1591.599854</ele>
        <time>2013-08-05T12:02:20Z</time>
      </trkpt>
      <trkpt lat="44.41808" lon="3.76603">
        <ele>1590.638428</ele>
        <time>2013-08-05T12:02:25Z</time>
      </trkpt>
      <trkpt lat="44.41808" lon="3.76606">
        <ele>1591.119141</ele>
        <time>2013-08-05T12:02:27Z</time>
      </trkpt>
      <trkpt lat="44.41815" lon="3.76625">
        <ele>1590.157959</ele>
        <time>2013-08-05T12:02:34Z</time>
      </trkpt>
      <trkpt lat="44.41815" lon="3.76647">
        <ele>1588.716064</ele>
        <time>2013-08-05T12:02:45Z</time>
      </trkpt>
      <trkpt lat="44.41813" lon="3.76655">
        <ele>1588.235352</ele>
        <time>2013-08-05T12:02:50Z</time>
      </trkpt>
      <trkpt lat="44.41814" lon="3.76668">
        <ele>1587.273926</ele>
        <time>2013-08-05T12:02:56Z</time>
      </trkpt>
      <trkpt lat="44.41814" lon="3.76681">
        <ele>1585.832031</ele>
        <time>2013-08-05T12:03:03Z</time>
      </trkpt>
      <trkpt lat="44.41815" lon="3.76685">
        <ele>1586.312744</ele>
        <time>2013-08-05T12:03:05Z</time>
      </trkpt>
      <trkpt lat="44.41815" lon="3.76709">
        <ele>1585.351318</ele>
        <time>2013-08-05T12:03:17Z</time>
      </trkpt>
      <trkpt lat="44.41817" lon="3.7672">
        <ele>1584.87085</ele>
        <time>2013-08-05T12:03:24Z</time>
      </trkpt>
      <trkpt lat="44.41822" lon="3.76747">
        <ele>1583.909424</ele>
        <time>2013-08-05T12:03:36Z</time>
      </trkpt>
      <trkpt lat="44.41823" lon="3.76749">
        <ele>1583.909424</ele>
        <time>2013-08-05T12:03:37Z</time>
      </trkpt>
      <trkpt lat="44.41826" lon="3.76749">
        <ele>1582.947998</ele>
        <time>2013-08-05T12:03:42Z</time>
      </trkpt>
      <trkpt lat="44.4183" lon="3.76757">
        <ele>1583.428711</ele>
        <time>2013-08-05T12:03:48Z</time>
      </trkpt>
      <trkpt lat="44.4184" lon="3.76769">
        <ele>1582.467529</ele>
        <time>2013-08-05T12:03:59Z</time>
      </trkpt>
      <trkpt lat="44.41845" lon="3.76777">
        <ele>1582.467529</ele>
        <time>2013-08-05T12:04:05Z</time>
      </trkpt>
      <trkpt lat="44.41851" lon="3.76782">
        <ele>1582.947998</ele>
        <time>2013-08-05T12:04:10Z</time>
      </trkpt>
      <trkpt lat="44.41868" lon="3.76795">
        <ele>1582.947998</ele>
        <time>2013-08-05T12:04:20Z</time>
      </trkpt>
      <trkpt lat="44.41875" lon="3.76804">
        <ele>1581.506104</ele>
        <time>2013-08-05T12:04:28Z</time>
      </trkpt>
      <trkpt lat="44.41882" lon="3.76806">
        <ele>1578.141357</ele>
        <time>2013-08-05T12:04:34Z</time>
      </trkpt>
      <trkpt lat="44.41883" lon="3.76807">
        <ele>1579.583252</ele>
        <time>2013-08-05T12:04:35Z</time>
      </trkpt>
      <trkpt lat="44.41894" lon="3.76806">
        <ele>1580.064209</ele>
        <time>2013-08-05T12:04:46Z</time>
      </trkpt>
      <trkpt lat="44.41908" lon="3.7681">
        <ele>1580.064209</ele>
        <time>2013-08-05T12:04:57Z</time>
      </trkpt>
      <trkpt lat="44.41927" lon="3.76813">
        <ele>1578.141357</ele>
        <time>2013-08-05T12:05:10Z</time>
      </trkpt>
      <trkpt lat="44.41932" lon="3.76813">
        <ele>1578.141357</ele>
        <time>2013-08-05T12:05:13Z</time>
      </trkpt>
      <trkpt lat="44.41942" lon="3.76811">
        <ele>1578.141357</ele>
        <time>2013-08-05T12:05:18Z</time>
      </trkpt>
      <trkpt lat="44.41946" lon="3.76812">
        <ele>1576.699463</ele>
        <time>2013-08-05T12:05:21Z</time>
      </trkpt>
      <trkpt lat="44.41949" lon="3.76816">
        <ele>1576.699463</ele>
        <time>2013-08-05T12:05:24Z</time>
      </trkpt>
      <trkpt lat="44.41957" lon="3.76817">
        <ele>1576.699463</ele>
        <time>2013-08-05T12:05:29Z</time>
      </trkpt>
      <trkpt lat="44.41968" lon="3.76822">
        <ele>1576.21875</ele>
        <time>2013-08-05T12:05:44Z</time>
      </trkpt>
      <trkpt lat="44.4197" lon="3.76822">
        <ele>1576.21875</ele>
        <time>2013-08-05T12:05:45Z</time>
      </trkpt>
      <trkpt lat="44.41979" lon="3.76823">
        <ele>1575.257324</ele>
        <time>2013-08-05T12:05:51Z</time>
      </trkpt>
      <trkpt lat="44.41992" lon="3.76826">
        <ele>1573.334961</ele>
        <time>2013-08-05T12:06:02Z</time>
      </trkpt>
      <trkpt lat="44.42" lon="3.76831">
        <ele>1573.81543</ele>
        <time>2013-08-05T12:06:08Z</time>
      </trkpt>
      <trkpt lat="44.42015" lon="3.76834">
        <ele>1572.854248</ele>
        <time>2013-08-05T12:06:21Z</time>
      </trkpt>
      <trkpt lat="44.42031" lon="3.76835">
        <ele>1569.970215</ele>
        <time>2013-08-05T12:06:32Z</time>
      </trkpt>
      <trkpt lat="44.42053" lon="3.76837">
        <ele>1569.970215</ele>
        <time>2013-08-05T12:06:44Z</time>
      </trkpt>
      <trkpt lat="44.42062" lon="3.76845">
        <ele>1568.52832</ele>
        <time>2013-08-05T12:06:55Z</time>
      </trkpt>
      <trkpt lat="44.42078" lon="3.76846">
        <ele>1569.009033</ele>
        <time>2013-08-05T12:07:05Z</time>
      </trkpt>
      <trkpt lat="44.42091" lon="3.7685">
        <ele>1567.566895</ele>
        <time>2013-08-05T12:07:15Z</time>
      </trkpt>
      <trkpt lat="44.42112" lon="3.76854">
        <ele>1566.125</ele>
        <time>2013-08-05T12:07:27Z</time>
      </trkpt>
      <trkpt lat="44.42124" lon="3.76862">
        <ele>1566.125</ele>
        <time>2013-08-05T12:07:39Z</time>
      </trkpt>
      <trkpt lat="44.42145" lon="3.7686">
        <ele>1564.683105</ele>
        <time>2013-08-05T12:07:50Z</time>
      </trkpt>
      <trkpt lat="44.42155" lon="3.76863">
        <ele>1564.202393</ele>
        <time>2013-08-05T12:07:59Z</time>
      </trkpt>
      <trkpt lat="44.42178" lon="3.76868">
        <ele>1563.240967</ele>
        <time>2013-08-05T12:08:13Z</time>
      </trkpt>
      <trkpt lat="44.42197" lon="3.7687">
        <ele>1561.799072</ele>
        <time>2013-08-05T12:08:27Z</time>
      </trkpt>
      <trkpt lat="44.4221" lon="3.76873">
        <ele>1561.799072</ele>
        <time>2013-08-05T12:08:36Z</time>
      </trkpt>
      <trkpt lat="44.42226" lon="3.76874">
        <ele>1562.279541</ele>
        <time>2013-08-05T12:08:44Z</time>
      </trkpt>
      <trkpt lat="44.42248" lon="3.76875">
        <ele>1561.799072</ele>
        <time>2013-08-05T12:08:58Z</time>
      </trkpt>
      <trkpt lat="44.42249" lon="3.76875">
        <ele>1561.318359</ele>
        <time>2013-08-05T12:08:59Z</time>
      </trkpt>
      <trkpt lat="44.42255" lon="3.76871">
        <ele>1561.799072</ele>
        <time>2013-08-05T12:09:03Z</time>
      </trkpt>
      <trkpt lat="44.4227" lon="3.76865">
        <ele>1562.279541</ele>
        <time>2013-08-05T12:09:12Z</time>
      </trkpt>
      <trkpt lat="44.42277" lon="3.76865">
        <ele>1561.318359</ele>
        <time>2013-08-05T12:09:18Z</time>
      </trkpt>
      <trkpt lat="44.42293" lon="3.76864">
        <ele>1560.837646</ele>
        <time>2013-08-05T12:09:30Z</time>
      </trkpt>
      <trkpt lat="44.423" lon="3.76862">
        <ele>1560.356934</ele>
        <time>2013-08-05T12:09:36Z</time>
      </trkpt>
      <trkpt lat="44.4232" lon="3.76854">
        <ele>1559.876221</ele>
        <time>2013-08-05T12:09:49Z</time>
      </trkpt>
      <trkpt lat="44.42323" lon="3.76853">
        <ele>1560.356934</ele>
        <time>2013-08-05T12:09:51Z</time>
      </trkpt>
      <trkpt lat="44.42339" lon="3.76848">
        <ele>1558.434326</ele>
        <time>2013-08-05T12:10:03Z</time>
      </trkpt>
      <trkpt lat="44.4236" lon="3.7684">
        <ele>1557.953857</ele>
        <time>2013-08-05T12:10:19Z</time>
      </trkpt>
      <trkpt lat="44.42363" lon="3.76839">
        <ele>1557.953857</ele>
        <time>2013-08-05T12:10:21Z</time>
      </trkpt>
      <trkpt lat="44.4237" lon="3.7684">
        <ele>1557.473145</ele>
        <time>2013-08-05T12:10:27Z</time>
      </trkpt>
      <trkpt lat="44.42372" lon="3.76848">
        <ele>1556.031006</ele>
        <time>2013-08-05T12:10:31Z</time>
      </trkpt>
      <trkpt lat="44.42367" lon="3.76855">
        <ele>1556.031006</ele>
        <time>2013-08-05T12:10:35Z</time>
      </trkpt>
      <trkpt lat="44.42365" lon="3.76857">
        <ele>1556.992432</ele>
        <time>2013-08-05T12:10:37Z</time>
      </trkpt>
      <trkpt lat="44.4237" lon="3.76855">
        <ele>1556.031006</ele>
        <time>2013-08-05T12:10:54Z</time>
      </trkpt>
      <trkpt lat="44.42376" lon="3.76857">
        <ele>1555.069824</ele>
        <time>2013-08-05T12:12:19Z</time>
      </trkpt>
      <trkpt lat="44.42374" lon="3.76857">
        <ele>1556.031006</ele>
        <time>2013-08-05T12:12:32Z</time>
      </trkpt>
      <trkpt lat="44.42371" lon="3.76858">
        <ele>1556.992432</ele>
        <time>2013-08-05T12:13:14Z</time>
      </trkpt>
      <trkpt lat="44.42374" lon="3.76855">
        <ele>1556.992432</ele>
        <time>2013-08-05T12:13:23Z</time>
      </trkpt>
      <trkpt lat="44.4237" lon="3.76857">
        <ele>1555.069824</ele>
        <time>2013-08-05T12:13:44Z</time>
      </trkpt>
      <trkpt lat="44.42372" lon="3.76857">
        <ele>1557.953857</ele>
        <time>2013-08-05T12:14:13Z</time>
      </trkpt>
      <trkpt lat="44.42374" lon="3.76869">
        <ele>1556.992432</ele>
        <time>2013-08-05T12:14:49Z</time>
      </trkpt>
      <trkpt lat="44.42375" lon="3.76871">
        <ele>1556.511719</ele>
        <time>2013-08-05T12:14:50Z</time>
      </trkpt>
      <trkpt lat="44.42376" lon="3.76876">
        <ele>1556.031006</ele>
        <time>2013-08-05T12:14:54Z</time>
      </trkpt>
      <trkpt lat="44.42381" lon="3.7689">
        <ele>1555.069824</ele>
        <time>2013-08-05T12:15:03Z</time>
      </trkpt>
      <trkpt lat="44.42383" lon="3.76892">
        <ele>1553.62793</ele>
        <time>2013-08-05T12:15:05Z</time>
      </trkpt>
      <trkpt lat="44.4239" lon="3.76907">
        <ele>1553.147217</ele>
        <time>2013-08-05T12:15:16Z</time>
      </trkpt>
      <trkpt lat="44.42393" lon="3.76921">
        <ele>1553.147217</ele>
        <time>2013-08-05T12:15:27Z</time>
      </trkpt>
      <trkpt lat="44.42397" lon="3.76944">
        <ele>1552.185791</ele>
        <time>2013-08-05T12:15:40Z</time>
      </trkpt>
      <trkpt lat="44.42399" lon="3.76953">
        <ele>1551.224609</ele>
        <time>2013-08-05T12:15:45Z</time>
      </trkpt>
      <trkpt lat="44.42405" lon="3.7698">
        <ele>1550.743896</ele>
        <time>2013-08-05T12:16:01Z</time>
      </trkpt>
      <trkpt lat="44.4241" lon="3.76993">
        <ele>1550.743896</ele>
        <time>2013-08-05T12:16:08Z</time>
      </trkpt>
      <trkpt lat="44.42414" lon="3.77008">
        <ele>1550.743896</ele>
        <time>2013-08-05T12:16:17Z</time>
      </trkpt>
      <trkpt lat="44.42423" lon="3.7704">
        <ele>1550.743896</ele>
        <time>2013-08-05T12:16:34Z</time>
      </trkpt>
      <trkpt lat="44.42425" lon="3.77049">
        <ele>1550.743896</ele>
        <time>2013-08-05T12:16:39Z</time>
      </trkpt>
      <trkpt lat="44.42431" lon="3.77063">
        <ele>1551.224609</ele>
        <time>2013-08-05T12:16:47Z</time>
      </trkpt>
      <trkpt lat="44.42439" lon="3.77091">
        <ele>1550.743896</ele>
        <time>2013-08-05T12:17:03Z</time>
      </trkpt>
      <trkpt lat="44.42447" lon="3.77113">
        <ele>1551.705322</ele>
        <time>2013-08-05T12:17:15Z</time>
      </trkpt>
      <trkpt lat="44.4245" lon="3.77124">
        <ele>1553.147217</ele>
        <time>2013-08-05T12:17:22Z</time>
      </trkpt>
      <trkpt lat="44.42452" lon="3.77133">
        <ele>1553.147217</ele>
        <time>2013-08-05T12:17:26Z</time>
      </trkpt>
      <trkpt lat="44.42454" lon="3.77142">
        <ele>1553.62793</ele>
        <time>2013-08-05T12:17:31Z</time>
      </trkpt>
      <trkpt lat="44.42462" lon="3.77159">
        <ele>1554.108643</ele>
        <time>2013-08-05T12:17:42Z</time>
      </trkpt>
      <trkpt lat="44.4247" lon="3.77182">
        <ele>1554.108643</ele>
        <time>2013-08-05T12:17:57Z</time>
      </trkpt>
      <trkpt lat="44.42464" lon="3.77198">
        <ele>1555.069824</ele>
        <time>2013-08-05T12:18:07Z</time>
      </trkpt>
      <trkpt lat="44.42453" lon="3.7722">
        <ele>1556.511719</ele>
        <time>2013-08-05T12:18:21Z</time>
      </trkpt>
      <trkpt lat="44.42451" lon="3.77226">
        <ele>1556.511719</ele>
        <time>2013-08-05T12:18:25Z</time>
      </trkpt>
      <trkpt lat="44.4245" lon="3.77229">
        <ele>1557.953857</ele>
        <time>2013-08-05T12:18:27Z</time>
      </trkpt>
      <trkpt lat="44.42442" lon="3.77244">
        <ele>1557.953857</ele>
        <time>2013-08-05T12:18:38Z</time>
      </trkpt>
      <trkpt lat="44.42441" lon="3.77247">
        <ele>1557.953857</ele>
        <time>2013-08-05T12:18:40Z</time>
      </trkpt>
      <trkpt lat="44.42437" lon="3.77253">
        <ele>1557.473145</ele>
        <time>2013-08-05T12:18:44Z</time>
      </trkpt>
      <trkpt lat="44.42426" lon="3.77279">
        <ele>1557.473145</ele>
        <time>2013-08-05T12:18:58Z</time>
      </trkpt>
      <trkpt lat="44.4242" lon="3.77305">
        <ele>1558.434326</ele>
        <time>2013-08-05T12:19:13Z</time>
      </trkpt>
      <trkpt lat="44.42415" lon="3.77322">
        <ele>1558.434326</ele>
        <time>2013-08-05T12:19:24Z</time>
      </trkpt>
      <trkpt lat="44.42414" lon="3.77329">
        <ele>1558.434326</ele>
        <time>2013-08-05T12:19:28Z</time>
      </trkpt>
      <trkpt lat="44.42407" lon="3.77344">
        <ele>1557.953857</ele>
        <time>2013-08-05T12:19:36Z</time>
      </trkpt>
      <trkpt lat="44.42398" lon="3.77363">
        <ele>1557.473145</ele>
        <time>2013-08-05T12:19:47Z</time>
      </trkpt>
      <trkpt lat="44.42389" lon="3.77391">
        <ele>1557.953857</ele>
        <time>2013-08-05T12:20:01Z</time>
      </trkpt>
      <trkpt lat="44.42383" lon="3.77412">
        <ele>1558.434326</ele>
        <time>2013-08-05T12:20:14Z</time>
      </trkpt>
      <trkpt lat="44.42382" lon="3.7742">
        <ele>1558.915039</ele>
        <time>2013-08-05T12:20:19Z</time>
      </trkpt>
      <trkpt lat="44.42379" lon="3.7743">
        <ele>1557.953857</ele>
        <time>2013-08-05T12:20:25Z</time>
      </trkpt>
      <trkpt lat="44.42377" lon="3.77432">
        <ele>1558.434326</ele>
        <time>2013-08-05T12:20:27Z</time>
      </trkpt>
      <trkpt lat="44.42376" lon="3.77441">
        <ele>1558.434326</ele>
        <time>2013-08-05T12:20:32Z</time>
      </trkpt>
      <trkpt lat="44.42373" lon="3.77449">
        <ele>1557.953857</ele>
        <time>2013-08-05T12:20:37Z</time>
      </trkpt>
      <trkpt lat="44.42367" lon="3.7747">
        <ele>1558.434326</ele>
        <time>2013-08-05T12:20:48Z</time>
      </trkpt>
      <trkpt lat="44.42359" lon="3.77497">
        <ele>1557.473145</ele>
        <time>2013-08-05T12:21:02Z</time>
      </trkpt>
      <trkpt lat="44.42354" lon="3.77518">
        <ele>1557.953857</ele>
        <time>2013-08-05T12:21:14Z</time>
      </trkpt>
      <trkpt lat="44.42346" lon="3.77539">
        <ele>1558.434326</ele>
        <time>2013-08-05T12:21:26Z</time>
      </trkpt>
      <trkpt lat="44.42346" lon="3.77555">
        <ele>1558.434326</ele>
        <time>2013-08-05T12:21:37Z</time>
      </trkpt>
      <trkpt lat="44.42342" lon="3.77572">
        <ele>1558.434326</ele>
        <time>2013-08-05T12:21:45Z</time>
      </trkpt>
      <trkpt lat="44.42342" lon="3.77578">
        <ele>1559.395752</ele>
        <time>2013-08-05T12:21:48Z</time>
      </trkpt>
      <trkpt lat="44.42331" lon="3.776">
        <ele>1558.915039</ele>
        <time>2013-08-05T12:22:01Z</time>
      </trkpt>
      <trkpt lat="44.42317" lon="3.77625">
        <ele>1558.434326</ele>
        <time>2013-08-05T12:22:16Z</time>
      </trkpt>
      <trkpt lat="44.42315" lon="3.77628">
        <ele>1558.434326</ele>
        <time>2013-08-05T12:22:18Z</time>
      </trkpt>
      <trkpt lat="44.423" lon="3.77648">
        <ele>1559.395752</ele>
        <time>2013-08-05T12:22:32Z</time>
      </trkpt>
      <trkpt lat="44.42292" lon="3.77668">
        <ele>1560.837646</ele>
        <time>2013-08-05T12:22:44Z</time>
      </trkpt>
      <trkpt lat="44.42279" lon="3.77691">
        <ele>1561.318359</ele>
        <time>2013-08-05T12:22:59Z</time>
      </trkpt>
      <trkpt lat="44.42274" lon="3.77695">
        <ele>1562.279541</ele>
        <time>2013-08-05T12:23:03Z</time>
      </trkpt>
      <trkpt lat="44.42261" lon="3.77713">
        <ele>1562.279541</ele>
        <time>2013-08-05T12:23:15Z</time>
      </trkpt>
      <trkpt lat="44.42256" lon="3.77718">
        <ele>1562.279541</ele>
        <time>2013-08-05T12:23:19Z</time>
      </trkpt>
      <trkpt lat="44.42246" lon="3.77735">
        <ele>1562.279541</ele>
        <time>2013-08-05T12:23:30Z</time>
      </trkpt>
      <trkpt lat="44.42241" lon="3.77742">
        <ele>1562.760254</ele>
        <time>2013-08-05T12:23:35Z</time>
      </trkpt>
      <trkpt lat="44.42234" lon="3.77749">
        <ele>1563.240967</ele>
        <time>2013-08-05T12:23:41Z</time>
      </trkpt>
      <trkpt lat="44.42232" lon="3.77749">
        <ele>1564.202393</ele>
        <time>2013-08-05T12:23:43Z</time>
      </trkpt>
      <trkpt lat="44.42217" lon="3.77772">
        <ele>1564.202393</ele>
        <time>2013-08-05T12:23:58Z</time>
      </trkpt>
      <trkpt lat="44.42213" lon="3.77776">
        <ele>1564.202393</ele>
        <time>2013-08-05T12:24:02Z</time>
      </trkpt>
      <trkpt lat="44.42208" lon="3.77781">
        <ele>1565.644531</ele>
        <time>2013-08-05T12:24:06Z</time>
      </trkpt>
      <trkpt lat="44.42205" lon="3.77783">
        <ele>1566.125</ele>
        <time>2013-08-05T12:24:08Z</time>
      </trkpt>
      <trkpt lat="44.42191" lon="3.77798">
        <ele>1565.644531</ele>
        <time>2013-08-05T12:24:21Z</time>
      </trkpt>
      <trkpt lat="44.42181" lon="3.77809">
        <ele>1566.605713</ele>
        <time>2013-08-05T12:24:29Z</time>
      </trkpt>
      <trkpt lat="44.42179" lon="3.77814">
        <ele>1567.086426</ele>
        <time>2013-08-05T12:24:33Z</time>
      </trkpt>
      <trkpt lat="44.42164" lon="3.77826">
        <ele>1567.086426</ele>
        <time>2013-08-05T12:24:46Z</time>
      </trkpt>
      <trkpt lat="44.42161" lon="3.7783">
        <ele>1567.566895</ele>
        <time>2013-08-05T12:24:48Z</time>
      </trkpt>
      <trkpt lat="44.42153" lon="3.77839">
        <ele>1567.566895</ele>
        <time>2013-08-05T12:24:55Z</time>
      </trkpt>
      <trkpt lat="44.42143" lon="3.77851">
        <ele>1567.566895</ele>
        <time>2013-08-05T12:25:05Z</time>
      </trkpt>
      <trkpt lat="44.42134" lon="3.77862">
        <ele>1568.047607</ele>
        <time>2013-08-05T12:25:14Z</time>
      </trkpt>
      <trkpt lat="44.42132" lon="3.77865">
        <ele>1567.086426</ele>
        <time>2013-08-05T12:25:16Z</time>
      </trkpt>
      <trkpt lat="44.4212" lon="3.7788">
        <ele>1566.605713</ele>
        <time>2013-08-05T12:25:26Z</time>
      </trkpt>
      <trkpt lat="44.42113" lon="3.77891">
        <ele>1566.125</ele>
        <time>2013-08-05T12:25:34Z</time>
      </trkpt>
      <trkpt lat="44.42104" lon="3.77904">
        <ele>1567.566895</ele>
        <time>2013-08-05T12:25:44Z</time>
      </trkpt>
      <trkpt lat="44.42092" lon="3.77922">
        <ele>1566.125</ele>
        <time>2013-08-05T12:25:58Z</time>
      </trkpt>
      <trkpt lat="44.42077" lon="3.77936">
        <ele>1566.125</ele>
        <time>2013-08-05T12:26:10Z</time>
      </trkpt>
      <trkpt lat="44.42067" lon="3.77944">
        <ele>1566.125</ele>
        <time>2013-08-05T12:26:16Z</time>
      </trkpt>
      <trkpt lat="44.42062" lon="3.77949">
        <ele>1566.125</ele>
        <time>2013-08-05T12:26:20Z</time>
      </trkpt>
      <trkpt lat="44.42049" lon="3.77965">
        <ele>1566.605713</ele>
        <time>2013-08-05T12:26:34Z</time>
      </trkpt>
      <trkpt lat="44.42031" lon="3.77983">
        <ele>1566.125</ele>
        <time>2013-08-05T12:26:49Z</time>
      </trkpt>
      <trkpt lat="44.42015" lon="3.78001">
        <ele>1566.605713</ele>
        <time>2013-08-05T12:27:03Z</time>
      </trkpt>
      <trkpt lat="44.41996" lon="3.78024">
        <ele>1567.086426</ele>
        <time>2013-08-05T12:27:21Z</time>
      </trkpt>
      <trkpt lat="44.41985" lon="3.78042">
        <ele>1567.086426</ele>
        <time>2013-08-05T12:27:33Z</time>
      </trkpt>
      <trkpt lat="44.41978" lon="3.78049">
        <ele>1566.605713</ele>
        <time>2013-08-05T12:27:38Z</time>
      </trkpt>
      <trkpt lat="44.41976" lon="3.78055">
        <ele>1566.125</ele>
        <time>2013-08-05T12:27:41Z</time>
      </trkpt>
      <trkpt lat="44.41971" lon="3.78066">
        <ele>1566.125</ele>
        <time>2013-08-05T12:27:48Z</time>
      </trkpt>
      <trkpt lat="44.41959" lon="3.78081">
        <ele>1566.125</ele>
        <time>2013-08-05T12:27:59Z</time>
      </trkpt>
      <trkpt lat="44.41951" lon="3.78087">
        <ele>1566.125</ele>
        <time>2013-08-05T12:28:06Z</time>
      </trkpt>
      <trkpt lat="44.41946" lon="3.78095">
        <ele>1566.125</ele>
        <time>2013-08-05T12:28:11Z</time>
      </trkpt>
      <trkpt lat="44.41935" lon="3.78111">
        <ele>1565.644531</ele>
        <time>2013-08-05T12:28:22Z</time>
      </trkpt>
      <trkpt lat="44.41929" lon="3.78118">
        <ele>1566.125</ele>
        <time>2013-08-05T12:28:27Z</time>
      </trkpt>
      <trkpt lat="44.41927" lon="3.78121">
        <ele>1566.125</ele>
        <time>2013-08-05T12:28:29Z</time>
      </trkpt>
      <trkpt lat="44.41923" lon="3.78132">
        <ele>1565.163818</ele>
        <time>2013-08-05T12:28:35Z</time>
      </trkpt>
      <trkpt lat="44.41913" lon="3.78145">
        <ele>1565.163818</ele>
        <time>2013-08-05T12:28:45Z</time>
      </trkpt>
      <trkpt lat="44.41898" lon="3.78171">
        <ele>1564.683105</ele>
        <time>2013-08-05T12:29:02Z</time>
      </trkpt>
      <trkpt lat="44.41895" lon="3.78174">
        <ele>1564.683105</ele>
        <time>2013-08-05T12:29:12Z</time>
      </trkpt>
      <trkpt lat="44.41895" lon="3.78176">
        <ele>1565.163818</ele>
        <time>2013-08-05T12:29:19Z</time>
      </trkpt>
      <trkpt lat="44.41887" lon="3.7818">
        <ele>1564.202393</ele>
        <time>2013-08-05T12:29:25Z</time>
      </trkpt>
      <trkpt lat="44.41885" lon="3.78182">
        <ele>1564.683105</ele>
        <time>2013-08-05T12:29:27Z</time>
      </trkpt>
      <trkpt lat="44.41874" lon="3.78185">
        <ele>1565.163818</ele>
        <time>2013-08-05T12:29:35Z</time>
      </trkpt>
      <trkpt lat="44.41856" lon="3.78195">
        <ele>1567.566895</ele>
        <time>2013-08-05T12:29:51Z</time>
      </trkpt>
      <trkpt lat="44.41851" lon="3.78198">
        <ele>1564.683105</ele>
        <time>2013-08-05T12:29:56Z</time>
      </trkpt>
      <trkpt lat="44.41832" lon="3.78208">
        <ele>1564.683105</ele>
        <time>2013-08-05T12:30:10Z</time>
      </trkpt>
      <trkpt lat="44.4182" lon="3.78213">
        <ele>1564.683105</ele>
        <time>2013-08-05T12:30:17Z</time>
      </trkpt>
      <trkpt lat="44.41811" lon="3.78219">
        <ele>1564.202393</ele>
        <time>2013-08-05T12:30:25Z</time>
      </trkpt>
      <trkpt lat="44.41796" lon="3.78224">
        <ele>1563.721436</ele>
        <time>2013-08-05T12:30:37Z</time>
      </trkpt>
      <trkpt lat="44.41789" lon="3.78226">
        <ele>1563.721436</ele>
        <time>2013-08-05T12:30:41Z</time>
      </trkpt>
      <trkpt lat="44.41784" lon="3.78229">
        <ele>1563.721436</ele>
        <time>2013-08-05T12:30:45Z</time>
      </trkpt>
      <trkpt lat="44.41763" lon="3.78243">
        <ele>1562.279541</ele>
        <time>2013-08-05T12:31:00Z</time>
      </trkpt>
      <trkpt lat="44.41747" lon="3.78255">
        <ele>1563.240967</ele>
        <time>2013-08-05T12:31:12Z</time>
      </trkpt>
      <trkpt lat="44.41738" lon="3.78264">
        <ele>1563.721436</ele>
        <time>2013-08-05T12:31:18Z</time>
      </trkpt>
      <trkpt lat="44.41723" lon="3.78278">
        <ele>1564.683105</ele>
        <time>2013-08-05T12:31:32Z</time>
      </trkpt>
      <trkpt lat="44.41708" lon="3.78293">
        <ele>1564.683105</ele>
        <time>2013-08-05T12:31:43Z</time>
      </trkpt>
      <trkpt lat="44.41706" lon="3.78296">
        <ele>1564.683105</ele>
        <time>2013-08-05T12:31:46Z</time>
      </trkpt>
      <trkpt lat="44.417" lon="3.78299">
        <ele>1564.683105</ele>
        <time>2013-08-05T12:31:51Z</time>
      </trkpt>
      <trkpt lat="44.41691" lon="3.7831">
        <ele>1565.163818</ele>
        <time>2013-08-05T12:32:00Z</time>
      </trkpt>
      <trkpt lat="44.41687" lon="3.78316">
        <ele>1564.683105</ele>
        <time>2013-08-05T12:32:05Z</time>
      </trkpt>
      <trkpt lat="44.4168" lon="3.78322">
        <ele>1565.163818</ele>
        <time>2013-08-05T12:32:12Z</time>
      </trkpt>
      <trkpt lat="44.41674" lon="3.78326">
        <ele>1565.644531</ele>
        <time>2013-08-05T12:32:16Z</time>
      </trkpt>
      <trkpt lat="44.41669" lon="3.78328">
        <ele>1565.163818</ele>
        <time>2013-08-05T12:32:20Z</time>
      </trkpt>
      <trkpt lat="44.41656" lon="3.78341">
        <ele>1566.605713</ele>
        <time>2013-08-05T12:32:35Z</time>
      </trkpt>
      <trkpt lat="44.41656" lon="3.78344">
        <ele>1564.683105</ele>
        <time>2013-08-05T12:32:42Z</time>
      </trkpt>
      <trkpt lat="44.41651" lon="3.78353">
        <ele>1566.125</ele>
        <time>2013-08-05T12:32:50Z</time>
      </trkpt>
      <trkpt lat="44.41648" lon="3.78351">
        <ele>1566.125</ele>
        <time>2013-08-05T12:32:52Z</time>
      </trkpt>
      <trkpt lat="44.4163" lon="3.78351">
        <ele>1567.086426</ele>
        <time>2013-08-05T12:33:05Z</time>
      </trkpt>
      <trkpt lat="44.41621" lon="3.78356">
        <ele>1567.566895</ele>
        <time>2013-08-05T12:33:16Z</time>
      </trkpt>
      <trkpt lat="44.41612" lon="3.7836">
        <ele>1567.566895</ele>
        <time>2013-08-05T12:33:22Z</time>
      </trkpt>
      <trkpt lat="44.41605" lon="3.78362">
        <ele>1567.086426</ele>
        <time>2013-08-05T12:33:26Z</time>
      </trkpt>
      <trkpt lat="44.41591" lon="3.78368">
        <ele>1567.086426</ele>
        <time>2013-08-05T12:33:38Z</time>
      </trkpt>
      <trkpt lat="44.41588" lon="3.78368">
        <ele>1567.086426</ele>
        <time>2013-08-05T12:33:40Z</time>
      </trkpt>
      <trkpt lat="44.41583" lon="3.78371">
        <ele>1568.047607</ele>
        <time>2013-08-05T12:33:44Z</time>
      </trkpt>
      <trkpt lat="44.4157" lon="3.78377">
        <ele>1568.047607</ele>
        <time>2013-08-05T12:33:55Z</time>
      </trkpt>
      <trkpt lat="44.41553" lon="3.78384">
        <ele>1569.970215</ele>
        <time>2013-08-05T12:34:09Z</time>
      </trkpt>
      <trkpt lat="44.41533" lon="3.78386">
        <ele>1570.931641</ele>
        <time>2013-08-05T12:34:20Z</time>
      </trkpt>
      <trkpt lat="44.4153" lon="3.78386">
        <ele>1570.931641</ele>
        <time>2013-08-05T12:34:22Z</time>
      </trkpt>
      <trkpt lat="44.41528" lon="3.78386">
        <ele>1570.931641</ele>
        <time>2013-08-05T12:34:24Z</time>
      </trkpt>
      <trkpt lat="44.41522" lon="3.78387">
        <ele>1570.931641</ele>
        <time>2013-08-05T12:34:30Z</time>
      </trkpt>
      <trkpt lat="44.41509" lon="3.78391">
        <ele>1570.931641</ele>
        <time>2013-08-05T12:34:41Z</time>
      </trkpt>
      <trkpt lat="44.41505" lon="3.78392">
        <ele>1570.931641</ele>
        <time>2013-08-05T12:34:44Z</time>
      </trkpt>
      <trkpt lat="44.41487" lon="3.78394">
        <ele>1570.931641</ele>
        <time>2013-08-05T12:34:58Z</time>
      </trkpt>
      <trkpt lat="44.41481" lon="3.78395">
        <ele>1572.854248</ele>
        <time>2013-08-05T12:35:03Z</time>
      </trkpt>
      <trkpt lat="44.41477" lon="3.78396">
        <ele>1573.334961</ele>
        <time>2013-08-05T12:35:06Z</time>
      </trkpt>
      <trkpt lat="44.41467" lon="3.78399">
        <ele>1574.776855</ele>
        <time>2013-08-05T12:35:14Z</time>
      </trkpt>
      <trkpt lat="44.41459" lon="3.78404">
        <ele>1574.776855</ele>
        <time>2013-08-05T12:35:21Z</time>
      </trkpt>
      <trkpt lat="44.41456" lon="3.78406">
        <ele>1574.776855</ele>
        <time>2013-08-05T12:35:24Z</time>
      </trkpt>
      <trkpt lat="44.41446" lon="3.78407">
        <ele>1575.257324</ele>
        <time>2013-08-05T12:35:31Z</time>
      </trkpt>
      <trkpt lat="44.41441" lon="3.78411">
        <ele>1574.776855</ele>
        <time>2013-08-05T12:35:36Z</time>
      </trkpt>
      <trkpt lat="44.41419" lon="3.78421">
        <ele>1575.257324</ele>
        <time>2013-08-05T12:35:53Z</time>
      </trkpt>
      <trkpt lat="44.41397" lon="3.78432">
        <ele>1576.699463</ele>
        <time>2013-08-05T12:36:09Z</time>
      </trkpt>
      <trkpt lat="44.41388" lon="3.78433">
        <ele>1577.180176</ele>
        <time>2013-08-05T12:36:15Z</time>
      </trkpt>
      <trkpt lat="44.41372" lon="3.78443">
        <ele>1578.141357</ele>
        <time>2013-08-05T12:36:28Z</time>
      </trkpt>
      <trkpt lat="44.41365" lon="3.78448">
        <ele>1578.141357</ele>
        <time>2013-08-05T12:36:34Z</time>
      </trkpt>
      <trkpt lat="44.4135" lon="3.78454">
        <ele>1578.141357</ele>
        <time>2013-08-05T12:36:45Z</time>
      </trkpt>
      <trkpt lat="44.41346" lon="3.78455">
        <ele>1578.141357</ele>
        <time>2013-08-05T12:36:48Z</time>
      </trkpt>
      <trkpt lat="44.41342" lon="3.78457">
        <ele>1578.141357</ele>
        <time>2013-08-05T12:36:51Z</time>
      </trkpt>
      <trkpt lat="44.41339" lon="3.78459">
        <ele>1578.141357</ele>
        <time>2013-08-05T12:36:53Z</time>
      </trkpt>
      <trkpt lat="44.41334" lon="3.78462">
        <ele>1578.62207</ele>
        <time>2013-08-05T12:36:57Z</time>
      </trkpt>
      <trkpt lat="44.4133" lon="3.78463">
        <ele>1578.62207</ele>
        <time>2013-08-05T12:36:59Z</time>
      </trkpt>
      <trkpt lat="44.41319" lon="3.78467">
        <ele>1579.102539</ele>
        <time>2013-08-05T12:37:09Z</time>
      </trkpt>
      <trkpt lat="44.41313" lon="3.78469">
        <ele>1578.62207</ele>
        <time>2013-08-05T12:37:13Z</time>
      </trkpt>
      <trkpt lat="44.41305" lon="3.78472">
        <ele>1579.102539</ele>
        <time>2013-08-05T12:37:19Z</time>
      </trkpt>
      <trkpt lat="44.41302" lon="3.78472">
        <ele>1579.583252</ele>
        <time>2013-08-05T12:37:21Z</time>
      </trkpt>
      <trkpt lat="44.41291" lon="3.78475">
        <ele>1579.583252</ele>
        <time>2013-08-05T12:37:28Z</time>
      </trkpt>
      <trkpt lat="44.41284" lon="3.78475">
        <ele>1579.102539</ele>
        <time>2013-08-05T12:37:33Z</time>
      </trkpt>
      <trkpt lat="44.41271" lon="3.78477">
        <ele>1579.102539</ele>
        <time>2013-08-05T12:37:45Z</time>
      </trkpt>
      <trkpt lat="44.41261" lon="3.78477">
        <ele>1580.064209</ele>
        <time>2013-08-05T12:37:52Z</time>
      </trkpt>
      <trkpt lat="44.41246" lon="3.78478">
        <ele>1579.102539</ele>
        <time>2013-08-05T12:38:04Z</time>
      </trkpt>
      <trkpt lat="44.41241" lon="3.7848">
        <ele>1580.064209</ele>
        <time>2013-08-05T12:38:08Z</time>
      </trkpt>
      <trkpt lat="44.41231" lon="3.7848">
        <ele>1581.025635</ele>
        <time>2013-08-05T12:38:16Z</time>
      </trkpt>
      <trkpt lat="44.41227" lon="3.78479">
        <ele>1580.544922</ele>
        <time>2013-08-05T12:38:19Z</time>
      </trkpt>
      <trkpt lat="44.41211" lon="3.78474">
        <ele>1581.025635</ele>
        <time>2013-08-05T12:38:30Z</time>
      </trkpt>
      <trkpt lat="44.41195" lon="3.78465">
        <ele>1579.583252</ele>
        <time>2013-08-05T12:38:40Z</time>
      </trkpt>
      <trkpt lat="44.41184" lon="3.7846">
        <ele>1579.102539</ele>
        <time>2013-08-05T12:38:49Z</time>
      </trkpt>
      <trkpt lat="44.41166" lon="3.78458">
        <ele>1580.064209</ele>
        <time>2013-08-05T12:39:03Z</time>
      </trkpt>
      <trkpt lat="44.41158" lon="3.78456">
        <ele>1578.141357</ele>
        <time>2013-08-05T12:39:09Z</time>
      </trkpt>
      <trkpt lat="44.41143" lon="3.78455">
        <ele>1577.660645</ele>
        <time>2013-08-05T12:39:20Z</time>
      </trkpt>
      <trkpt lat="44.41138" lon="3.78452">
        <ele>1577.180176</ele>
        <time>2013-08-05T12:39:24Z</time>
      </trkpt>
      <trkpt lat="44.41121" lon="3.78443">
        <ele>1578.141357</ele>
        <time>2013-08-05T12:39:37Z</time>
      </trkpt>
      <trkpt lat="44.4111" lon="3.78438">
        <ele>1579.102539</ele>
        <time>2013-08-05T12:39:46Z</time>
      </trkpt>
      <trkpt lat="44.41094" lon="3.78427">
        <ele>1579.102539</ele>
        <time>2013-08-05T12:39:58Z</time>
      </trkpt>
      <trkpt lat="44.41086" lon="3.78417">
        <ele>1578.62207</ele>
        <time>2013-08-05T12:40:05Z</time>
      </trkpt>
      <trkpt lat="44.41078" lon="3.78403">
        <ele>1579.102539</ele>
        <time>2013-08-05T12:40:13Z</time>
      </trkpt>
      <trkpt lat="44.41076" lon="3.78404">
        <ele>1578.62207</ele>
        <time>2013-08-05T12:40:25Z</time>
      </trkpt>
      <trkpt lat="44.41076" lon="3.78406">
        <ele>1579.102539</ele>
        <time>2013-08-05T12:40:46Z</time>
      </trkpt>
      <trkpt lat="44.41076" lon="3.78403">
        <ele>1579.583252</ele>
        <time>2013-08-05T12:41:19Z</time>
      </trkpt>
      <trkpt lat="44.41076" lon="3.78403">
        <ele>1578.62207</ele>
        <time>2013-08-05T12:41:40Z</time>
      </trkpt>
      <trkpt lat="44.41075" lon="3.78405">
        <ele>1580.064209</ele>
        <time>2013-08-05T12:41:49Z</time>
      </trkpt>
      <trkpt lat="44.41077" lon="3.78405">
        <ele>1579.102539</ele>
        <time>2013-08-05T12:42:01Z</time>
      </trkpt>
      <trkpt lat="44.41076" lon="3.78409">
        <ele>1579.102539</ele>
        <time>2013-08-05T12:43:03Z</time>
      </trkpt>
      <trkpt lat="44.41069" lon="3.78397">
        <ele>1577.660645</ele>
        <time>2013-08-05T12:43:31Z</time>
      </trkpt>
      <trkpt lat="44.4105" lon="3.78375">
        <ele>1577.180176</ele>
        <time>2013-08-05T12:43:50Z</time>
      </trkpt>
      <trkpt lat="44.41047" lon="3.78372">
        <ele>1575.738037</ele>
        <time>2013-08-05T12:43:53Z</time>
      </trkpt>
      <trkpt lat="44.41043" lon="3.78368">
        <ele>1579.102539</ele>
        <time>2013-08-05T12:43:57Z</time>
      </trkpt>
      <trkpt lat="44.41042" lon="3.78366">
        <ele>1579.102539</ele>
        <time>2013-08-05T12:43:58Z</time>
      </trkpt>
      <trkpt lat="44.41025" lon="3.78347">
        <ele>1576.699463</ele>
        <time>2013-08-05T12:44:13Z</time>
      </trkpt>
      <trkpt lat="44.41006" lon="3.78333">
        <ele>1577.180176</ele>
        <time>2013-08-05T12:44:29Z</time>
      </trkpt>
      <trkpt lat="44.40994" lon="3.78325">
        <ele>1575.257324</ele>
        <time>2013-08-05T12:44:41Z</time>
      </trkpt>
      <trkpt lat="44.40996" lon="3.78325">
        <ele>1575.257324</ele>
        <time>2013-08-05T12:44:43Z</time>
      </trkpt>
      <trkpt lat="44.40995" lon="3.7832">
        <ele>1576.21875</ele>
        <time>2013-08-05T12:44:48Z</time>
      </trkpt>
      <trkpt lat="44.40995" lon="3.78316">
        <ele>1577.180176</ele>
        <time>2013-08-05T12:44:51Z</time>
      </trkpt>
      <trkpt lat="44.40998" lon="3.78305">
        <ele>1577.180176</ele>
        <time>2013-08-05T12:45:06Z</time>
      </trkpt>
      <trkpt lat="44.40998" lon="3.78305">
        <ele>1578.141357</ele>
        <time>2013-08-05T12:45:17Z</time>
      </trkpt>
      <trkpt lat="44.40999" lon="3.78306">
        <ele>1577.180176</ele>
        <time>2013-08-05T12:45:23Z</time>
      </trkpt>
      <trkpt lat="44.40998" lon="3.78309">
        <ele>1577.180176</ele>
        <time>2013-08-05T12:45:25Z</time>
      </trkpt>
      <trkpt lat="44.40982" lon="3.78321">
        <ele>1575.257324</ele>
        <time>2013-08-05T12:45:39Z</time>
      </trkpt>
      <trkpt lat="44.40974" lon="3.78321">
        <ele>1574.296143</ele>
        <time>2013-08-05T12:45:45Z</time>
      </trkpt>
      <trkpt lat="44.40952" lon="3.78325">
        <ele>1570.931641</ele>
        <time>2013-08-05T12:46:01Z</time>
      </trkpt>
      <trkpt lat="44.40926" lon="3.78328">
        <ele>1570.931641</ele>
        <time>2013-08-05T12:46:17Z</time>
      </trkpt>
      <trkpt lat="44.40914" lon="3.78329">
        <ele>1569.009033</ele>
        <time>2013-08-05T12:46:26Z</time>
      </trkpt>
      <trkpt lat="44.40912" lon="3.7833">
        <ele>1569.489746</ele>
        <time>2013-08-05T12:46:28Z</time>
      </trkpt>
      <trkpt lat="44.40907" lon="3.78336">
        <ele>1569.489746</ele>
        <time>2013-08-05T12:46:32Z</time>
      </trkpt>
      <trkpt lat="44.40884" lon="3.78343">
        <ele>1569.009033</ele>
        <time>2013-08-05T12:46:48Z</time>
      </trkpt>
      <trkpt lat="44.40876" lon="3.78345">
        <ele>1568.52832</ele>
        <time>2013-08-05T12:46:53Z</time>
      </trkpt>
      <trkpt lat="44.40855" lon="3.78351">
        <ele>1568.047607</ele>
        <time>2013-08-05T12:47:07Z</time>
      </trkpt>
      <trkpt lat="44.40845" lon="3.78352">
        <ele>1567.086426</ele>
        <time>2013-08-05T12:47:14Z</time>
      </trkpt>
      <trkpt lat="44.40839" lon="3.78353">
        <ele>1566.125</ele>
        <time>2013-08-05T12:47:18Z</time>
      </trkpt>
      <trkpt lat="44.40831" lon="3.78355">
        <ele>1567.086426</ele>
        <time>2013-08-05T12:47:24Z</time>
      </trkpt>
      <trkpt lat="44.40827" lon="3.78357">
        <ele>1564.683105</ele>
        <time>2013-08-05T12:47:27Z</time>
      </trkpt>
      <trkpt lat="44.40823" lon="3.78358">
        <ele>1567.086426</ele>
        <time>2013-08-05T12:47:29Z</time>
      </trkpt>
      <trkpt lat="44.40822" lon="3.78359">
        <ele>1566.125</ele>
        <time>2013-08-05T12:47:30Z</time>
      </trkpt>
      <trkpt lat="44.40799" lon="3.78366">
        <ele>1565.163818</ele>
        <time>2013-08-05T12:47:45Z</time>
      </trkpt>
      <trkpt lat="44.4079" lon="3.78368">
        <ele>1565.644531</ele>
        <time>2013-08-05T12:47:51Z</time>
      </trkpt>
      <trkpt lat="44.40782" lon="3.78371">
        <ele>1565.644531</ele>
        <time>2013-08-05T12:47:57Z</time>
      </trkpt>
      <trkpt lat="44.40768" lon="3.78386">
        <ele>1564.683105</ele>
        <time>2013-08-05T12:48:11Z</time>
      </trkpt>
      <trkpt lat="44.40764" lon="3.78389">
        <ele>1563.721436</ele>
        <time>2013-08-05T12:48:14Z</time>
      </trkpt>
      <trkpt lat="44.40757" lon="3.78393">
        <ele>1563.240967</ele>
        <time>2013-08-05T12:48:19Z</time>
      </trkpt>
      <trkpt lat="44.40736" lon="3.78399">
        <ele>1563.240967</ele>
        <time>2013-08-05T12:48:33Z</time>
      </trkpt>
      <trkpt lat="44.40724" lon="3.78402">
        <ele>1560.837646</ele>
        <time>2013-08-05T12:48:41Z</time>
      </trkpt>
      <trkpt lat="44.40704" lon="3.78417">
        <ele>1559.876221</ele>
        <time>2013-08-05T12:48:59Z</time>
      </trkpt>
      <trkpt lat="44.40702" lon="3.78419">
        <ele>1559.395752</ele>
        <time>2013-08-05T12:49:01Z</time>
      </trkpt>
      <trkpt lat="44.40699" lon="3.78421">
        <ele>1558.434326</ele>
        <time>2013-08-05T12:49:03Z</time>
      </trkpt>
      <trkpt lat="44.40694" lon="3.78424">
        <ele>1556.992432</ele>
        <time>2013-08-05T12:49:07Z</time>
      </trkpt>
      <trkpt lat="44.40688" lon="3.78427">
        <ele>1557.473145</ele>
        <time>2013-08-05T12:49:11Z</time>
      </trkpt>
      <trkpt lat="44.40673" lon="3.78437">
        <ele>1557.473145</ele>
        <time>2013-08-05T12:49:23Z</time>
      </trkpt>
      <trkpt lat="44.4066" lon="3.78447">
        <ele>1554.589111</ele>
        <time>2013-08-05T12:49:34Z</time>
      </trkpt>
      <trkpt lat="44.40656" lon="3.78453">
        <ele>1553.147217</ele>
        <time>2013-08-05T12:49:38Z</time>
      </trkpt>
      <trkpt lat="44.40629" lon="3.78485">
        <ele>1554.108643</ele>
        <time>2013-08-05T12:50:01Z</time>
      </trkpt>
      <trkpt lat="44.40615" lon="3.78499">
        <ele>1552.666504</ele>
        <time>2013-08-05T12:50:14Z</time>
      </trkpt>
      <trkpt lat="44.40599" lon="3.78511">
        <ele>1549.782715</ele>
        <time>2013-08-05T12:50:28Z</time>
      </trkpt>
      <trkpt lat="44.40576" lon="3.78525">
        <ele>1548.340576</ele>
        <time>2013-08-05T12:50:42Z</time>
      </trkpt>
      <trkpt lat="44.40555" lon="3.78537">
        <ele>1547.37915</ele>
        <time>2013-08-05T12:50:57Z</time>
      </trkpt>
      <trkpt lat="44.40531" lon="3.7855">
        <ele>1546.898438</ele>
        <time>2013-08-05T12:51:13Z</time>
      </trkpt>
      <trkpt lat="44.40513" lon="3.78563">
        <ele>1547.37915</ele>
        <time>2013-08-05T12:51:29Z</time>
      </trkpt>
      <trkpt lat="44.40488" lon="3.78572">
        <ele>1547.37915</ele>
        <time>2013-08-05T12:51:46Z</time>
      </trkpt>
      <trkpt lat="44.40456" lon="3.78574">
        <ele>1548.821289</ele>
        <time>2013-08-05T12:52:07Z</time>
      </trkpt>
      <trkpt lat="44.40439" lon="3.78584">
        <ele>1549.302002</ele>
        <time>2013-08-05T12:52:24Z</time>
      </trkpt>
      <trkpt lat="44.40431" lon="3.78583">
        <ele>1549.302002</ele>
        <time>2013-08-05T12:52:31Z</time>
      </trkpt>
      <trkpt lat="44.40415" lon="3.7858">
        <ele>1548.340576</ele>
        <time>2013-08-05T12:52:45Z</time>
      </trkpt>
      <trkpt lat="44.40409" lon="3.78583">
        <ele>1546.898438</ele>
        <time>2013-08-05T12:52:50Z</time>
      </trkpt>
      <trkpt lat="44.4039" lon="3.78582">
        <ele>1545.456543</ele>
        <time>2013-08-05T12:53:05Z</time>
      </trkpt>
      <trkpt lat="44.40377" lon="3.78582">
        <ele>1544.97583</ele>
        <time>2013-08-05T12:53:22Z</time>
      </trkpt>
      <trkpt lat="44.4037" lon="3.78572">
        <ele>1543.053223</ele>
        <time>2013-08-05T12:53:33Z</time>
      </trkpt>
      <trkpt lat="44.40367" lon="3.78568">
        <ele>1538.727539</ele>
        <time>2013-08-05T12:53:38Z</time>
      </trkpt>
      <trkpt lat="44.40366" lon="3.78568">
        <ele>1540.649902</ele>
        <time>2013-08-05T12:53:39Z</time>
      </trkpt>
      <trkpt lat="44.40364" lon="3.78566">
        <ele>1543.053223</ele>
        <time>2013-08-05T12:53:46Z</time>
      </trkpt>
      <trkpt lat="44.40352" lon="3.78569">
        <ele>1539.208008</ele>
        <time>2013-08-05T12:53:58Z</time>
      </trkpt>
      <trkpt lat="44.40343" lon="3.78569">
        <ele>1537.2854</ele>
        <time>2013-08-05T12:54:07Z</time>
      </trkpt>
      <trkpt lat="44.40333" lon="3.78577">
        <ele>1534.882324</ele>
        <time>2013-08-05T12:54:15Z</time>
      </trkpt>
      <trkpt lat="44.4033" lon="3.78578">
        <ele>1532.959473</ele>
        <time>2013-08-05T12:54:29Z</time>
      </trkpt>
      <trkpt lat="44.40308" lon="3.78583">
        <ele>1531.517334</ele>
        <time>2013-08-05T12:54:43Z</time>
      </trkpt>
      <trkpt lat="44.40296" lon="3.7858">
        <ele>1531.036865</ele>
        <time>2013-08-05T12:54:52Z</time>
      </trkpt>
      <trkpt lat="44.40288" lon="3.78577">
        <ele>1530.556152</ele>
        <time>2013-08-05T12:55:01Z</time>
      </trkpt>
      <trkpt lat="44.40281" lon="3.78578">
        <ele>1530.556152</ele>
        <time>2013-08-05T12:55:07Z</time>
      </trkpt>
      <trkpt lat="44.40272" lon="3.78583">
        <ele>1528.633545</ele>
        <time>2013-08-05T12:55:14Z</time>
      </trkpt>
      <trkpt lat="44.40265" lon="3.78585">
        <ele>1527.672119</ele>
        <time>2013-08-05T12:55:18Z</time>
      </trkpt>
      <trkpt lat="44.40253" lon="3.78588">
        <ele>1528.152832</ele>
        <time>2013-08-05T12:55:27Z</time>
      </trkpt>
      <trkpt lat="44.40246" lon="3.7858">
        <ele>1528.152832</ele>
        <time>2013-08-05T12:55:43Z</time>
      </trkpt>
      <trkpt lat="44.40242" lon="3.78583">
        <ele>1526.710938</ele>
        <time>2013-08-05T12:55:46Z</time>
      </trkpt>
      <trkpt lat="44.40239" lon="3.78585">
        <ele>1526.230225</ele>
        <time>2013-08-05T12:55:48Z</time>
      </trkpt>
      <trkpt lat="44.40236" lon="3.78586">
        <ele>1524.78833</ele>
        <time>2013-08-05T12:55:50Z</time>
      </trkpt>
      <trkpt lat="44.40229" lon="3.78586">
        <ele>1525.268799</ele>
        <time>2013-08-05T12:55:58Z</time>
      </trkpt>
      <trkpt lat="44.40227" lon="3.78586">
        <ele>1524.307617</ele>
        <time>2013-08-05T12:55:59Z</time>
      </trkpt>
      <trkpt lat="44.40221" lon="3.7859">
        <ele>1523.346436</ele>
        <time>2013-08-05T12:56:03Z</time>
      </trkpt>
      <trkpt lat="44.40215" lon="3.78592">
        <ele>1522.38501</ele>
        <time>2013-08-05T12:56:09Z</time>
      </trkpt>
      <trkpt lat="44.40205" lon="3.78595">
        <ele>1522.38501</ele>
        <time>2013-08-05T12:56:16Z</time>
      </trkpt>
      <trkpt lat="44.40199" lon="3.78598">
        <ele>1522.38501</ele>
        <time>2013-08-05T12:56:21Z</time>
      </trkpt>
      <trkpt lat="44.40189" lon="3.78593">
        <ele>1519.501221</ele>
        <time>2013-08-05T12:56:30Z</time>
      </trkpt>
      <trkpt lat="44.40177" lon="3.78595">
        <ele>1517.578369</ele>
        <time>2013-08-05T12:56:39Z</time>
      </trkpt>
      <trkpt lat="44.40169" lon="3.78595">
        <ele>1516.136475</ele>
        <time>2013-08-05T12:56:45Z</time>
      </trkpt>
      <trkpt lat="44.40163" lon="3.78592">
        <ele>1516.136475</ele>
        <time>2013-08-05T12:56:50Z</time>
      </trkpt>
      <trkpt lat="44.40154" lon="3.78595">
        <ele>1515.175049</ele>
        <time>2013-08-05T12:56:55Z</time>
      </trkpt>
      <trkpt lat="44.4015" lon="3.78597">
        <ele>1514.213623</ele>
        <time>2013-08-05T12:56:57Z</time>
      </trkpt>
      <trkpt lat="44.40141" lon="3.78602">
        <ele>1514.213623</ele>
        <time>2013-08-05T12:57:04Z</time>
      </trkpt>
      <trkpt lat="44.40126" lon="3.78605">
        <ele>1514.213623</ele>
        <time>2013-08-05T12:57:14Z</time>
      </trkpt>
      <trkpt lat="44.40114" lon="3.78607">
        <ele>1513.73291</ele>
        <time>2013-08-05T12:57:26Z</time>
      </trkpt>
      <trkpt lat="44.40108" lon="3.78609">
        <ele>1512.771729</ele>
        <time>2013-08-05T12:57:34Z</time>
      </trkpt>
      <trkpt lat="44.40097" lon="3.78618">
        <ele>1510.849121</ele>
        <time>2013-08-05T12:57:48Z</time>
      </trkpt>
      <trkpt lat="44.40091" lon="3.78621">
        <ele>1509.887695</ele>
        <time>2013-08-05T12:57:52Z</time>
      </trkpt>
      <trkpt lat="44.40081" lon="3.78635">
        <ele>1508.445801</ele>
        <time>2013-08-05T12:58:04Z</time>
      </trkpt>
      <trkpt lat="44.40068" lon="3.78643">
        <ele>1507.484619</ele>
        <time>2013-08-05T12:58:14Z</time>
      </trkpt>
      <trkpt lat="44.40055" lon="3.78655">
        <ele>1505.562012</ele>
        <time>2013-08-05T12:58:24Z</time>
      </trkpt>
      <trkpt lat="44.40048" lon="3.78673">
        <ele>1504.120117</ele>
        <time>2013-08-05T12:58:34Z</time>
      </trkpt>
      <trkpt lat="44.40044" lon="3.78676">
        <ele>1502.677979</ele>
        <time>2013-08-05T12:58:36Z</time>
      </trkpt>
      <trkpt lat="44.40036" lon="3.78685">
        <ele>1502.677979</ele>
        <time>2013-08-05T12:58:45Z</time>
      </trkpt>
      <trkpt lat="44.40032" lon="3.78695">
        <ele>1501.716797</ele>
        <time>2013-08-05T12:58:53Z</time>
      </trkpt>
      <trkpt lat="44.4002" lon="3.78713">
        <ele>1501.716797</ele>
        <time>2013-08-05T12:59:05Z</time>
      </trkpt>
      <trkpt lat="44.40015" lon="3.78716">
        <ele>1499.793945</ele>
        <time>2013-08-05T12:59:09Z</time>
      </trkpt>
      <trkpt lat="44.4001" lon="3.78717">
        <ele>1498.83252</ele>
        <time>2013-08-05T12:59:13Z</time>
      </trkpt>
      <trkpt lat="44.39995" lon="3.78722">
        <ele>1497.390625</ele>
        <time>2013-08-05T12:59:26Z</time>
      </trkpt>
      <trkpt lat="44.39996" lon="3.78728">
        <ele>1497.871338</ele>
        <time>2013-08-05T12:59:29Z</time>
      </trkpt>
      <trkpt lat="44.39997" lon="3.7874">
        <ele>1495.468018</ele>
        <time>2013-08-05T12:59:35Z</time>
      </trkpt>
      <trkpt lat="44.39999" lon="3.78742">
        <ele>1494.987305</ele>
        <time>2013-08-05T12:59:38Z</time>
      </trkpt>
      <trkpt lat="44.4001" lon="3.78748">
        <ele>1494.506592</ele>
        <time>2013-08-05T12:59:47Z</time>
      </trkpt>
      <trkpt lat="44.40013" lon="3.78752">
        <ele>1494.026123</ele>
        <time>2013-08-05T12:59:50Z</time>
      </trkpt>
      <trkpt lat="44.40016" lon="3.78754">
        <ele>1492.584229</ele>
        <time>2013-08-05T12:59:53Z</time>
      </trkpt>
      <trkpt lat="44.40018" lon="3.78755">
        <ele>1493.064697</ele>
        <time>2013-08-05T12:59:55Z</time>
      </trkpt>
      <trkpt lat="44.40023" lon="3.78763">
        <ele>1492.584229</ele>
        <time>2013-08-05T13:00:00Z</time>
      </trkpt>
      <trkpt lat="44.40032" lon="3.78766">
        <ele>1491.622803</ele>
        <time>2013-08-05T13:00:06Z</time>
      </trkpt>
      <trkpt lat="44.40036" lon="3.78767">
        <ele>1490.180908</ele>
        <time>2013-08-05T13:00:09Z</time>
      </trkpt>
      <trkpt lat="44.40042" lon="3.78768">
        <ele>1489.219482</ele>
        <time>2013-08-05T13:00:13Z</time>
      </trkpt>
      <trkpt lat="44.40052" lon="3.78783">
        <ele>1487.777588</ele>
        <time>2013-08-05T13:00:29Z</time>
      </trkpt>
      <trkpt lat="44.40045" lon="3.78791">
        <ele>1487.296875</ele>
        <time>2013-08-05T13:00:41Z</time>
      </trkpt>
      <trkpt lat="44.4004" lon="3.788">
        <ele>1487.296875</ele>
        <time>2013-08-05T13:00:51Z</time>
      </trkpt>
      <trkpt lat="44.40045" lon="3.78816">
        <ele>1486.816162</ele>
        <time>2013-08-05T13:01:57Z</time>
      </trkpt>
      <trkpt lat="44.40044" lon="3.7883">
        <ele>1486.335693</ele>
        <time>2013-08-05T13:02:05Z</time>
      </trkpt>
      <trkpt lat="44.40048" lon="3.78838">
        <ele>1484.893799</ele>
        <time>2013-08-05T13:02:09Z</time>
      </trkpt>
      <trkpt lat="44.40038" lon="3.78842">
        <ele>1483.932129</ele>
        <time>2013-08-05T13:02:13Z</time>
      </trkpt>
      <trkpt lat="44.40026" lon="3.78853">
        <ele>1483.451416</ele>
        <time>2013-08-05T13:02:22Z</time>
      </trkpt>
      <trkpt lat="44.40024" lon="3.7886">
        <ele>1481.528809</ele>
        <time>2013-08-05T13:02:26Z</time>
      </trkpt>
      <trkpt lat="44.40022" lon="3.78862">
        <ele>1482.490234</ele>
        <time>2013-08-05T13:02:28Z</time>
      </trkpt>
      <trkpt lat="44.4001" lon="3.7886">
        <ele>1479.125488</ele>
        <time>2013-08-05T13:02:37Z</time>
      </trkpt>
      <trkpt lat="44.40006" lon="3.78859">
        <ele>1479.606201</ele>
        <time>2013-08-05T13:02:40Z</time>
      </trkpt>
      <trkpt lat="44.40003" lon="3.78861">
        <ele>1479.125488</ele>
        <time>2013-08-05T13:02:42Z</time>
      </trkpt>
      <trkpt lat="44.39995" lon="3.78866">
        <ele>1478.64502</ele>
        <time>2013-08-05T13:02:51Z</time>
      </trkpt>
      <trkpt lat="44.39993" lon="3.78869">
        <ele>1479.606201</ele>
        <time>2013-08-05T13:03:03Z</time>
      </trkpt>
      <trkpt lat="44.39996" lon="3.78868">
        <ele>1482.490234</ele>
        <time>2013-08-05T13:03:37Z</time>
      </trkpt>
      <trkpt lat="44.39995" lon="3.78867">
        <ele>1479.125488</ele>
        <time>2013-08-05T13:03:56Z</time>
      </trkpt>
      <trkpt lat="44.39995" lon="3.78869">
        <ele>1479.606201</ele>
        <time>2013-08-05T13:03:58Z</time>
      </trkpt>
      <trkpt lat="44.39998" lon="3.78871">
        <ele>1478.64502</ele>
        <time>2013-08-05T13:04:01Z</time>
      </trkpt>
      <trkpt lat="44.4" lon="3.78883">
        <ele>1475.760986</ele>
        <time>2013-08-05T13:04:09Z</time>
      </trkpt>
      <trkpt lat="44.40001" lon="3.78884">
        <ele>1479.125488</ele>
        <time>2013-08-05T13:04:10Z</time>
      </trkpt>
      <trkpt lat="44.40005" lon="3.78892">
        <ele>1476.241699</ele>
        <time>2013-08-05T13:04:21Z</time>
      </trkpt>
      <trkpt lat="44.40006" lon="3.78884">
        <ele>1476.241699</ele>
        <time>2013-08-05T13:04:45Z</time>
      </trkpt>
      <trkpt lat="44.40005" lon="3.78884">
        <ele>1480.086914</ele>
        <time>2013-08-05T13:04:48Z</time>
      </trkpt>
      <trkpt lat="44.40006" lon="3.78884">
        <ele>1476.241699</ele>
        <time>2013-08-05T13:04:49Z</time>
      </trkpt>
      <trkpt lat="44.40009" lon="3.78896">
        <ele>1476.722412</ele>
        <time>2013-08-05T13:05:07Z</time>
      </trkpt>
      <trkpt lat="44.40006" lon="3.78905">
        <ele>1476.722412</ele>
        <time>2013-08-05T13:05:13Z</time>
      </trkpt>
      <trkpt lat="44.40001" lon="3.78917">
        <ele>1475.760986</ele>
        <time>2013-08-05T13:05:24Z</time>
      </trkpt>
      <trkpt lat="44.39999" lon="3.78925">
        <ele>1475.760986</ele>
        <time>2013-08-05T13:05:31Z</time>
      </trkpt>
      <trkpt lat="44.39992" lon="3.78927">
        <ele>1475.280273</ele>
        <time>2013-08-05T13:05:35Z</time>
      </trkpt>
      <trkpt lat="44.39981" lon="3.78934">
        <ele>1474.799805</ele>
        <time>2013-08-05T13:05:47Z</time>
      </trkpt>
      <trkpt lat="44.39978" lon="3.78932">
        <ele>1474.799805</ele>
        <time>2013-08-05T13:05:52Z</time>
      </trkpt>
      <trkpt lat="44.39977" lon="3.78932">
        <ele>1473.838379</ele>
        <time>2013-08-05T13:05:53Z</time>
      </trkpt>
      <trkpt lat="44.39975" lon="3.78936">
        <ele>1475.280273</ele>
        <time>2013-08-05T13:05:56Z</time>
      </trkpt>
      <trkpt lat="44.39972" lon="3.78938">
        <ele>1473.838379</ele>
        <time>2013-08-05T13:05:59Z</time>
      </trkpt>
      <trkpt lat="44.39965" lon="3.78936">
        <ele>1471.915771</ele>
        <time>2013-08-05T13:06:07Z</time>
      </trkpt>
      <trkpt lat="44.3996" lon="3.78935">
        <ele>1471.435059</ele>
        <time>2013-08-05T13:06:13Z</time>
      </trkpt>
      <trkpt lat="44.39953" lon="3.78936">
        <ele>1469.993164</ele>
        <time>2013-08-05T13:06:20Z</time>
      </trkpt>
      <trkpt lat="44.3995" lon="3.78937">
        <ele>1470.473877</ele>
        <time>2013-08-05T13:06:23Z</time>
      </trkpt>
      <trkpt lat="44.39939" lon="3.78944">
        <ele>1469.031982</ele>
        <time>2013-08-05T13:06:33Z</time>
      </trkpt>
      <trkpt lat="44.39933" lon="3.78948">
        <ele>1468.070557</ele>
        <time>2013-08-05T13:06:41Z</time>
      </trkpt>
      <trkpt lat="44.39925" lon="3.78947">
        <ele>1467.5896</ele>
        <time>2013-08-05T13:06:51Z</time>
      </trkpt>
      <trkpt lat="44.39922" lon="3.78946">
        <ele>1466.628418</ele>
        <time>2013-08-05T13:06:53Z</time>
      </trkpt>
      <trkpt lat="44.39919" lon="3.78948">
        <ele>1466.147705</ele>
        <time>2013-08-05T13:06:56Z</time>
      </trkpt>
      <trkpt lat="44.39914" lon="3.78948">
        <ele>1466.147705</ele>
        <time>2013-08-05T13:07:00Z</time>
      </trkpt>
      <trkpt lat="44.3991" lon="3.78948">
        <ele>1465.667236</ele>
        <time>2013-08-05T13:07:03Z</time>
      </trkpt>
      <trkpt lat="44.39899" lon="3.78951">
        <ele>1464.705811</ele>
        <time>2013-08-05T13:07:17Z</time>
      </trkpt>
      <trkpt lat="44.39897" lon="3.78952">
        <ele>1464.225098</ele>
        <time>2013-08-05T13:07:19Z</time>
      </trkpt>
      <trkpt lat="44.39893" lon="3.78953">
        <ele>1463.744385</ele>
        <time>2013-08-05T13:07:25Z</time>
      </trkpt>
      <trkpt lat="44.39887" lon="3.78949">
        <ele>1462.783203</ele>
        <time>2013-08-05T13:07:32Z</time>
      </trkpt>
      <trkpt lat="44.39883" lon="3.78953">
        <ele>1462.783203</ele>
        <time>2013-08-05T13:07:36Z</time>
      </trkpt>
      <trkpt lat="44.39873" lon="3.78966">
        <ele>1460.379883</ele>
        <time>2013-08-05T13:07:47Z</time>
      </trkpt>
      <trkpt lat="44.39868" lon="3.78967">
        <ele>1459.418701</ele>
        <time>2013-08-05T13:07:51Z</time>
      </trkpt>
      <trkpt lat="44.39855" lon="3.78967">
        <ele>1457.976807</ele>
        <time>2013-08-05T13:08:07Z</time>
      </trkpt>
      <trkpt lat="44.39852" lon="3.78966">
        <ele>1457.015381</ele>
        <time>2013-08-05T13:08:11Z</time>
      </trkpt>
      <trkpt lat="44.39841" lon="3.78968">
        <ele>1454.612061</ele>
        <time>2013-08-05T13:08:21Z</time>
      </trkpt>
      <trkpt lat="44.39837" lon="3.78968">
        <ele>1453.170166</ele>
        <time>2013-08-05T13:08:26Z</time>
      </trkpt>
      <trkpt lat="44.39821" lon="3.78975">
        <ele>1451.728027</ele>
        <time>2013-08-05T13:08:37Z</time>
      </trkpt>
      <trkpt lat="44.3982" lon="3.78977">
        <ele>1451.247314</ele>
        <time>2013-08-05T13:08:38Z</time>
      </trkpt>
      <trkpt lat="44.39818" lon="3.78979">
        <ele>1452.20874</ele>
        <time>2013-08-05T13:08:40Z</time>
      </trkpt>
      <trkpt lat="44.39815" lon="3.78988">
        <ele>1450.286133</ele>
        <time>2013-08-05T13:08:45Z</time>
      </trkpt>
      <trkpt lat="44.39806" lon="3.78995">
        <ele>1448.843994</ele>
        <time>2013-08-05T13:08:55Z</time>
      </trkpt>
      <trkpt lat="44.39797" lon="3.78994">
        <ele>1447.882812</ele>
        <time>2013-08-05T13:09:06Z</time>
      </trkpt>
      <trkpt lat="44.39791" lon="3.78992">
        <ele>1447.4021</ele>
        <time>2013-08-05T13:09:11Z</time>
      </trkpt>
      <trkpt lat="44.39788" lon="3.7899">
        <ele>1446.440918</ele>
        <time>2013-08-05T13:09:14Z</time>
      </trkpt>
      <trkpt lat="44.39774" lon="3.78986">
        <ele>1444.518066</ele>
        <time>2013-08-05T13:09:24Z</time>
      </trkpt>
      <trkpt lat="44.39764" lon="3.78985">
        <ele>1442.595703</ele>
        <time>2013-08-05T13:09:31Z</time>
      </trkpt>
      <trkpt lat="44.39763" lon="3.78985">
        <ele>1442.595703</ele>
        <time>2013-08-05T13:09:32Z</time>
      </trkpt>
      <trkpt lat="44.39755" lon="3.78987">
        <ele>1440.192383</ele>
        <time>2013-08-05T13:09:40Z</time>
      </trkpt>
      <trkpt lat="44.3975" lon="3.78989">
        <ele>1439.230957</ele>
        <time>2013-08-05T13:09:46Z</time>
      </trkpt>
      <trkpt lat="44.39747" lon="3.78997">
        <ele>1439.230957</ele>
        <time>2013-08-05T13:09:52Z</time>
      </trkpt>
      <trkpt lat="44.39745" lon="3.78998">
        <ele>1439.230957</ele>
        <time>2013-08-05T13:09:54Z</time>
      </trkpt>
      <trkpt lat="44.39741" lon="3.79006">
        <ele>1439.71167</ele>
        <time>2013-08-05T13:09:59Z</time>
      </trkpt>
      <trkpt lat="44.39736" lon="3.7901">
        <ele>1439.71167</ele>
        <time>2013-08-05T13:10:04Z</time>
      </trkpt>
      <trkpt lat="44.3973" lon="3.79013">
        <ele>1439.230957</ele>
        <time>2013-08-05T13:10:11Z</time>
      </trkpt>
      <trkpt lat="44.39729" lon="3.79015">
        <ele>1438.269775</ele>
        <time>2013-08-05T13:10:13Z</time>
      </trkpt>
      <trkpt lat="44.39725" lon="3.7902">
        <ele>1436.827637</ele>
        <time>2013-08-05T13:10:21Z</time>
      </trkpt>
      <trkpt lat="44.3972" lon="3.7902">
        <ele>1437.789062</ele>
        <time>2013-08-05T13:10:31Z</time>
      </trkpt>
      <trkpt lat="44.39716" lon="3.79019">
        <ele>1436.347168</ele>
        <time>2013-08-05T13:10:34Z</time>
      </trkpt>
      <trkpt lat="44.39706" lon="3.79025">
        <ele>1435.385498</ele>
        <time>2013-08-05T13:10:40Z</time>
      </trkpt>
      <trkpt lat="44.39699" lon="3.79028">
        <ele>1434.905029</ele>
        <time>2013-08-05T13:10:52Z</time>
      </trkpt>
      <trkpt lat="44.39692" lon="3.79035">
        <ele>1433.943604</ele>
        <time>2013-08-05T13:10:59Z</time>
      </trkpt>
      <trkpt lat="44.39689" lon="3.79039">
        <ele>1433.462891</ele>
        <time>2013-08-05T13:11:03Z</time>
      </trkpt>
      <trkpt lat="44.39687" lon="3.7904">
        <ele>1432.501709</ele>
        <time>2013-08-05T13:11:06Z</time>
      </trkpt>
      <trkpt lat="44.39681" lon="3.79047">
        <ele>1432.982178</ele>
        <time>2013-08-05T13:11:11Z</time>
      </trkpt>
      <trkpt lat="44.39663" lon="3.79054">
        <ele>1431.540283</ele>
        <time>2013-08-05T13:11:23Z</time>
      </trkpt>
      <trkpt lat="44.39662" lon="3.79054">
        <ele>1430.579102</ele>
        <time>2013-08-05T13:11:24Z</time>
      </trkpt>
      <trkpt lat="44.3965" lon="3.79062">
        <ele>1430.579102</ele>
        <time>2013-08-05T13:11:33Z</time>
      </trkpt>
      <trkpt lat="44.39645" lon="3.79063">
        <ele>1429.617676</ele>
        <time>2013-08-05T13:11:39Z</time>
      </trkpt>
      <trkpt lat="44.39639" lon="3.7906">
        <ele>1428.656494</ele>
        <time>2013-08-05T13:11:54Z</time>
      </trkpt>
      <trkpt lat="44.39635" lon="3.79062">
        <ele>1428.175781</ele>
        <time>2013-08-05T13:12:00Z</time>
      </trkpt>
      <trkpt lat="44.3963" lon="3.79064">
        <ele>1428.175781</ele>
        <time>2013-08-05T13:12:04Z</time>
      </trkpt>
      <trkpt lat="44.39618" lon="3.7907">
        <ele>1426.733887</ele>
        <time>2013-08-05T13:12:15Z</time>
      </trkpt>
      <trkpt lat="44.39615" lon="3.79075">
        <ele>1427.2146</ele>
        <time>2013-08-05T13:12:20Z</time>
      </trkpt>
      <trkpt lat="44.3961" lon="3.79078">
        <ele>1425.291748</ele>
        <time>2013-08-05T13:12:24Z</time>
      </trkpt>
      <trkpt lat="44.39607" lon="3.7908">
        <ele>1425.291748</ele>
        <time>2013-08-05T13:12:28Z</time>
      </trkpt>
      <trkpt lat="44.39601" lon="3.79078">
        <ele>1423.369385</ele>
        <time>2013-08-05T13:12:37Z</time>
      </trkpt>
      <trkpt lat="44.39599" lon="3.79077">
        <ele>1422.888672</ele>
        <time>2013-08-05T13:12:40Z</time>
      </trkpt>
      <trkpt lat="44.39594" lon="3.79084">
        <ele>1422.888672</ele>
        <time>2013-08-05T13:12:46Z</time>
      </trkpt>
      <trkpt lat="44.39591" lon="3.79088">
        <ele>1422.888672</ele>
        <time>2013-08-05T13:12:49Z</time>
      </trkpt>
      <trkpt lat="44.39586" lon="3.79095">
        <ele>1422.407959</ele>
        <time>2013-08-05T13:12:56Z</time>
      </trkpt>
      <trkpt lat="44.39571" lon="3.79102">
        <ele>1420.966064</ele>
        <time>2013-08-05T13:13:08Z</time>
      </trkpt>
      <trkpt lat="44.39568" lon="3.79105">
        <ele>1420.966064</ele>
        <time>2013-08-05T13:13:11Z</time>
      </trkpt>
      <trkpt lat="44.39564" lon="3.7911">
        <ele>1420.966064</ele>
        <time>2013-08-05T13:13:15Z</time>
      </trkpt>
      <trkpt lat="44.39556" lon="3.79113">
        <ele>1419.043213</ele>
        <time>2013-08-05T13:13:24Z</time>
      </trkpt>
      <trkpt lat="44.39544" lon="3.79118">
        <ele>1418.081787</ele>
        <time>2013-08-05T13:13:32Z</time>
      </trkpt>
      <trkpt lat="44.39541" lon="3.79124">
        <ele>1417.601074</ele>
        <time>2013-08-05T13:13:36Z</time>
      </trkpt>
      <trkpt lat="44.39529" lon="3.79134">
        <ele>1415.678711</ele>
        <time>2013-08-05T13:13:49Z</time>
      </trkpt>
      <trkpt lat="44.39516" lon="3.79143">
        <ele>1415.197998</ele>
        <time>2013-08-05T13:14:00Z</time>
      </trkpt>
      <trkpt lat="44.39508" lon="3.79148">
        <ele>1414.717285</ele>
        <time>2013-08-05T13:14:13Z</time>
      </trkpt>
      <trkpt lat="44.39504" lon="3.7915">
        <ele>1414.236572</ele>
        <time>2013-08-05T13:14:17Z</time>
      </trkpt>
      <trkpt lat="44.39501" lon="3.79152">
        <ele>1414.717285</ele>
        <time>2013-08-05T13:14:20Z</time>
      </trkpt>
      <trkpt lat="44.39492" lon="3.79158">
        <ele>1411.352783</ele>
        <time>2013-08-05T13:14:28Z</time>
      </trkpt>
      <trkpt lat="44.39486" lon="3.79163">
        <ele>1411.833496</ele>
        <time>2013-08-05T13:14:34Z</time>
      </trkpt>
      <trkpt lat="44.39479" lon="3.7917">
        <ele>1411.352783</ele>
        <time>2013-08-05T13:14:41Z</time>
      </trkpt>
      <trkpt lat="44.3947" lon="3.79176">
        <ele>1409.910645</ele>
        <time>2013-08-05T13:14:49Z</time>
      </trkpt>
      <trkpt lat="44.39467" lon="3.79178">
        <ele>1409.910645</ele>
        <time>2013-08-05T13:14:52Z</time>
      </trkpt>
      <trkpt lat="44.39453" lon="3.79181">
        <ele>1407.988281</ele>
        <time>2013-08-05T13:15:03Z</time>
      </trkpt>
      <trkpt lat="44.39446" lon="3.79182">
        <ele>1409.430176</ele>
        <time>2013-08-05T13:15:12Z</time>
      </trkpt>
      <trkpt lat="44.39444" lon="3.79188">
        <ele>1407.988281</ele>
        <time>2013-08-05T13:15:19Z</time>
      </trkpt>
      <trkpt lat="44.39435" lon="3.79196">
        <ele>1407.026855</ele>
        <time>2013-08-05T13:15:29Z</time>
      </trkpt>
      <trkpt lat="44.39429" lon="3.79197">
        <ele>1405.104248</ele>
        <time>2013-08-05T13:15:33Z</time>
      </trkpt>
      <trkpt lat="44.39419" lon="3.792">
        <ele>1403.181396</ele>
        <time>2013-08-05T13:15:41Z</time>
      </trkpt>
      <trkpt lat="44.39417" lon="3.79201">
        <ele>1403.181396</ele>
        <time>2013-08-05T13:15:43Z</time>
      </trkpt>
      <trkpt lat="44.3941" lon="3.79205">
        <ele>1401.739502</ele>
        <time>2013-08-05T13:15:48Z</time>
      </trkpt>
      <trkpt lat="44.39407" lon="3.7921">
        <ele>1400.778076</ele>
        <time>2013-08-05T13:16:01Z</time>
      </trkpt>
      <trkpt lat="44.39411" lon="3.79209">
        <ele>1402.700684</ele>
        <time>2013-08-05T13:16:56Z</time>
      </trkpt>
      <trkpt lat="44.39417" lon="3.79203">
        <ele>1401.739502</ele>
        <time>2013-08-05T13:17:26Z</time>
      </trkpt>
      <trkpt lat="44.39411" lon="3.79201">
        <ele>1399.816895</ele>
        <time>2013-08-05T13:17:39Z</time>
      </trkpt>
      <trkpt lat="44.39409" lon="3.79199">
        <ele>1398.374756</ele>
        <time>2013-08-05T13:17:41Z</time>
      </trkpt>
      <trkpt lat="44.39403" lon="3.79205">
        <ele>1397.894287</ele>
        <time>2013-08-05T13:17:46Z</time>
      </trkpt>
      <trkpt lat="44.39399" lon="3.79207">
        <ele>1401.258789</ele>
        <time>2013-08-05T13:17:50Z</time>
      </trkpt>
      <trkpt lat="44.39397" lon="3.79207">
        <ele>1397.894287</ele>
        <time>2013-08-05T13:17:51Z</time>
      </trkpt>
      <trkpt lat="44.39393" lon="3.79207">
        <ele>1397.413574</ele>
        <time>2013-08-05T13:17:54Z</time>
      </trkpt>
      <trkpt lat="44.39386" lon="3.79207">
        <ele>1396.452393</ele>
        <time>2013-08-05T13:18:05Z</time>
      </trkpt>
      <trkpt lat="44.39382" lon="3.79209">
        <ele>1395.010254</ele>
        <time>2013-08-05T13:18:09Z</time>
      </trkpt>
      <trkpt lat="44.3938" lon="3.79209">
        <ele>1395.010254</ele>
        <time>2013-08-05T13:18:11Z</time>
      </trkpt>
      <trkpt lat="44.39369" lon="3.79213">
        <ele>1393.087646</ele>
        <time>2013-08-05T13:18:21Z</time>
      </trkpt>
      <trkpt lat="44.39368" lon="3.79213">
        <ele>1393.568359</ele>
        <time>2013-08-05T13:18:22Z</time>
      </trkpt>
      <trkpt lat="44.39355" lon="3.79215">
        <ele>1391.645752</ele>
        <time>2013-08-05T13:18:32Z</time>
      </trkpt>
      <trkpt lat="44.39351" lon="3.79218">
        <ele>1390.203857</ele>
        <time>2013-08-05T13:18:36Z</time>
      </trkpt>
      <trkpt lat="44.3934" lon="3.79221">
        <ele>1388.761963</ele>
        <time>2013-08-05T13:18:45Z</time>
      </trkpt>
      <trkpt lat="44.39331" lon="3.7922">
        <ele>1386.838867</ele>
        <time>2013-08-05T13:18:54Z</time>
      </trkpt>
      <trkpt lat="44.3932" lon="3.79222">
        <ele>1386.358398</ele>
        <time>2013-08-05T13:19:02Z</time>
      </trkpt>
      <trkpt lat="44.39305" lon="3.79231">
        <ele>1384.435791</ele>
        <time>2013-08-05T13:19:18Z</time>
      </trkpt>
      <trkpt lat="44.39302" lon="3.7923">
        <ele>1383.955078</ele>
        <time>2013-08-05T13:19:30Z</time>
      </trkpt>
      <trkpt lat="44.39298" lon="3.79227">
        <ele>1383.955078</ele>
        <time>2013-08-05T13:19:33Z</time>
      </trkpt>
      <trkpt lat="44.39286" lon="3.79221">
        <ele>1383.474365</ele>
        <time>2013-08-05T13:19:44Z</time>
      </trkpt>
      <trkpt lat="44.39277" lon="3.79223">
        <ele>1382.993652</ele>
        <time>2013-08-05T13:19:53Z</time>
      </trkpt>
      <trkpt lat="44.39276" lon="3.79224">
        <ele>1383.474365</ele>
        <time>2013-08-05T13:19:54Z</time>
      </trkpt>
      <trkpt lat="44.39268" lon="3.7923">
        <ele>1382.513184</ele>
        <time>2013-08-05T13:19:59Z</time>
      </trkpt>
      <trkpt lat="44.39263" lon="3.79233">
        <ele>1382.513184</ele>
        <time>2013-08-05T13:20:03Z</time>
      </trkpt>
      <trkpt lat="44.39261" lon="3.79236">
        <ele>1382.513184</ele>
        <time>2013-08-05T13:20:05Z</time>
      </trkpt>
      <trkpt lat="44.39252" lon="3.79238">
        <ele>1382.513184</ele>
        <time>2013-08-05T13:20:16Z</time>
      </trkpt>
      <trkpt lat="44.39248" lon="3.79241">
        <ele>1382.032471</ele>
        <time>2013-08-05T13:20:20Z</time>
      </trkpt>
      <trkpt lat="44.3923" lon="3.79248">
        <ele>1381.551758</ele>
        <time>2013-08-05T13:20:32Z</time>
      </trkpt>
      <trkpt lat="44.39214" lon="3.79257">
        <ele>1381.071289</ele>
        <time>2013-08-05T13:20:45Z</time>
      </trkpt>
      <trkpt lat="44.39203" lon="3.79269">
        <ele>1380.590576</ele>
        <time>2013-08-05T13:20:53Z</time>
      </trkpt>
      <trkpt lat="44.392" lon="3.7927">
        <ele>1380.109863</ele>
        <time>2013-08-05T13:20:55Z</time>
      </trkpt>
      <trkpt lat="44.39198" lon="3.79272">
        <ele>1380.109863</ele>
        <time>2013-08-05T13:20:57Z</time>
      </trkpt>
      <trkpt lat="44.39196" lon="3.79278">
        <ele>1381.071289</ele>
        <time>2013-08-05T13:21:01Z</time>
      </trkpt>
      <trkpt lat="44.39194" lon="3.79281">
        <ele>1379.148438</ele>
        <time>2013-08-05T13:21:20Z</time>
      </trkpt>
      <trkpt lat="44.39194" lon="3.79282">
        <ele>1379.62915</ele>
        <time>2013-08-05T13:22:18Z</time>
      </trkpt>
      <trkpt lat="44.39195" lon="3.79282">
        <ele>1375.303223</ele>
        <time>2013-08-05T13:23:20Z</time>
      </trkpt>
      <trkpt lat="44.39196" lon="3.79283">
        <ele>1377.706543</ele>
        <time>2013-08-05T13:23:28Z</time>
      </trkpt>
      <trkpt lat="44.39194" lon="3.79282">
        <ele>1381.551758</ele>
        <time>2013-08-05T13:23:46Z</time>
      </trkpt>
      <trkpt lat="44.39194" lon="3.79283">
        <ele>1380.590576</ele>
        <time>2013-08-05T13:23:47Z</time>
      </trkpt>
      <trkpt lat="44.39194" lon="3.79283">
        <ele>1379.148438</ele>
        <time>2013-08-05T13:23:49Z</time>
      </trkpt>
      <trkpt lat="44.39196" lon="3.79285">
        <ele>1380.590576</ele>
        <time>2013-08-05T13:24:16Z</time>
      </trkpt>
      <trkpt lat="44.39196" lon="3.79285">
        <ele>1377.226074</ele>
        <time>2013-08-05T13:24:18Z</time>
      </trkpt>
      <trkpt lat="44.39196" lon="3.79283">
        <ele>1379.148438</ele>
        <time>2013-08-05T13:24:20Z</time>
      </trkpt>
      <trkpt lat="44.3919" lon="3.79273">
        <ele>1376.745361</ele>
        <time>2013-08-05T13:24:27Z</time>
      </trkpt>
      <trkpt lat="44.39187" lon="3.79268">
        <ele>1375.303223</ele>
        <time>2013-08-05T13:24:32Z</time>
      </trkpt>
      <trkpt lat="44.39185" lon="3.79262">
        <ele>1375.783936</ele>
        <time>2013-08-05T13:24:39Z</time>
      </trkpt>
      <trkpt lat="44.39177" lon="3.79256">
        <ele>1374.822754</ele>
        <time>2013-08-05T13:24:47Z</time>
      </trkpt>
      <trkpt lat="44.39156" lon="3.79243">
        <ele>1374.342041</ele>
        <time>2013-08-05T13:25:08Z</time>
      </trkpt>
      <trkpt lat="44.39156" lon="3.79243">
        <ele>1373.861328</ele>
        <time>2013-08-05T13:25:23Z</time>
      </trkpt>
      <trkpt lat="44.39146" lon="3.79238">
        <ele>1373.861328</ele>
        <time>2013-08-05T13:25:32Z</time>
      </trkpt>
      <trkpt lat="44.39143" lon="3.79235">
        <ele>1373.380859</ele>
        <time>2013-08-05T13:25:35Z</time>
      </trkpt>
      <trkpt lat="44.39132" lon="3.79226">
        <ele>1373.380859</ele>
        <time>2013-08-05T13:25:46Z</time>
      </trkpt>
      <trkpt lat="44.3913" lon="3.79225">
        <ele>1373.861328</ele>
        <time>2013-08-05T13:25:48Z</time>
      </trkpt>
      <trkpt lat="44.39126" lon="3.79223">
        <ele>1373.861328</ele>
        <time>2013-08-05T13:25:52Z</time>
      </trkpt>
      <trkpt lat="44.39123" lon="3.79223">
        <ele>1373.861328</ele>
        <time>2013-08-05T13:25:55Z</time>
      </trkpt>
      <trkpt lat="44.39119" lon="3.79218">
        <ele>1372.900146</ele>
        <time>2013-08-05T13:25:59Z</time>
      </trkpt>
      <trkpt lat="44.39104" lon="3.79215">
        <ele>1373.380859</ele>
        <time>2013-08-05T13:26:11Z</time>
      </trkpt>
      <trkpt lat="44.39097" lon="3.79217">
        <ele>1371.938477</ele>
        <time>2013-08-05T13:26:17Z</time>
      </trkpt>
      <trkpt lat="44.39081" lon="3.79212">
        <ele>1371.938477</ele>
        <time>2013-08-05T13:26:33Z</time>
      </trkpt>
      <trkpt lat="44.39079" lon="3.7921">
        <ele>1370.977295</ele>
        <time>2013-08-05T13:26:35Z</time>
      </trkpt>
      <trkpt lat="44.39072" lon="3.79209">
        <ele>1370.977295</ele>
        <time>2013-08-05T13:26:41Z</time>
      </trkpt>
      <trkpt lat="44.39058" lon="3.79207">
        <ele>1370.977295</ele>
        <time>2013-08-05T13:26:55Z</time>
      </trkpt>
      <trkpt lat="44.39059" lon="3.79207">
        <ele>1374.342041</ele>
        <time>2013-08-05T13:26:58Z</time>
      </trkpt>
      <trkpt lat="44.39059" lon="3.79207">
        <ele>1371.457764</ele>
        <time>2013-08-05T13:26:59Z</time>
      </trkpt>
      <trkpt lat="44.39062" lon="3.79209">
        <ele>1370.015869</ele>
        <time>2013-08-05T13:27:22Z</time>
      </trkpt>
      <trkpt lat="44.3906" lon="3.7921">
        <ele>1373.861328</ele>
        <time>2013-08-05T13:27:24Z</time>
      </trkpt>
      <trkpt lat="44.39059" lon="3.7921">
        <ele>1373.861328</ele>
        <time>2013-08-05T13:27:25Z</time>
      </trkpt>
      <trkpt lat="44.3906" lon="3.79208">
        <ele>1372.900146</ele>
        <time>2013-08-05T13:27:35Z</time>
      </trkpt>
      <trkpt lat="44.39054" lon="3.79207">
        <ele>1368.093262</ele>
        <time>2013-08-05T13:27:40Z</time>
      </trkpt>
      <trkpt lat="44.39053" lon="3.79206">
        <ele>1373.380859</ele>
        <time>2013-08-05T13:27:41Z</time>
      </trkpt>
      <trkpt lat="44.3905" lon="3.79205">
        <ele>1372.419434</ele>
        <time>2013-08-05T13:27:44Z</time>
      </trkpt>
      <trkpt lat="44.39042" lon="3.79203">
        <ele>1371.938477</ele>
        <time>2013-08-05T13:27:51Z</time>
      </trkpt>
      <trkpt lat="44.39039" lon="3.79203">
        <ele>1371.938477</ele>
        <time>2013-08-05T13:27:53Z</time>
      </trkpt>
      <trkpt lat="44.39033" lon="3.79199">
        <ele>1370.496582</ele>
        <time>2013-08-05T13:27:59Z</time>
      </trkpt>
      <trkpt lat="44.39031" lon="3.79198">
        <ele>1371.938477</ele>
        <time>2013-08-05T13:28:01Z</time>
      </trkpt>
      <trkpt lat="44.39019" lon="3.79198">
        <ele>1372.419434</ele>
        <time>2013-08-05T13:28:11Z</time>
      </trkpt>
      <trkpt lat="44.39006" lon="3.79203">
        <ele>1371.938477</ele>
        <time>2013-08-05T13:28:21Z</time>
      </trkpt>
      <trkpt lat="44.38994" lon="3.79199">
        <ele>1371.457764</ele>
        <time>2013-08-05T13:28:36Z</time>
      </trkpt>
      <trkpt lat="44.3899" lon="3.79199">
        <ele>1371.457764</ele>
        <time>2013-08-05T13:28:39Z</time>
      </trkpt>
      <trkpt lat="44.38986" lon="3.79201">
        <ele>1370.496582</ele>
        <time>2013-08-05T13:28:43Z</time>
      </trkpt>
      <trkpt lat="44.38981" lon="3.79202">
        <ele>1370.977295</ele>
        <time>2013-08-05T13:28:48Z</time>
      </trkpt>
      <trkpt lat="44.38967" lon="3.79198">
        <ele>1370.015869</ele>
        <time>2013-08-05T13:28:59Z</time>
      </trkpt>
      <trkpt lat="44.38961" lon="3.79196">
        <ele>1369.054688</ele>
        <time>2013-08-05T13:29:04Z</time>
      </trkpt>
      <trkpt lat="44.38956" lon="3.79195">
        <ele>1370.015869</ele>
        <time>2013-08-05T13:29:08Z</time>
      </trkpt>
      <trkpt lat="44.38949" lon="3.79196">
        <ele>1369.054688</ele>
        <time>2013-08-05T13:29:14Z</time>
      </trkpt>
      <trkpt lat="44.38943" lon="3.792">
        <ele>1369.5354</ele>
        <time>2013-08-05T13:29:20Z</time>
      </trkpt>
      <trkpt lat="44.38936" lon="3.79209">
        <ele>1369.5354</ele>
        <time>2013-08-05T13:29:31Z</time>
      </trkpt>
      <trkpt lat="44.38935" lon="3.79206">
        <ele>1369.054688</ele>
        <time>2013-08-05T13:29:35Z</time>
      </trkpt>
      <trkpt lat="44.38927" lon="3.79203">
        <ele>1368.093262</ele>
        <time>2013-08-05T13:29:42Z</time>
      </trkpt>
      <trkpt lat="44.38923" lon="3.79199">
        <ele>1368.093262</ele>
        <time>2013-08-05T13:29:46Z</time>
      </trkpt>
      <trkpt lat="44.38918" lon="3.792">
        <ele>1368.093262</ele>
        <time>2013-08-05T13:29:50Z</time>
      </trkpt>
      <trkpt lat="44.38908" lon="3.792">
        <ele>1368.093262</ele>
        <time>2013-08-05T13:29:58Z</time>
      </trkpt>
      <trkpt lat="44.38899" lon="3.792">
        <ele>1367.612549</ele>
        <time>2013-08-05T13:30:06Z</time>
      </trkpt>
      <trkpt lat="44.38891" lon="3.79201">
        <ele>1367.13208</ele>
        <time>2013-08-05T13:30:12Z</time>
      </trkpt>
      <trkpt lat="44.38881" lon="3.792">
        <ele>1367.13208</ele>
        <time>2013-08-05T13:30:21Z</time>
      </trkpt>
      <trkpt lat="44.38878" lon="3.79195">
        <ele>1367.612549</ele>
        <time>2013-08-05T13:30:28Z</time>
      </trkpt>
      <trkpt lat="44.38874" lon="3.79195">
        <ele>1367.612549</ele>
        <time>2013-08-05T13:30:32Z</time>
      </trkpt>
      <trkpt lat="44.38864" lon="3.79192">
        <ele>1367.13208</ele>
        <time>2013-08-05T13:30:40Z</time>
      </trkpt>
      <trkpt lat="44.38854" lon="3.79189">
        <ele>1367.13208</ele>
        <time>2013-08-05T13:30:50Z</time>
      </trkpt>
      <trkpt lat="44.38854" lon="3.7919">
        <ele>1367.13208</ele>
        <time>2013-08-05T13:30:55Z</time>
      </trkpt>
      <trkpt lat="44.38848" lon="3.79191">
        <ele>1366.651367</ele>
        <time>2013-08-05T13:31:00Z</time>
      </trkpt>
      <trkpt lat="44.38838" lon="3.79195">
        <ele>1365.690186</ele>
        <time>2013-08-05T13:31:08Z</time>
      </trkpt>
      <trkpt lat="44.38832" lon="3.79195">
        <ele>1366.170654</ele>
        <time>2013-08-05T13:31:14Z</time>
      </trkpt>
      <trkpt lat="44.38822" lon="3.79195">
        <ele>1366.170654</ele>
        <time>2013-08-05T13:31:22Z</time>
      </trkpt>
      <trkpt lat="44.38813" lon="3.79194">
        <ele>1365.209473</ele>
        <time>2013-08-05T13:31:30Z</time>
      </trkpt>
      <trkpt lat="44.38806" lon="3.79197">
        <ele>1366.170654</ele>
        <time>2013-08-05T13:31:36Z</time>
      </trkpt>
      <trkpt lat="44.38798" lon="3.79195">
        <ele>1365.209473</ele>
        <time>2013-08-05T13:31:44Z</time>
      </trkpt>
      <trkpt lat="44.38794" lon="3.79194">
        <ele>1364.248047</ele>
        <time>2013-08-05T13:31:47Z</time>
      </trkpt>
      <trkpt lat="44.38791" lon="3.79198">
        <ele>1364.72876</ele>
        <time>2013-08-05T13:31:51Z</time>
      </trkpt>
      <trkpt lat="44.38787" lon="3.79197">
        <ele>1365.209473</ele>
        <time>2013-08-05T13:31:55Z</time>
      </trkpt>
      <trkpt lat="44.38786" lon="3.79195">
        <ele>1364.72876</ele>
        <time>2013-08-05T13:31:57Z</time>
      </trkpt>
      <trkpt lat="44.38779" lon="3.79192">
        <ele>1364.72876</ele>
        <time>2013-08-05T13:32:03Z</time>
      </trkpt>
      <trkpt lat="44.38775" lon="3.79188">
        <ele>1363.286865</ele>
        <time>2013-08-05T13:32:07Z</time>
      </trkpt>
      <trkpt lat="44.38772" lon="3.7919">
        <ele>1360.402832</ele>
        <time>2013-08-05T13:32:10Z</time>
      </trkpt>
      <trkpt lat="44.38771" lon="3.7919">
        <ele>1362.806152</ele>
        <time>2013-08-05T13:32:11Z</time>
      </trkpt>
      <trkpt lat="44.38767" lon="3.79188">
        <ele>1361.364258</ele>
        <time>2013-08-05T13:32:15Z</time>
      </trkpt>
      <trkpt lat="44.38759" lon="3.79186">
        <ele>1362.325439</ele>
        <time>2013-08-05T13:32:27Z</time>
      </trkpt>
      <trkpt lat="44.38755" lon="3.79181">
        <ele>1360.883545</ele>
        <time>2013-08-05T13:32:33Z</time>
      </trkpt>
      <trkpt lat="44.38747" lon="3.79177">
        <ele>1359.922119</ele>
        <time>2013-08-05T13:32:42Z</time>
      </trkpt>
      <trkpt lat="44.38749" lon="3.79179">
        <ele>1359.922119</ele>
        <time>2013-08-05T13:32:54Z</time>
      </trkpt>
      <trkpt lat="44.38748" lon="3.79178">
        <ele>1359.44165</ele>
        <time>2013-08-05T13:33:10Z</time>
      </trkpt>
      <trkpt lat="44.38746" lon="3.79178">
        <ele>1358.960938</ele>
        <time>2013-08-05T13:33:12Z</time>
      </trkpt>
      <trkpt lat="44.3874" lon="3.79174">
        <ele>1358.960938</ele>
        <time>2013-08-05T13:33:18Z</time>
      </trkpt>
      <trkpt lat="44.38735" lon="3.79174">
        <ele>1359.44165</ele>
        <time>2013-08-05T13:33:23Z</time>
      </trkpt>
      <trkpt lat="44.3873" lon="3.79175">
        <ele>1358.960938</ele>
        <time>2013-08-05T13:33:27Z</time>
      </trkpt>
      <trkpt lat="44.38725" lon="3.79175">
        <ele>1358.960938</ele>
        <time>2013-08-05T13:33:31Z</time>
      </trkpt>
      <trkpt lat="44.3871" lon="3.79178">
        <ele>1357.03833</ele>
        <time>2013-08-05T13:33:44Z</time>
      </trkpt>
      <trkpt lat="44.38688" lon="3.79176">
        <ele>1356.557617</ele>
        <time>2013-08-05T13:34:01Z</time>
      </trkpt>
      <trkpt lat="44.3867" lon="3.79181">
        <ele>1355.596191</ele>
        <time>2013-08-05T13:34:17Z</time>
      </trkpt>
      <trkpt lat="44.38656" lon="3.79186">
        <ele>1356.076904</ele>
        <time>2013-08-05T13:34:28Z</time>
      </trkpt>
      <trkpt lat="44.38655" lon="3.79187">
        <ele>1356.557617</ele>
        <time>2013-08-05T13:34:43Z</time>
      </trkpt>
      <trkpt lat="44.38655" lon="3.79186">
        <ele>1356.076904</ele>
        <time>2013-08-05T13:35:18Z</time>
      </trkpt>
      <trkpt lat="44.38655" lon="3.79188">
        <ele>1356.557617</ele>
        <time>2013-08-05T13:35:35Z</time>
      </trkpt>
      <trkpt lat="44.38658" lon="3.79208">
        <ele>1356.076904</ele>
        <time>2013-08-05T13:35:47Z</time>
      </trkpt>
      <trkpt lat="44.38659" lon="3.79214">
        <ele>1357.519043</ele>
        <time>2013-08-05T13:35:51Z</time>
      </trkpt>
      <trkpt lat="44.38659" lon="3.79224">
        <ele>1358.960938</ele>
        <time>2013-08-05T13:36:02Z</time>
      </trkpt>
      <trkpt lat="44.38659" lon="3.79224">
        <ele>1358.960938</ele>
        <time>2013-08-05T13:36:33Z</time>
      </trkpt>
      <trkpt lat="44.38658" lon="3.79219">
        <ele>1358.480225</ele>
        <time>2013-08-05T13:37:00Z</time>
      </trkpt>
      <trkpt lat="44.38658" lon="3.79209">
        <ele>1357.999756</ele>
        <time>2013-08-05T13:37:06Z</time>
      </trkpt>
      <trkpt lat="44.38653" lon="3.79191">
        <ele>1356.557617</ele>
        <time>2013-08-05T13:37:17Z</time>
      </trkpt>
      <trkpt lat="44.38645" lon="3.79186">
        <ele>1355.596191</ele>
        <time>2013-08-05T13:37:24Z</time>
      </trkpt>
      <trkpt lat="44.38627" lon="3.79186">
        <ele>1354.634766</ele>
        <time>2013-08-05T13:37:38Z</time>
      </trkpt>
      <trkpt lat="44.38619" lon="3.79195">
        <ele>1354.154297</ele>
        <time>2013-08-05T13:37:50Z</time>
      </trkpt>
      <trkpt lat="44.38618" lon="3.79195">
        <ele>1354.154297</ele>
        <time>2013-08-05T13:38:14Z</time>
      </trkpt>
      <trkpt lat="44.38617" lon="3.79193">
        <ele>1352.712158</ele>
        <time>2013-08-05T13:38:20Z</time>
      </trkpt>
      <trkpt lat="44.38616" lon="3.79186">
        <ele>1352.712158</ele>
        <time>2013-08-05T13:38:24Z</time>
      </trkpt>
      <trkpt lat="44.38611" lon="3.79171">
        <ele>1352.231445</ele>
        <time>2013-08-05T13:38:33Z</time>
      </trkpt>
      <trkpt lat="44.38597" lon="3.79165">
        <ele>1351.270264</ele>
        <time>2013-08-05T13:38:44Z</time>
      </trkpt>
      <trkpt lat="44.38593" lon="3.79165">
        <ele>1349.828369</ele>
        <time>2013-08-05T13:38:48Z</time>
      </trkpt>
      <trkpt lat="44.3859" lon="3.79167">
        <ele>1351.270264</ele>
        <time>2013-08-05T13:38:51Z</time>
      </trkpt>
      <trkpt lat="44.38582" lon="3.79162">
        <ele>1349.828369</ele>
        <time>2013-08-05T13:38:58Z</time>
      </trkpt>
      <trkpt lat="44.38579" lon="3.79159">
        <ele>1349.347656</ele>
        <time>2013-08-05T13:39:00Z</time>
      </trkpt>
      <trkpt lat="44.38568" lon="3.79162">
        <ele>1349.828369</ele>
        <time>2013-08-05T13:39:10Z</time>
      </trkpt>
      <trkpt lat="44.38555" lon="3.79168">
        <ele>1348.38623</ele>
        <time>2013-08-05T13:39:20Z</time>
      </trkpt>
      <trkpt lat="44.38548" lon="3.79172">
        <ele>1349.347656</ele>
        <time>2013-08-05T13:39:25Z</time>
      </trkpt>
      <trkpt lat="44.38533" lon="3.79171">
        <ele>1345.021729</ele>
        <time>2013-08-05T13:39:38Z</time>
      </trkpt>
      <trkpt lat="44.38531" lon="3.79171">
        <ele>1345.021729</ele>
        <time>2013-08-05T13:39:39Z</time>
      </trkpt>
      <trkpt lat="44.38522" lon="3.79164">
        <ele>1344.541016</ele>
        <time>2013-08-05T13:39:48Z</time>
      </trkpt>
      <trkpt lat="44.38512" lon="3.79177">
        <ele>1343.579834</ele>
        <time>2013-08-05T13:39:58Z</time>
      </trkpt>
      <trkpt lat="44.38511" lon="3.79177">
        <ele>1344.060547</ele>
        <time>2013-08-05T13:39:59Z</time>
      </trkpt>
      <trkpt lat="44.38504" lon="3.79174">
        <ele>1344.541016</ele>
        <time>2013-08-05T13:40:04Z</time>
      </trkpt>
      <trkpt lat="44.38495" lon="3.7917">
        <ele>1344.060547</ele>
        <time>2013-08-05T13:40:12Z</time>
      </trkpt>
      <trkpt lat="44.38491" lon="3.79168">
        <ele>1344.060547</ele>
        <time>2013-08-05T13:40:16Z</time>
      </trkpt>
      <trkpt lat="44.38488" lon="3.79171">
        <ele>1344.060547</ele>
        <time>2013-08-05T13:40:20Z</time>
      </trkpt>
      <trkpt lat="44.38484" lon="3.79169">
        <ele>1344.060547</ele>
        <time>2013-08-05T13:40:24Z</time>
      </trkpt>
      <trkpt lat="44.38479" lon="3.79172">
        <ele>1343.099121</ele>
        <time>2013-08-05T13:40:30Z</time>
      </trkpt>
      <trkpt lat="44.38476" lon="3.79175">
        <ele>1343.579834</ele>
        <time>2013-08-05T13:40:34Z</time>
      </trkpt>
      <trkpt lat="44.38469" lon="3.79178">
        <ele>1343.579834</ele>
        <time>2013-08-05T13:40:40Z</time>
      </trkpt>
      <trkpt lat="44.38467" lon="3.79177">
        <ele>1343.579834</ele>
        <time>2013-08-05T13:40:42Z</time>
      </trkpt>
      <trkpt lat="44.38446" lon="3.79179">
        <ele>1340.215332</ele>
        <time>2013-08-05T13:41:00Z</time>
      </trkpt>
      <trkpt lat="44.38442" lon="3.7918">
        <ele>1341.657227</ele>
        <time>2013-08-05T13:41:03Z</time>
      </trkpt>
      <trkpt lat="44.38435" lon="3.79181">
        <ele>1340.215332</ele>
        <time>2013-08-05T13:41:08Z</time>
      </trkpt>
      <trkpt lat="44.38422" lon="3.79182">
        <ele>1339.253662</ele>
        <time>2013-08-05T13:41:19Z</time>
      </trkpt>
      <trkpt lat="44.3841" lon="3.79184">
        <ele>1339.253662</ele>
        <time>2013-08-05T13:41:29Z</time>
      </trkpt>
      <trkpt lat="44.38408" lon="3.79183">
        <ele>1339.734375</ele>
        <time>2013-08-05T13:41:31Z</time>
      </trkpt>
      <trkpt lat="44.38403" lon="3.79181">
        <ele>1339.734375</ele>
        <time>2013-08-05T13:41:35Z</time>
      </trkpt>
      <trkpt lat="44.38393" lon="3.79185">
        <ele>1339.734375</ele>
        <time>2013-08-05T13:41:43Z</time>
      </trkpt>
      <trkpt lat="44.38388" lon="3.79187">
        <ele>1339.734375</ele>
        <time>2013-08-05T13:41:47Z</time>
      </trkpt>
      <trkpt lat="44.38383" lon="3.79189">
        <ele>1339.734375</ele>
        <time>2013-08-05T13:41:51Z</time>
      </trkpt>
      <trkpt lat="44.38377" lon="3.79193">
        <ele>1339.253662</ele>
        <time>2013-08-05T13:41:55Z</time>
      </trkpt>
      <trkpt lat="44.38363" lon="3.79202">
        <ele>1339.734375</ele>
        <time>2013-08-05T13:42:08Z</time>
      </trkpt>
      <trkpt lat="44.38359" lon="3.79205">
        <ele>1339.734375</ele>
        <time>2013-08-05T13:42:11Z</time>
      </trkpt>
      <trkpt lat="44.38353" lon="3.7921">
        <ele>1339.734375</ele>
        <time>2013-08-05T13:42:17Z</time>
      </trkpt>
      <trkpt lat="44.38347" lon="3.79212">
        <ele>1339.253662</ele>
        <time>2013-08-05T13:42:22Z</time>
      </trkpt>
      <trkpt lat="44.38343" lon="3.79212">
        <ele>1338.773193</ele>
        <time>2013-08-05T13:42:25Z</time>
      </trkpt>
      <trkpt lat="44.38329" lon="3.79218">
        <ele>1337.811768</ele>
        <time>2013-08-05T13:42:37Z</time>
      </trkpt>
      <trkpt lat="44.38314" lon="3.79221">
        <ele>1338.773193</ele>
        <time>2013-08-05T13:42:49Z</time>
      </trkpt>
      <trkpt lat="44.38311" lon="3.79225">
        <ele>1338.29248</ele>
        <time>2013-08-05T13:42:52Z</time>
      </trkpt>
      <trkpt lat="44.38302" lon="3.79231">
        <ele>1336.850342</ele>
        <time>2013-08-05T13:43:01Z</time>
      </trkpt>
      <trkpt lat="44.38297" lon="3.7924">
        <ele>1336.850342</ele>
        <time>2013-08-05T13:43:07Z</time>
      </trkpt>
      <trkpt lat="44.3829" lon="3.79241">
        <ele>1335.408447</ele>
        <time>2013-08-05T13:43:13Z</time>
      </trkpt>
      <trkpt lat="44.38277" lon="3.79237">
        <ele>1335.408447</ele>
        <time>2013-08-05T13:43:23Z</time>
      </trkpt>
      <trkpt lat="44.38263" lon="3.79248">
        <ele>1334.927979</ele>
        <time>2013-08-05T13:43:34Z</time>
      </trkpt>
      <trkpt lat="44.38259" lon="3.79249">
        <ele>1334.447266</ele>
        <time>2013-08-05T13:43:37Z</time>
      </trkpt>
      <trkpt lat="44.38255" lon="3.7925">
        <ele>1334.447266</ele>
        <time>2013-08-05T13:43:40Z</time>
      </trkpt>
      <trkpt lat="44.38244" lon="3.7926">
        <ele>1331.082764</ele>
        <time>2013-08-05T13:43:50Z</time>
      </trkpt>
      <trkpt lat="44.38242" lon="3.79261">
        <ele>1331.563232</ele>
        <time>2013-08-05T13:43:52Z</time>
      </trkpt>
      <trkpt lat="44.38239" lon="3.79262">
        <ele>1332.043945</ele>
        <time>2013-08-05T13:43:57Z</time>
      </trkpt>
      <trkpt lat="44.38237" lon="3.79265">
        <ele>1330.602051</ele>
        <time>2013-08-05T13:44:01Z</time>
      </trkpt>
      <trkpt lat="44.38236" lon="3.79266">
        <ele>1330.121338</ele>
        <time>2013-08-05T13:44:06Z</time>
      </trkpt>
      <trkpt lat="44.38219" lon="3.79265">
        <ele>1330.121338</ele>
        <time>2013-08-05T13:44:19Z</time>
      </trkpt>
      <trkpt lat="44.38211" lon="3.79264">
        <ele>1329.640625</ele>
        <time>2013-08-05T13:44:26Z</time>
      </trkpt>
      <trkpt lat="44.38193" lon="3.79264">
        <ele>1330.121338</ele>
        <time>2013-08-05T13:44:40Z</time>
      </trkpt>
      <trkpt lat="44.38185" lon="3.79262">
        <ele>1329.640625</ele>
        <time>2013-08-05T13:44:47Z</time>
      </trkpt>
      <trkpt lat="44.38179" lon="3.79266">
        <ele>1328.19873</ele>
        <time>2013-08-05T13:44:59Z</time>
      </trkpt>
      <trkpt lat="44.38175" lon="3.79269">
        <ele>1327.718018</ele>
        <time>2013-08-05T13:45:03Z</time>
      </trkpt>
      <trkpt lat="44.3817" lon="3.79269">
        <ele>1327.237549</ele>
        <time>2013-08-05T13:45:06Z</time>
      </trkpt>
      <trkpt lat="44.38161" lon="3.79281">
        <ele>1323.872559</ele>
        <time>2013-08-05T13:45:15Z</time>
      </trkpt>
      <trkpt lat="44.38151" lon="3.79287">
        <ele>1323.39209</ele>
        <time>2013-08-05T13:45:24Z</time>
      </trkpt>
      <trkpt lat="44.3815" lon="3.79288">
        <ele>1323.39209</ele>
        <time>2013-08-05T13:45:26Z</time>
      </trkpt>
      <trkpt lat="44.38147" lon="3.79296">
        <ele>1322.430664</ele>
        <time>2013-08-05T13:45:31Z</time>
      </trkpt>
      <trkpt lat="44.38132" lon="3.79307">
        <ele>1322.430664</ele>
        <time>2013-08-05T13:45:42Z</time>
      </trkpt>
      <trkpt lat="44.38126" lon="3.7931">
        <ele>1322.430664</ele>
        <time>2013-08-05T13:45:46Z</time>
      </trkpt>
      <trkpt lat="44.38124" lon="3.79313">
        <ele>1322.430664</ele>
        <time>2013-08-05T13:45:49Z</time>
      </trkpt>
      <trkpt lat="44.38122" lon="3.79323">
        <ele>1321.949951</ele>
        <time>2013-08-05T13:45:55Z</time>
      </trkpt>
      <trkpt lat="44.38124" lon="3.7933">
        <ele>1322.430664</ele>
        <time>2013-08-05T13:46:07Z</time>
      </trkpt>
      <trkpt lat="44.38124" lon="3.7933">
        <ele>1321.469238</ele>
        <time>2013-08-05T13:46:09Z</time>
      </trkpt>
      <trkpt lat="44.38123" lon="3.79333">
        <ele>1322.430664</ele>
        <time>2013-08-05T13:46:12Z</time>
      </trkpt>
      <trkpt lat="44.38108" lon="3.79346">
        <ele>1321.949951</ele>
        <time>2013-08-05T13:46:27Z</time>
      </trkpt>
      <trkpt lat="44.38097" lon="3.79351">
        <ele>1322.430664</ele>
        <time>2013-08-05T13:46:37Z</time>
      </trkpt>
      <trkpt lat="44.38091" lon="3.79355">
        <ele>1321.469238</ele>
        <time>2013-08-05T13:46:42Z</time>
      </trkpt>
      <trkpt lat="44.38087" lon="3.79363">
        <ele>1320.98877</ele>
        <time>2013-08-05T13:46:47Z</time>
      </trkpt>
      <trkpt lat="44.38071" lon="3.7938">
        <ele>1322.430664</ele>
        <time>2013-08-05T13:47:01Z</time>
      </trkpt>
      <trkpt lat="44.3806" lon="3.79391">
        <ele>1322.430664</ele>
        <time>2013-08-05T13:47:09Z</time>
      </trkpt>
      <trkpt lat="44.38058" lon="3.79397">
        <ele>1320.98877</ele>
        <time>2013-08-05T13:47:15Z</time>
      </trkpt>
      <trkpt lat="44.38054" lon="3.79399">
        <ele>1321.469238</ele>
        <time>2013-08-05T13:47:19Z</time>
      </trkpt>
      <trkpt lat="44.38043" lon="3.7941">
        <ele>1321.469238</ele>
        <time>2013-08-05T13:47:31Z</time>
      </trkpt>
      <trkpt lat="44.38035" lon="3.79415">
        <ele>1321.469238</ele>
        <time>2013-08-05T13:47:40Z</time>
      </trkpt>
      <trkpt lat="44.38026" lon="3.79418">
        <ele>1320.98877</ele>
        <time>2013-08-05T13:47:47Z</time>
      </trkpt>
      <trkpt lat="44.38021" lon="3.79419">
        <ele>1316.662842</ele>
        <time>2013-08-05T13:47:51Z</time>
      </trkpt>
      <trkpt lat="44.3802" lon="3.79419">
        <ele>1316.662842</ele>
        <time>2013-08-05T13:47:52Z</time>
      </trkpt>
      <trkpt lat="44.38018" lon="3.79419">
        <ele>1324.353516</ele>
        <time>2013-08-05T13:47:54Z</time>
      </trkpt>
      <trkpt lat="44.38017" lon="3.79418">
        <ele>1321.469238</ele>
        <time>2013-08-05T13:47:55Z</time>
      </trkpt>
      <trkpt lat="44.38013" lon="3.79421">
        <ele>1319.546875</ele>
        <time>2013-08-05T13:48:06Z</time>
      </trkpt>
      <trkpt lat="44.38015" lon="3.79418">
        <ele>1320.508057</ele>
        <time>2013-08-05T13:49:00Z</time>
      </trkpt>
      <trkpt lat="44.38015" lon="3.79419">
        <ele>1319.546875</ele>
        <time>2013-08-05T13:49:26Z</time>
      </trkpt>
      <trkpt lat="44.38015" lon="3.7942">
        <ele>1320.508057</ele>
        <time>2013-08-05T13:49:41Z</time>
      </trkpt>
      <trkpt lat="44.38014" lon="3.7942">
        <ele>1321.469238</ele>
        <time>2013-08-05T13:50:01Z</time>
      </trkpt>
      <trkpt lat="44.38013" lon="3.79421">
        <ele>1320.508057</ele>
        <time>2013-08-05T13:50:21Z</time>
      </trkpt>
      <trkpt lat="44.38012" lon="3.79419">
        <ele>1320.508057</ele>
        <time>2013-08-05T13:50:49Z</time>
      </trkpt>
      <trkpt lat="44.38013" lon="3.7942">
        <ele>1320.508057</ele>
        <time>2013-08-05T13:51:14Z</time>
      </trkpt>
      <trkpt lat="44.38011" lon="3.79419">
        <ele>1320.508057</ele>
        <time>2013-08-05T13:51:29Z</time>
      </trkpt>
      <trkpt lat="44.38004" lon="3.79408">
        <ele>1320.98877</ele>
        <time>2013-08-05T13:51:42Z</time>
      </trkpt>
      <trkpt lat="44.38003" lon="3.79408">
        <ele>1320.98877</ele>
        <time>2013-08-05T13:51:43Z</time>
      </trkpt>
      <trkpt lat="44.37991" lon="3.79402">
        <ele>1320.027344</ele>
        <time>2013-08-05T13:51:58Z</time>
      </trkpt>
      <trkpt lat="44.3799" lon="3.79399">
        <ele>1320.98877</ele>
        <time>2013-08-05T13:52:14Z</time>
      </trkpt>
      <trkpt lat="44.37977" lon="3.79382">
        <ele>1320.508057</ele>
        <time>2013-08-05T13:52:27Z</time>
      </trkpt>
      <trkpt lat="44.37974" lon="3.7938">
        <ele>1320.508057</ele>
        <time>2013-08-05T13:52:29Z</time>
      </trkpt>
      <trkpt lat="44.37951" lon="3.79357">
        <ele>1320.027344</ele>
        <time>2013-08-05T13:52:49Z</time>
      </trkpt>
      <trkpt lat="44.37936" lon="3.79341">
        <ele>1320.508057</ele>
        <time>2013-08-05T13:53:02Z</time>
      </trkpt>
      <trkpt lat="44.37931" lon="3.79338">
        <ele>1320.508057</ele>
        <time>2013-08-05T13:53:06Z</time>
      </trkpt>
      <trkpt lat="44.37913" lon="3.79316">
        <ele>1320.508057</ele>
        <time>2013-08-05T13:53:23Z</time>
      </trkpt>
      <trkpt lat="44.37903" lon="3.79306">
        <ele>1320.027344</ele>
        <time>2013-08-05T13:53:33Z</time>
      </trkpt>
      <trkpt lat="44.37886" lon="3.79291">
        <ele>1320.508057</ele>
        <time>2013-08-05T13:53:47Z</time>
      </trkpt>
      <trkpt lat="44.3787" lon="3.79272">
        <ele>1320.508057</ele>
        <time>2013-08-05T13:54:02Z</time>
      </trkpt>
      <trkpt lat="44.37856" lon="3.79257">
        <ele>1320.98877</ele>
        <time>2013-08-05T13:54:16Z</time>
      </trkpt>
      <trkpt lat="44.37854" lon="3.79255">
        <ele>1320.027344</ele>
        <time>2013-08-05T13:54:18Z</time>
      </trkpt>
      <trkpt lat="44.37838" lon="3.79241">
        <ele>1320.508057</ele>
        <time>2013-08-05T13:54:32Z</time>
      </trkpt>
      <trkpt lat="44.37833" lon="3.79235">
        <ele>1319.546875</ele>
        <time>2013-08-05T13:54:37Z</time>
      </trkpt>
      <trkpt lat="44.37822" lon="3.79222">
        <ele>1318.585449</ele>
        <time>2013-08-05T13:54:48Z</time>
      </trkpt>
      <trkpt lat="44.37821" lon="3.79221">
        <ele>1319.546875</ele>
        <time>2013-08-05T13:54:49Z</time>
      </trkpt>
      <trkpt lat="44.37816" lon="3.79217">
        <ele>1318.585449</ele>
        <time>2013-08-05T13:54:54Z</time>
      </trkpt>
      <trkpt lat="44.37803" lon="3.79205">
        <ele>1318.104736</ele>
        <time>2013-08-05T13:55:05Z</time>
      </trkpt>
      <trkpt lat="44.37802" lon="3.79204">
        <ele>1318.104736</ele>
        <time>2013-08-05T13:55:06Z</time>
      </trkpt>
      <trkpt lat="44.37787" lon="3.79188">
        <ele>1317.624023</ele>
        <time>2013-08-05T13:55:19Z</time>
      </trkpt>
      <trkpt lat="44.3777" lon="3.79172">
        <ele>1317.624023</ele>
        <time>2013-08-05T13:55:34Z</time>
      </trkpt>
      <trkpt lat="44.37755" lon="3.79162">
        <ele>1317.143555</ele>
        <time>2013-08-05T13:55:47Z</time>
      </trkpt>
      <trkpt lat="44.37743" lon="3.79157">
        <ele>1314.259521</ele>
        <time>2013-08-05T13:55:56Z</time>
      </trkpt>
      <trkpt lat="44.37721" lon="3.79149">
        <ele>1313.778809</ele>
        <time>2013-08-05T13:56:13Z</time>
      </trkpt>
      <trkpt lat="44.37702" lon="3.79145">
        <ele>1312.336914</ele>
        <time>2013-08-05T13:56:27Z</time>
      </trkpt>
      <trkpt lat="44.37678" lon="3.79139">
        <ele>1310.89502</ele>
        <time>2013-08-05T13:56:46Z</time>
      </trkpt>
      <trkpt lat="44.37658" lon="3.79143">
        <ele>1310.414307</ele>
        <time>2013-08-05T13:56:59Z</time>
      </trkpt>
      <trkpt lat="44.3764" lon="3.79144">
        <ele>1306.568848</ele>
        <time>2013-08-05T13:57:12Z</time>
      </trkpt>
      <trkpt lat="44.37633" lon="3.79144">
        <ele>1309.933594</ele>
        <time>2013-08-05T13:57:17Z</time>
      </trkpt>
      <trkpt lat="44.37629" lon="3.79143">
        <ele>1308.491699</ele>
        <time>2013-08-05T13:57:21Z</time>
      </trkpt>
      <trkpt lat="44.37625" lon="3.79141">
        <ele>1306.568848</ele>
        <time>2013-08-05T13:57:25Z</time>
      </trkpt>
      <trkpt lat="44.37619" lon="3.79141">
        <ele>1307.049561</ele>
        <time>2013-08-05T13:57:30Z</time>
      </trkpt>
      <trkpt lat="44.37602" lon="3.79138">
        <ele>1305.126953</ele>
        <time>2013-08-05T13:57:43Z</time>
      </trkpt>
      <trkpt lat="44.37592" lon="3.79136">
        <ele>1304.64624</ele>
        <time>2013-08-05T13:57:50Z</time>
      </trkpt>
      <trkpt lat="44.3759" lon="3.79136">
        <ele>1305.126953</ele>
        <time>2013-08-05T13:57:52Z</time>
      </trkpt>
      <trkpt lat="44.37576" lon="3.79131">
        <ele>1303.685059</ele>
        <time>2013-08-05T13:58:03Z</time>
      </trkpt>
      <trkpt lat="44.3755" lon="3.79127">
        <ele>1302.24292</ele>
        <time>2013-08-05T13:58:21Z</time>
      </trkpt>
      <trkpt lat="44.37533" lon="3.79123">
        <ele>1299.839844</ele>
        <time>2013-08-05T13:58:34Z</time>
      </trkpt>
      <trkpt lat="44.37528" lon="3.79121">
        <ele>1299.359131</ele>
        <time>2013-08-05T13:58:38Z</time>
      </trkpt>
      <trkpt lat="44.37522" lon="3.7912">
        <ele>1299.359131</ele>
        <time>2013-08-05T13:58:42Z</time>
      </trkpt>
      <trkpt lat="44.375" lon="3.79113">
        <ele>1297.436523</ele>
        <time>2013-08-05T13:58:59Z</time>
      </trkpt>
      <trkpt lat="44.37486" lon="3.79108">
        <ele>1297.917236</ele>
        <time>2013-08-05T13:59:11Z</time>
      </trkpt>
      <trkpt lat="44.37477" lon="3.79105">
        <ele>1296.475342</ele>
        <time>2013-08-05T13:59:18Z</time>
      </trkpt>
      <trkpt lat="44.37467" lon="3.79103">
        <ele>1295.033203</ele>
        <time>2013-08-05T13:59:26Z</time>
      </trkpt>
      <trkpt lat="44.37457" lon="3.79103">
        <ele>1294.55249</ele>
        <time>2013-08-05T13:59:33Z</time>
      </trkpt>
      <trkpt lat="44.37437" lon="3.79104">
        <ele>1293.591309</ele>
        <time>2013-08-05T13:59:49Z</time>
      </trkpt>
      <trkpt lat="44.37432" lon="3.79105">
        <ele>1293.591309</ele>
        <time>2013-08-05T13:59:53Z</time>
      </trkpt>
      <trkpt lat="44.37413" lon="3.79107">
        <ele>1291.187744</ele>
        <time>2013-08-05T14:00:07Z</time>
      </trkpt>
      <trkpt lat="44.37398" lon="3.79108">
        <ele>1290.707031</ele>
        <time>2013-08-05T14:00:19Z</time>
      </trkpt>
      <trkpt lat="44.37384" lon="3.79104">
        <ele>1289.265137</ele>
        <time>2013-08-05T14:00:32Z</time>
      </trkpt>
      <trkpt lat="44.37382" lon="3.79101">
        <ele>1289.265137</ele>
        <time>2013-08-05T14:00:49Z</time>
      </trkpt>
      <trkpt lat="44.37364" lon="3.79087">
        <ele>1287.342529</ele>
        <time>2013-08-05T14:01:03Z</time>
      </trkpt>
      <trkpt lat="44.37357" lon="3.79082">
        <ele>1286.381348</ele>
        <time>2013-08-05T14:01:09Z</time>
      </trkpt>
      <trkpt lat="44.37347" lon="3.79073">
        <ele>1285.419922</ele>
        <time>2013-08-05T14:01:21Z</time>
      </trkpt>
      <trkpt lat="44.37334" lon="3.79065">
        <ele>1285.419922</ele>
        <time>2013-08-05T14:01:33Z</time>
      </trkpt>
      <trkpt lat="44.37324" lon="3.79048">
        <ele>1284.45874</ele>
        <time>2013-08-05T14:01:46Z</time>
      </trkpt>
      <trkpt lat="44.37324" lon="3.79043">
        <ele>1283.978027</ele>
        <time>2013-08-05T14:01:49Z</time>
      </trkpt>
      <trkpt lat="44.37324" lon="3.79036">
        <ele>1284.45874</ele>
        <time>2013-08-05T14:01:53Z</time>
      </trkpt>
      <trkpt lat="44.37324" lon="3.79028">
        <ele>1283.978027</ele>
        <time>2013-08-05T14:01:57Z</time>
      </trkpt>
      <trkpt lat="44.37323" lon="3.79015">
        <ele>1284.45874</ele>
        <time>2013-08-05T14:02:04Z</time>
      </trkpt>
      <trkpt lat="44.37319" lon="3.79">
        <ele>1284.45874</ele>
        <time>2013-08-05T14:02:12Z</time>
      </trkpt>
      <trkpt lat="44.3731" lon="3.78989">
        <ele>1284.45874</ele>
        <time>2013-08-05T14:02:22Z</time>
      </trkpt>
      <trkpt lat="44.37297" lon="3.78973">
        <ele>1285.419922</ele>
        <time>2013-08-05T14:02:36Z</time>
      </trkpt>
      <trkpt lat="44.37294" lon="3.78964">
        <ele>1285.419922</ele>
        <time>2013-08-05T14:02:41Z</time>
      </trkpt>
      <trkpt lat="44.3729" lon="3.78959">
        <ele>1285.900635</ele>
        <time>2013-08-05T14:02:45Z</time>
      </trkpt>
      <trkpt lat="44.37283" lon="3.78951">
        <ele>1286.381348</ele>
        <time>2013-08-05T14:02:51Z</time>
      </trkpt>
      <trkpt lat="44.37278" lon="3.78945">
        <ele>1285.900635</ele>
        <time>2013-08-05T14:02:56Z</time>
      </trkpt>
      <trkpt lat="44.3727" lon="3.78937">
        <ele>1285.900635</ele>
        <time>2013-08-05T14:03:03Z</time>
      </trkpt>
      <trkpt lat="44.37258" lon="3.7892">
        <ele>1286.381348</ele>
        <time>2013-08-05T14:03:16Z</time>
      </trkpt>
      <trkpt lat="44.37243" lon="3.789">
        <ele>1286.861816</ele>
        <time>2013-08-05T14:03:32Z</time>
      </trkpt>
      <trkpt lat="44.3723" lon="3.78882">
        <ele>1287.823242</ele>
        <time>2013-08-05T14:03:44Z</time>
      </trkpt>
      <trkpt lat="44.37217" lon="3.78863">
        <ele>1286.381348</ele>
        <time>2013-08-05T14:03:58Z</time>
      </trkpt>
      <trkpt lat="44.37213" lon="3.78853">
        <ele>1286.381348</ele>
        <time>2013-08-05T14:04:04Z</time>
      </trkpt>
      <trkpt lat="44.37204" lon="3.78828">
        <ele>1285.900635</ele>
        <time>2013-08-05T14:04:19Z</time>
      </trkpt>
      <trkpt lat="44.37203" lon="3.78817">
        <ele>1285.900635</ele>
        <time>2013-08-05T14:04:25Z</time>
      </trkpt>
      <trkpt lat="44.37202" lon="3.78802">
        <ele>1286.381348</ele>
        <time>2013-08-05T14:04:34Z</time>
      </trkpt>
      <trkpt lat="44.372" lon="3.78779">
        <ele>1285.419922</ele>
        <time>2013-08-05T14:04:48Z</time>
      </trkpt>
      <trkpt lat="44.37199" lon="3.78777">
        <ele>1285.419922</ele>
        <time>2013-08-05T14:04:49Z</time>
      </trkpt>
      <trkpt lat="44.37199" lon="3.78768">
        <ele>1285.419922</ele>
        <time>2013-08-05T14:04:54Z</time>
      </trkpt>
      <trkpt lat="44.37198" lon="3.78749">
        <ele>1284.45874</ele>
        <time>2013-08-05T14:05:05Z</time>
      </trkpt>
      <trkpt lat="44.37198" lon="3.78741">
        <ele>1284.45874</ele>
        <time>2013-08-05T14:05:09Z</time>
      </trkpt>
      <trkpt lat="44.37197" lon="3.78734">
        <ele>1283.978027</ele>
        <time>2013-08-05T14:05:13Z</time>
      </trkpt>
      <trkpt lat="44.37197" lon="3.78715">
        <ele>1283.016602</ele>
        <time>2013-08-05T14:05:23Z</time>
      </trkpt>
      <trkpt lat="44.37199" lon="3.78683">
        <ele>1282.536133</ele>
        <time>2013-08-05T14:05:39Z</time>
      </trkpt>
      <trkpt lat="44.37199" lon="3.78681">
        <ele>1283.497314</ele>
        <time>2013-08-05T14:05:40Z</time>
      </trkpt>
      <trkpt lat="44.372" lon="3.78673">
        <ele>1283.016602</ele>
        <time>2013-08-05T14:05:44Z</time>
      </trkpt>
      <trkpt lat="44.372" lon="3.7866">
        <ele>1282.05542</ele>
        <time>2013-08-05T14:05:52Z</time>
      </trkpt>
      <trkpt lat="44.37204" lon="3.7863">
        <ele>1282.05542</ele>
        <time>2013-08-05T14:06:08Z</time>
      </trkpt>
      <trkpt lat="44.37207" lon="3.78618">
        <ele>1281.094238</ele>
        <time>2013-08-05T14:06:14Z</time>
      </trkpt>
      <trkpt lat="44.37209" lon="3.7861">
        <ele>1280.613525</ele>
        <time>2013-08-05T14:06:19Z</time>
      </trkpt>
      <trkpt lat="44.37213" lon="3.78584">
        <ele>1280.132812</ele>
        <time>2013-08-05T14:06:33Z</time>
      </trkpt>
      <trkpt lat="44.37215" lon="3.78577">
        <ele>1279.171387</ele>
        <time>2013-08-05T14:06:37Z</time>
      </trkpt>
      <trkpt lat="44.37215" lon="3.78571">
        <ele>1279.6521</ele>
        <time>2013-08-05T14:06:41Z</time>
      </trkpt>
      <trkpt lat="44.37221" lon="3.78539">
        <ele>1279.6521</ele>
        <time>2013-08-05T14:06:57Z</time>
      </trkpt>
      <trkpt lat="44.37225" lon="3.78523">
        <ele>1279.171387</ele>
        <time>2013-08-05T14:07:05Z</time>
      </trkpt>
      <trkpt lat="44.37227" lon="3.7851">
        <ele>1278.210205</ele>
        <time>2013-08-05T14:07:12Z</time>
      </trkpt>
      <trkpt lat="44.37229" lon="3.7848">
        <ele>1277.249023</ele>
        <time>2013-08-05T14:07:28Z</time>
      </trkpt>
      <trkpt lat="44.37232" lon="3.78449">
        <ele>1276.768311</ele>
        <time>2013-08-05T14:07:42Z</time>
      </trkpt>
      <trkpt lat="44.37232" lon="3.78445">
        <ele>1276.768311</ele>
        <time>2013-08-05T14:07:44Z</time>
      </trkpt>
      <trkpt lat="44.37233" lon="3.78424">
        <ele>1276.287598</ele>
        <time>2013-08-05T14:07:55Z</time>
      </trkpt>
      <trkpt lat="44.37234" lon="3.78416">
        <ele>1276.287598</ele>
        <time>2013-08-05T14:07:59Z</time>
      </trkpt>
      <trkpt lat="44.37237" lon="3.78405">
        <ele>1275.325928</ele>
        <time>2013-08-05T14:08:06Z</time>
      </trkpt>
      <trkpt lat="44.37244" lon="3.78388">
        <ele>1275.325928</ele>
        <time>2013-08-05T14:08:16Z</time>
      </trkpt>
      <trkpt lat="44.37247" lon="3.78379">
        <ele>1274.845459</ele>
        <time>2013-08-05T14:08:21Z</time>
      </trkpt>
      <trkpt lat="44.37251" lon="3.78368">
        <ele>1274.364746</ele>
        <time>2013-08-05T14:08:27Z</time>
      </trkpt>
      <trkpt lat="44.37259" lon="3.78349">
        <ele>1274.364746</ele>
        <time>2013-08-05T14:08:41Z</time>
      </trkpt>
      <trkpt lat="44.37259" lon="3.78343">
        <ele>1274.364746</ele>
        <time>2013-08-05T14:08:44Z</time>
      </trkpt>
      <trkpt lat="44.37267" lon="3.78326">
        <ele>1273.884033</ele>
        <time>2013-08-05T14:08:53Z</time>
      </trkpt>
      <trkpt lat="44.37272" lon="3.78307">
        <ele>1273.403564</ele>
        <time>2013-08-05T14:09:03Z</time>
      </trkpt>
      <trkpt lat="44.37273" lon="3.78297">
        <ele>1273.884033</ele>
        <time>2013-08-05T14:09:14Z</time>
      </trkpt>
      <trkpt lat="44.37276" lon="3.78293">
        <ele>1273.403564</ele>
        <time>2013-08-05T14:09:18Z</time>
      </trkpt>
      <trkpt lat="44.37285" lon="3.78273">
        <ele>1272.922852</ele>
        <time>2013-08-05T14:09:31Z</time>
      </trkpt>
      <trkpt lat="44.37295" lon="3.7825">
        <ele>1271.961426</ele>
        <time>2013-08-05T14:09:45Z</time>
      </trkpt>
      <trkpt lat="44.37302" lon="3.78228">
        <ele>1271.961426</ele>
        <time>2013-08-05T14:09:57Z</time>
      </trkpt>
      <trkpt lat="44.3731" lon="3.78204">
        <ele>1271.961426</ele>
        <time>2013-08-05T14:10:10Z</time>
      </trkpt>
      <trkpt lat="44.37311" lon="3.782">
        <ele>1271.961426</ele>
        <time>2013-08-05T14:10:12Z</time>
      </trkpt>
      <trkpt lat="44.37312" lon="3.7819">
        <ele>1271.961426</ele>
        <time>2013-08-05T14:10:16Z</time>
      </trkpt>
      <trkpt lat="44.37315" lon="3.78184">
        <ele>1271.961426</ele>
        <time>2013-08-05T14:10:20Z</time>
      </trkpt>
      <trkpt lat="44.37317" lon="3.78175">
        <ele>1271.000244</ele>
        <time>2013-08-05T14:10:25Z</time>
      </trkpt>
      <trkpt lat="44.37318" lon="3.78156">
        <ele>1271.000244</ele>
        <time>2013-08-05T14:10:34Z</time>
      </trkpt>
      <trkpt lat="44.37317" lon="3.78137">
        <ele>1271.000244</ele>
        <time>2013-08-05T14:10:44Z</time>
      </trkpt>
      <trkpt lat="44.37316" lon="3.78126">
        <ele>1270.519531</ele>
        <time>2013-08-05T14:10:49Z</time>
      </trkpt>
      <trkpt lat="44.37317" lon="3.78122">
        <ele>1271.000244</ele>
        <time>2013-08-05T14:10:51Z</time>
      </trkpt>
      <trkpt lat="44.37319" lon="3.7811">
        <ele>1270.038818</ele>
        <time>2013-08-05T14:10:57Z</time>
      </trkpt>
      <trkpt lat="44.37324" lon="3.78081">
        <ele>1269.077637</ele>
        <time>2013-08-05T14:11:12Z</time>
      </trkpt>
      <trkpt lat="44.37324" lon="3.78072">
        <ele>1268.596924</ele>
        <time>2013-08-05T14:11:17Z</time>
      </trkpt>
      <trkpt lat="44.37324" lon="3.78069">
        <ele>1269.077637</ele>
        <time>2013-08-05T14:11:19Z</time>
      </trkpt>
      <trkpt lat="44.37328" lon="3.78045">
        <ele>1268.596924</ele>
        <time>2013-08-05T14:11:32Z</time>
      </trkpt>
      <trkpt lat="44.37329" lon="3.78035">
        <ele>1268.116211</ele>
        <time>2013-08-05T14:11:37Z</time>
      </trkpt>
      <trkpt lat="44.37335" lon="3.78009">
        <ele>1267.155029</ele>
        <time>2013-08-05T14:11:51Z</time>
      </trkpt>
      <trkpt lat="44.37342" lon="3.77994">
        <ele>1267.155029</ele>
        <time>2013-08-05T14:12:00Z</time>
      </trkpt>
      <trkpt lat="44.37352" lon="3.7797">
        <ele>1265.713135</ele>
        <time>2013-08-05T14:12:13Z</time>
      </trkpt>
      <trkpt lat="44.3736" lon="3.7795">
        <ele>1264.751709</ele>
        <time>2013-08-05T14:12:25Z</time>
      </trkpt>
      <trkpt lat="44.37367" lon="3.77929">
        <ele>1264.751709</ele>
        <time>2013-08-05T14:12:37Z</time>
      </trkpt>
      <trkpt lat="44.37372" lon="3.7792">
        <ele>1264.270996</ele>
        <time>2013-08-05T14:12:43Z</time>
      </trkpt>
      <trkpt lat="44.3738" lon="3.77905">
        <ele>1264.751709</ele>
        <time>2013-08-05T14:12:55Z</time>
      </trkpt>
      <trkpt lat="44.37381" lon="3.77904">
        <ele>1264.270996</ele>
        <time>2013-08-05T14:12:56Z</time>
      </trkpt>
      <trkpt lat="44.37383" lon="3.77901">
        <ele>1264.270996</ele>
        <time>2013-08-05T14:12:59Z</time>
      </trkpt>
      <trkpt lat="44.37387" lon="3.77894">
        <ele>1264.270996</ele>
        <time>2013-08-05T14:13:04Z</time>
      </trkpt>
      <trkpt lat="44.37398" lon="3.77878">
        <ele>1263.309814</ele>
        <time>2013-08-05T14:13:16Z</time>
      </trkpt>
      <trkpt lat="44.37405" lon="3.77868">
        <ele>1263.309814</ele>
        <time>2013-08-05T14:13:23Z</time>
      </trkpt>
      <trkpt lat="44.37416" lon="3.77855">
        <ele>1262.348389</ele>
        <time>2013-08-05T14:13:35Z</time>
      </trkpt>
      <trkpt lat="44.37424" lon="3.77841">
        <ele>1262.348389</ele>
        <time>2013-08-05T14:13:48Z</time>
      </trkpt>
      <trkpt lat="44.37433" lon="3.77823">
        <ele>1262.829102</ele>
        <time>2013-08-05T14:13:59Z</time>
      </trkpt>
      <trkpt lat="44.37436" lon="3.77819">
        <ele>1261.86792</ele>
        <time>2013-08-05T14:14:01Z</time>
      </trkpt>
      <trkpt lat="44.37438" lon="3.77816">
        <ele>1261.387207</ele>
        <time>2013-08-05T14:14:03Z</time>
      </trkpt>
      <trkpt lat="44.37439" lon="3.77811">
        <ele>1261.387207</ele>
        <time>2013-08-05T14:14:07Z</time>
      </trkpt>
      <trkpt lat="44.3744" lon="3.77805">
        <ele>1261.86792</ele>
        <time>2013-08-05T14:14:10Z</time>
      </trkpt>
      <trkpt lat="44.37437" lon="3.77785">
        <ele>1261.387207</ele>
        <time>2013-08-05T14:14:22Z</time>
      </trkpt>
      <trkpt lat="44.37436" lon="3.77788">
        <ele>1261.387207</ele>
        <time>2013-08-05T14:14:24Z</time>
      </trkpt>
      <trkpt lat="44.37426" lon="3.77791">
        <ele>1257.541748</ele>
        <time>2013-08-05T14:14:31Z</time>
      </trkpt>
      <trkpt lat="44.37424" lon="3.7779">
        <ele>1257.541748</ele>
        <time>2013-08-05T14:14:35Z</time>
      </trkpt>
      <trkpt lat="44.37423" lon="3.77782">
        <ele>1253.696533</ele>
        <time>2013-08-05T14:14:40Z</time>
      </trkpt>
      <trkpt lat="44.37423" lon="3.77781">
        <ele>1257.541748</ele>
        <time>2013-08-05T14:14:44Z</time>
      </trkpt>
      <trkpt lat="44.37423" lon="3.77781">
        <ele>1256.099609</ele>
        <time>2013-08-05T14:14:48Z</time>
      </trkpt>
      <trkpt lat="44.37423" lon="3.77781">
        <ele>1255.619141</ele>
        <time>2013-08-05T14:15:43Z</time>
      </trkpt>
      <trkpt lat="44.37424" lon="3.77781">
        <ele>1256.099609</ele>
        <time>2013-08-05T14:15:54Z</time>
      </trkpt>
      <trkpt lat="44.37424" lon="3.77778">
        <ele>1256.580322</ele>
        <time>2013-08-05T14:18:09Z</time>
      </trkpt>
      <trkpt lat="44.37423" lon="3.77778">
        <ele>1255.619141</ele>
        <time>2013-08-05T14:18:12Z</time>
      </trkpt>
      <trkpt lat="44.37412" lon="3.77769">
        <ele>1254.657715</ele>
        <time>2013-08-05T14:18:25Z</time>
      </trkpt>
      <trkpt lat="44.37402" lon="3.77758">
        <ele>1253.696533</ele>
        <time>2013-08-05T14:18:35Z</time>
      </trkpt>
      <trkpt lat="44.37398" lon="3.77746">
        <ele>1254.177246</ele>
        <time>2013-08-05T14:18:47Z</time>
      </trkpt>
      <trkpt lat="44.37399" lon="3.77736">
        <ele>1255.619141</ele>
        <time>2013-08-05T14:18:55Z</time>
      </trkpt>
      <trkpt lat="44.37401" lon="3.77717">
        <ele>1257.061035</ele>
        <time>2013-08-05T14:19:06Z</time>
      </trkpt>
      <trkpt lat="44.37401" lon="3.77707">
        <ele>1257.541748</ele>
        <time>2013-08-05T14:19:10Z</time>
      </trkpt>
      <trkpt lat="44.37397" lon="3.77684">
        <ele>1258.022461</ele>
        <time>2013-08-05T14:19:28Z</time>
      </trkpt>
      <trkpt lat="44.37398" lon="3.77679">
        <ele>1257.541748</ele>
        <time>2013-08-05T14:19:31Z</time>
      </trkpt>
      <trkpt lat="44.37389" lon="3.77652">
        <ele>1258.022461</ele>
        <time>2013-08-05T14:19:49Z</time>
      </trkpt>
      <trkpt lat="44.37386" lon="3.77638">
        <ele>1257.541748</ele>
        <time>2013-08-05T14:20:01Z</time>
      </trkpt>
      <trkpt lat="44.37382" lon="3.77627">
        <ele>1255.619141</ele>
        <time>2013-08-05T14:20:10Z</time>
      </trkpt>
      <trkpt lat="44.3738" lon="3.77617">
        <ele>1256.099609</ele>
        <time>2013-08-05T14:20:17Z</time>
      </trkpt>
      <trkpt lat="44.37381" lon="3.77607">
        <ele>1255.619141</ele>
        <time>2013-08-05T14:20:23Z</time>
      </trkpt>
      <trkpt lat="44.37383" lon="3.77599">
        <ele>1254.657715</ele>
        <time>2013-08-05T14:20:28Z</time>
      </trkpt>
      <trkpt lat="44.37386" lon="3.77594">
        <ele>1253.696533</ele>
        <time>2013-08-05T14:20:31Z</time>
      </trkpt>
      <trkpt lat="44.37389" lon="3.77571">
        <ele>1254.177246</ele>
        <time>2013-08-05T14:20:44Z</time>
      </trkpt>
      <trkpt lat="44.37392" lon="3.77551">
        <ele>1253.696533</ele>
        <time>2013-08-05T14:20:55Z</time>
      </trkpt>
      <trkpt lat="44.37393" lon="3.77542">
        <ele>1252.735107</ele>
        <time>2013-08-05T14:21:00Z</time>
      </trkpt>
      <trkpt lat="44.37392" lon="3.77522">
        <ele>1252.254395</ele>
        <time>2013-08-05T14:21:11Z</time>
      </trkpt>
      <trkpt lat="44.37392" lon="3.77513">
        <ele>1251.773926</ele>
        <time>2013-08-05T14:21:16Z</time>
      </trkpt>
      <trkpt lat="44.3739" lon="3.77488">
        <ele>1249.851318</ele>
        <time>2013-08-05T14:21:29Z</time>
      </trkpt>
      <trkpt lat="44.37386" lon="3.77464">
        <ele>1249.370605</ele>
        <time>2013-08-05T14:21:43Z</time>
      </trkpt>
      <trkpt lat="44.37373" lon="3.7744">
        <ele>1247.447998</ele>
        <time>2013-08-05T14:21:59Z</time>
      </trkpt>
      <trkpt lat="44.37358" lon="3.77426">
        <ele>1247.447998</ele>
        <time>2013-08-05T14:22:11Z</time>
      </trkpt>
      <trkpt lat="44.37352" lon="3.77424">
        <ele>1246.967285</ele>
        <time>2013-08-05T14:22:17Z</time>
      </trkpt>
      <trkpt lat="44.37343" lon="3.77429">
        <ele>1246.967285</ele>
        <time>2013-08-05T14:22:26Z</time>
      </trkpt>
      <trkpt lat="44.3733" lon="3.77433">
        <ele>1243.602539</ele>
        <time>2013-08-05T14:22:38Z</time>
      </trkpt>
      <trkpt lat="44.37311" lon="3.77437">
        <ele>1242.160645</ele>
        <time>2013-08-05T14:22:53Z</time>
      </trkpt>
      <trkpt lat="44.37301" lon="3.77438">
        <ele>1241.679932</ele>
        <time>2013-08-05T14:23:03Z</time>
      </trkpt>
      <trkpt lat="44.37292" lon="3.77437">
        <ele>1241.199219</ele>
        <time>2013-08-05T14:23:11Z</time>
      </trkpt>
      <trkpt lat="44.37275" lon="3.77443">
        <ele>1240.718506</ele>
        <time>2013-08-05T14:23:25Z</time>
      </trkpt>
      <trkpt lat="44.37259" lon="3.77451">
        <ele>1238.31543</ele>
        <time>2013-08-05T14:23:38Z</time>
      </trkpt>
      <trkpt lat="44.37241" lon="3.77461">
        <ele>1237.354004</ele>
        <time>2013-08-05T14:23:52Z</time>
      </trkpt>
      <trkpt lat="44.3723" lon="3.77463">
        <ele>1236.392822</ele>
        <time>2013-08-05T14:24:00Z</time>
      </trkpt>
      <trkpt lat="44.37213" lon="3.77472">
        <ele>1233.989502</ele>
        <time>2013-08-05T14:24:13Z</time>
      </trkpt>
      <trkpt lat="44.37196" lon="3.77476">
        <ele>1233.028076</ele>
        <time>2013-08-05T14:24:25Z</time>
      </trkpt>
      <trkpt lat="44.37185" lon="3.77478">
        <ele>1231.105713</ele>
        <time>2013-08-05T14:24:33Z</time>
      </trkpt>
      <trkpt lat="44.37162" lon="3.77473">
        <ele>1229.182861</ele>
        <time>2013-08-05T14:24:49Z</time>
      </trkpt>
      <trkpt lat="44.3715" lon="3.77467">
        <ele>1226.779541</ele>
        <time>2013-08-05T14:25:00Z</time>
      </trkpt>
      <trkpt lat="44.37149" lon="3.77467">
        <ele>1227.260254</ele>
        <time>2013-08-05T14:25:01Z</time>
      </trkpt>
      <trkpt lat="44.37151" lon="3.77475">
        <ele>1226.779541</ele>
        <time>2013-08-05T14:25:13Z</time>
      </trkpt>
      <trkpt lat="44.37149" lon="3.77479">
        <ele>1226.298828</ele>
        <time>2013-08-05T14:25:29Z</time>
      </trkpt>
      <trkpt lat="44.37147" lon="3.7748">
        <ele>1226.298828</ele>
        <time>2013-08-05T14:25:44Z</time>
      </trkpt>
      <trkpt lat="44.37146" lon="3.77479">
        <ele>1225.337402</ele>
        <time>2013-08-05T14:25:56Z</time>
      </trkpt>
      <trkpt lat="44.37144" lon="3.77479">
        <ele>1225.337402</ele>
        <time>2013-08-05T14:26:04Z</time>
      </trkpt>
      <trkpt lat="44.37142" lon="3.77478">
        <ele>1226.298828</ele>
        <time>2013-08-05T14:26:15Z</time>
      </trkpt>
      <trkpt lat="44.37134" lon="3.77478">
        <ele>1223.415039</ele>
        <time>2013-08-05T14:26:23Z</time>
      </trkpt>
      <trkpt lat="44.37133" lon="3.77478">
        <ele>1223.415039</ele>
        <time>2013-08-05T14:26:24Z</time>
      </trkpt>
      <trkpt lat="44.37131" lon="3.77478">
        <ele>1223.415039</ele>
        <time>2013-08-05T14:26:25Z</time>
      </trkpt>
      <trkpt lat="44.37127" lon="3.77477">
        <ele>1221.492188</ele>
        <time>2013-08-05T14:26:28Z</time>
      </trkpt>
      <trkpt lat="44.37114" lon="3.77477">
        <ele>1218.608398</ele>
        <time>2013-08-05T14:26:36Z</time>
      </trkpt>
      <trkpt lat="44.37107" lon="3.77477">
        <ele>1218.608398</ele>
        <time>2013-08-05T14:26:47Z</time>
      </trkpt>
      <trkpt lat="44.37107" lon="3.77478">
        <ele>1215.243896</ele>
        <time>2013-08-05T14:26:57Z</time>
      </trkpt>
      <trkpt lat="44.37107" lon="3.77478">
        <ele>1221.492188</ele>
        <time>2013-08-05T14:26:58Z</time>
      </trkpt>
      <trkpt lat="44.37107" lon="3.77478">
        <ele>1221.492188</ele>
        <time>2013-08-05T14:26:59Z</time>
      </trkpt>
      <trkpt lat="44.37107" lon="3.77478">
        <ele>1218.127686</ele>
        <time>2013-08-05T14:27:00Z</time>
      </trkpt>
      <trkpt lat="44.37107" lon="3.77479">
        <ele>1218.608398</ele>
        <time>2013-08-05T14:27:01Z</time>
      </trkpt>
      <trkpt lat="44.37094" lon="3.77478">
        <ele>1215.243896</ele>
        <time>2013-08-05T14:27:23Z</time>
      </trkpt>
      <trkpt lat="44.37082" lon="3.77479">
        <ele>1214.282471</ele>
        <time>2013-08-05T14:27:33Z</time>
      </trkpt>
      <trkpt lat="44.37079" lon="3.77479">
        <ele>1212.840576</ele>
        <time>2013-08-05T14:27:36Z</time>
      </trkpt>
      <trkpt lat="44.37073" lon="3.7748">
        <ele>1211.398438</ele>
        <time>2013-08-05T14:27:40Z</time>
      </trkpt>
      <trkpt lat="44.3707" lon="3.7748">
        <ele>1210.917725</ele>
        <time>2013-08-05T14:27:42Z</time>
      </trkpt>
      <trkpt lat="44.37067" lon="3.7748">
        <ele>1210.917725</ele>
        <time>2013-08-05T14:27:44Z</time>
      </trkpt>
      <trkpt lat="44.37059" lon="3.77478">
        <ele>1209.47583</ele>
        <time>2013-08-05T14:27:52Z</time>
      </trkpt>
      <trkpt lat="44.37052" lon="3.77477">
        <ele>1207.553223</ele>
        <time>2013-08-05T14:27:58Z</time>
      </trkpt>
      <trkpt lat="44.37042" lon="3.77476">
        <ele>1208.033936</ele>
        <time>2013-08-05T14:28:05Z</time>
      </trkpt>
      <trkpt lat="44.37039" lon="3.77469">
        <ele>1206.111084</ele>
        <time>2013-08-05T14:28:11Z</time>
      </trkpt>
      <trkpt lat="44.37039" lon="3.77464">
        <ele>1206.591797</ele>
        <time>2013-08-05T14:28:14Z</time>
      </trkpt>
      <trkpt lat="44.37039" lon="3.77458">
        <ele>1205.149902</ele>
        <time>2013-08-05T14:28:17Z</time>
      </trkpt>
      <trkpt lat="44.37036" lon="3.77449">
        <ele>1205.149902</ele>
        <time>2013-08-05T14:28:22Z</time>
      </trkpt>
      <trkpt lat="44.37037" lon="3.77443">
        <ele>1202.746582</ele>
        <time>2013-08-05T14:28:26Z</time>
      </trkpt>
      <trkpt lat="44.37032" lon="3.77435">
        <ele>1200.823975</ele>
        <time>2013-08-05T14:28:32Z</time>
      </trkpt>
      <trkpt lat="44.3703" lon="3.77433">
        <ele>1199.862793</ele>
        <time>2013-08-05T14:28:34Z</time>
      </trkpt>
      <trkpt lat="44.37026" lon="3.77425">
        <ele>1198.901367</ele>
        <time>2013-08-05T14:28:39Z</time>
      </trkpt>
      <trkpt lat="44.37025" lon="3.77412">
        <ele>1196.97876</ele>
        <time>2013-08-05T14:28:47Z</time>
      </trkpt>
      <trkpt lat="44.37025" lon="3.77405">
        <ele>1193.614014</ele>
        <time>2013-08-05T14:28:53Z</time>
      </trkpt>
      <trkpt lat="44.37024" lon="3.77403">
        <ele>1197.940186</ele>
        <time>2013-08-05T14:28:55Z</time>
      </trkpt>
      <trkpt lat="44.3702" lon="3.77391">
        <ele>1193.133301</ele>
        <time>2013-08-05T14:29:02Z</time>
      </trkpt>
      <trkpt lat="44.37018" lon="3.77389">
        <ele>1192.652832</ele>
        <time>2013-08-05T14:29:04Z</time>
      </trkpt>
      <trkpt lat="44.37012" lon="3.77387">
        <ele>1191.210693</ele>
        <time>2013-08-05T14:29:09Z</time>
      </trkpt>
      <trkpt lat="44.37011" lon="3.77387">
        <ele>1191.210693</ele>
        <time>2013-08-05T14:29:10Z</time>
      </trkpt>
      <trkpt lat="44.3701" lon="3.77389">
        <ele>1190.249512</ele>
        <time>2013-08-05T14:29:14Z</time>
      </trkpt>
      <trkpt lat="44.37005" lon="3.77395">
        <ele>1190.249512</ele>
        <time>2013-08-05T14:29:19Z</time>
      </trkpt>
      <trkpt lat="44.36998" lon="3.77396">
        <ele>1189.768799</ele>
        <time>2013-08-05T14:29:23Z</time>
      </trkpt>
      <trkpt lat="44.36984" lon="3.77381">
        <ele>1188.326904</ele>
        <time>2013-08-05T14:29:37Z</time>
      </trkpt>
      <trkpt lat="44.36976" lon="3.77371">
        <ele>1186.404297</ele>
        <time>2013-08-05T14:29:46Z</time>
      </trkpt>
      <trkpt lat="44.36974" lon="3.77371">
        <ele>1185.923584</ele>
        <time>2013-08-05T14:29:47Z</time>
      </trkpt>
      <trkpt lat="44.36965" lon="3.77361">
        <ele>1183.039551</ele>
        <time>2013-08-05T14:29:58Z</time>
      </trkpt>
      <trkpt lat="44.36953" lon="3.77353">
        <ele>1179.194092</ele>
        <time>2013-08-05T14:30:13Z</time>
      </trkpt>
      <trkpt lat="44.36933" lon="3.77348">
        <ele>1177.271729</ele>
        <time>2013-08-05T14:30:24Z</time>
      </trkpt>
      <trkpt lat="44.3693" lon="3.77346">
        <ele>1176.791016</ele>
        <time>2013-08-05T14:30:26Z</time>
      </trkpt>
      <trkpt lat="44.36915" lon="3.77337">
        <ele>1174.868408</ele>
        <time>2013-08-05T14:30:37Z</time>
      </trkpt>
      <trkpt lat="44.36912" lon="3.77336">
        <ele>1174.868408</ele>
        <time>2013-08-05T14:30:39Z</time>
      </trkpt>
      <trkpt lat="44.36899" lon="3.77327">
        <ele>1173.906982</ele>
        <time>2013-08-05T14:30:50Z</time>
      </trkpt>
      <trkpt lat="44.36893" lon="3.77322">
        <ele>1174.387695</ele>
        <time>2013-08-05T14:30:58Z</time>
      </trkpt>
      <trkpt lat="44.36882" lon="3.7731">
        <ele>1174.868408</ele>
        <time>2013-08-05T14:31:10Z</time>
      </trkpt>
      <trkpt lat="44.36877" lon="3.77304">
        <ele>1174.387695</ele>
        <time>2013-08-05T14:31:15Z</time>
      </trkpt>
      <trkpt lat="44.3686" lon="3.77282">
        <ele>1173.906982</ele>
        <time>2013-08-05T14:31:30Z</time>
      </trkpt>
      <trkpt lat="44.3685" lon="3.77271">
        <ele>1173.426514</ele>
        <time>2013-08-05T14:31:39Z</time>
      </trkpt>
      <trkpt lat="44.36829" lon="3.77254">
        <ele>1171.503662</ele>
        <time>2013-08-05T14:31:54Z</time>
      </trkpt>
      <trkpt lat="44.36809" lon="3.7725">
        <ele>1170.061768</ele>
        <time>2013-08-05T14:32:06Z</time>
      </trkpt>
      <trkpt lat="44.36802" lon="3.77248">
        <ele>1168.13916</ele>
        <time>2013-08-05T14:32:14Z</time>
      </trkpt>
      <trkpt lat="44.36788" lon="3.77247">
        <ele>1165.255371</ele>
        <time>2013-08-05T14:32:25Z</time>
      </trkpt>
      <trkpt lat="44.36787" lon="3.77248">
        <ele>1164.293945</ele>
        <time>2013-08-05T14:32:26Z</time>
      </trkpt>
      <trkpt lat="44.36779" lon="3.77245">
        <ele>1162.851807</ele>
        <time>2013-08-05T14:32:31Z</time>
      </trkpt>
      <trkpt lat="44.36772" lon="3.77244">
        <ele>1162.371094</ele>
        <time>2013-08-05T14:32:35Z</time>
      </trkpt>
      <trkpt lat="44.36751" lon="3.77239">
        <ele>1160.929199</ele>
        <time>2013-08-05T14:32:50Z</time>
      </trkpt>
      <trkpt lat="44.36737" lon="3.7724">
        <ele>1157.564697</ele>
        <time>2013-08-05T14:33:00Z</time>
      </trkpt>
      <trkpt lat="44.36736" lon="3.7724">
        <ele>1157.564697</ele>
        <time>2013-08-05T14:33:01Z</time>
      </trkpt>
      <trkpt lat="44.36792" lon="3.77248">
        <ele>1140.260986</ele>
        <time>2013-08-05T14:33:22Z</time>
      </trkpt>
      <trkpt lat="44.36749" lon="3.77249">
        <ele>1128.244385</ele>
        <time>2013-08-05T14:33:23Z</time>
      </trkpt>
      <trkpt lat="44.3673" lon="3.77235">
        <ele>1129.686279</ele>
        <time>2013-08-05T14:33:31Z</time>
      </trkpt>
      <trkpt lat="44.3673" lon="3.77228">
        <ele>1132.570557</ele>
        <time>2013-08-05T14:33:34Z</time>
      </trkpt>
      <trkpt lat="44.36729" lon="3.77226">
        <ele>1136.415771</ele>
        <time>2013-08-05T14:33:37Z</time>
      </trkpt>
      <trkpt lat="44.36728" lon="3.77224">
        <ele>1138.819092</ele>
        <time>2013-08-05T14:33:40Z</time>
      </trkpt>
      <trkpt lat="44.36728" lon="3.77225">
        <ele>1142.183594</ele>
        <time>2013-08-05T14:33:42Z</time>
      </trkpt>
      <trkpt lat="44.36732" lon="3.77231">
        <ele>1146.028809</ele>
        <time>2013-08-05T14:33:47Z</time>
      </trkpt>
      <trkpt lat="44.36732" lon="3.77232">
        <ele>1146.028809</ele>
        <time>2013-08-05T14:33:48Z</time>
      </trkpt>
      <trkpt lat="44.36731" lon="3.77232">
        <ele>1147.470703</ele>
        <time>2013-08-05T14:33:50Z</time>
      </trkpt>
      <trkpt lat="44.36734" lon="3.77237">
        <ele>1150.835449</ele>
        <time>2013-08-05T14:33:57Z</time>
      </trkpt>
      <trkpt lat="44.36734" lon="3.77237">
        <ele>1151.796875</ele>
        <time>2013-08-05T14:34:19Z</time>
      </trkpt>
      <trkpt lat="44.36733" lon="3.77235">
        <ele>1155.161377</ele>
        <time>2013-08-05T14:34:28Z</time>
      </trkpt>
      <trkpt lat="44.36734" lon="3.77236">
        <ele>1157.083984</ele>
        <time>2013-08-05T14:34:32Z</time>
      </trkpt>
      <trkpt lat="44.36728" lon="3.77233">
        <ele>1159.967773</ele>
        <time>2013-08-05T14:34:39Z</time>
      </trkpt>
      <trkpt lat="44.36726" lon="3.77233">
        <ele>1161.890625</ele>
        <time>2013-08-05T14:34:41Z</time>
      </trkpt>
      <trkpt lat="44.3671" lon="3.7723">
        <ele>1160.448486</ele>
        <time>2013-08-05T14:34:53Z</time>
      </trkpt>
      <trkpt lat="44.36703" lon="3.77215">
        <ele>1158.525879</ele>
        <time>2013-08-05T14:35:05Z</time>
      </trkpt>
      <trkpt lat="44.36707" lon="3.77204">
        <ele>1159.006592</ele>
        <time>2013-08-05T14:35:16Z</time>
      </trkpt>
      <trkpt lat="44.36707" lon="3.77204">
        <ele>1159.487305</ele>
        <time>2013-08-05T14:35:27Z</time>
      </trkpt>
      <trkpt lat="44.36707" lon="3.77195">
        <ele>1159.487305</ele>
        <time>2013-08-05T14:35:32Z</time>
      </trkpt>
      <trkpt lat="44.36709" lon="3.77172">
        <ele>1159.006592</ele>
        <time>2013-08-05T14:35:44Z</time>
      </trkpt>
      <trkpt lat="44.3671" lon="3.77165">
        <ele>1159.487305</ele>
        <time>2013-08-05T14:35:48Z</time>
      </trkpt>
      <trkpt lat="44.36712" lon="3.77155">
        <ele>1159.006592</ele>
        <time>2013-08-05T14:35:53Z</time>
      </trkpt>
      <trkpt lat="44.36716" lon="3.77143">
        <ele>1158.04541</ele>
        <time>2013-08-05T14:36:00Z</time>
      </trkpt>
      <trkpt lat="44.36723" lon="3.77127">
        <ele>1155.64209</ele>
        <time>2013-08-05T14:36:14Z</time>
      </trkpt>
      <trkpt lat="44.36728" lon="3.77118">
        <ele>1156.122559</ele>
        <time>2013-08-05T14:36:27Z</time>
      </trkpt>
      <trkpt lat="44.36735" lon="3.77107">
        <ele>1155.64209</ele>
        <time>2013-08-05T14:36:36Z</time>
      </trkpt>
      <trkpt lat="44.36739" lon="3.7709">
        <ele>1155.161377</ele>
        <time>2013-08-05T14:36:48Z</time>
      </trkpt>
      <trkpt lat="44.36745" lon="3.77071">
        <ele>1154.200195</ele>
        <time>2013-08-05T14:37:04Z</time>
      </trkpt>
      <trkpt lat="44.36742" lon="3.77044">
        <ele>1152.758057</ele>
        <time>2013-08-05T14:37:21Z</time>
      </trkpt>
      <trkpt lat="44.36745" lon="3.77026">
        <ele>1150.35498</ele>
        <time>2013-08-05T14:37:34Z</time>
      </trkpt>
      <trkpt lat="44.36741" lon="3.76991">
        <ele>1149.874268</ele>
        <time>2013-08-05T14:37:51Z</time>
      </trkpt>
      <trkpt lat="44.36752" lon="3.76966">
        <ele>1148.912842</ele>
        <time>2013-08-05T14:38:08Z</time>
      </trkpt>
      <trkpt lat="44.36756" lon="3.76951">
        <ele>1148.912842</ele>
        <time>2013-08-05T14:38:19Z</time>
      </trkpt>
      <trkpt lat="44.36762" lon="3.76937">
        <ele>1148.432129</ele>
        <time>2013-08-05T14:38:31Z</time>
      </trkpt>
      <trkpt lat="44.3676" lon="3.76933">
        <ele>1147.951416</ele>
        <time>2013-08-05T14:38:33Z</time>
      </trkpt>
      <trkpt lat="44.36761" lon="3.76915">
        <ele>1146.98999</ele>
        <time>2013-08-05T14:38:45Z</time>
      </trkpt>
      <trkpt lat="44.36761" lon="3.76912">
        <ele>1147.470703</ele>
        <time>2013-08-05T14:38:47Z</time>
      </trkpt>
      <trkpt lat="44.36765" lon="3.76885">
        <ele>1146.509521</ele>
        <time>2013-08-05T14:39:01Z</time>
      </trkpt>
      <trkpt lat="44.3677" lon="3.7687">
        <ele>1146.028809</ele>
        <time>2013-08-05T14:39:13Z</time>
      </trkpt>
      <trkpt lat="44.36772" lon="3.76865">
        <ele>1144.58667</ele>
        <time>2013-08-05T14:39:17Z</time>
      </trkpt>
      <trkpt lat="44.36776" lon="3.76856">
        <ele>1142.664307</ele>
        <time>2013-08-05T14:39:27Z</time>
      </trkpt>
      <trkpt lat="44.36779" lon="3.7685">
        <ele>1141.222168</ele>
        <time>2013-08-05T14:39:32Z</time>
      </trkpt>
      <trkpt lat="44.36783" lon="3.76835">
        <ele>1140.260986</ele>
        <time>2013-08-05T14:39:44Z</time>
      </trkpt>
      <trkpt lat="44.36785" lon="3.76833">
        <ele>1138.819092</ele>
        <time>2013-08-05T14:39:47Z</time>
      </trkpt>
      <trkpt lat="44.36787" lon="3.7683">
        <ele>1138.338379</ele>
        <time>2013-08-05T14:39:50Z</time>
      </trkpt>
      <trkpt lat="44.36788" lon="3.76817">
        <ele>1136.415771</ele>
        <time>2013-08-05T14:40:01Z</time>
      </trkpt>
      <trkpt lat="44.36787" lon="3.76813">
        <ele>1136.415771</ele>
        <time>2013-08-05T14:40:04Z</time>
      </trkpt>
      <trkpt lat="44.36787" lon="3.76809">
        <ele>1135.935059</ele>
        <time>2013-08-05T14:40:06Z</time>
      </trkpt>
      <trkpt lat="44.36791" lon="3.76804">
        <ele>1135.454346</ele>
        <time>2013-08-05T14:40:10Z</time>
      </trkpt>
      <trkpt lat="44.36794" lon="3.76793">
        <ele>1134.012451</ele>
        <time>2013-08-05T14:40:19Z</time>
      </trkpt>
      <trkpt lat="44.36788" lon="3.76772">
        <ele>1132.570557</ele>
        <time>2013-08-05T14:40:30Z</time>
      </trkpt>
      <trkpt lat="44.36787" lon="3.76768">
        <ele>1131.608887</ele>
        <time>2013-08-05T14:40:33Z</time>
      </trkpt>
      <trkpt lat="44.36791" lon="3.76747">
        <ele>1130.647705</ele>
        <time>2013-08-05T14:40:46Z</time>
      </trkpt>
      <trkpt lat="44.36793" lon="3.76742">
        <ele>1130.647705</ele>
        <time>2013-08-05T14:40:51Z</time>
      </trkpt>
      <trkpt lat="44.36794" lon="3.76739">
        <ele>1130.166992</ele>
        <time>2013-08-05T14:40:53Z</time>
      </trkpt>
      <trkpt lat="44.368" lon="3.76728">
        <ele>1127.283203</ele>
        <time>2013-08-05T14:41:04Z</time>
      </trkpt>
      <trkpt lat="44.36803" lon="3.76715">
        <ele>1124.879883</ele>
        <time>2013-08-05T14:41:15Z</time>
      </trkpt>
      <trkpt lat="44.36798" lon="3.76686">
        <ele>1121.99585</ele>
        <time>2013-08-05T14:41:25Z</time>
      </trkpt>
      <trkpt lat="44.36792" lon="3.7666">
        <ele>1120.073242</ele>
        <time>2013-08-05T14:41:39Z</time>
      </trkpt>
      <trkpt lat="44.36788" lon="3.76649">
        <ele>1118.631348</ele>
        <time>2013-08-05T14:41:49Z</time>
      </trkpt>
      <trkpt lat="44.36786" lon="3.76647">
        <ele>1118.631348</ele>
        <time>2013-08-05T14:41:51Z</time>
      </trkpt>
      <trkpt lat="44.36775" lon="3.76633">
        <ele>1118.150635</ele>
        <time>2013-08-05T14:42:03Z</time>
      </trkpt>
      <trkpt lat="44.36773" lon="3.7663">
        <ele>1117.669922</ele>
        <time>2013-08-05T14:42:04Z</time>
      </trkpt>
      <trkpt lat="44.36772" lon="3.76622">
        <ele>1116.70874</ele>
        <time>2013-08-05T14:42:09Z</time>
      </trkpt>
      <trkpt lat="44.36769" lon="3.76615">
        <ele>1115.266602</ele>
        <time>2013-08-05T14:42:13Z</time>
      </trkpt>
      <trkpt lat="44.36756" lon="3.766">
        <ele>1114.785889</ele>
        <time>2013-08-05T14:42:25Z</time>
      </trkpt>
      <trkpt lat="44.36745" lon="3.76586">
        <ele>1112.382568</ele>
        <time>2013-08-05T14:42:37Z</time>
      </trkpt>
      <trkpt lat="44.36738" lon="3.76575">
        <ele>1110.940674</ele>
        <time>2013-08-05T14:42:48Z</time>
      </trkpt>
      <trkpt lat="44.36737" lon="3.76571">
        <ele>1110.940674</ele>
        <time>2013-08-05T14:42:51Z</time>
      </trkpt>
      <trkpt lat="44.36736" lon="3.76566">
        <ele>1110.459961</ele>
        <time>2013-08-05T14:42:54Z</time>
      </trkpt>
      <trkpt lat="44.36728" lon="3.76544">
        <ele>1109.979248</ele>
        <time>2013-08-05T14:43:07Z</time>
      </trkpt>
      <trkpt lat="44.36724" lon="3.7653">
        <ele>1109.498779</ele>
        <time>2013-08-05T14:43:16Z</time>
      </trkpt>
      <trkpt lat="44.3672" lon="3.76523">
        <ele>1109.018066</ele>
        <time>2013-08-05T14:43:21Z</time>
      </trkpt>
      <trkpt lat="44.36719" lon="3.76515">
        <ele>1109.018066</ele>
        <time>2013-08-05T14:43:26Z</time>
      </trkpt>
      <trkpt lat="44.36719" lon="3.7649">
        <ele>1108.056885</ele>
        <time>2013-08-05T14:43:42Z</time>
      </trkpt>
      <trkpt lat="44.36721" lon="3.76465">
        <ele>1107.576172</ele>
        <time>2013-08-05T14:43:58Z</time>
      </trkpt>
      <trkpt lat="44.3672" lon="3.76442">
        <ele>1106.614746</ele>
        <time>2013-08-05T14:44:11Z</time>
      </trkpt>
      <trkpt lat="44.36722" lon="3.76425">
        <ele>1106.134033</ele>
        <time>2013-08-05T14:44:22Z</time>
      </trkpt>
      <trkpt lat="44.36723" lon="3.7641">
        <ele>1105.172852</ele>
        <time>2013-08-05T14:44:30Z</time>
      </trkpt>
      <trkpt lat="44.36722" lon="3.76398">
        <ele>1104.692139</ele>
        <time>2013-08-05T14:44:44Z</time>
      </trkpt>
      <trkpt lat="44.36722" lon="3.76386">
        <ele>1102.769531</ele>
        <time>2013-08-05T14:44:54Z</time>
      </trkpt>
      <trkpt lat="44.36723" lon="3.76377">
        <ele>1103.730957</ele>
        <time>2013-08-05T14:45:09Z</time>
      </trkpt>
      <trkpt lat="44.36719" lon="3.76371">
        <ele>1102.288818</ele>
        <time>2013-08-05T14:45:35Z</time>
      </trkpt>
      <trkpt lat="44.3672" lon="3.76371">
        <ele>1102.288818</ele>
        <time>2013-08-05T14:45:36Z</time>
      </trkpt>
      <trkpt lat="44.36729" lon="3.76359">
        <ele>1101.80835</ele>
        <time>2013-08-05T14:45:48Z</time>
      </trkpt>
      <trkpt lat="44.3673" lon="3.76358">
        <ele>1101.327637</ele>
        <time>2013-08-05T14:45:49Z</time>
      </trkpt>
      <trkpt lat="44.36733" lon="3.76355">
        <ele>1101.327637</ele>
        <time>2013-08-05T14:45:52Z</time>
      </trkpt>
      <trkpt lat="44.36735" lon="3.76349">
        <ele>1100.846924</ele>
        <time>2013-08-05T14:46:02Z</time>
      </trkpt>
      <trkpt lat="44.36734" lon="3.7635">
        <ele>1100.366455</ele>
        <time>2013-08-05T14:46:20Z</time>
      </trkpt>
      <trkpt lat="44.36724" lon="3.76365">
        <ele>1100.846924</ele>
        <time>2013-08-05T14:46:32Z</time>
      </trkpt>
      <trkpt lat="44.36721" lon="3.76372">
        <ele>1100.366455</ele>
        <time>2013-08-05T14:46:37Z</time>
      </trkpt>
      <trkpt lat="44.36723" lon="3.76377">
        <ele>1101.327637</ele>
        <time>2013-08-05T14:46:42Z</time>
      </trkpt>
      <trkpt lat="44.36725" lon="3.76374">
        <ele>1102.288818</ele>
        <time>2013-08-05T14:46:44Z</time>
      </trkpt>
      <trkpt lat="44.36734" lon="3.76367">
        <ele>1104.21167</ele>
        <time>2013-08-05T14:46:58Z</time>
      </trkpt>
      <trkpt lat="44.36746" lon="3.76358">
        <ele>1107.095459</ele>
        <time>2013-08-05T14:47:12Z</time>
      </trkpt>
      <trkpt lat="44.36749" lon="3.76357">
        <ele>1108.056885</ele>
        <time>2013-08-05T14:47:15Z</time>
      </trkpt>
      <trkpt lat="44.36761" lon="3.76345">
        <ele>1109.979248</ele>
        <time>2013-08-05T14:47:30Z</time>
      </trkpt>
      <trkpt lat="44.36764" lon="3.76341">
        <ele>1110.940674</ele>
        <time>2013-08-05T14:47:34Z</time>
      </trkpt>
      <trkpt lat="44.36769" lon="3.76336">
        <ele>1110.459961</ele>
        <time>2013-08-05T14:47:46Z</time>
      </trkpt>
      <trkpt lat="44.3677" lon="3.76335">
        <ele>1110.940674</ele>
        <time>2013-08-05T14:47:47Z</time>
      </trkpt>
      <trkpt lat="44.36781" lon="3.76314">
        <ele>1109.979248</ele>
        <time>2013-08-05T14:48:02Z</time>
      </trkpt>
      <trkpt lat="44.36786" lon="3.76304">
        <ele>1111.421387</ele>
        <time>2013-08-05T14:48:08Z</time>
      </trkpt>
      <trkpt lat="44.36791" lon="3.76291">
        <ele>1112.863281</ele>
        <time>2013-08-05T14:48:17Z</time>
      </trkpt>
      <trkpt lat="44.36799" lon="3.76276">
        <ele>1113.824463</ele>
        <time>2013-08-05T14:48:28Z</time>
      </trkpt>
      <trkpt lat="44.36809" lon="3.76268">
        <ele>1114.305176</ele>
        <time>2013-08-05T14:48:39Z</time>
      </trkpt>
      <trkpt lat="44.36822" lon="3.76254">
        <ele>1114.785889</ele>
        <time>2013-08-05T14:48:53Z</time>
      </trkpt>
      <trkpt lat="44.36836" lon="3.76238">
        <ele>1117.189453</ele>
        <time>2013-08-05T14:49:07Z</time>
      </trkpt>
      <trkpt lat="44.36845" lon="3.76221">
        <ele>1117.669922</ele>
        <time>2013-08-05T14:49:19Z</time>
      </trkpt>
      <trkpt lat="44.36845" lon="3.76216">
        <ele>1117.189453</ele>
        <time>2013-08-05T14:49:22Z</time>
      </trkpt>
      <trkpt lat="44.36841" lon="3.76198">
        <ele>1118.631348</ele>
        <time>2013-08-05T14:49:32Z</time>
      </trkpt>
      <trkpt lat="44.36837" lon="3.76192">
        <ele>1121.034668</ele>
        <time>2013-08-05T14:49:36Z</time>
      </trkpt>
      <trkpt lat="44.36832" lon="3.76189">
        <ele>1121.99585</ele>
        <time>2013-08-05T14:49:40Z</time>
      </trkpt>
      <trkpt lat="44.36818" lon="3.76176">
        <ele>1121.515137</ele>
        <time>2013-08-05T14:49:54Z</time>
      </trkpt>
      <trkpt lat="44.36804" lon="3.76178">
        <ele>1120.073242</ele>
        <time>2013-08-05T14:50:04Z</time>
      </trkpt>
      <trkpt lat="44.36794" lon="3.76174">
        <ele>1119.592773</ele>
        <time>2013-08-05T14:50:11Z</time>
      </trkpt>
      <trkpt lat="44.36782" lon="3.76172">
        <ele>1117.189453</ele>
        <time>2013-08-05T14:50:22Z</time>
      </trkpt>
      <trkpt lat="44.36767" lon="3.76163">
        <ele>1114.785889</ele>
        <time>2013-08-05T14:50:35Z</time>
      </trkpt>
      <trkpt lat="44.36753" lon="3.76152">
        <ele>1114.305176</ele>
        <time>2013-08-05T14:50:47Z</time>
      </trkpt>
      <trkpt lat="44.36747" lon="3.76138">
        <ele>1113.343994</ele>
        <time>2013-08-05T14:50:57Z</time>
      </trkpt>
      <trkpt lat="44.36749" lon="3.7612">
        <ele>1112.382568</ele>
        <time>2013-08-05T14:51:08Z</time>
      </trkpt>
      <trkpt lat="44.36751" lon="3.76108">
        <ele>1112.382568</ele>
        <time>2013-08-05T14:51:16Z</time>
      </trkpt>
      <trkpt lat="44.36752" lon="3.7608">
        <ele>1110.459961</ele>
        <time>2013-08-05T14:51:32Z</time>
      </trkpt>
      <trkpt lat="44.36754" lon="3.76072">
        <ele>1110.459961</ele>
        <time>2013-08-05T14:51:37Z</time>
      </trkpt>
      <trkpt lat="44.36758" lon="3.76051">
        <ele>1109.979248</ele>
        <time>2013-08-05T14:51:49Z</time>
      </trkpt>
      <trkpt lat="44.36758" lon="3.76046">
        <ele>1109.498779</ele>
        <time>2013-08-05T14:51:52Z</time>
      </trkpt>
      <trkpt lat="44.3676" lon="3.76022">
        <ele>1107.576172</ele>
        <time>2013-08-05T14:52:04Z</time>
      </trkpt>
      <trkpt lat="44.3676" lon="3.75994">
        <ele>1106.134033</ele>
        <time>2013-08-05T14:52:19Z</time>
      </trkpt>
      <trkpt lat="44.36758" lon="3.75983">
        <ele>1106.134033</ele>
        <time>2013-08-05T14:52:24Z</time>
      </trkpt>
      <trkpt lat="44.36751" lon="3.75961">
        <ele>1104.21167</ele>
        <time>2013-08-05T14:52:36Z</time>
      </trkpt>
      <trkpt lat="44.36744" lon="3.75948">
        <ele>1102.288818</ele>
        <time>2013-08-05T14:52:44Z</time>
      </trkpt>
      <trkpt lat="44.36736" lon="3.75935">
        <ele>1100.846924</ele>
        <time>2013-08-05T14:52:53Z</time>
      </trkpt>
      <trkpt lat="44.36723" lon="3.75936">
        <ele>1100.366455</ele>
        <time>2013-08-05T14:53:02Z</time>
      </trkpt>
      <trkpt lat="44.3671" lon="3.75942">
        <ele>1099.404785</ele>
        <time>2013-08-05T14:53:11Z</time>
      </trkpt>
      <trkpt lat="44.36705" lon="3.75945">
        <ele>1098.443359</ele>
        <time>2013-08-05T14:53:15Z</time>
      </trkpt>
      <trkpt lat="44.36698" lon="3.75953">
        <ele>1097.001465</ele>
        <time>2013-08-05T14:53:22Z</time>
      </trkpt>
      <trkpt lat="44.36691" lon="3.75961">
        <ele>1097.001465</ele>
        <time>2013-08-05T14:53:29Z</time>
      </trkpt>
      <trkpt lat="44.36686" lon="3.75972">
        <ele>1096.520996</ele>
        <time>2013-08-05T14:53:42Z</time>
      </trkpt>
      <trkpt lat="44.36684" lon="3.75973">
        <ele>1096.520996</ele>
        <time>2013-08-05T14:53:48Z</time>
      </trkpt>
      <trkpt lat="44.36677" lon="3.75979">
        <ele>1095.55957</ele>
        <time>2013-08-05T14:53:56Z</time>
      </trkpt>
      <trkpt lat="44.36673" lon="3.75982">
        <ele>1095.078857</ele>
        <time>2013-08-05T14:54:00Z</time>
      </trkpt>
      <trkpt lat="44.36666" lon="3.75985">
        <ele>1095.55957</ele>
        <time>2013-08-05T14:54:06Z</time>
      </trkpt>
      <trkpt lat="44.36665" lon="3.75988">
        <ele>1093.636963</ele>
        <time>2013-08-05T14:54:08Z</time>
      </trkpt>
      <trkpt lat="44.36664" lon="3.75991">
        <ele>1094.598145</ele>
        <time>2013-08-05T14:54:10Z</time>
      </trkpt>
      <trkpt lat="44.36659" lon="3.75994">
        <ele>1092.195068</ele>
        <time>2013-08-05T14:54:14Z</time>
      </trkpt>
      <trkpt lat="44.36653" lon="3.75997">
        <ele>1092.195068</ele>
        <time>2013-08-05T14:54:18Z</time>
      </trkpt>
      <trkpt lat="44.36644" lon="3.76006">
        <ele>1092.195068</ele>
        <time>2013-08-05T14:54:24Z</time>
      </trkpt>
      <trkpt lat="44.36625" lon="3.76025">
        <ele>1090.272461</ele>
        <time>2013-08-05T14:54:42Z</time>
      </trkpt>
      <trkpt lat="44.3661" lon="3.76039">
        <ele>1088.830566</ele>
        <time>2013-08-05T14:54:57Z</time>
      </trkpt>
      <trkpt lat="44.36592" lon="3.76051">
        <ele>1085.946533</ele>
        <time>2013-08-05T14:55:12Z</time>
      </trkpt>
      <trkpt lat="44.3658" lon="3.76057">
        <ele>1084.985352</ele>
        <time>2013-08-05T14:55:22Z</time>
      </trkpt>
      <trkpt lat="44.36569" lon="3.76062">
        <ele>1084.985352</ele>
        <time>2013-08-05T14:55:31Z</time>
      </trkpt>
      <trkpt lat="44.3656" lon="3.76066">
        <ele>1084.023926</ele>
        <time>2013-08-05T14:55:38Z</time>
      </trkpt>
      <trkpt lat="44.36551" lon="3.76073">
        <ele>1083.062256</ele>
        <time>2013-08-05T14:55:47Z</time>
      </trkpt>
      <trkpt lat="44.3655" lon="3.76076">
        <ele>1083.542969</ele>
        <time>2013-08-05T14:55:49Z</time>
      </trkpt>
      <trkpt lat="44.36533" lon="3.7608">
        <ele>1082.581787</ele>
        <time>2013-08-05T14:56:05Z</time>
      </trkpt>
      <trkpt lat="44.36512" lon="3.76089">
        <ele>1080.178467</ele>
        <time>2013-08-05T14:56:23Z</time>
      </trkpt>
      <trkpt lat="44.36499" lon="3.76096">
        <ele>1078.736572</ele>
        <time>2013-08-05T14:56:33Z</time>
      </trkpt>
      <trkpt lat="44.36482" lon="3.76107">
        <ele>1076.813965</ele>
        <time>2013-08-05T14:56:48Z</time>
      </trkpt>
      <trkpt lat="44.36477" lon="3.76111">
        <ele>1076.333252</ele>
        <time>2013-08-05T14:56:52Z</time>
      </trkpt>
      <trkpt lat="44.36461" lon="3.76126">
        <ele>1074.891357</ele>
        <time>2013-08-05T14:57:07Z</time>
      </trkpt>
      <trkpt lat="44.36445" lon="3.76139">
        <ele>1073.449463</ele>
        <time>2013-08-05T14:57:21Z</time>
      </trkpt>
      <trkpt lat="44.36437" lon="3.76145">
        <ele>1072.007324</ele>
        <time>2013-08-05T14:57:29Z</time>
      </trkpt>
      <trkpt lat="44.36431" lon="3.76146">
        <ele>1070.56543</ele>
        <time>2013-08-05T14:57:33Z</time>
      </trkpt>
      <trkpt lat="44.36429" lon="3.76147">
        <ele>1070.56543</ele>
        <time>2013-08-05T14:57:34Z</time>
      </trkpt>
      <trkpt lat="44.36426" lon="3.76149">
        <ele>1070.56543</ele>
        <time>2013-08-05T14:57:37Z</time>
      </trkpt>
      <trkpt lat="44.36405" lon="3.76156">
        <ele>1069.123535</ele>
        <time>2013-08-05T14:57:53Z</time>
      </trkpt>
      <trkpt lat="44.36376" lon="3.7618">
        <ele>1066.719971</ele>
        <time>2013-08-05T14:58:19Z</time>
      </trkpt>
      <trkpt lat="44.36371" lon="3.76187">
        <ele>1066.239258</ele>
        <time>2013-08-05T14:58:24Z</time>
      </trkpt>
      <trkpt lat="44.36367" lon="3.76186">
        <ele>1066.239258</ele>
        <time>2013-08-05T14:58:34Z</time>
      </trkpt>
      <trkpt lat="44.36362" lon="3.76184">
        <ele>1066.719971</ele>
        <time>2013-08-05T14:58:45Z</time>
      </trkpt>
      <trkpt lat="44.36359" lon="3.76184">
        <ele>1067.200684</ele>
        <time>2013-08-05T14:58:47Z</time>
      </trkpt>
      <trkpt lat="44.36344" lon="3.76185">
        <ele>1069.123535</ele>
        <time>2013-08-05T14:59:00Z</time>
      </trkpt>
      <trkpt lat="44.36335" lon="3.76187">
        <ele>1070.56543</ele>
        <time>2013-08-05T14:59:08Z</time>
      </trkpt>
      <trkpt lat="44.36328" lon="3.76182">
        <ele>1071.046143</ele>
        <time>2013-08-05T14:59:14Z</time>
      </trkpt>
      <trkpt lat="44.36312" lon="3.7618">
        <ele>1072.96875</ele>
        <time>2013-08-05T14:59:28Z</time>
      </trkpt>
      <trkpt lat="44.36303" lon="3.7618">
        <ele>1074.410645</ele>
        <time>2013-08-05T14:59:36Z</time>
      </trkpt>
      <trkpt lat="44.36299" lon="3.76173">
        <ele>1074.891357</ele>
        <time>2013-08-05T14:59:41Z</time>
      </trkpt>
      <trkpt lat="44.36294" lon="3.76165">
        <ele>1075.371826</ele>
        <time>2013-08-05T14:59:48Z</time>
      </trkpt>
      <trkpt lat="44.36289" lon="3.76155">
        <ele>1074.891357</ele>
        <time>2013-08-05T14:59:58Z</time>
      </trkpt>
      <trkpt lat="44.36289" lon="3.76154">
        <ele>1075.371826</ele>
        <time>2013-08-05T15:00:18Z</time>
      </trkpt>
      <trkpt lat="44.36288" lon="3.76153">
        <ele>1075.852539</ele>
        <time>2013-08-05T15:00:19Z</time>
      </trkpt>
      <trkpt lat="44.36288" lon="3.76128">
        <ele>1072.96875</ele>
        <time>2013-08-05T15:00:33Z</time>
      </trkpt>
      <trkpt lat="44.36288" lon="3.76125">
        <ele>1072.007324</ele>
        <time>2013-08-05T15:00:35Z</time>
      </trkpt>
      <trkpt lat="44.36287" lon="3.7612">
        <ele>1073.449463</ele>
        <time>2013-08-05T15:00:38Z</time>
      </trkpt>
      <trkpt lat="44.36286" lon="3.76118">
        <ele>1072.488037</ele>
        <time>2013-08-05T15:00:39Z</time>
      </trkpt>
      <trkpt lat="44.36284" lon="3.761">
        <ele>1070.56543</ele>
        <time>2013-08-05T15:00:51Z</time>
      </trkpt>
      <trkpt lat="44.36288" lon="3.76087">
        <ele>1071.046143</ele>
        <time>2013-08-05T15:00:59Z</time>
      </trkpt>
      <trkpt lat="44.36291" lon="3.76077">
        <ele>1069.604248</ele>
        <time>2013-08-05T15:01:06Z</time>
      </trkpt>
      <trkpt lat="44.36293" lon="3.76063">
        <ele>1068.162109</ele>
        <time>2013-08-05T15:01:15Z</time>
      </trkpt>
      <trkpt lat="44.36288" lon="3.76057">
        <ele>1067.681152</ele>
        <time>2013-08-05T15:01:19Z</time>
      </trkpt>
      <trkpt lat="44.36286" lon="3.7605">
        <ele>1067.200684</ele>
        <time>2013-08-05T15:01:23Z</time>
      </trkpt>
      <trkpt lat="44.36287" lon="3.76042">
        <ele>1066.719971</ele>
        <time>2013-08-05T15:01:27Z</time>
      </trkpt>
      <trkpt lat="44.36287" lon="3.76014">
        <ele>1065.758789</ele>
        <time>2013-08-05T15:01:43Z</time>
      </trkpt>
      <trkpt lat="44.36287" lon="3.76">
        <ele>1065.278076</ele>
        <time>2013-08-05T15:01:51Z</time>
      </trkpt>
      <trkpt lat="44.36284" lon="3.75985">
        <ele>1062.874756</ele>
        <time>2013-08-05T15:02:02Z</time>
      </trkpt>
      <trkpt lat="44.36282" lon="3.75969">
        <ele>1059.029541</ele>
        <time>2013-08-05T15:02:10Z</time>
      </trkpt>
      <trkpt lat="44.36282" lon="3.75967">
        <ele>1059.029541</ele>
        <time>2013-08-05T15:02:11Z</time>
      </trkpt>
      <trkpt lat="44.36283" lon="3.75955">
        <ele>1056.145508</ele>
        <time>2013-08-05T15:02:18Z</time>
      </trkpt>
      <trkpt lat="44.36284" lon="3.75954">
        <ele>1056.145508</ele>
        <time>2013-08-05T15:02:19Z</time>
      </trkpt>
      <trkpt lat="44.36285" lon="3.75944">
        <ele>1055.665039</ele>
        <time>2013-08-05T15:02:25Z</time>
      </trkpt>
      <trkpt lat="44.36287" lon="3.75935">
        <ele>1055.665039</ele>
        <time>2013-08-05T15:02:31Z</time>
      </trkpt>
      <trkpt lat="44.36292" lon="3.75914">
        <ele>1055.184326</ele>
        <time>2013-08-05T15:02:46Z</time>
      </trkpt>
      <trkpt lat="44.36292" lon="3.7589">
        <ele>1054.223145</ele>
        <time>2013-08-05T15:02:59Z</time>
      </trkpt>
      <trkpt lat="44.36293" lon="3.7588">
        <ele>1053.742432</ele>
        <time>2013-08-05T15:03:05Z</time>
      </trkpt>
      <trkpt lat="44.36291" lon="3.75873">
        <ele>1053.261719</ele>
        <time>2013-08-05T15:03:09Z</time>
      </trkpt>
      <trkpt lat="44.36287" lon="3.7587">
        <ele>1052.300293</ele>
        <time>2013-08-05T15:03:14Z</time>
      </trkpt>
      <trkpt lat="44.36287" lon="3.75864">
        <ele>1049.896973</ele>
        <time>2013-08-05T15:03:18Z</time>
      </trkpt>
      <trkpt lat="44.36287" lon="3.75842">
        <ele>1047.012939</ele>
        <time>2013-08-05T15:03:30Z</time>
      </trkpt>
      <trkpt lat="44.36287" lon="3.75831">
        <ele>1045.090332</ele>
        <time>2013-08-05T15:03:37Z</time>
      </trkpt>
      <trkpt lat="44.36296" lon="3.75807">
        <ele>1044.12915</ele>
        <time>2013-08-05T15:03:52Z</time>
      </trkpt>
      <trkpt lat="44.36301" lon="3.75789">
        <ele>1042.687256</ele>
        <time>2013-08-05T15:04:02Z</time>
      </trkpt>
      <trkpt lat="44.36303" lon="3.75768">
        <ele>1039.803223</ele>
        <time>2013-08-05T15:04:16Z</time>
      </trkpt>
      <trkpt lat="44.36308" lon="3.75753">
        <ele>1036.919189</ele>
        <time>2013-08-05T15:04:27Z</time>
      </trkpt>
      <trkpt lat="44.36308" lon="3.75749">
        <ele>1036.438721</ele>
        <time>2013-08-05T15:04:29Z</time>
      </trkpt>
      <trkpt lat="44.36309" lon="3.75744">
        <ele>1035.957764</ele>
        <time>2013-08-05T15:04:34Z</time>
      </trkpt>
      <trkpt lat="44.36307" lon="3.7574">
        <ele>1034.515869</ele>
        <time>2013-08-05T15:04:38Z</time>
      </trkpt>
      <trkpt lat="44.36303" lon="3.75731">
        <ele>1032.593262</ele>
        <time>2013-08-05T15:04:47Z</time>
      </trkpt>
      <trkpt lat="44.36301" lon="3.75731">
        <ele>1032.593262</ele>
        <time>2013-08-05T15:04:49Z</time>
      </trkpt>
      <trkpt lat="44.36298" lon="3.75728">
        <ele>1032.593262</ele>
        <time>2013-08-05T15:04:53Z</time>
      </trkpt>
      <trkpt lat="44.36295" lon="3.75718">
        <ele>1030.670654</ele>
        <time>2013-08-05T15:05:08Z</time>
      </trkpt>
      <trkpt lat="44.36295" lon="3.75716">
        <ele>1030.189941</ele>
        <time>2013-08-05T15:05:09Z</time>
      </trkpt>
      <trkpt lat="44.36298" lon="3.75713">
        <ele>1028.748047</ele>
        <time>2013-08-05T15:05:12Z</time>
      </trkpt>
      <trkpt lat="44.36299" lon="3.75712">
        <ele>1028.748047</ele>
        <time>2013-08-05T15:05:13Z</time>
      </trkpt>
      <trkpt lat="44.36308" lon="3.75706">
        <ele>1024.422119</ele>
        <time>2013-08-05T15:05:23Z</time>
      </trkpt>
      <trkpt lat="44.36314" lon="3.75701">
        <ele>1023.460938</ele>
        <time>2013-08-05T15:05:31Z</time>
      </trkpt>
      <trkpt lat="44.36323" lon="3.75689">
        <ele>1019.615479</ele>
        <time>2013-08-05T15:05:40Z</time>
      </trkpt>
      <trkpt lat="44.36324" lon="3.75686">
        <ele>1019.615479</ele>
        <time>2013-08-05T15:05:41Z</time>
      </trkpt>
      <trkpt lat="44.36326" lon="3.75685">
        <ele>1018.654053</ele>
        <time>2013-08-05T15:05:43Z</time>
      </trkpt>
      <trkpt lat="44.36329" lon="3.75683">
        <ele>1016.250732</ele>
        <time>2013-08-05T15:05:45Z</time>
      </trkpt>
      <trkpt lat="44.36336" lon="3.75673">
        <ele>1013.847412</ele>
        <time>2013-08-05T15:05:53Z</time>
      </trkpt>
      <trkpt lat="44.36339" lon="3.75665">
        <ele>1012.405518</ele>
        <time>2013-08-05T15:06:00Z</time>
      </trkpt>
      <trkpt lat="44.3634" lon="3.75658">
        <ele>1011.444336</ele>
        <time>2013-08-05T15:06:04Z</time>
      </trkpt>
      <trkpt lat="44.36345" lon="3.75651">
        <ele>1009.521729</ele>
        <time>2013-08-05T15:06:12Z</time>
      </trkpt>
      <trkpt lat="44.36347" lon="3.75645">
        <ele>1006.637695</ele>
        <time>2013-08-05T15:06:18Z</time>
      </trkpt>
      <trkpt lat="44.36348" lon="3.75643">
        <ele>1006.637695</ele>
        <time>2013-08-05T15:06:19Z</time>
      </trkpt>
      <trkpt lat="44.36353" lon="3.75625">
        <ele>1003.272949</ele>
        <time>2013-08-05T15:06:32Z</time>
      </trkpt>
      <trkpt lat="44.36349" lon="3.75617">
        <ele>1001.350342</ele>
        <time>2013-08-05T15:06:37Z</time>
      </trkpt>
      <trkpt lat="44.36349" lon="3.75615">
        <ele>1000.869629</ele>
        <time>2013-08-05T15:06:38Z</time>
      </trkpt>
      <trkpt lat="44.36352" lon="3.75601">
        <ele>999.427734</ele>
        <time>2013-08-05T15:06:46Z</time>
      </trkpt>
      <trkpt lat="44.36352" lon="3.75597">
        <ele>997.024414</ele>
        <time>2013-08-05T15:06:51Z</time>
      </trkpt>
      <trkpt lat="44.36353" lon="3.75594">
        <ele>988.853516</ele>
        <time>2013-08-05T15:06:56Z</time>
      </trkpt>
      <trkpt lat="44.36353" lon="3.75594">
        <ele>997.505127</ele>
        <time>2013-08-05T15:06:57Z</time>
      </trkpt>
      <trkpt lat="44.36352" lon="3.75594">
        <ele>994.140625</ele>
        <time>2013-08-05T15:07:00Z</time>
      </trkpt>
      <trkpt lat="44.36353" lon="3.75594">
        <ele>998.466309</ele>
        <time>2013-08-05T15:07:01Z</time>
      </trkpt>
      <trkpt lat="44.36354" lon="3.75593">
        <ele>995.58252</ele>
        <time>2013-08-05T15:07:04Z</time>
      </trkpt>
      <trkpt lat="44.36354" lon="3.75592">
        <ele>996.063232</ele>
        <time>2013-08-05T15:07:17Z</time>
      </trkpt>
      <trkpt lat="44.36356" lon="3.7559">
        <ele>995.101807</ele>
        <time>2013-08-05T15:07:19Z</time>
      </trkpt>
      <trkpt lat="44.36357" lon="3.75588">
        <ele>993.659912</ele>
        <time>2013-08-05T15:07:21Z</time>
      </trkpt>
      <trkpt lat="44.3636" lon="3.75579">
        <ele>990.29541</ele>
        <time>2013-08-05T15:07:26Z</time>
      </trkpt>
      <trkpt lat="44.36364" lon="3.75571">
        <ele>990.29541</ele>
        <time>2013-08-05T15:07:33Z</time>
      </trkpt>
      <trkpt lat="44.3637" lon="3.75556">
        <ele>988.372803</ele>
        <time>2013-08-05T15:07:44Z</time>
      </trkpt>
      <trkpt lat="44.36373" lon="3.75552">
        <ele>987.891846</ele>
        <time>2013-08-05T15:07:47Z</time>
      </trkpt>
      <trkpt lat="44.36378" lon="3.7554">
        <ele>986.93042</ele>
        <time>2013-08-05T15:07:55Z</time>
      </trkpt>
      <trkpt lat="44.36385" lon="3.75532">
        <ele>987.891846</ele>
        <time>2013-08-05T15:08:02Z</time>
      </trkpt>
      <trkpt lat="44.36383" lon="3.75507">
        <ele>986.449951</ele>
        <time>2013-08-05T15:08:14Z</time>
      </trkpt>
      <trkpt lat="44.36383" lon="3.75484">
        <ele>984.527344</ele>
        <time>2013-08-05T15:08:28Z</time>
      </trkpt>
      <trkpt lat="44.36387" lon="3.75477">
        <ele>985.008057</ele>
        <time>2013-08-05T15:08:33Z</time>
      </trkpt>
      <trkpt lat="44.36392" lon="3.75456">
        <ele>983.085205</ele>
        <time>2013-08-05T15:08:45Z</time>
      </trkpt>
      <trkpt lat="44.36393" lon="3.75448">
        <ele>982.124023</ele>
        <time>2013-08-05T15:08:49Z</time>
      </trkpt>
      <trkpt lat="44.364" lon="3.75421">
        <ele>981.643311</ele>
        <time>2013-08-05T15:09:04Z</time>
      </trkpt>
      <trkpt lat="44.36401" lon="3.75418">
        <ele>980.682129</ele>
        <time>2013-08-05T15:09:06Z</time>
      </trkpt>
      <trkpt lat="44.36409" lon="3.75389">
        <ele>979.720703</ele>
        <time>2013-08-05T15:09:23Z</time>
      </trkpt>
      <trkpt lat="44.36417" lon="3.75365">
        <ele>979.23999</ele>
        <time>2013-08-05T15:09:37Z</time>
      </trkpt>
      <trkpt lat="44.36418" lon="3.75358">
        <ele>977.798096</ele>
        <time>2013-08-05T15:09:41Z</time>
      </trkpt>
      <trkpt lat="44.36419" lon="3.75354">
        <ele>977.798096</ele>
        <time>2013-08-05T15:09:44Z</time>
      </trkpt>
      <trkpt lat="44.36418" lon="3.75338">
        <ele>976.836914</ele>
        <time>2013-08-05T15:09:54Z</time>
      </trkpt>
      <trkpt lat="44.36418" lon="3.75316">
        <ele>976.356201</ele>
        <time>2013-08-05T15:10:06Z</time>
      </trkpt>
      <trkpt lat="44.36419" lon="3.75307">
        <ele>974.433594</ele>
        <time>2013-08-05T15:10:11Z</time>
      </trkpt>
      <trkpt lat="44.36419" lon="3.75293">
        <ele>974.914307</ele>
        <time>2013-08-05T15:10:19Z</time>
      </trkpt>
      <trkpt lat="44.36421" lon="3.75283">
        <ele>973.472412</ele>
        <time>2013-08-05T15:10:24Z</time>
      </trkpt>
      <trkpt lat="44.3642" lon="3.75269">
        <ele>973.472412</ele>
        <time>2013-08-05T15:10:30Z</time>
      </trkpt>
      <trkpt lat="44.36421" lon="3.75244">
        <ele>971.549316</ele>
        <time>2013-08-05T15:10:43Z</time>
      </trkpt>
      <trkpt lat="44.36422" lon="3.75217">
        <ele>969.626953</ele>
        <time>2013-08-05T15:10:58Z</time>
      </trkpt>
      <trkpt lat="44.36424" lon="3.75202">
        <ele>969.14624</ele>
        <time>2013-08-05T15:11:06Z</time>
      </trkpt>
      <trkpt lat="44.36423" lon="3.75191">
        <ele>965.781738</ele>
        <time>2013-08-05T15:11:11Z</time>
      </trkpt>
      <trkpt lat="44.36422" lon="3.75189">
        <ele>969.14624</ele>
        <time>2013-08-05T15:11:12Z</time>
      </trkpt>
      <trkpt lat="44.36422" lon="3.75182">
        <ele>965.781738</ele>
        <time>2013-08-05T15:11:16Z</time>
      </trkpt>
      <trkpt lat="44.36421" lon="3.75178">
        <ele>969.626953</ele>
        <time>2013-08-05T15:11:18Z</time>
      </trkpt>
      <trkpt lat="44.36419" lon="3.75167">
        <ele>966.262207</ele>
        <time>2013-08-05T15:11:24Z</time>
      </trkpt>
      <trkpt lat="44.36416" lon="3.75141">
        <ele>965.781738</ele>
        <time>2013-08-05T15:11:38Z</time>
      </trkpt>
      <trkpt lat="44.36416" lon="3.75135">
        <ele>965.301025</ele>
        <time>2013-08-05T15:11:41Z</time>
      </trkpt>
      <trkpt lat="44.36412" lon="3.75109">
        <ele>962.897705</ele>
        <time>2013-08-05T15:11:54Z</time>
      </trkpt>
      <trkpt lat="44.36412" lon="3.75107">
        <ele>963.858887</ele>
        <time>2013-08-05T15:11:55Z</time>
      </trkpt>
      <trkpt lat="44.36413" lon="3.75102">
        <ele>962.416992</ele>
        <time>2013-08-05T15:11:58Z</time>
      </trkpt>
      <trkpt lat="44.36413" lon="3.75093">
        <ele>962.416992</ele>
        <time>2013-08-05T15:12:02Z</time>
      </trkpt>
      <trkpt lat="44.36408" lon="3.75071">
        <ele>960.975098</ele>
        <time>2013-08-05T15:12:12Z</time>
      </trkpt>
      <trkpt lat="44.36407" lon="3.75066">
        <ele>960.494385</ele>
        <time>2013-08-05T15:12:14Z</time>
      </trkpt>
      <trkpt lat="44.36405" lon="3.75057">
        <ele>960.013672</ele>
        <time>2013-08-05T15:12:18Z</time>
      </trkpt>
      <trkpt lat="44.36405" lon="3.75053">
        <ele>960.494385</ele>
        <time>2013-08-05T15:12:21Z</time>
      </trkpt>
      <trkpt lat="44.36403" lon="3.75042">
        <ele>959.533203</ele>
        <time>2013-08-05T15:12:26Z</time>
      </trkpt>
      <trkpt lat="44.364" lon="3.75017">
        <ele>957.129883</ele>
        <time>2013-08-05T15:12:42Z</time>
      </trkpt>
      <trkpt lat="44.364" lon="3.75007">
        <ele>956.64917</ele>
        <time>2013-08-05T15:12:51Z</time>
      </trkpt>
      <trkpt lat="44.36401" lon="3.74979">
        <ele>955.687744</ele>
        <time>2013-08-05T15:13:07Z</time>
      </trkpt>
      <trkpt lat="44.364" lon="3.74975">
        <ele>955.687744</ele>
        <time>2013-08-05T15:13:09Z</time>
      </trkpt>
      <trkpt lat="44.36404" lon="3.7495">
        <ele>953.765137</ele>
        <time>2013-08-05T15:13:25Z</time>
      </trkpt>
      <trkpt lat="44.36408" lon="3.74917">
        <ele>954.24585</ele>
        <time>2013-08-05T15:13:42Z</time>
      </trkpt>
      <trkpt lat="44.36408" lon="3.74913">
        <ele>953.284424</ele>
        <time>2013-08-05T15:13:45Z</time>
      </trkpt>
      <trkpt lat="44.36408" lon="3.74907">
        <ele>953.284424</ele>
        <time>2013-08-05T15:13:48Z</time>
      </trkpt>
      <trkpt lat="44.36408" lon="3.749">
        <ele>953.765137</ele>
        <time>2013-08-05T15:13:52Z</time>
      </trkpt>
      <trkpt lat="44.36406" lon="3.74872">
        <ele>952.803711</ele>
        <time>2013-08-05T15:14:07Z</time>
      </trkpt>
      <trkpt lat="44.36405" lon="3.74865">
        <ele>952.803711</ele>
        <time>2013-08-05T15:14:11Z</time>
      </trkpt>
      <trkpt lat="44.36406" lon="3.74862">
        <ele>952.322998</ele>
        <time>2013-08-05T15:14:13Z</time>
      </trkpt>
      <trkpt lat="44.36403" lon="3.74829">
        <ele>949.919922</ele>
        <time>2013-08-05T15:14:31Z</time>
      </trkpt>
      <trkpt lat="44.36404" lon="3.74797">
        <ele>947.516602</ele>
        <time>2013-08-05T15:14:49Z</time>
      </trkpt>
      <trkpt lat="44.36411" lon="3.74759">
        <ele>946.55542</ele>
        <time>2013-08-05T15:15:12Z</time>
      </trkpt>
      <trkpt lat="44.36414" lon="3.74727">
        <ele>946.074707</ele>
        <time>2013-08-05T15:15:28Z</time>
      </trkpt>
      <trkpt lat="44.36429" lon="3.74698">
        <ele>943.671387</ele>
        <time>2013-08-05T15:15:48Z</time>
      </trkpt>
      <trkpt lat="44.36444" lon="3.74681">
        <ele>940.787354</ele>
        <time>2013-08-05T15:16:04Z</time>
      </trkpt>
      <trkpt lat="44.3647" lon="3.74662">
        <ele>941.268066</ele>
        <time>2013-08-05T15:16:28Z</time>
      </trkpt>
      <trkpt lat="44.3649" lon="3.74657">
        <ele>939.825928</ele>
        <time>2013-08-05T15:16:45Z</time>
      </trkpt>
      <trkpt lat="44.36494" lon="3.74657">
        <ele>939.345215</ele>
        <time>2013-08-05T15:16:48Z</time>
      </trkpt>
      <trkpt lat="44.36507" lon="3.7466">
        <ele>938.384033</ele>
        <time>2013-08-05T15:16:56Z</time>
      </trkpt>
      <trkpt lat="44.36513" lon="3.74662">
        <ele>938.384033</ele>
        <time>2013-08-05T15:17:01Z</time>
      </trkpt>
      <trkpt lat="44.36514" lon="3.74657">
        <ele>935.5</ele>
        <time>2013-08-05T15:17:04Z</time>
      </trkpt>
      <trkpt lat="44.36513" lon="3.74655">
        <ele>935.019531</ele>
        <time>2013-08-05T15:17:06Z</time>
      </trkpt>
      <trkpt lat="44.36507" lon="3.74649">
        <ele>935.019531</ele>
        <time>2013-08-05T15:17:18Z</time>
      </trkpt>
      <trkpt lat="44.36507" lon="3.74649">
        <ele>934.538818</ele>
        <time>2013-08-05T15:17:22Z</time>
      </trkpt>
      <trkpt lat="44.36514" lon="3.74647">
        <ele>932.616211</ele>
        <time>2013-08-05T15:17:35Z</time>
      </trkpt>
      <trkpt lat="44.36521" lon="3.74647">
        <ele>931.654785</ele>
        <time>2013-08-05T15:17:44Z</time>
      </trkpt>
      <trkpt lat="44.36524" lon="3.74644">
        <ele>932.135498</ele>
        <time>2013-08-05T15:17:50Z</time>
      </trkpt>
      <trkpt lat="44.36523" lon="3.74638">
        <ele>929.732178</ele>
        <time>2013-08-05T15:17:53Z</time>
      </trkpt>
      <trkpt lat="44.36529" lon="3.74631">
        <ele>925.886963</ele>
        <time>2013-08-05T15:18:01Z</time>
      </trkpt>
      <trkpt lat="44.36535" lon="3.74626">
        <ele>924.445068</ele>
        <time>2013-08-05T15:18:11Z</time>
      </trkpt>
      <trkpt lat="44.36528" lon="3.74618">
        <ele>923.00293</ele>
        <time>2013-08-05T15:18:22Z</time>
      </trkpt>
      <trkpt lat="44.36523" lon="3.74613">
        <ele>922.041504</ele>
        <time>2013-08-05T15:18:30Z</time>
      </trkpt>
      <trkpt lat="44.3652" lon="3.74609">
        <ele>921.080322</ele>
        <time>2013-08-05T15:18:34Z</time>
      </trkpt>
      <trkpt lat="44.36506" lon="3.74596">
        <ele>920.599609</ele>
        <time>2013-08-05T15:18:46Z</time>
      </trkpt>
      <trkpt lat="44.36501" lon="3.74589">
        <ele>920.599609</ele>
        <time>2013-08-05T15:19:00Z</time>
      </trkpt>
      <trkpt lat="44.36483" lon="3.74575">
        <ele>919.157715</ele>
        <time>2013-08-05T15:19:16Z</time>
      </trkpt>
      <trkpt lat="44.36468" lon="3.74561">
        <ele>917.235107</ele>
        <time>2013-08-05T15:19:30Z</time>
      </trkpt>
      <trkpt lat="44.36456" lon="3.74549">
        <ele>916.754395</ele>
        <time>2013-08-05T15:19:42Z</time>
      </trkpt>
      <trkpt lat="44.36449" lon="3.74541">
        <ele>915.793213</ele>
        <time>2013-08-05T15:19:52Z</time>
      </trkpt>
      <trkpt lat="44.36445" lon="3.74539">
        <ele>914.831787</ele>
        <time>2013-08-05T15:19:59Z</time>
      </trkpt>
      <trkpt lat="44.36436" lon="3.7454">
        <ele>914.351074</ele>
        <time>2013-08-05T15:20:07Z</time>
      </trkpt>
      <trkpt lat="44.36432" lon="3.74547">
        <ele>914.831787</ele>
        <time>2013-08-05T15:20:12Z</time>
      </trkpt>
      <trkpt lat="44.36425" lon="3.74551">
        <ele>915.3125</ele>
        <time>2013-08-05T15:20:17Z</time>
      </trkpt>
      <trkpt lat="44.36416" lon="3.74552">
        <ele>914.831787</ele>
        <time>2013-08-05T15:20:24Z</time>
      </trkpt>
      <trkpt lat="44.36402" lon="3.74546">
        <ele>913.389893</ele>
        <time>2013-08-05T15:20:36Z</time>
      </trkpt>
      <trkpt lat="44.36398" lon="3.74552">
        <ele>913.389893</ele>
        <time>2013-08-05T15:20:40Z</time>
      </trkpt>
      <trkpt lat="44.36389" lon="3.74576">
        <ele>912.90918</ele>
        <time>2013-08-05T15:20:55Z</time>
      </trkpt>
      <trkpt lat="44.36388" lon="3.74576">
        <ele>912.90918</ele>
        <time>2013-08-05T15:21:08Z</time>
      </trkpt>
      <trkpt lat="44.36383" lon="3.74576">
        <ele>912.428467</ele>
        <time>2013-08-05T15:21:57Z</time>
      </trkpt>
      <trkpt lat="44.36384" lon="3.74576">
        <ele>910.025146</ele>
        <time>2013-08-05T15:22:07Z</time>
      </trkpt>
    </trkseg>
  </trk>
</gpx>